<?xml version="1.0" encoding="UTF-8" standalone="no" ?>
<gpx xmlns="http://www.topografix.com/GPX/1/1" xmlns:xsi="http://www.w3.org/2001/XMLSchema-instance" xsi:schemaLocation="http://www.topografix.com/GPX/1/1 http://www.topografix.com/GPX/1/1/gpx.xsd" version="1.1" creator="VisuGPX - https://www.visugpx.com">
  <metadata>
    <name>2018-03-18 Bike ride-Amberieux-Savigneux O 33k</name>
    <desc><![CDATA[2018-03-18 Bike ride-Amberieux-Savigneux O 33k]]></desc>
  </metadata>
  <wpt lat="45.92456" lon="4.73711">
    <ele>174</ele>
    <name><![CDATA[2018-03-18 10:46 (Start)]]></name>
  </wpt>
  <wpt lat="45.92464" lon="4.73714">
    <ele>174</ele>
    <name><![CDATA[2018-03-18 10:46 (End)]]></name>
  </wpt>
  <trk>
    <name><![CDATA[2018-03-18 10:46]]></name>
    <trkseg>
      <trkpt lat="45.92456" lon="4.73711">
        <ele>174</ele>
        <time>2018-03-18T09:46:39.42Z</time>
      </trkpt>
      <trkpt lat="45.92458" lon="4.73708">
        <ele>174</ele>
        <time>2018-03-18T09:46:51Z</time>
      </trkpt>
      <trkpt lat="45.92458" lon="4.73707">
        <ele>174</ele>
        <time>2018-03-18T09:46:52Z</time>
      </trkpt>
      <trkpt lat="45.92458" lon="4.73707">
        <ele>174</ele>
        <time>2018-03-18T09:46:53Z</time>
      </trkpt>
      <trkpt lat="45.92458" lon="4.73707">
        <ele>174</ele>
        <time>2018-03-18T09:46:54Z</time>
      </trkpt>
      <trkpt lat="45.92465" lon="4.73701">
        <ele>174</ele>
        <time>2018-03-18T09:47:06Z</time>
      </trkpt>
      <trkpt lat="45.92466" lon="4.73698">
        <ele>174</ele>
        <time>2018-03-18T09:47:07Z</time>
      </trkpt>
      <trkpt lat="45.92468" lon="4.73688">
        <ele>174</ele>
        <time>2018-03-18T09:47:10Z</time>
      </trkpt>
      <trkpt lat="45.92469" lon="4.73685">
        <ele>174</ele>
        <time>2018-03-18T09:47:11Z</time>
      </trkpt>
      <trkpt lat="45.9247" lon="4.73674">
        <ele>174</ele>
        <time>2018-03-18T09:47:14Z</time>
      </trkpt>
      <trkpt lat="45.92471" lon="4.7367">
        <ele>174</ele>
        <time>2018-03-18T09:47:15Z</time>
      </trkpt>
      <trkpt lat="45.92474" lon="4.73658">
        <ele>174</ele>
        <time>2018-03-18T09:47:18Z</time>
      </trkpt>
      <trkpt lat="45.92474" lon="4.73654">
        <ele>174</ele>
        <time>2018-03-18T09:47:19Z</time>
      </trkpt>
      <trkpt lat="45.92477" lon="4.73643">
        <ele>174</ele>
        <time>2018-03-18T09:47:22Z</time>
      </trkpt>
      <trkpt lat="45.92479" lon="4.73641">
        <ele>174</ele>
        <time>2018-03-18T09:47:23Z</time>
      </trkpt>
      <trkpt lat="45.92488" lon="4.73638">
        <ele>174</ele>
        <time>2018-03-18T09:47:26Z</time>
      </trkpt>
      <trkpt lat="45.92496" lon="4.73638">
        <ele>174</ele>
        <time>2018-03-18T09:47:27Z</time>
      </trkpt>
      <trkpt lat="45.92502" lon="4.73639">
        <ele>174</ele>
        <time>2018-03-18T09:47:30Z</time>
      </trkpt>
      <trkpt lat="45.9251" lon="4.73639">
        <ele>174</ele>
        <time>2018-03-18T09:47:31Z</time>
      </trkpt>
      <trkpt lat="45.92518" lon="4.73638">
        <ele>173</ele>
        <time>2018-03-18T09:47:33Z</time>
      </trkpt>
      <trkpt lat="45.92523" lon="4.73637">
        <ele>173</ele>
        <time>2018-03-18T09:47:34Z</time>
      </trkpt>
      <trkpt lat="45.92531" lon="4.73636">
        <ele>173</ele>
        <time>2018-03-18T09:47:36Z</time>
      </trkpt>
      <trkpt lat="45.92535" lon="4.73635">
        <ele>173</ele>
        <time>2018-03-18T09:47:37Z</time>
      </trkpt>
      <trkpt lat="45.92544" lon="4.73633">
        <ele>173</ele>
        <time>2018-03-18T09:47:39Z</time>
      </trkpt>
      <trkpt lat="45.92548" lon="4.73632">
        <ele>173</ele>
        <time>2018-03-18T09:47:40Z</time>
      </trkpt>
      <trkpt lat="45.92557" lon="4.7363">
        <ele>173</ele>
        <time>2018-03-18T09:47:42Z</time>
      </trkpt>
      <trkpt lat="45.92561" lon="4.73629">
        <ele>173</ele>
        <time>2018-03-18T09:47:43Z</time>
      </trkpt>
      <trkpt lat="45.92569" lon="4.73627">
        <ele>173</ele>
        <time>2018-03-18T09:47:45Z</time>
      </trkpt>
      <trkpt lat="45.92573" lon="4.73625">
        <ele>173</ele>
        <time>2018-03-18T09:47:46Z</time>
      </trkpt>
      <trkpt lat="45.92581" lon="4.73623">
        <ele>173</ele>
        <time>2018-03-18T09:47:48Z</time>
      </trkpt>
      <trkpt lat="45.92585" lon="4.73623">
        <ele>172</ele>
        <time>2018-03-18T09:47:49Z</time>
      </trkpt>
      <trkpt lat="45.92593" lon="4.73624">
        <ele>173</ele>
        <time>2018-03-18T09:47:51Z</time>
      </trkpt>
      <trkpt lat="45.92598" lon="4.73624">
        <ele>173</ele>
        <time>2018-03-18T09:47:52Z</time>
      </trkpt>
      <trkpt lat="45.92602" lon="4.73624">
        <ele>173</ele>
        <time>2018-03-18T09:47:53Z</time>
      </trkpt>
      <trkpt lat="45.92607" lon="4.73626">
        <ele>173</ele>
        <time>2018-03-18T09:47:54Z</time>
      </trkpt>
      <trkpt lat="45.92616" lon="4.73629">
        <ele>173</ele>
        <time>2018-03-18T09:47:56Z</time>
      </trkpt>
      <trkpt lat="45.9262" lon="4.73634">
        <ele>173</ele>
        <time>2018-03-18T09:47:57Z</time>
      </trkpt>
      <trkpt lat="45.92623" lon="4.73638">
        <ele>173</ele>
        <time>2018-03-18T09:47:58Z</time>
      </trkpt>
      <trkpt lat="45.92626" lon="4.73644">
        <ele>173</ele>
        <time>2018-03-18T09:47:59Z</time>
      </trkpt>
      <trkpt lat="45.92631" lon="4.73655">
        <ele>173</ele>
        <time>2018-03-18T09:48:01Z</time>
      </trkpt>
      <trkpt lat="45.92634" lon="4.73661">
        <ele>173</ele>
        <time>2018-03-18T09:48:02Z</time>
      </trkpt>
      <trkpt lat="45.92637" lon="4.73667">
        <ele>173</ele>
        <time>2018-03-18T09:48:03Z</time>
      </trkpt>
      <trkpt lat="45.9264" lon="4.73672">
        <ele>173</ele>
        <time>2018-03-18T09:48:04Z</time>
      </trkpt>
      <trkpt lat="45.92643" lon="4.73678">
        <ele>173</ele>
        <time>2018-03-18T09:48:05Z</time>
      </trkpt>
      <trkpt lat="45.92647" lon="4.73682">
        <ele>173</ele>
        <time>2018-03-18T09:48:06Z</time>
      </trkpt>
      <trkpt lat="45.92651" lon="4.73688">
        <ele>173</ele>
        <time>2018-03-18T09:48:07Z</time>
      </trkpt>
      <trkpt lat="45.92655" lon="4.73692">
        <ele>173</ele>
        <time>2018-03-18T09:48:08Z</time>
      </trkpt>
      <trkpt lat="45.92659" lon="4.73695">
        <ele>173</ele>
        <time>2018-03-18T09:48:09Z</time>
      </trkpt>
      <trkpt lat="45.92663" lon="4.73698">
        <ele>173</ele>
        <time>2018-03-18T09:48:10Z</time>
      </trkpt>
      <trkpt lat="45.92668" lon="4.73701">
        <ele>174</ele>
        <time>2018-03-18T09:48:11Z</time>
      </trkpt>
      <trkpt lat="45.92672" lon="4.73703">
        <ele>174</ele>
        <time>2018-03-18T09:48:12Z</time>
      </trkpt>
      <trkpt lat="45.92677" lon="4.73705">
        <ele>173</ele>
        <time>2018-03-18T09:48:13Z</time>
      </trkpt>
      <trkpt lat="45.92681" lon="4.73707">
        <ele>173</ele>
        <time>2018-03-18T09:48:14Z</time>
      </trkpt>
      <trkpt lat="45.92686" lon="4.73709">
        <ele>173</ele>
        <time>2018-03-18T09:48:15Z</time>
      </trkpt>
      <trkpt lat="45.92691" lon="4.7371">
        <ele>173</ele>
        <time>2018-03-18T09:48:16Z</time>
      </trkpt>
      <trkpt lat="45.92696" lon="4.73711">
        <ele>173</ele>
        <time>2018-03-18T09:48:17Z</time>
      </trkpt>
      <trkpt lat="45.927" lon="4.73711">
        <ele>173</ele>
        <time>2018-03-18T09:48:18Z</time>
      </trkpt>
      <trkpt lat="45.92706" lon="4.73713">
        <ele>173</ele>
        <time>2018-03-18T09:48:19Z</time>
      </trkpt>
      <trkpt lat="45.9271" lon="4.73714">
        <ele>173</ele>
        <time>2018-03-18T09:48:20Z</time>
      </trkpt>
      <trkpt lat="45.92715" lon="4.73716">
        <ele>173</ele>
        <time>2018-03-18T09:48:21Z</time>
      </trkpt>
      <trkpt lat="45.9272" lon="4.73717">
        <ele>173</ele>
        <time>2018-03-18T09:48:22Z</time>
      </trkpt>
      <trkpt lat="45.92725" lon="4.73718">
        <ele>173</ele>
        <time>2018-03-18T09:48:23Z</time>
      </trkpt>
      <trkpt lat="45.9273" lon="4.73719">
        <ele>173</ele>
        <time>2018-03-18T09:48:24Z</time>
      </trkpt>
      <trkpt lat="45.92735" lon="4.7372">
        <ele>173</ele>
        <time>2018-03-18T09:48:25Z</time>
      </trkpt>
      <trkpt lat="45.9274" lon="4.73722">
        <ele>173</ele>
        <time>2018-03-18T09:48:26Z</time>
      </trkpt>
      <trkpt lat="45.92745" lon="4.73723">
        <ele>173</ele>
        <time>2018-03-18T09:48:27Z</time>
      </trkpt>
      <trkpt lat="45.9275" lon="4.73725">
        <ele>172</ele>
        <time>2018-03-18T09:48:28Z</time>
      </trkpt>
      <trkpt lat="45.92755" lon="4.73726">
        <ele>172</ele>
        <time>2018-03-18T09:48:29Z</time>
      </trkpt>
      <trkpt lat="45.9276" lon="4.73728">
        <ele>172</ele>
        <time>2018-03-18T09:48:30Z</time>
      </trkpt>
      <trkpt lat="45.92768" lon="4.73729">
        <ele>172</ele>
        <time>2018-03-18T09:48:32Z</time>
      </trkpt>
      <trkpt lat="45.92772" lon="4.73731">
        <ele>172</ele>
        <time>2018-03-18T09:48:33Z</time>
      </trkpt>
      <trkpt lat="45.9278" lon="4.73735">
        <ele>172</ele>
        <time>2018-03-18T09:48:36Z</time>
      </trkpt>
      <trkpt lat="45.92781" lon="4.73737">
        <ele>172</ele>
        <time>2018-03-18T09:48:37Z</time>
      </trkpt>
      <trkpt lat="45.92783" lon="4.73742">
        <ele>172</ele>
        <time>2018-03-18T09:48:39Z</time>
      </trkpt>
      <trkpt lat="45.92788" lon="4.7375">
        <ele>172</ele>
        <time>2018-03-18T09:48:40Z</time>
      </trkpt>
      <trkpt lat="45.92797" lon="4.73754">
        <ele>173</ele>
        <time>2018-03-18T09:48:42Z</time>
      </trkpt>
      <trkpt lat="45.92802" lon="4.73758">
        <ele>173</ele>
        <time>2018-03-18T09:48:43Z</time>
      </trkpt>
      <trkpt lat="45.92807" lon="4.73761">
        <ele>173</ele>
        <time>2018-03-18T09:48:44Z</time>
      </trkpt>
      <trkpt lat="45.92812" lon="4.73764">
        <ele>173</ele>
        <time>2018-03-18T09:48:45Z</time>
      </trkpt>
      <trkpt lat="45.92817" lon="4.73766">
        <ele>173</ele>
        <time>2018-03-18T09:48:46Z</time>
      </trkpt>
      <trkpt lat="45.92822" lon="4.7377">
        <ele>173</ele>
        <time>2018-03-18T09:48:47Z</time>
      </trkpt>
      <trkpt lat="45.92827" lon="4.73774">
        <ele>173</ele>
        <time>2018-03-18T09:48:48Z</time>
      </trkpt>
      <trkpt lat="45.92832" lon="4.73778">
        <ele>173</ele>
        <time>2018-03-18T09:48:49Z</time>
      </trkpt>
      <trkpt lat="45.92836" lon="4.73783">
        <ele>173</ele>
        <time>2018-03-18T09:48:50Z</time>
      </trkpt>
      <trkpt lat="45.92841" lon="4.73787">
        <ele>173</ele>
        <time>2018-03-18T09:48:51Z</time>
      </trkpt>
      <trkpt lat="45.92846" lon="4.73791">
        <ele>173</ele>
        <time>2018-03-18T09:48:52Z</time>
      </trkpt>
      <trkpt lat="45.92851" lon="4.73794">
        <ele>173</ele>
        <time>2018-03-18T09:48:53Z</time>
      </trkpt>
      <trkpt lat="45.92855" lon="4.73799">
        <ele>173</ele>
        <time>2018-03-18T09:48:54Z</time>
      </trkpt>
      <trkpt lat="45.92858" lon="4.73804">
        <ele>173</ele>
        <time>2018-03-18T09:48:55Z</time>
      </trkpt>
      <trkpt lat="45.9286" lon="4.73812">
        <ele>173</ele>
        <time>2018-03-18T09:48:56Z</time>
      </trkpt>
      <trkpt lat="45.92862" lon="4.7382">
        <ele>173</ele>
        <time>2018-03-18T09:48:57Z</time>
      </trkpt>
      <trkpt lat="45.92863" lon="4.73827">
        <ele>173</ele>
        <time>2018-03-18T09:48:58Z</time>
      </trkpt>
      <trkpt lat="45.92865" lon="4.73835">
        <ele>173</ele>
        <time>2018-03-18T09:48:59Z</time>
      </trkpt>
      <trkpt lat="45.92868" lon="4.73842">
        <ele>173</ele>
        <time>2018-03-18T09:49:00Z</time>
      </trkpt>
      <trkpt lat="45.9287" lon="4.73849">
        <ele>173</ele>
        <time>2018-03-18T09:49:01Z</time>
      </trkpt>
      <trkpt lat="45.92872" lon="4.73856">
        <ele>173</ele>
        <time>2018-03-18T09:49:02Z</time>
      </trkpt>
      <trkpt lat="45.92875" lon="4.73866">
        <ele>173</ele>
        <time>2018-03-18T09:49:03Z</time>
      </trkpt>
      <trkpt lat="45.92876" lon="4.73871">
        <ele>173</ele>
        <time>2018-03-18T09:49:04Z</time>
      </trkpt>
      <trkpt lat="45.92878" lon="4.73879">
        <ele>173</ele>
        <time>2018-03-18T09:49:05Z</time>
      </trkpt>
      <trkpt lat="45.9288" lon="4.73887">
        <ele>173</ele>
        <time>2018-03-18T09:49:06Z</time>
      </trkpt>
      <trkpt lat="45.92882" lon="4.73894">
        <ele>173</ele>
        <time>2018-03-18T09:49:07Z</time>
      </trkpt>
      <trkpt lat="45.92882" lon="4.73901">
        <ele>173</ele>
        <time>2018-03-18T09:49:08Z</time>
      </trkpt>
      <trkpt lat="45.92884" lon="4.73908">
        <ele>173</ele>
        <time>2018-03-18T09:49:09Z</time>
      </trkpt>
      <trkpt lat="45.92884" lon="4.73916">
        <ele>173</ele>
        <time>2018-03-18T09:49:10Z</time>
      </trkpt>
      <trkpt lat="45.92885" lon="4.73923">
        <ele>172</ele>
        <time>2018-03-18T09:49:11Z</time>
      </trkpt>
      <trkpt lat="45.92885" lon="4.73931">
        <ele>172</ele>
        <time>2018-03-18T09:49:12Z</time>
      </trkpt>
      <trkpt lat="45.92886" lon="4.73938">
        <ele>172</ele>
        <time>2018-03-18T09:49:13Z</time>
      </trkpt>
      <trkpt lat="45.92886" lon="4.73945">
        <ele>172</ele>
        <time>2018-03-18T09:49:14Z</time>
      </trkpt>
      <trkpt lat="45.92886" lon="4.73951">
        <ele>172</ele>
        <time>2018-03-18T09:49:15Z</time>
      </trkpt>
      <trkpt lat="45.92886" lon="4.73958">
        <ele>172</ele>
        <time>2018-03-18T09:49:16Z</time>
      </trkpt>
      <trkpt lat="45.92886" lon="4.73967">
        <ele>172</ele>
        <time>2018-03-18T09:49:17Z</time>
      </trkpt>
      <trkpt lat="45.92886" lon="4.73975">
        <ele>172</ele>
        <time>2018-03-18T09:49:18Z</time>
      </trkpt>
      <trkpt lat="45.92884" lon="4.73982">
        <ele>172</ele>
        <time>2018-03-18T09:49:19Z</time>
      </trkpt>
      <trkpt lat="45.92881" lon="4.73988">
        <ele>172</ele>
        <time>2018-03-18T09:49:20Z</time>
      </trkpt>
      <trkpt lat="45.92879" lon="4.73996">
        <ele>172</ele>
        <time>2018-03-18T09:49:21Z</time>
      </trkpt>
      <trkpt lat="45.92878" lon="4.74003">
        <ele>172</ele>
        <time>2018-03-18T09:49:22Z</time>
      </trkpt>
      <trkpt lat="45.92877" lon="4.74009">
        <ele>172</ele>
        <time>2018-03-18T09:49:23Z</time>
      </trkpt>
      <trkpt lat="45.92875" lon="4.74016">
        <ele>172</ele>
        <time>2018-03-18T09:49:24Z</time>
      </trkpt>
      <trkpt lat="45.92872" lon="4.74024">
        <ele>172</ele>
        <time>2018-03-18T09:49:25Z</time>
      </trkpt>
      <trkpt lat="45.92871" lon="4.74033">
        <ele>172</ele>
        <time>2018-03-18T09:49:26Z</time>
      </trkpt>
      <trkpt lat="45.92869" lon="4.74041">
        <ele>172</ele>
        <time>2018-03-18T09:49:27Z</time>
      </trkpt>
      <trkpt lat="45.92866" lon="4.74047">
        <ele>172</ele>
        <time>2018-03-18T09:49:28Z</time>
      </trkpt>
      <trkpt lat="45.92862" lon="4.74052">
        <ele>172</ele>
        <time>2018-03-18T09:49:29Z</time>
      </trkpt>
      <trkpt lat="45.92858" lon="4.74059">
        <ele>172</ele>
        <time>2018-03-18T09:49:30Z</time>
      </trkpt>
      <trkpt lat="45.92853" lon="4.74064">
        <ele>172</ele>
        <time>2018-03-18T09:49:31Z</time>
      </trkpt>
      <trkpt lat="45.92848" lon="4.74069">
        <ele>172</ele>
        <time>2018-03-18T09:49:32Z</time>
      </trkpt>
      <trkpt lat="45.92844" lon="4.74075">
        <ele>172</ele>
        <time>2018-03-18T09:49:33Z</time>
      </trkpt>
      <trkpt lat="45.92839" lon="4.74081">
        <ele>171</ele>
        <time>2018-03-18T09:49:34Z</time>
      </trkpt>
      <trkpt lat="45.92833" lon="4.74087">
        <ele>171</ele>
        <time>2018-03-18T09:49:35Z</time>
      </trkpt>
      <trkpt lat="45.92828" lon="4.74092">
        <ele>171</ele>
        <time>2018-03-18T09:49:36Z</time>
      </trkpt>
      <trkpt lat="45.92823" lon="4.74097">
        <ele>171</ele>
        <time>2018-03-18T09:49:37Z</time>
      </trkpt>
      <trkpt lat="45.92818" lon="4.74103">
        <ele>171</ele>
        <time>2018-03-18T09:49:38Z</time>
      </trkpt>
      <trkpt lat="45.92813" lon="4.74109">
        <ele>172</ele>
        <time>2018-03-18T09:49:39Z</time>
      </trkpt>
      <trkpt lat="45.92807" lon="4.74115">
        <ele>172</ele>
        <time>2018-03-18T09:49:40Z</time>
      </trkpt>
      <trkpt lat="45.92803" lon="4.74121">
        <ele>172</ele>
        <time>2018-03-18T09:49:41Z</time>
      </trkpt>
      <trkpt lat="45.92797" lon="4.74126">
        <ele>172</ele>
        <time>2018-03-18T09:49:42Z</time>
      </trkpt>
      <trkpt lat="45.92791" lon="4.74132">
        <ele>172</ele>
        <time>2018-03-18T09:49:43Z</time>
      </trkpt>
      <trkpt lat="45.92786" lon="4.74137">
        <ele>172</ele>
        <time>2018-03-18T09:49:44Z</time>
      </trkpt>
      <trkpt lat="45.92781" lon="4.74142">
        <ele>172</ele>
        <time>2018-03-18T09:49:45Z</time>
      </trkpt>
      <trkpt lat="45.92776" lon="4.74147">
        <ele>172</ele>
        <time>2018-03-18T09:49:46Z</time>
      </trkpt>
      <trkpt lat="45.92772" lon="4.74152">
        <ele>172</ele>
        <time>2018-03-18T09:49:47Z</time>
      </trkpt>
      <trkpt lat="45.92766" lon="4.74157">
        <ele>172</ele>
        <time>2018-03-18T09:49:48Z</time>
      </trkpt>
      <trkpt lat="45.92761" lon="4.74162">
        <ele>172</ele>
        <time>2018-03-18T09:49:49Z</time>
      </trkpt>
      <trkpt lat="45.92756" lon="4.74167">
        <ele>172</ele>
        <time>2018-03-18T09:49:50Z</time>
      </trkpt>
      <trkpt lat="45.92751" lon="4.74173">
        <ele>172</ele>
        <time>2018-03-18T09:49:51Z</time>
      </trkpt>
      <trkpt lat="45.92747" lon="4.74179">
        <ele>172</ele>
        <time>2018-03-18T09:49:52Z</time>
      </trkpt>
      <trkpt lat="45.92742" lon="4.74184">
        <ele>172</ele>
        <time>2018-03-18T09:49:53Z</time>
      </trkpt>
      <trkpt lat="45.92738" lon="4.74191">
        <ele>171</ele>
        <time>2018-03-18T09:49:54Z</time>
      </trkpt>
      <trkpt lat="45.92733" lon="4.74197">
        <ele>171</ele>
        <time>2018-03-18T09:49:55Z</time>
      </trkpt>
      <trkpt lat="45.92729" lon="4.74203">
        <ele>171</ele>
        <time>2018-03-18T09:49:56Z</time>
      </trkpt>
      <trkpt lat="45.92725" lon="4.74209">
        <ele>171</ele>
        <time>2018-03-18T09:49:57Z</time>
      </trkpt>
      <trkpt lat="45.92721" lon="4.74215">
        <ele>171</ele>
        <time>2018-03-18T09:49:58Z</time>
      </trkpt>
      <trkpt lat="45.92717" lon="4.74222">
        <ele>171</ele>
        <time>2018-03-18T09:49:59Z</time>
      </trkpt>
      <trkpt lat="45.92713" lon="4.74228">
        <ele>171</ele>
        <time>2018-03-18T09:50:00Z</time>
      </trkpt>
      <trkpt lat="45.92709" lon="4.74236">
        <ele>171</ele>
        <time>2018-03-18T09:50:01Z</time>
      </trkpt>
      <trkpt lat="45.92705" lon="4.74242">
        <ele>171</ele>
        <time>2018-03-18T09:50:02Z</time>
      </trkpt>
      <trkpt lat="45.92701" lon="4.74249">
        <ele>171</ele>
        <time>2018-03-18T09:50:03Z</time>
      </trkpt>
      <trkpt lat="45.92696" lon="4.74255">
        <ele>171</ele>
        <time>2018-03-18T09:50:04Z</time>
      </trkpt>
      <trkpt lat="45.92691" lon="4.74262">
        <ele>171</ele>
        <time>2018-03-18T09:50:05Z</time>
      </trkpt>
      <trkpt lat="45.92688" lon="4.74268">
        <ele>171</ele>
        <time>2018-03-18T09:50:06Z</time>
      </trkpt>
      <trkpt lat="45.92683" lon="4.74276">
        <ele>171</ele>
        <time>2018-03-18T09:50:07Z</time>
      </trkpt>
      <trkpt lat="45.92678" lon="4.74283">
        <ele>171</ele>
        <time>2018-03-18T09:50:08Z</time>
      </trkpt>
      <trkpt lat="45.92674" lon="4.7429">
        <ele>171</ele>
        <time>2018-03-18T09:50:09Z</time>
      </trkpt>
      <trkpt lat="45.9267" lon="4.74298">
        <ele>171</ele>
        <time>2018-03-18T09:50:10Z</time>
      </trkpt>
      <trkpt lat="45.92666" lon="4.74306">
        <ele>171</ele>
        <time>2018-03-18T09:50:11Z</time>
      </trkpt>
      <trkpt lat="45.92662" lon="4.74313">
        <ele>171</ele>
        <time>2018-03-18T09:50:12Z</time>
      </trkpt>
      <trkpt lat="45.92658" lon="4.7432">
        <ele>171</ele>
        <time>2018-03-18T09:50:13Z</time>
      </trkpt>
      <trkpt lat="45.92654" lon="4.74327">
        <ele>171</ele>
        <time>2018-03-18T09:50:14Z</time>
      </trkpt>
      <trkpt lat="45.9265" lon="4.74334">
        <ele>171</ele>
        <time>2018-03-18T09:50:15Z</time>
      </trkpt>
      <trkpt lat="45.92646" lon="4.74342">
        <ele>171</ele>
        <time>2018-03-18T09:50:16Z</time>
      </trkpt>
      <trkpt lat="45.92642" lon="4.74349">
        <ele>171</ele>
        <time>2018-03-18T09:50:17Z</time>
      </trkpt>
      <trkpt lat="45.92638" lon="4.74357">
        <ele>171</ele>
        <time>2018-03-18T09:50:18Z</time>
      </trkpt>
      <trkpt lat="45.92634" lon="4.74365">
        <ele>171</ele>
        <time>2018-03-18T09:50:19Z</time>
      </trkpt>
      <trkpt lat="45.9263" lon="4.74372">
        <ele>171</ele>
        <time>2018-03-18T09:50:20Z</time>
      </trkpt>
      <trkpt lat="45.92626" lon="4.7438">
        <ele>170</ele>
        <time>2018-03-18T09:50:21Z</time>
      </trkpt>
      <trkpt lat="45.92622" lon="4.74387">
        <ele>170</ele>
        <time>2018-03-18T09:50:22Z</time>
      </trkpt>
      <trkpt lat="45.92618" lon="4.74395">
        <ele>170</ele>
        <time>2018-03-18T09:50:23Z</time>
      </trkpt>
      <trkpt lat="45.92614" lon="4.74403">
        <ele>170</ele>
        <time>2018-03-18T09:50:24Z</time>
      </trkpt>
      <trkpt lat="45.92608" lon="4.7441">
        <ele>170</ele>
        <time>2018-03-18T09:50:25Z</time>
      </trkpt>
      <trkpt lat="45.92604" lon="4.74417">
        <ele>170</ele>
        <time>2018-03-18T09:50:26Z</time>
      </trkpt>
      <trkpt lat="45.92601" lon="4.74424">
        <ele>170</ele>
        <time>2018-03-18T09:50:27Z</time>
      </trkpt>
      <trkpt lat="45.92596" lon="4.74431">
        <ele>170</ele>
        <time>2018-03-18T09:50:28Z</time>
      </trkpt>
      <trkpt lat="45.92593" lon="4.74439">
        <ele>170</ele>
        <time>2018-03-18T09:50:29Z</time>
      </trkpt>
      <trkpt lat="45.92589" lon="4.74447">
        <ele>170</ele>
        <time>2018-03-18T09:50:30Z</time>
      </trkpt>
      <trkpt lat="45.92585" lon="4.74454">
        <ele>170</ele>
        <time>2018-03-18T09:50:31Z</time>
      </trkpt>
      <trkpt lat="45.9258" lon="4.74462">
        <ele>170</ele>
        <time>2018-03-18T09:50:32Z</time>
      </trkpt>
      <trkpt lat="45.92576" lon="4.7447">
        <ele>170</ele>
        <time>2018-03-18T09:50:33Z</time>
      </trkpt>
      <trkpt lat="45.9257" lon="4.74477">
        <ele>170</ele>
        <time>2018-03-18T09:50:34Z</time>
      </trkpt>
      <trkpt lat="45.92566" lon="4.74485">
        <ele>170</ele>
        <time>2018-03-18T09:50:35Z</time>
      </trkpt>
      <trkpt lat="45.92562" lon="4.74492">
        <ele>170</ele>
        <time>2018-03-18T09:50:36Z</time>
      </trkpt>
      <trkpt lat="45.92558" lon="4.745">
        <ele>170</ele>
        <time>2018-03-18T09:50:37Z</time>
      </trkpt>
      <trkpt lat="45.92555" lon="4.74508">
        <ele>170</ele>
        <time>2018-03-18T09:50:38Z</time>
      </trkpt>
      <trkpt lat="45.9255" lon="4.74516">
        <ele>170</ele>
        <time>2018-03-18T09:50:39Z</time>
      </trkpt>
      <trkpt lat="45.92547" lon="4.74523">
        <ele>170</ele>
        <time>2018-03-18T09:50:40Z</time>
      </trkpt>
      <trkpt lat="45.92543" lon="4.7453">
        <ele>170</ele>
        <time>2018-03-18T09:50:41Z</time>
      </trkpt>
      <trkpt lat="45.92539" lon="4.74538">
        <ele>171</ele>
        <time>2018-03-18T09:50:42Z</time>
      </trkpt>
      <trkpt lat="45.92534" lon="4.74545">
        <ele>171</ele>
        <time>2018-03-18T09:50:43Z</time>
      </trkpt>
      <trkpt lat="45.9253" lon="4.74552">
        <ele>171</ele>
        <time>2018-03-18T09:50:44Z</time>
      </trkpt>
      <trkpt lat="45.92525" lon="4.74559">
        <ele>171</ele>
        <time>2018-03-18T09:50:45Z</time>
      </trkpt>
      <trkpt lat="45.9252" lon="4.74565">
        <ele>171</ele>
        <time>2018-03-18T09:50:46Z</time>
      </trkpt>
      <trkpt lat="45.92515" lon="4.74571">
        <ele>171</ele>
        <time>2018-03-18T09:50:47Z</time>
      </trkpt>
      <trkpt lat="45.9251" lon="4.74577">
        <ele>171</ele>
        <time>2018-03-18T09:50:48Z</time>
      </trkpt>
      <trkpt lat="45.92505" lon="4.74583">
        <ele>171</ele>
        <time>2018-03-18T09:50:49Z</time>
      </trkpt>
      <trkpt lat="45.925" lon="4.74588">
        <ele>171</ele>
        <time>2018-03-18T09:50:50Z</time>
      </trkpt>
      <trkpt lat="45.92496" lon="4.74594">
        <ele>171</ele>
        <time>2018-03-18T09:50:51Z</time>
      </trkpt>
      <trkpt lat="45.92491" lon="4.746">
        <ele>171</ele>
        <time>2018-03-18T09:50:52Z</time>
      </trkpt>
      <trkpt lat="45.92486" lon="4.74606">
        <ele>171</ele>
        <time>2018-03-18T09:50:53Z</time>
      </trkpt>
      <trkpt lat="45.92482" lon="4.74611">
        <ele>171</ele>
        <time>2018-03-18T09:50:54Z</time>
      </trkpt>
      <trkpt lat="45.92478" lon="4.74618">
        <ele>171</ele>
        <time>2018-03-18T09:50:55Z</time>
      </trkpt>
      <trkpt lat="45.92474" lon="4.74624">
        <ele>171</ele>
        <time>2018-03-18T09:50:56Z</time>
      </trkpt>
      <trkpt lat="45.92469" lon="4.74631">
        <ele>171</ele>
        <time>2018-03-18T09:50:57Z</time>
      </trkpt>
      <trkpt lat="45.92465" lon="4.74638">
        <ele>171</ele>
        <time>2018-03-18T09:50:58Z</time>
      </trkpt>
      <trkpt lat="45.92461" lon="4.74645">
        <ele>171</ele>
        <time>2018-03-18T09:50:59Z</time>
      </trkpt>
      <trkpt lat="45.92457" lon="4.74652">
        <ele>171</ele>
        <time>2018-03-18T09:51:00Z</time>
      </trkpt>
      <trkpt lat="45.92453" lon="4.74658">
        <ele>171</ele>
        <time>2018-03-18T09:51:01Z</time>
      </trkpt>
      <trkpt lat="45.9245" lon="4.74665">
        <ele>171</ele>
        <time>2018-03-18T09:51:02Z</time>
      </trkpt>
      <trkpt lat="45.92448" lon="4.74673">
        <ele>171</ele>
        <time>2018-03-18T09:51:03Z</time>
      </trkpt>
      <trkpt lat="45.92444" lon="4.7468">
        <ele>171</ele>
        <time>2018-03-18T09:51:04Z</time>
      </trkpt>
      <trkpt lat="45.92441" lon="4.74688">
        <ele>171</ele>
        <time>2018-03-18T09:51:05Z</time>
      </trkpt>
      <trkpt lat="45.92437" lon="4.74697">
        <ele>171</ele>
        <time>2018-03-18T09:51:06Z</time>
      </trkpt>
      <trkpt lat="45.92434" lon="4.74705">
        <ele>171</ele>
        <time>2018-03-18T09:51:07Z</time>
      </trkpt>
      <trkpt lat="45.92431" lon="4.74714">
        <ele>171</ele>
        <time>2018-03-18T09:51:08Z</time>
      </trkpt>
      <trkpt lat="45.92428" lon="4.74722">
        <ele>171</ele>
        <time>2018-03-18T09:51:09Z</time>
      </trkpt>
      <trkpt lat="45.92424" lon="4.74732">
        <ele>171</ele>
        <time>2018-03-18T09:51:10Z</time>
      </trkpt>
      <trkpt lat="45.92422" lon="4.74741">
        <ele>172</ele>
        <time>2018-03-18T09:51:11Z</time>
      </trkpt>
      <trkpt lat="45.9242" lon="4.7475">
        <ele>172</ele>
        <time>2018-03-18T09:51:12Z</time>
      </trkpt>
      <trkpt lat="45.92417" lon="4.7476">
        <ele>172</ele>
        <time>2018-03-18T09:51:13Z</time>
      </trkpt>
      <trkpt lat="45.92416" lon="4.74769">
        <ele>172</ele>
        <time>2018-03-18T09:51:14Z</time>
      </trkpt>
      <trkpt lat="45.92413" lon="4.74779">
        <ele>171</ele>
        <time>2018-03-18T09:51:15Z</time>
      </trkpt>
      <trkpt lat="45.92412" lon="4.74788">
        <ele>171</ele>
        <time>2018-03-18T09:51:16Z</time>
      </trkpt>
      <trkpt lat="45.92408" lon="4.74797">
        <ele>171</ele>
        <time>2018-03-18T09:51:17Z</time>
      </trkpt>
      <trkpt lat="45.92407" lon="4.74806">
        <ele>171</ele>
        <time>2018-03-18T09:51:18Z</time>
      </trkpt>
      <trkpt lat="45.92405" lon="4.74815">
        <ele>171</ele>
        <time>2018-03-18T09:51:19Z</time>
      </trkpt>
      <trkpt lat="45.92403" lon="4.74824">
        <ele>171</ele>
        <time>2018-03-18T09:51:20Z</time>
      </trkpt>
      <trkpt lat="45.92399" lon="4.74832">
        <ele>171</ele>
        <time>2018-03-18T09:51:21Z</time>
      </trkpt>
      <trkpt lat="45.92397" lon="4.74842">
        <ele>171</ele>
        <time>2018-03-18T09:51:22Z</time>
      </trkpt>
      <trkpt lat="45.92395" lon="4.74852">
        <ele>171</ele>
        <time>2018-03-18T09:51:23Z</time>
      </trkpt>
      <trkpt lat="45.92392" lon="4.74862">
        <ele>171</ele>
        <time>2018-03-18T09:51:24Z</time>
      </trkpt>
      <trkpt lat="45.92389" lon="4.7487">
        <ele>171</ele>
        <time>2018-03-18T09:51:25Z</time>
      </trkpt>
      <trkpt lat="45.92385" lon="4.74878">
        <ele>171</ele>
        <time>2018-03-18T09:51:26Z</time>
      </trkpt>
      <trkpt lat="45.92381" lon="4.74887">
        <ele>171</ele>
        <time>2018-03-18T09:51:27Z</time>
      </trkpt>
      <trkpt lat="45.92377" lon="4.74895">
        <ele>171</ele>
        <time>2018-03-18T09:51:28Z</time>
      </trkpt>
      <trkpt lat="45.92375" lon="4.74903">
        <ele>171</ele>
        <time>2018-03-18T09:51:29Z</time>
      </trkpt>
      <trkpt lat="45.92371" lon="4.74911">
        <ele>171</ele>
        <time>2018-03-18T09:51:30Z</time>
      </trkpt>
      <trkpt lat="45.92368" lon="4.74919">
        <ele>170</ele>
        <time>2018-03-18T09:51:31Z</time>
      </trkpt>
      <trkpt lat="45.92365" lon="4.74927">
        <ele>170</ele>
        <time>2018-03-18T09:51:32Z</time>
      </trkpt>
      <trkpt lat="45.92361" lon="4.74937">
        <ele>170</ele>
        <time>2018-03-18T09:51:33Z</time>
      </trkpt>
      <trkpt lat="45.92358" lon="4.74945">
        <ele>170</ele>
        <time>2018-03-18T09:51:34Z</time>
      </trkpt>
      <trkpt lat="45.92355" lon="4.74954">
        <ele>170</ele>
        <time>2018-03-18T09:51:35Z</time>
      </trkpt>
      <trkpt lat="45.92352" lon="4.74962">
        <ele>170</ele>
        <time>2018-03-18T09:51:36Z</time>
      </trkpt>
      <trkpt lat="45.92349" lon="4.74969">
        <ele>170</ele>
        <time>2018-03-18T09:51:37Z</time>
      </trkpt>
      <trkpt lat="45.92346" lon="4.74979">
        <ele>170</ele>
        <time>2018-03-18T09:51:38Z</time>
      </trkpt>
      <trkpt lat="45.92344" lon="4.74988">
        <ele>170</ele>
        <time>2018-03-18T09:51:39Z</time>
      </trkpt>
      <trkpt lat="45.92341" lon="4.74996">
        <ele>170</ele>
        <time>2018-03-18T09:51:40Z</time>
      </trkpt>
      <trkpt lat="45.92338" lon="4.75003">
        <ele>170</ele>
        <time>2018-03-18T09:51:41Z</time>
      </trkpt>
      <trkpt lat="45.92333" lon="4.75011">
        <ele>171</ele>
        <time>2018-03-18T09:51:42Z</time>
      </trkpt>
      <trkpt lat="45.9233" lon="4.75019">
        <ele>171</ele>
        <time>2018-03-18T09:51:43Z</time>
      </trkpt>
      <trkpt lat="45.92326" lon="4.75027">
        <ele>171</ele>
        <time>2018-03-18T09:51:44Z</time>
      </trkpt>
      <trkpt lat="45.9232" lon="4.75033">
        <ele>171</ele>
        <time>2018-03-18T09:51:45Z</time>
      </trkpt>
      <trkpt lat="45.92317" lon="4.75041">
        <ele>172</ele>
        <time>2018-03-18T09:51:46Z</time>
      </trkpt>
      <trkpt lat="45.92311" lon="4.75048">
        <ele>172</ele>
        <time>2018-03-18T09:51:47Z</time>
      </trkpt>
      <trkpt lat="45.92306" lon="4.75055">
        <ele>172</ele>
        <time>2018-03-18T09:51:48Z</time>
      </trkpt>
      <trkpt lat="45.92302" lon="4.75061">
        <ele>172</ele>
        <time>2018-03-18T09:51:49Z</time>
      </trkpt>
      <trkpt lat="45.92296" lon="4.75066">
        <ele>172</ele>
        <time>2018-03-18T09:51:50Z</time>
      </trkpt>
      <trkpt lat="45.92292" lon="4.75072">
        <ele>172</ele>
        <time>2018-03-18T09:51:51Z</time>
      </trkpt>
      <trkpt lat="45.92287" lon="4.75078">
        <ele>172</ele>
        <time>2018-03-18T09:51:52Z</time>
      </trkpt>
      <trkpt lat="45.92282" lon="4.75085">
        <ele>173</ele>
        <time>2018-03-18T09:51:53Z</time>
      </trkpt>
      <trkpt lat="45.92277" lon="4.7509">
        <ele>173</ele>
        <time>2018-03-18T09:51:54Z</time>
      </trkpt>
      <trkpt lat="45.92273" lon="4.75095">
        <ele>173</ele>
        <time>2018-03-18T09:51:55Z</time>
      </trkpt>
      <trkpt lat="45.92267" lon="4.75099">
        <ele>173</ele>
        <time>2018-03-18T09:51:56Z</time>
      </trkpt>
      <trkpt lat="45.92262" lon="4.75104">
        <ele>173</ele>
        <time>2018-03-18T09:51:57Z</time>
      </trkpt>
      <trkpt lat="45.92258" lon="4.75109">
        <ele>174</ele>
        <time>2018-03-18T09:51:58Z</time>
      </trkpt>
      <trkpt lat="45.92253" lon="4.75114">
        <ele>174</ele>
        <time>2018-03-18T09:51:59Z</time>
      </trkpt>
      <trkpt lat="45.92249" lon="4.75121">
        <ele>174</ele>
        <time>2018-03-18T09:52:00Z</time>
      </trkpt>
      <trkpt lat="45.92244" lon="4.75127">
        <ele>174</ele>
        <time>2018-03-18T09:52:01Z</time>
      </trkpt>
      <trkpt lat="45.9224" lon="4.75133">
        <ele>174</ele>
        <time>2018-03-18T09:52:02Z</time>
      </trkpt>
      <trkpt lat="45.92236" lon="4.75139">
        <ele>174</ele>
        <time>2018-03-18T09:52:03Z</time>
      </trkpt>
      <trkpt lat="45.92233" lon="4.75146">
        <ele>174</ele>
        <time>2018-03-18T09:52:04Z</time>
      </trkpt>
      <trkpt lat="45.92229" lon="4.75151">
        <ele>174</ele>
        <time>2018-03-18T09:52:05Z</time>
      </trkpt>
      <trkpt lat="45.92226" lon="4.75159">
        <ele>174</ele>
        <time>2018-03-18T09:52:06Z</time>
      </trkpt>
      <trkpt lat="45.92223" lon="4.75166">
        <ele>174</ele>
        <time>2018-03-18T09:52:07Z</time>
      </trkpt>
      <trkpt lat="45.92221" lon="4.75173">
        <ele>175</ele>
        <time>2018-03-18T09:52:08Z</time>
      </trkpt>
      <trkpt lat="45.92219" lon="4.75182">
        <ele>175</ele>
        <time>2018-03-18T09:52:09Z</time>
      </trkpt>
      <trkpt lat="45.92217" lon="4.7519">
        <ele>175</ele>
        <time>2018-03-18T09:52:10Z</time>
      </trkpt>
      <trkpt lat="45.92216" lon="4.75197">
        <ele>175</ele>
        <time>2018-03-18T09:52:11Z</time>
      </trkpt>
      <trkpt lat="45.92215" lon="4.75204">
        <ele>175</ele>
        <time>2018-03-18T09:52:12Z</time>
      </trkpt>
      <trkpt lat="45.92214" lon="4.75213">
        <ele>175</ele>
        <time>2018-03-18T09:52:13Z</time>
      </trkpt>
      <trkpt lat="45.92213" lon="4.7522">
        <ele>175</ele>
        <time>2018-03-18T09:52:14Z</time>
      </trkpt>
      <trkpt lat="45.92213" lon="4.75228">
        <ele>175</ele>
        <time>2018-03-18T09:52:15Z</time>
      </trkpt>
      <trkpt lat="45.92213" lon="4.75236">
        <ele>175</ele>
        <time>2018-03-18T09:52:16Z</time>
      </trkpt>
      <trkpt lat="45.92213" lon="4.75244">
        <ele>175</ele>
        <time>2018-03-18T09:52:17Z</time>
      </trkpt>
      <trkpt lat="45.92213" lon="4.75251">
        <ele>175</ele>
        <time>2018-03-18T09:52:18Z</time>
      </trkpt>
      <trkpt lat="45.92213" lon="4.75259">
        <ele>175</ele>
        <time>2018-03-18T09:52:19Z</time>
      </trkpt>
      <trkpt lat="45.92211" lon="4.75266">
        <ele>176</ele>
        <time>2018-03-18T09:52:20Z</time>
      </trkpt>
      <trkpt lat="45.92211" lon="4.75274">
        <ele>176</ele>
        <time>2018-03-18T09:52:21Z</time>
      </trkpt>
      <trkpt lat="45.92211" lon="4.75282">
        <ele>176</ele>
        <time>2018-03-18T09:52:22Z</time>
      </trkpt>
      <trkpt lat="45.9221" lon="4.7529">
        <ele>176</ele>
        <time>2018-03-18T09:52:23Z</time>
      </trkpt>
      <trkpt lat="45.92211" lon="4.75297">
        <ele>176</ele>
        <time>2018-03-18T09:52:24Z</time>
      </trkpt>
      <trkpt lat="45.92211" lon="4.75304">
        <ele>176</ele>
        <time>2018-03-18T09:52:25Z</time>
      </trkpt>
      <trkpt lat="45.92211" lon="4.75312">
        <ele>176</ele>
        <time>2018-03-18T09:52:26Z</time>
      </trkpt>
      <trkpt lat="45.92211" lon="4.7532">
        <ele>176</ele>
        <time>2018-03-18T09:52:27Z</time>
      </trkpt>
      <trkpt lat="45.9221" lon="4.75327">
        <ele>176</ele>
        <time>2018-03-18T09:52:28Z</time>
      </trkpt>
      <trkpt lat="45.92209" lon="4.75335">
        <ele>177</ele>
        <time>2018-03-18T09:52:29Z</time>
      </trkpt>
      <trkpt lat="45.92208" lon="4.75342">
        <ele>177</ele>
        <time>2018-03-18T09:52:30Z</time>
      </trkpt>
      <trkpt lat="45.92206" lon="4.75349">
        <ele>177</ele>
        <time>2018-03-18T09:52:31Z</time>
      </trkpt>
      <trkpt lat="45.92204" lon="4.75355">
        <ele>177</ele>
        <time>2018-03-18T09:52:32Z</time>
      </trkpt>
      <trkpt lat="45.92202" lon="4.75362">
        <ele>177</ele>
        <time>2018-03-18T09:52:33Z</time>
      </trkpt>
      <trkpt lat="45.922" lon="4.75368">
        <ele>177</ele>
        <time>2018-03-18T09:52:34Z</time>
      </trkpt>
      <trkpt lat="45.92197" lon="4.75375">
        <ele>177</ele>
        <time>2018-03-18T09:52:35Z</time>
      </trkpt>
      <trkpt lat="45.92195" lon="4.75381">
        <ele>177</ele>
        <time>2018-03-18T09:52:36Z</time>
      </trkpt>
      <trkpt lat="45.92192" lon="4.75387">
        <ele>177</ele>
        <time>2018-03-18T09:52:37Z</time>
      </trkpt>
      <trkpt lat="45.92189" lon="4.75393">
        <ele>177</ele>
        <time>2018-03-18T09:52:38Z</time>
      </trkpt>
      <trkpt lat="45.92186" lon="4.754">
        <ele>177</ele>
        <time>2018-03-18T09:52:39Z</time>
      </trkpt>
      <trkpt lat="45.92184" lon="4.75406">
        <ele>177</ele>
        <time>2018-03-18T09:52:40Z</time>
      </trkpt>
      <trkpt lat="45.92181" lon="4.75413">
        <ele>177</ele>
        <time>2018-03-18T09:52:41Z</time>
      </trkpt>
      <trkpt lat="45.92176" lon="4.75419">
        <ele>177</ele>
        <time>2018-03-18T09:52:42Z</time>
      </trkpt>
      <trkpt lat="45.92174" lon="4.75426">
        <ele>177</ele>
        <time>2018-03-18T09:52:43Z</time>
      </trkpt>
      <trkpt lat="45.92171" lon="4.75433">
        <ele>177</ele>
        <time>2018-03-18T09:52:44Z</time>
      </trkpt>
      <trkpt lat="45.92168" lon="4.7544">
        <ele>177</ele>
        <time>2018-03-18T09:52:45Z</time>
      </trkpt>
      <trkpt lat="45.92166" lon="4.75447">
        <ele>177</ele>
        <time>2018-03-18T09:52:46Z</time>
      </trkpt>
      <trkpt lat="45.92162" lon="4.75454">
        <ele>176</ele>
        <time>2018-03-18T09:52:47Z</time>
      </trkpt>
      <trkpt lat="45.92159" lon="4.75462">
        <ele>176</ele>
        <time>2018-03-18T09:52:48Z</time>
      </trkpt>
      <trkpt lat="45.92156" lon="4.7547">
        <ele>176</ele>
        <time>2018-03-18T09:52:49Z</time>
      </trkpt>
      <trkpt lat="45.92153" lon="4.75477">
        <ele>176</ele>
        <time>2018-03-18T09:52:50Z</time>
      </trkpt>
      <trkpt lat="45.92149" lon="4.75486">
        <ele>176</ele>
        <time>2018-03-18T09:52:51Z</time>
      </trkpt>
      <trkpt lat="45.92148" lon="4.75493">
        <ele>175</ele>
        <time>2018-03-18T09:52:52Z</time>
      </trkpt>
      <trkpt lat="45.92145" lon="4.75501">
        <ele>175</ele>
        <time>2018-03-18T09:52:53Z</time>
      </trkpt>
      <trkpt lat="45.92142" lon="4.75507">
        <ele>174</ele>
        <time>2018-03-18T09:52:54Z</time>
      </trkpt>
      <trkpt lat="45.92138" lon="4.75514">
        <ele>174</ele>
        <time>2018-03-18T09:52:55Z</time>
      </trkpt>
      <trkpt lat="45.92134" lon="4.75519">
        <ele>174</ele>
        <time>2018-03-18T09:52:56Z</time>
      </trkpt>
      <trkpt lat="45.92131" lon="4.75525">
        <ele>174</ele>
        <time>2018-03-18T09:52:57Z</time>
      </trkpt>
      <trkpt lat="45.92128" lon="4.75532">
        <ele>174</ele>
        <time>2018-03-18T09:52:58Z</time>
      </trkpt>
      <trkpt lat="45.92125" lon="4.75538">
        <ele>174</ele>
        <time>2018-03-18T09:52:59Z</time>
      </trkpt>
      <trkpt lat="45.92123" lon="4.75544">
        <ele>174</ele>
        <time>2018-03-18T09:53:00Z</time>
      </trkpt>
      <trkpt lat="45.9212" lon="4.75551">
        <ele>174</ele>
        <time>2018-03-18T09:53:01Z</time>
      </trkpt>
      <trkpt lat="45.92117" lon="4.75557">
        <ele>174</ele>
        <time>2018-03-18T09:53:02Z</time>
      </trkpt>
      <trkpt lat="45.92115" lon="4.75562">
        <ele>174</ele>
        <time>2018-03-18T09:53:03Z</time>
      </trkpt>
      <trkpt lat="45.92112" lon="4.75569">
        <ele>174</ele>
        <time>2018-03-18T09:53:04Z</time>
      </trkpt>
      <trkpt lat="45.92114" lon="4.75576">
        <ele>174</ele>
        <time>2018-03-18T09:53:05Z</time>
      </trkpt>
      <trkpt lat="45.92117" lon="4.75581">
        <ele>174</ele>
        <time>2018-03-18T09:53:06Z</time>
      </trkpt>
      <trkpt lat="45.9212" lon="4.75586">
        <ele>174</ele>
        <time>2018-03-18T09:53:07Z</time>
      </trkpt>
      <trkpt lat="45.92123" lon="4.75591">
        <ele>174</ele>
        <time>2018-03-18T09:53:08Z</time>
      </trkpt>
      <trkpt lat="45.92128" lon="4.75597">
        <ele>174</ele>
        <time>2018-03-18T09:53:09Z</time>
      </trkpt>
      <trkpt lat="45.92132" lon="4.75601">
        <ele>174</ele>
        <time>2018-03-18T09:53:10Z</time>
      </trkpt>
      <trkpt lat="45.92137" lon="4.75606">
        <ele>174</ele>
        <time>2018-03-18T09:53:11Z</time>
      </trkpt>
      <trkpt lat="45.92141" lon="4.75611">
        <ele>174</ele>
        <time>2018-03-18T09:53:12Z</time>
      </trkpt>
      <trkpt lat="45.92146" lon="4.75616">
        <ele>174</ele>
        <time>2018-03-18T09:53:13Z</time>
      </trkpt>
      <trkpt lat="45.9215" lon="4.7562">
        <ele>174</ele>
        <time>2018-03-18T09:53:14Z</time>
      </trkpt>
      <trkpt lat="45.92155" lon="4.75625">
        <ele>174</ele>
        <time>2018-03-18T09:53:15Z</time>
      </trkpt>
      <trkpt lat="45.9216" lon="4.75631">
        <ele>174</ele>
        <time>2018-03-18T09:53:16Z</time>
      </trkpt>
      <trkpt lat="45.92165" lon="4.75635">
        <ele>174</ele>
        <time>2018-03-18T09:53:17Z</time>
      </trkpt>
      <trkpt lat="45.92169" lon="4.75639">
        <ele>174</ele>
        <time>2018-03-18T09:53:18Z</time>
      </trkpt>
      <trkpt lat="45.92173" lon="4.75643">
        <ele>174</ele>
        <time>2018-03-18T09:53:19Z</time>
      </trkpt>
      <trkpt lat="45.92178" lon="4.75648">
        <ele>174</ele>
        <time>2018-03-18T09:53:20Z</time>
      </trkpt>
      <trkpt lat="45.92182" lon="4.75652">
        <ele>174</ele>
        <time>2018-03-18T09:53:21Z</time>
      </trkpt>
      <trkpt lat="45.92187" lon="4.75656">
        <ele>174</ele>
        <time>2018-03-18T09:53:22Z</time>
      </trkpt>
      <trkpt lat="45.92191" lon="4.7566">
        <ele>174</ele>
        <time>2018-03-18T09:53:23Z</time>
      </trkpt>
      <trkpt lat="45.92196" lon="4.75664">
        <ele>174</ele>
        <time>2018-03-18T09:53:24Z</time>
      </trkpt>
      <trkpt lat="45.922" lon="4.75668">
        <ele>174</ele>
        <time>2018-03-18T09:53:25Z</time>
      </trkpt>
      <trkpt lat="45.92206" lon="4.75676">
        <ele>174</ele>
        <time>2018-03-18T09:53:27Z</time>
      </trkpt>
      <trkpt lat="45.92211" lon="4.7568">
        <ele>174</ele>
        <time>2018-03-18T09:53:28Z</time>
      </trkpt>
      <trkpt lat="45.92215" lon="4.75686">
        <ele>174</ele>
        <time>2018-03-18T09:53:29Z</time>
      </trkpt>
      <trkpt lat="45.92219" lon="4.75689">
        <ele>174</ele>
        <time>2018-03-18T09:53:30Z</time>
      </trkpt>
      <trkpt lat="45.92224" lon="4.75694">
        <ele>174</ele>
        <time>2018-03-18T09:53:31Z</time>
      </trkpt>
      <trkpt lat="45.92227" lon="4.75699">
        <ele>174</ele>
        <time>2018-03-18T09:53:32Z</time>
      </trkpt>
      <trkpt lat="45.92231" lon="4.75704">
        <ele>174</ele>
        <time>2018-03-18T09:53:33Z</time>
      </trkpt>
      <trkpt lat="45.92235" lon="4.75709">
        <ele>174</ele>
        <time>2018-03-18T09:53:34Z</time>
      </trkpt>
      <trkpt lat="45.92238" lon="4.75713">
        <ele>174</ele>
        <time>2018-03-18T09:53:35Z</time>
      </trkpt>
      <trkpt lat="45.92241" lon="4.75719">
        <ele>174</ele>
        <time>2018-03-18T09:53:36Z</time>
      </trkpt>
      <trkpt lat="45.92243" lon="4.75725">
        <ele>174</ele>
        <time>2018-03-18T09:53:37Z</time>
      </trkpt>
      <trkpt lat="45.92246" lon="4.7573">
        <ele>174</ele>
        <time>2018-03-18T09:53:38Z</time>
      </trkpt>
      <trkpt lat="45.92248" lon="4.75736">
        <ele>174</ele>
        <time>2018-03-18T09:53:39Z</time>
      </trkpt>
      <trkpt lat="45.9225" lon="4.75742">
        <ele>174</ele>
        <time>2018-03-18T09:53:40Z</time>
      </trkpt>
      <trkpt lat="45.92252" lon="4.75754">
        <ele>174</ele>
        <time>2018-03-18T09:53:42Z</time>
      </trkpt>
      <trkpt lat="45.92253" lon="4.7576">
        <ele>174</ele>
        <time>2018-03-18T09:53:43Z</time>
      </trkpt>
      <trkpt lat="45.92255" lon="4.7577">
        <ele>174</ele>
        <time>2018-03-18T09:53:45Z</time>
      </trkpt>
      <trkpt lat="45.92258" lon="4.75776">
        <ele>174</ele>
        <time>2018-03-18T09:53:46Z</time>
      </trkpt>
      <trkpt lat="45.9226" lon="4.75788">
        <ele>174</ele>
        <time>2018-03-18T09:53:48Z</time>
      </trkpt>
      <trkpt lat="45.92261" lon="4.75792">
        <ele>174</ele>
        <time>2018-03-18T09:53:49Z</time>
      </trkpt>
      <trkpt lat="45.92264" lon="4.75803">
        <ele>174</ele>
        <time>2018-03-18T09:53:51Z</time>
      </trkpt>
      <trkpt lat="45.92267" lon="4.75808">
        <ele>174</ele>
        <time>2018-03-18T09:53:52Z</time>
      </trkpt>
      <trkpt lat="45.9227" lon="4.75817">
        <ele>174</ele>
        <time>2018-03-18T09:53:55Z</time>
      </trkpt>
      <trkpt lat="45.92271" lon="4.7582">
        <ele>174</ele>
        <time>2018-03-18T09:53:56Z</time>
      </trkpt>
      <trkpt lat="45.92278" lon="4.75827">
        <ele>174</ele>
        <time>2018-03-18T09:55:23Z</time>
      </trkpt>
      <trkpt lat="45.92281" lon="4.75829">
        <ele>174</ele>
        <time>2018-03-18T09:55:24Z</time>
      </trkpt>
      <trkpt lat="45.9229" lon="4.75833">
        <ele>174</ele>
        <time>2018-03-18T09:55:25Z</time>
      </trkpt>
      <trkpt lat="45.92298" lon="4.75838">
        <ele>173</ele>
        <time>2018-03-18T09:55:27Z</time>
      </trkpt>
      <trkpt lat="45.92302" lon="4.75841">
        <ele>173</ele>
        <time>2018-03-18T09:55:28Z</time>
      </trkpt>
      <trkpt lat="45.92307" lon="4.75846">
        <ele>173</ele>
        <time>2018-03-18T09:55:29Z</time>
      </trkpt>
      <trkpt lat="45.92311" lon="4.75848">
        <ele>173</ele>
        <time>2018-03-18T09:55:30Z</time>
      </trkpt>
      <trkpt lat="45.92317" lon="4.7585">
        <ele>174</ele>
        <time>2018-03-18T09:55:31Z</time>
      </trkpt>
      <trkpt lat="45.92323" lon="4.75854">
        <ele>174</ele>
        <time>2018-03-18T09:55:32Z</time>
      </trkpt>
      <trkpt lat="45.92328" lon="4.75855">
        <ele>174</ele>
        <time>2018-03-18T09:55:33Z</time>
      </trkpt>
      <trkpt lat="45.92335" lon="4.75858">
        <ele>173</ele>
        <time>2018-03-18T09:55:34Z</time>
      </trkpt>
      <trkpt lat="45.92341" lon="4.7586">
        <ele>173</ele>
        <time>2018-03-18T09:55:35Z</time>
      </trkpt>
      <trkpt lat="45.92346" lon="4.75862">
        <ele>173</ele>
        <time>2018-03-18T09:55:36Z</time>
      </trkpt>
      <trkpt lat="45.92351" lon="4.75868">
        <ele>173</ele>
        <time>2018-03-18T09:55:37Z</time>
      </trkpt>
      <trkpt lat="45.92357" lon="4.75872">
        <ele>173</ele>
        <time>2018-03-18T09:55:38Z</time>
      </trkpt>
      <trkpt lat="45.92359" lon="4.75873">
        <ele>173</ele>
        <time>2018-03-18T09:55:39Z</time>
      </trkpt>
      <trkpt lat="45.92367" lon="4.75878">
        <ele>173</ele>
        <time>2018-03-18T09:55:40Z</time>
      </trkpt>
      <trkpt lat="45.92372" lon="4.75882">
        <ele>173</ele>
        <time>2018-03-18T09:55:41Z</time>
      </trkpt>
      <trkpt lat="45.92376" lon="4.75888">
        <ele>173</ele>
        <time>2018-03-18T09:55:42Z</time>
      </trkpt>
      <trkpt lat="45.92381" lon="4.75891">
        <ele>173</ele>
        <time>2018-03-18T09:55:43Z</time>
      </trkpt>
      <trkpt lat="45.92387" lon="4.75894">
        <ele>173</ele>
        <time>2018-03-18T09:55:44Z</time>
      </trkpt>
      <trkpt lat="45.92391" lon="4.75901">
        <ele>173</ele>
        <time>2018-03-18T09:55:45Z</time>
      </trkpt>
      <trkpt lat="45.92396" lon="4.75903">
        <ele>173</ele>
        <time>2018-03-18T09:55:46Z</time>
      </trkpt>
      <trkpt lat="45.92401" lon="4.75906">
        <ele>173</ele>
        <time>2018-03-18T09:55:47Z</time>
      </trkpt>
      <trkpt lat="45.92405" lon="4.75909">
        <ele>172</ele>
        <time>2018-03-18T09:55:48Z</time>
      </trkpt>
      <trkpt lat="45.92409" lon="4.75914">
        <ele>172</ele>
        <time>2018-03-18T09:55:49Z</time>
      </trkpt>
      <trkpt lat="45.92413" lon="4.75918">
        <ele>172</ele>
        <time>2018-03-18T09:55:50Z</time>
      </trkpt>
      <trkpt lat="45.92417" lon="4.75922">
        <ele>172</ele>
        <time>2018-03-18T09:55:51Z</time>
      </trkpt>
      <trkpt lat="45.92422" lon="4.75925">
        <ele>172</ele>
        <time>2018-03-18T09:55:52Z</time>
      </trkpt>
      <trkpt lat="45.92426" lon="4.75928">
        <ele>172</ele>
        <time>2018-03-18T09:55:53Z</time>
      </trkpt>
      <trkpt lat="45.92431" lon="4.75931">
        <ele>172</ele>
        <time>2018-03-18T09:55:54Z</time>
      </trkpt>
      <trkpt lat="45.92435" lon="4.75934">
        <ele>172</ele>
        <time>2018-03-18T09:55:55Z</time>
      </trkpt>
      <trkpt lat="45.92439" lon="4.75938">
        <ele>172</ele>
        <time>2018-03-18T09:55:56Z</time>
      </trkpt>
      <trkpt lat="45.92446" lon="4.75944">
        <ele>172</ele>
        <time>2018-03-18T09:55:58Z</time>
      </trkpt>
      <trkpt lat="45.92451" lon="4.75946">
        <ele>172</ele>
        <time>2018-03-18T09:55:59Z</time>
      </trkpt>
      <trkpt lat="45.92457" lon="4.75953">
        <ele>172</ele>
        <time>2018-03-18T09:56:01Z</time>
      </trkpt>
      <trkpt lat="45.92461" lon="4.75956">
        <ele>172</ele>
        <time>2018-03-18T09:56:02Z</time>
      </trkpt>
      <trkpt lat="45.92468" lon="4.7596">
        <ele>172</ele>
        <time>2018-03-18T09:56:04Z</time>
      </trkpt>
      <trkpt lat="45.92472" lon="4.75962">
        <ele>172</ele>
        <time>2018-03-18T09:56:05Z</time>
      </trkpt>
      <trkpt lat="45.92479" lon="4.75967">
        <ele>172</ele>
        <time>2018-03-18T09:56:07Z</time>
      </trkpt>
      <trkpt lat="45.92483" lon="4.7597">
        <ele>172</ele>
        <time>2018-03-18T09:56:08Z</time>
      </trkpt>
      <trkpt lat="45.9249" lon="4.75975">
        <ele>172</ele>
        <time>2018-03-18T09:56:10Z</time>
      </trkpt>
      <trkpt lat="45.92493" lon="4.75978">
        <ele>172</ele>
        <time>2018-03-18T09:56:11Z</time>
      </trkpt>
      <trkpt lat="45.925" lon="4.75983">
        <ele>172</ele>
        <time>2018-03-18T09:56:13Z</time>
      </trkpt>
      <trkpt lat="45.92504" lon="4.75986">
        <ele>172</ele>
        <time>2018-03-18T09:56:14Z</time>
      </trkpt>
      <trkpt lat="45.92511" lon="4.75991">
        <ele>172</ele>
        <time>2018-03-18T09:56:16Z</time>
      </trkpt>
      <trkpt lat="45.92514" lon="4.75993">
        <ele>172</ele>
        <time>2018-03-18T09:56:17Z</time>
      </trkpt>
      <trkpt lat="45.9252" lon="4.75997">
        <ele>172</ele>
        <time>2018-03-18T09:56:19Z</time>
      </trkpt>
      <trkpt lat="45.92524" lon="4.76001">
        <ele>172</ele>
        <time>2018-03-18T09:56:20Z</time>
      </trkpt>
      <trkpt lat="45.92531" lon="4.76007">
        <ele>172</ele>
        <time>2018-03-18T09:56:22Z</time>
      </trkpt>
      <trkpt lat="45.92535" lon="4.7601">
        <ele>172</ele>
        <time>2018-03-18T09:56:23Z</time>
      </trkpt>
      <trkpt lat="45.92542" lon="4.76016">
        <ele>172</ele>
        <time>2018-03-18T09:56:25Z</time>
      </trkpt>
      <trkpt lat="45.92546" lon="4.76019">
        <ele>172</ele>
        <time>2018-03-18T09:56:26Z</time>
      </trkpt>
      <trkpt lat="45.92554" lon="4.76025">
        <ele>172</ele>
        <time>2018-03-18T09:56:28Z</time>
      </trkpt>
      <trkpt lat="45.92557" lon="4.76028">
        <ele>172</ele>
        <time>2018-03-18T09:56:29Z</time>
      </trkpt>
      <trkpt lat="45.92561" lon="4.76031">
        <ele>172</ele>
        <time>2018-03-18T09:56:30Z</time>
      </trkpt>
      <trkpt lat="45.92566" lon="4.76032">
        <ele>172</ele>
        <time>2018-03-18T09:56:31Z</time>
      </trkpt>
      <trkpt lat="45.9257" lon="4.76035">
        <ele>172</ele>
        <time>2018-03-18T09:56:32Z</time>
      </trkpt>
      <trkpt lat="45.92574" lon="4.76038">
        <ele>172</ele>
        <time>2018-03-18T09:56:33Z</time>
      </trkpt>
      <trkpt lat="45.92579" lon="4.76041">
        <ele>172</ele>
        <time>2018-03-18T09:56:34Z</time>
      </trkpt>
      <trkpt lat="45.92585" lon="4.76042">
        <ele>171</ele>
        <time>2018-03-18T09:56:35Z</time>
      </trkpt>
      <trkpt lat="45.92589" lon="4.76045">
        <ele>171</ele>
        <time>2018-03-18T09:56:36Z</time>
      </trkpt>
      <trkpt lat="45.92594" lon="4.76048">
        <ele>171</ele>
        <time>2018-03-18T09:56:37Z</time>
      </trkpt>
      <trkpt lat="45.92601" lon="4.76052">
        <ele>171</ele>
        <time>2018-03-18T09:56:38Z</time>
      </trkpt>
      <trkpt lat="45.92606" lon="4.76056">
        <ele>171</ele>
        <time>2018-03-18T09:56:39Z</time>
      </trkpt>
      <trkpt lat="45.92611" lon="4.7606">
        <ele>171</ele>
        <time>2018-03-18T09:56:40Z</time>
      </trkpt>
      <trkpt lat="45.92617" lon="4.76063">
        <ele>171</ele>
        <time>2018-03-18T09:56:41Z</time>
      </trkpt>
      <trkpt lat="45.92622" lon="4.76067">
        <ele>171</ele>
        <time>2018-03-18T09:56:42Z</time>
      </trkpt>
      <trkpt lat="45.92627" lon="4.76071">
        <ele>170</ele>
        <time>2018-03-18T09:56:43Z</time>
      </trkpt>
      <trkpt lat="45.92632" lon="4.76074">
        <ele>170</ele>
        <time>2018-03-18T09:56:44Z</time>
      </trkpt>
      <trkpt lat="45.92639" lon="4.76081">
        <ele>170</ele>
        <time>2018-03-18T09:56:45Z</time>
      </trkpt>
      <trkpt lat="45.92645" lon="4.76085">
        <ele>170</ele>
        <time>2018-03-18T09:56:46Z</time>
      </trkpt>
      <trkpt lat="45.9265" lon="4.76089">
        <ele>170</ele>
        <time>2018-03-18T09:56:47Z</time>
      </trkpt>
      <trkpt lat="45.92656" lon="4.76092">
        <ele>170</ele>
        <time>2018-03-18T09:56:48Z</time>
      </trkpt>
      <trkpt lat="45.92662" lon="4.76097">
        <ele>170</ele>
        <time>2018-03-18T09:56:49Z</time>
      </trkpt>
      <trkpt lat="45.92669" lon="4.76101">
        <ele>169</ele>
        <time>2018-03-18T09:56:50Z</time>
      </trkpt>
      <trkpt lat="45.92675" lon="4.76104">
        <ele>169</ele>
        <time>2018-03-18T09:56:51Z</time>
      </trkpt>
      <trkpt lat="45.92682" lon="4.76107">
        <ele>169</ele>
        <time>2018-03-18T09:56:52Z</time>
      </trkpt>
      <trkpt lat="45.9269" lon="4.76112">
        <ele>169</ele>
        <time>2018-03-18T09:56:53Z</time>
      </trkpt>
      <trkpt lat="45.92697" lon="4.76118">
        <ele>169</ele>
        <time>2018-03-18T09:56:54Z</time>
      </trkpt>
      <trkpt lat="45.92703" lon="4.7612">
        <ele>169</ele>
        <time>2018-03-18T09:56:55Z</time>
      </trkpt>
      <trkpt lat="45.92712" lon="4.76121">
        <ele>168</ele>
        <time>2018-03-18T09:56:56Z</time>
      </trkpt>
      <trkpt lat="45.92719" lon="4.76126">
        <ele>168</ele>
        <time>2018-03-18T09:56:57Z</time>
      </trkpt>
      <trkpt lat="45.92726" lon="4.76131">
        <ele>168</ele>
        <time>2018-03-18T09:56:58Z</time>
      </trkpt>
      <trkpt lat="45.92732" lon="4.76135">
        <ele>168</ele>
        <time>2018-03-18T09:56:59Z</time>
      </trkpt>
      <trkpt lat="45.92738" lon="4.76141">
        <ele>168</ele>
        <time>2018-03-18T09:57:00Z</time>
      </trkpt>
      <trkpt lat="45.92745" lon="4.76144">
        <ele>168</ele>
        <time>2018-03-18T09:57:01Z</time>
      </trkpt>
      <trkpt lat="45.92751" lon="4.76148">
        <ele>167</ele>
        <time>2018-03-18T09:57:02Z</time>
      </trkpt>
      <trkpt lat="45.92756" lon="4.76155">
        <ele>167</ele>
        <time>2018-03-18T09:57:03Z</time>
      </trkpt>
      <trkpt lat="45.92762" lon="4.76161">
        <ele>167</ele>
        <time>2018-03-18T09:57:04Z</time>
      </trkpt>
      <trkpt lat="45.92766" lon="4.76167">
        <ele>167</ele>
        <time>2018-03-18T09:57:05Z</time>
      </trkpt>
      <trkpt lat="45.92771" lon="4.7617">
        <ele>167</ele>
        <time>2018-03-18T09:57:06Z</time>
      </trkpt>
      <trkpt lat="45.92777" lon="4.76174">
        <ele>167</ele>
        <time>2018-03-18T09:57:07Z</time>
      </trkpt>
      <trkpt lat="45.92781" lon="4.76178">
        <ele>167</ele>
        <time>2018-03-18T09:57:08Z</time>
      </trkpt>
      <trkpt lat="45.92786" lon="4.76182">
        <ele>168</ele>
        <time>2018-03-18T09:57:09Z</time>
      </trkpt>
      <trkpt lat="45.9279" lon="4.76187">
        <ele>168</ele>
        <time>2018-03-18T09:57:10Z</time>
      </trkpt>
      <trkpt lat="45.92793" lon="4.76192">
        <ele>168</ele>
        <time>2018-03-18T09:57:11Z</time>
      </trkpt>
      <trkpt lat="45.92797" lon="4.76197">
        <ele>168</ele>
        <time>2018-03-18T09:57:12Z</time>
      </trkpt>
      <trkpt lat="45.92801" lon="4.76202">
        <ele>168</ele>
        <time>2018-03-18T09:57:13Z</time>
      </trkpt>
      <trkpt lat="45.92805" lon="4.76206">
        <ele>168</ele>
        <time>2018-03-18T09:57:14Z</time>
      </trkpt>
      <trkpt lat="45.92808" lon="4.76211">
        <ele>168</ele>
        <time>2018-03-18T09:57:15Z</time>
      </trkpt>
      <trkpt lat="45.92813" lon="4.76216">
        <ele>168</ele>
        <time>2018-03-18T09:57:16Z</time>
      </trkpt>
      <trkpt lat="45.92817" lon="4.76222">
        <ele>168</ele>
        <time>2018-03-18T09:57:17Z</time>
      </trkpt>
      <trkpt lat="45.92822" lon="4.76227">
        <ele>168</ele>
        <time>2018-03-18T09:57:18Z</time>
      </trkpt>
      <trkpt lat="45.92825" lon="4.76231">
        <ele>168</ele>
        <time>2018-03-18T09:57:19Z</time>
      </trkpt>
      <trkpt lat="45.9283" lon="4.76235">
        <ele>168</ele>
        <time>2018-03-18T09:57:20Z</time>
      </trkpt>
      <trkpt lat="45.92836" lon="4.76241">
        <ele>169</ele>
        <time>2018-03-18T09:57:21Z</time>
      </trkpt>
      <trkpt lat="45.92841" lon="4.76245">
        <ele>169</ele>
        <time>2018-03-18T09:57:22Z</time>
      </trkpt>
      <trkpt lat="45.92846" lon="4.76248">
        <ele>169</ele>
        <time>2018-03-18T09:57:23Z</time>
      </trkpt>
      <trkpt lat="45.92851" lon="4.76251">
        <ele>169</ele>
        <time>2018-03-18T09:57:24Z</time>
      </trkpt>
      <trkpt lat="45.92856" lon="4.76255">
        <ele>169</ele>
        <time>2018-03-18T09:57:25Z</time>
      </trkpt>
      <trkpt lat="45.92861" lon="4.76262">
        <ele>169</ele>
        <time>2018-03-18T09:57:26Z</time>
      </trkpt>
      <trkpt lat="45.92866" lon="4.76268">
        <ele>169</ele>
        <time>2018-03-18T09:57:27Z</time>
      </trkpt>
      <trkpt lat="45.9287" lon="4.76274">
        <ele>169</ele>
        <time>2018-03-18T09:57:28Z</time>
      </trkpt>
      <trkpt lat="45.92876" lon="4.76278">
        <ele>169</ele>
        <time>2018-03-18T09:57:29Z</time>
      </trkpt>
      <trkpt lat="45.92881" lon="4.76281">
        <ele>169</ele>
        <time>2018-03-18T09:57:30Z</time>
      </trkpt>
      <trkpt lat="45.92885" lon="4.76284">
        <ele>169</ele>
        <time>2018-03-18T09:57:31Z</time>
      </trkpt>
      <trkpt lat="45.92889" lon="4.76288">
        <ele>169</ele>
        <time>2018-03-18T09:57:32Z</time>
      </trkpt>
      <trkpt lat="45.92892" lon="4.76293">
        <ele>169</ele>
        <time>2018-03-18T09:57:33Z</time>
      </trkpt>
      <trkpt lat="45.92897" lon="4.76299">
        <ele>169</ele>
        <time>2018-03-18T09:57:34Z</time>
      </trkpt>
      <trkpt lat="45.92901" lon="4.76302">
        <ele>169</ele>
        <time>2018-03-18T09:57:35Z</time>
      </trkpt>
      <trkpt lat="45.92905" lon="4.76306">
        <ele>169</ele>
        <time>2018-03-18T09:57:36Z</time>
      </trkpt>
      <trkpt lat="45.92912" lon="4.76314">
        <ele>169</ele>
        <time>2018-03-18T09:57:37Z</time>
      </trkpt>
      <trkpt lat="45.92916" lon="4.76318">
        <ele>169</ele>
        <time>2018-03-18T09:57:38Z</time>
      </trkpt>
      <trkpt lat="45.92923" lon="4.76323">
        <ele>169</ele>
        <time>2018-03-18T09:57:40Z</time>
      </trkpt>
      <trkpt lat="45.92928" lon="4.7633">
        <ele>169</ele>
        <time>2018-03-18T09:57:41Z</time>
      </trkpt>
      <trkpt lat="45.92933" lon="4.76334">
        <ele>169</ele>
        <time>2018-03-18T09:57:42Z</time>
      </trkpt>
      <trkpt lat="45.92938" lon="4.7634">
        <ele>169</ele>
        <time>2018-03-18T09:57:43Z</time>
      </trkpt>
      <trkpt lat="45.92942" lon="4.76344">
        <ele>169</ele>
        <time>2018-03-18T09:57:44Z</time>
      </trkpt>
      <trkpt lat="45.92947" lon="4.76348">
        <ele>169</ele>
        <time>2018-03-18T09:57:45Z</time>
      </trkpt>
      <trkpt lat="45.92951" lon="4.76352">
        <ele>169</ele>
        <time>2018-03-18T09:57:46Z</time>
      </trkpt>
      <trkpt lat="45.92956" lon="4.76358">
        <ele>169</ele>
        <time>2018-03-18T09:57:47Z</time>
      </trkpt>
      <trkpt lat="45.92961" lon="4.76363">
        <ele>169</ele>
        <time>2018-03-18T09:57:48Z</time>
      </trkpt>
      <trkpt lat="45.92966" lon="4.76369">
        <ele>169</ele>
        <time>2018-03-18T09:57:49Z</time>
      </trkpt>
      <trkpt lat="45.92972" lon="4.76373">
        <ele>169</ele>
        <time>2018-03-18T09:57:50Z</time>
      </trkpt>
      <trkpt lat="45.92975" lon="4.76378">
        <ele>169</ele>
        <time>2018-03-18T09:57:51Z</time>
      </trkpt>
      <trkpt lat="45.9298" lon="4.76382">
        <ele>169</ele>
        <time>2018-03-18T09:57:52Z</time>
      </trkpt>
      <trkpt lat="45.92984" lon="4.76386">
        <ele>169</ele>
        <time>2018-03-18T09:57:53Z</time>
      </trkpt>
      <trkpt lat="45.92988" lon="4.76391">
        <ele>169</ele>
        <time>2018-03-18T09:57:54Z</time>
      </trkpt>
      <trkpt lat="45.92993" lon="4.76393">
        <ele>169</ele>
        <time>2018-03-18T09:57:55Z</time>
      </trkpt>
      <trkpt lat="45.92998" lon="4.76395">
        <ele>169</ele>
        <time>2018-03-18T09:57:56Z</time>
      </trkpt>
      <trkpt lat="45.93003" lon="4.76404">
        <ele>169</ele>
        <time>2018-03-18T09:57:57Z</time>
      </trkpt>
      <trkpt lat="45.93008" lon="4.76407">
        <ele>169</ele>
        <time>2018-03-18T09:57:58Z</time>
      </trkpt>
      <trkpt lat="45.93012" lon="4.76412">
        <ele>169</ele>
        <time>2018-03-18T09:57:59Z</time>
      </trkpt>
      <trkpt lat="45.93019" lon="4.76418">
        <ele>169</ele>
        <time>2018-03-18T09:58:00Z</time>
      </trkpt>
      <trkpt lat="45.93023" lon="4.76425">
        <ele>169</ele>
        <time>2018-03-18T09:58:01Z</time>
      </trkpt>
      <trkpt lat="45.93028" lon="4.76432">
        <ele>169</ele>
        <time>2018-03-18T09:58:02Z</time>
      </trkpt>
      <trkpt lat="45.93033" lon="4.7644">
        <ele>169</ele>
        <time>2018-03-18T09:58:03Z</time>
      </trkpt>
      <trkpt lat="45.93036" lon="4.76445">
        <ele>169</ele>
        <time>2018-03-18T09:58:04Z</time>
      </trkpt>
      <trkpt lat="45.9304" lon="4.7645">
        <ele>169</ele>
        <time>2018-03-18T09:58:05Z</time>
      </trkpt>
      <trkpt lat="45.93044" lon="4.76455">
        <ele>169</ele>
        <time>2018-03-18T09:58:06Z</time>
      </trkpt>
      <trkpt lat="45.93048" lon="4.7646">
        <ele>169</ele>
        <time>2018-03-18T09:58:07Z</time>
      </trkpt>
      <trkpt lat="45.93053" lon="4.76465">
        <ele>169</ele>
        <time>2018-03-18T09:58:08Z</time>
      </trkpt>
      <trkpt lat="45.93056" lon="4.76468">
        <ele>169</ele>
        <time>2018-03-18T09:58:09Z</time>
      </trkpt>
      <trkpt lat="45.93061" lon="4.76471">
        <ele>169</ele>
        <time>2018-03-18T09:58:11Z</time>
      </trkpt>
      <trkpt lat="45.93067" lon="4.76477">
        <ele>169</ele>
        <time>2018-03-18T09:58:12Z</time>
      </trkpt>
      <trkpt lat="45.93072" lon="4.76482">
        <ele>169</ele>
        <time>2018-03-18T09:58:13Z</time>
      </trkpt>
      <trkpt lat="45.93077" lon="4.76489">
        <ele>170</ele>
        <time>2018-03-18T09:58:14Z</time>
      </trkpt>
      <trkpt lat="45.93081" lon="4.76492">
        <ele>170</ele>
        <time>2018-03-18T09:58:15Z</time>
      </trkpt>
      <trkpt lat="45.93086" lon="4.76496">
        <ele>170</ele>
        <time>2018-03-18T09:58:16Z</time>
      </trkpt>
      <trkpt lat="45.93093" lon="4.765">
        <ele>170</ele>
        <time>2018-03-18T09:58:18Z</time>
      </trkpt>
      <trkpt lat="45.93097" lon="4.76505">
        <ele>170</ele>
        <time>2018-03-18T09:58:19Z</time>
      </trkpt>
      <trkpt lat="45.93101" lon="4.76508">
        <ele>170</ele>
        <time>2018-03-18T09:58:20Z</time>
      </trkpt>
      <trkpt lat="45.93105" lon="4.76511">
        <ele>170</ele>
        <time>2018-03-18T09:58:21Z</time>
      </trkpt>
      <trkpt lat="45.93111" lon="4.76517">
        <ele>170</ele>
        <time>2018-03-18T09:58:22Z</time>
      </trkpt>
      <trkpt lat="45.93116" lon="4.76522">
        <ele>170</ele>
        <time>2018-03-18T09:58:23Z</time>
      </trkpt>
      <trkpt lat="45.9312" lon="4.76524">
        <ele>170</ele>
        <time>2018-03-18T09:58:24Z</time>
      </trkpt>
      <trkpt lat="45.93124" lon="4.76528">
        <ele>170</ele>
        <time>2018-03-18T09:58:25Z</time>
      </trkpt>
      <trkpt lat="45.93129" lon="4.76531">
        <ele>170</ele>
        <time>2018-03-18T09:58:26Z</time>
      </trkpt>
      <trkpt lat="45.93132" lon="4.76536">
        <ele>170</ele>
        <time>2018-03-18T09:58:27Z</time>
      </trkpt>
      <trkpt lat="45.93138" lon="4.76543">
        <ele>170</ele>
        <time>2018-03-18T09:58:28Z</time>
      </trkpt>
      <trkpt lat="45.93142" lon="4.76547">
        <ele>170</ele>
        <time>2018-03-18T09:58:29Z</time>
      </trkpt>
      <trkpt lat="45.93146" lon="4.76551">
        <ele>170</ele>
        <time>2018-03-18T09:58:30Z</time>
      </trkpt>
      <trkpt lat="45.9315" lon="4.76555">
        <ele>170</ele>
        <time>2018-03-18T09:58:31Z</time>
      </trkpt>
      <trkpt lat="45.93154" lon="4.76557">
        <ele>170</ele>
        <time>2018-03-18T09:58:32Z</time>
      </trkpt>
      <trkpt lat="45.93159" lon="4.76566">
        <ele>170</ele>
        <time>2018-03-18T09:58:33Z</time>
      </trkpt>
      <trkpt lat="45.93163" lon="4.76569">
        <ele>170</ele>
        <time>2018-03-18T09:58:34Z</time>
      </trkpt>
      <trkpt lat="45.93168" lon="4.76572">
        <ele>170</ele>
        <time>2018-03-18T09:58:35Z</time>
      </trkpt>
      <trkpt lat="45.93174" lon="4.76579">
        <ele>170</ele>
        <time>2018-03-18T09:58:38Z</time>
      </trkpt>
      <trkpt lat="45.93181" lon="4.7659">
        <ele>171</ele>
        <time>2018-03-18T09:58:39Z</time>
      </trkpt>
      <trkpt lat="45.93186" lon="4.76595">
        <ele>171</ele>
        <time>2018-03-18T09:58:40Z</time>
      </trkpt>
      <trkpt lat="45.93191" lon="4.76599">
        <ele>170</ele>
        <time>2018-03-18T09:58:41Z</time>
      </trkpt>
      <trkpt lat="45.93196" lon="4.76603">
        <ele>170</ele>
        <time>2018-03-18T09:58:42Z</time>
      </trkpt>
      <trkpt lat="45.932" lon="4.76608">
        <ele>170</ele>
        <time>2018-03-18T09:58:43Z</time>
      </trkpt>
      <trkpt lat="45.93204" lon="4.76613">
        <ele>170</ele>
        <time>2018-03-18T09:58:44Z</time>
      </trkpt>
      <trkpt lat="45.9321" lon="4.76616">
        <ele>170</ele>
        <time>2018-03-18T09:58:45Z</time>
      </trkpt>
      <trkpt lat="45.93214" lon="4.76622">
        <ele>170</ele>
        <time>2018-03-18T09:58:46Z</time>
      </trkpt>
      <trkpt lat="45.93218" lon="4.76625">
        <ele>170</ele>
        <time>2018-03-18T09:58:47Z</time>
      </trkpt>
      <trkpt lat="45.93222" lon="4.76629">
        <ele>170</ele>
        <time>2018-03-18T09:58:48Z</time>
      </trkpt>
      <trkpt lat="45.93225" lon="4.76635">
        <ele>171</ele>
        <time>2018-03-18T09:58:49Z</time>
      </trkpt>
      <trkpt lat="45.93232" lon="4.76641">
        <ele>171</ele>
        <time>2018-03-18T09:58:51Z</time>
      </trkpt>
      <trkpt lat="45.93236" lon="4.76644">
        <ele>171</ele>
        <time>2018-03-18T09:58:52Z</time>
      </trkpt>
      <trkpt lat="45.93242" lon="4.76649">
        <ele>171</ele>
        <time>2018-03-18T09:58:53Z</time>
      </trkpt>
      <trkpt lat="45.93245" lon="4.76652">
        <ele>171</ele>
        <time>2018-03-18T09:58:54Z</time>
      </trkpt>
      <trkpt lat="45.93249" lon="4.76655">
        <ele>171</ele>
        <time>2018-03-18T09:58:55Z</time>
      </trkpt>
      <trkpt lat="45.93253" lon="4.7666">
        <ele>171</ele>
        <time>2018-03-18T09:58:56Z</time>
      </trkpt>
      <trkpt lat="45.93259" lon="4.76666">
        <ele>171</ele>
        <time>2018-03-18T09:58:58Z</time>
      </trkpt>
      <trkpt lat="45.93262" lon="4.76669">
        <ele>172</ele>
        <time>2018-03-18T09:58:59Z</time>
      </trkpt>
      <trkpt lat="45.9327" lon="4.76673">
        <ele>172</ele>
        <time>2018-03-18T09:59:01Z</time>
      </trkpt>
      <trkpt lat="45.93274" lon="4.7668">
        <ele>172</ele>
        <time>2018-03-18T09:59:02Z</time>
      </trkpt>
      <trkpt lat="45.93277" lon="4.76686">
        <ele>172</ele>
        <time>2018-03-18T09:59:03Z</time>
      </trkpt>
      <trkpt lat="45.93282" lon="4.7669">
        <ele>172</ele>
        <time>2018-03-18T09:59:04Z</time>
      </trkpt>
      <trkpt lat="45.93285" lon="4.76694">
        <ele>172</ele>
        <time>2018-03-18T09:59:05Z</time>
      </trkpt>
      <trkpt lat="45.93291" lon="4.76697">
        <ele>172</ele>
        <time>2018-03-18T09:59:06Z</time>
      </trkpt>
      <trkpt lat="45.93296" lon="4.76701">
        <ele>172</ele>
        <time>2018-03-18T09:59:07Z</time>
      </trkpt>
      <trkpt lat="45.93301" lon="4.76708">
        <ele>172</ele>
        <time>2018-03-18T09:59:08Z</time>
      </trkpt>
      <trkpt lat="45.93306" lon="4.76712">
        <ele>172</ele>
        <time>2018-03-18T09:59:09Z</time>
      </trkpt>
      <trkpt lat="45.93311" lon="4.76714">
        <ele>172</ele>
        <time>2018-03-18T09:59:10Z</time>
      </trkpt>
      <trkpt lat="45.93315" lon="4.76721">
        <ele>172</ele>
        <time>2018-03-18T09:59:11Z</time>
      </trkpt>
      <trkpt lat="45.93319" lon="4.76724">
        <ele>172</ele>
        <time>2018-03-18T09:59:12Z</time>
      </trkpt>
      <trkpt lat="45.93323" lon="4.7673">
        <ele>172</ele>
        <time>2018-03-18T09:59:13Z</time>
      </trkpt>
      <trkpt lat="45.93327" lon="4.76734">
        <ele>172</ele>
        <time>2018-03-18T09:59:14Z</time>
      </trkpt>
      <trkpt lat="45.93331" lon="4.76737">
        <ele>172</ele>
        <time>2018-03-18T09:59:15Z</time>
      </trkpt>
      <trkpt lat="45.93335" lon="4.76742">
        <ele>173</ele>
        <time>2018-03-18T09:59:16Z</time>
      </trkpt>
      <trkpt lat="45.9334" lon="4.76748">
        <ele>173</ele>
        <time>2018-03-18T09:59:17Z</time>
      </trkpt>
      <trkpt lat="45.93344" lon="4.76753">
        <ele>173</ele>
        <time>2018-03-18T09:59:18Z</time>
      </trkpt>
      <trkpt lat="45.93348" lon="4.76758">
        <ele>172</ele>
        <time>2018-03-18T09:59:19Z</time>
      </trkpt>
      <trkpt lat="45.93354" lon="4.76762">
        <ele>172</ele>
        <time>2018-03-18T09:59:20Z</time>
      </trkpt>
      <trkpt lat="45.93359" lon="4.76766">
        <ele>172</ele>
        <time>2018-03-18T09:59:21Z</time>
      </trkpt>
      <trkpt lat="45.93363" lon="4.7677">
        <ele>172</ele>
        <time>2018-03-18T09:59:22Z</time>
      </trkpt>
      <trkpt lat="45.93368" lon="4.76774">
        <ele>172</ele>
        <time>2018-03-18T09:59:23Z</time>
      </trkpt>
      <trkpt lat="45.93372" lon="4.76778">
        <ele>172</ele>
        <time>2018-03-18T09:59:24Z</time>
      </trkpt>
      <trkpt lat="45.93376" lon="4.76781">
        <ele>172</ele>
        <time>2018-03-18T09:59:25Z</time>
      </trkpt>
      <trkpt lat="45.9338" lon="4.76786">
        <ele>172</ele>
        <time>2018-03-18T09:59:26Z</time>
      </trkpt>
      <trkpt lat="45.93384" lon="4.76791">
        <ele>172</ele>
        <time>2018-03-18T09:59:27Z</time>
      </trkpt>
      <trkpt lat="45.93387" lon="4.76796">
        <ele>172</ele>
        <time>2018-03-18T09:59:28Z</time>
      </trkpt>
      <trkpt lat="45.93393" lon="4.76802">
        <ele>172</ele>
        <time>2018-03-18T09:59:29Z</time>
      </trkpt>
      <trkpt lat="45.93397" lon="4.76807">
        <ele>172</ele>
        <time>2018-03-18T09:59:30Z</time>
      </trkpt>
      <trkpt lat="45.93402" lon="4.76813">
        <ele>172</ele>
        <time>2018-03-18T09:59:31Z</time>
      </trkpt>
      <trkpt lat="45.93406" lon="4.76819">
        <ele>172</ele>
        <time>2018-03-18T09:59:32Z</time>
      </trkpt>
      <trkpt lat="45.9341" lon="4.76825">
        <ele>172</ele>
        <time>2018-03-18T09:59:33Z</time>
      </trkpt>
      <trkpt lat="45.93413" lon="4.76832">
        <ele>172</ele>
        <time>2018-03-18T09:59:34Z</time>
      </trkpt>
      <trkpt lat="45.93417" lon="4.76838">
        <ele>172</ele>
        <time>2018-03-18T09:59:35Z</time>
      </trkpt>
      <trkpt lat="45.9342" lon="4.76844">
        <ele>171</ele>
        <time>2018-03-18T09:59:36Z</time>
      </trkpt>
      <trkpt lat="45.93424" lon="4.7685">
        <ele>171</ele>
        <time>2018-03-18T09:59:37Z</time>
      </trkpt>
      <trkpt lat="45.93427" lon="4.76856">
        <ele>171</ele>
        <time>2018-03-18T09:59:38Z</time>
      </trkpt>
      <trkpt lat="45.93429" lon="4.76862">
        <ele>171</ele>
        <time>2018-03-18T09:59:39Z</time>
      </trkpt>
      <trkpt lat="45.93431" lon="4.76868">
        <ele>171</ele>
        <time>2018-03-18T09:59:40Z</time>
      </trkpt>
      <trkpt lat="45.93433" lon="4.76874">
        <ele>171</ele>
        <time>2018-03-18T09:59:41Z</time>
      </trkpt>
      <trkpt lat="45.93436" lon="4.7688">
        <ele>171</ele>
        <time>2018-03-18T09:59:42Z</time>
      </trkpt>
      <trkpt lat="45.93437" lon="4.76889">
        <ele>171</ele>
        <time>2018-03-18T09:59:43Z</time>
      </trkpt>
      <trkpt lat="45.9344" lon="4.76897">
        <ele>170</ele>
        <time>2018-03-18T09:59:44Z</time>
      </trkpt>
      <trkpt lat="45.93442" lon="4.76904">
        <ele>170</ele>
        <time>2018-03-18T09:59:45Z</time>
      </trkpt>
      <trkpt lat="45.93444" lon="4.7691">
        <ele>170</ele>
        <time>2018-03-18T09:59:46Z</time>
      </trkpt>
      <trkpt lat="45.93445" lon="4.76917">
        <ele>170</ele>
        <time>2018-03-18T09:59:47Z</time>
      </trkpt>
      <trkpt lat="45.93446" lon="4.76924">
        <ele>170</ele>
        <time>2018-03-18T09:59:48Z</time>
      </trkpt>
      <trkpt lat="45.93448" lon="4.76931">
        <ele>170</ele>
        <time>2018-03-18T09:59:49Z</time>
      </trkpt>
      <trkpt lat="45.93449" lon="4.76939">
        <ele>170</ele>
        <time>2018-03-18T09:59:50Z</time>
      </trkpt>
      <trkpt lat="45.9345" lon="4.76946">
        <ele>170</ele>
        <time>2018-03-18T09:59:51Z</time>
      </trkpt>
      <trkpt lat="45.93451" lon="4.76954">
        <ele>170</ele>
        <time>2018-03-18T09:59:52Z</time>
      </trkpt>
      <trkpt lat="45.93452" lon="4.76962">
        <ele>170</ele>
        <time>2018-03-18T09:59:53Z</time>
      </trkpt>
      <trkpt lat="45.93453" lon="4.76969">
        <ele>170</ele>
        <time>2018-03-18T09:59:54Z</time>
      </trkpt>
      <trkpt lat="45.93454" lon="4.76975">
        <ele>170</ele>
        <time>2018-03-18T09:59:55Z</time>
      </trkpt>
      <trkpt lat="45.93453" lon="4.76982">
        <ele>170</ele>
        <time>2018-03-18T09:59:56Z</time>
      </trkpt>
      <trkpt lat="45.93454" lon="4.76988">
        <ele>170</ele>
        <time>2018-03-18T09:59:57Z</time>
      </trkpt>
      <trkpt lat="45.93456" lon="4.76997">
        <ele>170</ele>
        <time>2018-03-18T09:59:58Z</time>
      </trkpt>
      <trkpt lat="45.93458" lon="4.77004">
        <ele>170</ele>
        <time>2018-03-18T09:59:59Z</time>
      </trkpt>
      <trkpt lat="45.9346" lon="4.77012">
        <ele>170</ele>
        <time>2018-03-18T10:00:00Z</time>
      </trkpt>
      <trkpt lat="45.93461" lon="4.77018">
        <ele>170</ele>
        <time>2018-03-18T10:00:01Z</time>
      </trkpt>
      <trkpt lat="45.93462" lon="4.77025">
        <ele>170</ele>
        <time>2018-03-18T10:00:02Z</time>
      </trkpt>
      <trkpt lat="45.93463" lon="4.77034">
        <ele>170</ele>
        <time>2018-03-18T10:00:03Z</time>
      </trkpt>
      <trkpt lat="45.93464" lon="4.7704">
        <ele>170</ele>
        <time>2018-03-18T10:00:04Z</time>
      </trkpt>
      <trkpt lat="45.93466" lon="4.77046">
        <ele>170</ele>
        <time>2018-03-18T10:00:05Z</time>
      </trkpt>
      <trkpt lat="45.93466" lon="4.77053">
        <ele>170</ele>
        <time>2018-03-18T10:00:06Z</time>
      </trkpt>
      <trkpt lat="45.93468" lon="4.77062">
        <ele>170</ele>
        <time>2018-03-18T10:00:07Z</time>
      </trkpt>
      <trkpt lat="45.93469" lon="4.77069">
        <ele>170</ele>
        <time>2018-03-18T10:00:08Z</time>
      </trkpt>
      <trkpt lat="45.9347" lon="4.77076">
        <ele>170</ele>
        <time>2018-03-18T10:00:09Z</time>
      </trkpt>
      <trkpt lat="45.93472" lon="4.77084">
        <ele>169</ele>
        <time>2018-03-18T10:00:10Z</time>
      </trkpt>
      <trkpt lat="45.93472" lon="4.77091">
        <ele>169</ele>
        <time>2018-03-18T10:00:11Z</time>
      </trkpt>
      <trkpt lat="45.93474" lon="4.77098">
        <ele>169</ele>
        <time>2018-03-18T10:00:12Z</time>
      </trkpt>
      <trkpt lat="45.93476" lon="4.77107">
        <ele>169</ele>
        <time>2018-03-18T10:00:13Z</time>
      </trkpt>
      <trkpt lat="45.93477" lon="4.77112">
        <ele>169</ele>
        <time>2018-03-18T10:00:14Z</time>
      </trkpt>
      <trkpt lat="45.93479" lon="4.7712">
        <ele>169</ele>
        <time>2018-03-18T10:00:15Z</time>
      </trkpt>
      <trkpt lat="45.9348" lon="4.77126">
        <ele>169</ele>
        <time>2018-03-18T10:00:16Z</time>
      </trkpt>
      <trkpt lat="45.93482" lon="4.77132">
        <ele>169</ele>
        <time>2018-03-18T10:00:17Z</time>
      </trkpt>
      <trkpt lat="45.93483" lon="4.7714">
        <ele>169</ele>
        <time>2018-03-18T10:00:18Z</time>
      </trkpt>
      <trkpt lat="45.93485" lon="4.77147">
        <ele>169</ele>
        <time>2018-03-18T10:00:19Z</time>
      </trkpt>
      <trkpt lat="45.93486" lon="4.77152">
        <ele>169</ele>
        <time>2018-03-18T10:00:20Z</time>
      </trkpt>
      <trkpt lat="45.93488" lon="4.77159">
        <ele>169</ele>
        <time>2018-03-18T10:00:21Z</time>
      </trkpt>
      <trkpt lat="45.93491" lon="4.77168">
        <ele>169</ele>
        <time>2018-03-18T10:00:22Z</time>
      </trkpt>
      <trkpt lat="45.93493" lon="4.77178">
        <ele>169</ele>
        <time>2018-03-18T10:00:23Z</time>
      </trkpt>
      <trkpt lat="45.93493" lon="4.77185">
        <ele>169</ele>
        <time>2018-03-18T10:00:24Z</time>
      </trkpt>
      <trkpt lat="45.93494" lon="4.77192">
        <ele>169</ele>
        <time>2018-03-18T10:00:25Z</time>
      </trkpt>
      <trkpt lat="45.93495" lon="4.77199">
        <ele>169</ele>
        <time>2018-03-18T10:00:26Z</time>
      </trkpt>
      <trkpt lat="45.93497" lon="4.77206">
        <ele>169</ele>
        <time>2018-03-18T10:00:27Z</time>
      </trkpt>
      <trkpt lat="45.93499" lon="4.77212">
        <ele>169</ele>
        <time>2018-03-18T10:00:28Z</time>
      </trkpt>
      <trkpt lat="45.935" lon="4.7722">
        <ele>169</ele>
        <time>2018-03-18T10:00:29Z</time>
      </trkpt>
      <trkpt lat="45.93501" lon="4.77227">
        <ele>169</ele>
        <time>2018-03-18T10:00:30Z</time>
      </trkpt>
      <trkpt lat="45.93503" lon="4.77232">
        <ele>169</ele>
        <time>2018-03-18T10:00:31Z</time>
      </trkpt>
      <trkpt lat="45.93505" lon="4.77239">
        <ele>169</ele>
        <time>2018-03-18T10:00:32Z</time>
      </trkpt>
      <trkpt lat="45.93507" lon="4.77246">
        <ele>170</ele>
        <time>2018-03-18T10:00:33Z</time>
      </trkpt>
      <trkpt lat="45.93508" lon="4.77252">
        <ele>170</ele>
        <time>2018-03-18T10:00:34Z</time>
      </trkpt>
      <trkpt lat="45.93509" lon="4.77259">
        <ele>170</ele>
        <time>2018-03-18T10:00:35Z</time>
      </trkpt>
      <trkpt lat="45.9351" lon="4.77266">
        <ele>170</ele>
        <time>2018-03-18T10:00:36Z</time>
      </trkpt>
      <trkpt lat="45.93512" lon="4.77277">
        <ele>170</ele>
        <time>2018-03-18T10:00:37Z</time>
      </trkpt>
      <trkpt lat="45.93513" lon="4.77284">
        <ele>170</ele>
        <time>2018-03-18T10:00:38Z</time>
      </trkpt>
      <trkpt lat="45.93515" lon="4.77295">
        <ele>170</ele>
        <time>2018-03-18T10:00:40Z</time>
      </trkpt>
      <trkpt lat="45.93517" lon="4.77301">
        <ele>170</ele>
        <time>2018-03-18T10:00:41Z</time>
      </trkpt>
      <trkpt lat="45.9352" lon="4.7731">
        <ele>170</ele>
        <time>2018-03-18T10:00:42Z</time>
      </trkpt>
      <trkpt lat="45.93521" lon="4.77316">
        <ele>170</ele>
        <time>2018-03-18T10:00:43Z</time>
      </trkpt>
      <trkpt lat="45.93523" lon="4.77322">
        <ele>170</ele>
        <time>2018-03-18T10:00:44Z</time>
      </trkpt>
      <trkpt lat="45.93523" lon="4.77328">
        <ele>170</ele>
        <time>2018-03-18T10:00:45Z</time>
      </trkpt>
      <trkpt lat="45.93524" lon="4.77335">
        <ele>170</ele>
        <time>2018-03-18T10:00:46Z</time>
      </trkpt>
      <trkpt lat="45.93526" lon="4.77342">
        <ele>170</ele>
        <time>2018-03-18T10:00:47Z</time>
      </trkpt>
      <trkpt lat="45.93528" lon="4.77349">
        <ele>170</ele>
        <time>2018-03-18T10:00:48Z</time>
      </trkpt>
      <trkpt lat="45.9353" lon="4.77355">
        <ele>170</ele>
        <time>2018-03-18T10:00:49Z</time>
      </trkpt>
      <trkpt lat="45.93531" lon="4.77362">
        <ele>170</ele>
        <time>2018-03-18T10:00:50Z</time>
      </trkpt>
      <trkpt lat="45.93533" lon="4.77369">
        <ele>170</ele>
        <time>2018-03-18T10:00:51Z</time>
      </trkpt>
      <trkpt lat="45.93535" lon="4.77376">
        <ele>170</ele>
        <time>2018-03-18T10:00:52Z</time>
      </trkpt>
      <trkpt lat="45.93536" lon="4.77383">
        <ele>170</ele>
        <time>2018-03-18T10:00:53Z</time>
      </trkpt>
      <trkpt lat="45.93539" lon="4.77395">
        <ele>170</ele>
        <time>2018-03-18T10:00:55Z</time>
      </trkpt>
      <trkpt lat="45.9354" lon="4.77402">
        <ele>170</ele>
        <time>2018-03-18T10:00:56Z</time>
      </trkpt>
      <trkpt lat="45.93541" lon="4.7741">
        <ele>170</ele>
        <time>2018-03-18T10:00:57Z</time>
      </trkpt>
      <trkpt lat="45.93543" lon="4.77416">
        <ele>170</ele>
        <time>2018-03-18T10:00:58Z</time>
      </trkpt>
      <trkpt lat="45.93545" lon="4.77423">
        <ele>170</ele>
        <time>2018-03-18T10:00:59Z</time>
      </trkpt>
      <trkpt lat="45.93546" lon="4.77432">
        <ele>169</ele>
        <time>2018-03-18T10:01:00Z</time>
      </trkpt>
      <trkpt lat="45.93548" lon="4.77439">
        <ele>169</ele>
        <time>2018-03-18T10:01:01Z</time>
      </trkpt>
      <trkpt lat="45.9355" lon="4.77446">
        <ele>169</ele>
        <time>2018-03-18T10:01:02Z</time>
      </trkpt>
      <trkpt lat="45.93551" lon="4.77453">
        <ele>169</ele>
        <time>2018-03-18T10:01:03Z</time>
      </trkpt>
      <trkpt lat="45.93554" lon="4.7746">
        <ele>169</ele>
        <time>2018-03-18T10:01:04Z</time>
      </trkpt>
      <trkpt lat="45.93555" lon="4.77467">
        <ele>169</ele>
        <time>2018-03-18T10:01:05Z</time>
      </trkpt>
      <trkpt lat="45.93556" lon="4.77476">
        <ele>169</ele>
        <time>2018-03-18T10:01:06Z</time>
      </trkpt>
      <trkpt lat="45.93559" lon="4.77484">
        <ele>169</ele>
        <time>2018-03-18T10:01:07Z</time>
      </trkpt>
      <trkpt lat="45.9356" lon="4.77488">
        <ele>169</ele>
        <time>2018-03-18T10:01:08Z</time>
      </trkpt>
      <trkpt lat="45.93562" lon="4.77496">
        <ele>169</ele>
        <time>2018-03-18T10:01:09Z</time>
      </trkpt>
      <trkpt lat="45.93563" lon="4.77501">
        <ele>169</ele>
        <time>2018-03-18T10:01:10Z</time>
      </trkpt>
      <trkpt lat="45.93564" lon="4.77509">
        <ele>169</ele>
        <time>2018-03-18T10:01:11Z</time>
      </trkpt>
      <trkpt lat="45.93566" lon="4.77517">
        <ele>169</ele>
        <time>2018-03-18T10:01:12Z</time>
      </trkpt>
      <trkpt lat="45.93573" lon="4.77536">
        <ele>169</ele>
        <time>2018-03-18T10:01:13Z</time>
      </trkpt>
      <trkpt lat="45.93575" lon="4.77545">
        <ele>169</ele>
        <time>2018-03-18T10:01:15Z</time>
      </trkpt>
      <trkpt lat="45.93578" lon="4.77554">
        <ele>169</ele>
        <time>2018-03-18T10:01:16Z</time>
      </trkpt>
      <trkpt lat="45.9358" lon="4.77564">
        <ele>169</ele>
        <time>2018-03-18T10:01:18Z</time>
      </trkpt>
      <trkpt lat="45.93583" lon="4.77574">
        <ele>170</ele>
        <time>2018-03-18T10:01:19Z</time>
      </trkpt>
      <trkpt lat="45.93586" lon="4.77584">
        <ele>170</ele>
        <time>2018-03-18T10:01:21Z</time>
      </trkpt>
      <trkpt lat="45.9359" lon="4.77594">
        <ele>170</ele>
        <time>2018-03-18T10:01:22Z</time>
      </trkpt>
      <trkpt lat="45.93591" lon="4.77595">
        <ele>170</ele>
        <time>2018-03-18T10:01:24Z</time>
      </trkpt>
      <trkpt lat="45.93595" lon="4.7761">
        <ele>170</ele>
        <time>2018-03-18T10:01:25Z</time>
      </trkpt>
      <trkpt lat="45.93597" lon="4.77618">
        <ele>170</ele>
        <time>2018-03-18T10:01:26Z</time>
      </trkpt>
      <trkpt lat="45.936" lon="4.77625">
        <ele>170</ele>
        <time>2018-03-18T10:01:27Z</time>
      </trkpt>
      <trkpt lat="45.93603" lon="4.77633">
        <ele>169</ele>
        <time>2018-03-18T10:01:28Z</time>
      </trkpt>
      <trkpt lat="45.93605" lon="4.77639">
        <ele>169</ele>
        <time>2018-03-18T10:01:29Z</time>
      </trkpt>
      <trkpt lat="45.93608" lon="4.77646">
        <ele>169</ele>
        <time>2018-03-18T10:01:30Z</time>
      </trkpt>
      <trkpt lat="45.9361" lon="4.7765">
        <ele>169</ele>
        <time>2018-03-18T10:01:31Z</time>
      </trkpt>
      <trkpt lat="45.93613" lon="4.77655">
        <ele>169</ele>
        <time>2018-03-18T10:01:32Z</time>
      </trkpt>
      <trkpt lat="45.93616" lon="4.77661">
        <ele>169</ele>
        <time>2018-03-18T10:01:33Z</time>
      </trkpt>
      <trkpt lat="45.9362" lon="4.77671">
        <ele>169</ele>
        <time>2018-03-18T10:01:35Z</time>
      </trkpt>
      <trkpt lat="45.93624" lon="4.77677">
        <ele>169</ele>
        <time>2018-03-18T10:01:36Z</time>
      </trkpt>
      <trkpt lat="45.93626" lon="4.77683">
        <ele>169</ele>
        <time>2018-03-18T10:01:37Z</time>
      </trkpt>
      <trkpt lat="45.93628" lon="4.77689">
        <ele>169</ele>
        <time>2018-03-18T10:01:38Z</time>
      </trkpt>
      <trkpt lat="45.93632" lon="4.77695">
        <ele>169</ele>
        <time>2018-03-18T10:01:39Z</time>
      </trkpt>
      <trkpt lat="45.93635" lon="4.777">
        <ele>169</ele>
        <time>2018-03-18T10:01:40Z</time>
      </trkpt>
      <trkpt lat="45.93638" lon="4.77705">
        <ele>170</ele>
        <time>2018-03-18T10:01:41Z</time>
      </trkpt>
      <trkpt lat="45.93641" lon="4.77709">
        <ele>170</ele>
        <time>2018-03-18T10:01:42Z</time>
      </trkpt>
      <trkpt lat="45.93647" lon="4.77719">
        <ele>170</ele>
        <time>2018-03-18T10:01:45Z</time>
      </trkpt>
      <trkpt lat="45.93649" lon="4.77723">
        <ele>170</ele>
        <time>2018-03-18T10:01:46Z</time>
      </trkpt>
      <trkpt lat="45.93653" lon="4.7773">
        <ele>170</ele>
        <time>2018-03-18T10:01:48Z</time>
      </trkpt>
      <trkpt lat="45.93655" lon="4.77734">
        <ele>170</ele>
        <time>2018-03-18T10:01:49Z</time>
      </trkpt>
      <trkpt lat="45.9366" lon="4.77741">
        <ele>170</ele>
        <time>2018-03-18T10:01:51Z</time>
      </trkpt>
      <trkpt lat="45.93662" lon="4.77745">
        <ele>171</ele>
        <time>2018-03-18T10:01:52Z</time>
      </trkpt>
      <trkpt lat="45.93667" lon="4.77753">
        <ele>171</ele>
        <time>2018-03-18T10:01:54Z</time>
      </trkpt>
      <trkpt lat="45.93669" lon="4.77757">
        <ele>171</ele>
        <time>2018-03-18T10:01:55Z</time>
      </trkpt>
      <trkpt lat="45.93674" lon="4.77764">
        <ele>170</ele>
        <time>2018-03-18T10:01:57Z</time>
      </trkpt>
      <trkpt lat="45.93676" lon="4.77768">
        <ele>170</ele>
        <time>2018-03-18T10:01:58Z</time>
      </trkpt>
      <trkpt lat="45.93681" lon="4.77775">
        <ele>170</ele>
        <time>2018-03-18T10:02:00Z</time>
      </trkpt>
      <trkpt lat="45.93683" lon="4.77778">
        <ele>170</ele>
        <time>2018-03-18T10:02:01Z</time>
      </trkpt>
      <trkpt lat="45.93688" lon="4.77785">
        <ele>170</ele>
        <time>2018-03-18T10:02:03Z</time>
      </trkpt>
      <trkpt lat="45.9369" lon="4.77789">
        <ele>170</ele>
        <time>2018-03-18T10:02:04Z</time>
      </trkpt>
      <trkpt lat="45.93695" lon="4.77795">
        <ele>169</ele>
        <time>2018-03-18T10:02:06Z</time>
      </trkpt>
      <trkpt lat="45.93697" lon="4.77798">
        <ele>169</ele>
        <time>2018-03-18T10:02:07Z</time>
      </trkpt>
      <trkpt lat="45.93702" lon="4.77805">
        <ele>169</ele>
        <time>2018-03-18T10:02:09Z</time>
      </trkpt>
      <trkpt lat="45.93704" lon="4.77807">
        <ele>169</ele>
        <time>2018-03-18T10:02:10Z</time>
      </trkpt>
      <trkpt lat="45.9371" lon="4.77816">
        <ele>169</ele>
        <time>2018-03-18T10:02:13Z</time>
      </trkpt>
      <trkpt lat="45.93712" lon="4.77819">
        <ele>169</ele>
        <time>2018-03-18T10:02:14Z</time>
      </trkpt>
      <trkpt lat="45.93719" lon="4.77827">
        <ele>168</ele>
        <time>2018-03-18T10:02:17Z</time>
      </trkpt>
      <trkpt lat="45.93721" lon="4.7783">
        <ele>168</ele>
        <time>2018-03-18T10:02:18Z</time>
      </trkpt>
      <trkpt lat="45.93725" lon="4.77835">
        <ele>167</ele>
        <time>2018-03-18T10:02:20Z</time>
      </trkpt>
      <trkpt lat="45.93728" lon="4.77839">
        <ele>167</ele>
        <time>2018-03-18T10:02:21Z</time>
      </trkpt>
      <trkpt lat="45.93732" lon="4.77845">
        <ele>167</ele>
        <time>2018-03-18T10:02:23Z</time>
      </trkpt>
      <trkpt lat="45.93735" lon="4.77849">
        <ele>167</ele>
        <time>2018-03-18T10:02:24Z</time>
      </trkpt>
      <trkpt lat="45.9374" lon="4.77855">
        <ele>167</ele>
        <time>2018-03-18T10:02:26Z</time>
      </trkpt>
      <trkpt lat="45.93742" lon="4.77858">
        <ele>167</ele>
        <time>2018-03-18T10:02:27Z</time>
      </trkpt>
      <trkpt lat="45.93745" lon="4.77861">
        <ele>167</ele>
        <time>2018-03-18T10:02:28Z</time>
      </trkpt>
      <trkpt lat="45.93751" lon="4.7787">
        <ele>166</ele>
        <time>2018-03-18T10:02:29Z</time>
      </trkpt>
      <trkpt lat="45.93757" lon="4.77878">
        <ele>166</ele>
        <time>2018-03-18T10:02:31Z</time>
      </trkpt>
      <trkpt lat="45.93759" lon="4.77882">
        <ele>166</ele>
        <time>2018-03-18T10:02:32Z</time>
      </trkpt>
      <trkpt lat="45.93765" lon="4.77891">
        <ele>166</ele>
        <time>2018-03-18T10:02:34Z</time>
      </trkpt>
      <trkpt lat="45.93768" lon="4.77894">
        <ele>166</ele>
        <time>2018-03-18T10:02:35Z</time>
      </trkpt>
      <trkpt lat="45.93773" lon="4.77902">
        <ele>166</ele>
        <time>2018-03-18T10:02:37Z</time>
      </trkpt>
      <trkpt lat="45.93776" lon="4.77905">
        <ele>166</ele>
        <time>2018-03-18T10:02:38Z</time>
      </trkpt>
      <trkpt lat="45.93782" lon="4.77913">
        <ele>166</ele>
        <time>2018-03-18T10:02:40Z</time>
      </trkpt>
      <trkpt lat="45.93785" lon="4.77917">
        <ele>168</ele>
        <time>2018-03-18T10:02:41Z</time>
      </trkpt>
      <trkpt lat="45.93789" lon="4.77921">
        <ele>168</ele>
        <time>2018-03-18T10:02:42Z</time>
      </trkpt>
      <trkpt lat="45.93794" lon="4.77927">
        <ele>168</ele>
        <time>2018-03-18T10:02:43Z</time>
      </trkpt>
      <trkpt lat="45.938" lon="4.77935">
        <ele>169</ele>
        <time>2018-03-18T10:02:45Z</time>
      </trkpt>
      <trkpt lat="45.93804" lon="4.7794">
        <ele>169</ele>
        <time>2018-03-18T10:02:46Z</time>
      </trkpt>
      <trkpt lat="45.93807" lon="4.77944">
        <ele>169</ele>
        <time>2018-03-18T10:02:47Z</time>
      </trkpt>
      <trkpt lat="45.9381" lon="4.77949">
        <ele>169</ele>
        <time>2018-03-18T10:02:48Z</time>
      </trkpt>
      <trkpt lat="45.93814" lon="4.77954">
        <ele>170</ele>
        <time>2018-03-18T10:02:49Z</time>
      </trkpt>
      <trkpt lat="45.93818" lon="4.77959">
        <ele>170</ele>
        <time>2018-03-18T10:02:50Z</time>
      </trkpt>
      <trkpt lat="45.93821" lon="4.77963">
        <ele>171</ele>
        <time>2018-03-18T10:02:51Z</time>
      </trkpt>
      <trkpt lat="45.93824" lon="4.77968">
        <ele>171</ele>
        <time>2018-03-18T10:02:52Z</time>
      </trkpt>
      <trkpt lat="45.93828" lon="4.77973">
        <ele>172</ele>
        <time>2018-03-18T10:02:53Z</time>
      </trkpt>
      <trkpt lat="45.93832" lon="4.77977">
        <ele>173</ele>
        <time>2018-03-18T10:02:54Z</time>
      </trkpt>
      <trkpt lat="45.93836" lon="4.77982">
        <ele>178</ele>
        <time>2018-03-18T10:02:55Z</time>
      </trkpt>
      <trkpt lat="45.93838" lon="4.77987">
        <ele>179</ele>
        <time>2018-03-18T10:02:56Z</time>
      </trkpt>
      <trkpt lat="45.93842" lon="4.77996">
        <ele>179</ele>
        <time>2018-03-18T10:02:59Z</time>
      </trkpt>
      <trkpt lat="45.93842" lon="4.78004">
        <ele>181</ele>
        <time>2018-03-18T10:03:00Z</time>
      </trkpt>
      <trkpt lat="45.93843" lon="4.78016">
        <ele>181</ele>
        <time>2018-03-18T10:03:02Z</time>
      </trkpt>
      <trkpt lat="45.93843" lon="4.78021">
        <ele>182</ele>
        <time>2018-03-18T10:03:03Z</time>
      </trkpt>
      <trkpt lat="45.93845" lon="4.78031">
        <ele>182</ele>
        <time>2018-03-18T10:03:05Z</time>
      </trkpt>
      <trkpt lat="45.93847" lon="4.78035">
        <ele>182</ele>
        <time>2018-03-18T10:03:06Z</time>
      </trkpt>
      <trkpt lat="45.93849" lon="4.78046">
        <ele>183</ele>
        <time>2018-03-18T10:03:08Z</time>
      </trkpt>
      <trkpt lat="45.93848" lon="4.78052">
        <ele>183</ele>
        <time>2018-03-18T10:03:09Z</time>
      </trkpt>
      <trkpt lat="45.93846" lon="4.78061">
        <ele>182</ele>
        <time>2018-03-18T10:03:11Z</time>
      </trkpt>
      <trkpt lat="45.93845" lon="4.78066">
        <ele>182</ele>
        <time>2018-03-18T10:03:12Z</time>
      </trkpt>
      <trkpt lat="45.93844" lon="4.78077">
        <ele>182</ele>
        <time>2018-03-18T10:03:14Z</time>
      </trkpt>
      <trkpt lat="45.93843" lon="4.78083">
        <ele>181</ele>
        <time>2018-03-18T10:03:15Z</time>
      </trkpt>
      <trkpt lat="45.93841" lon="4.78094">
        <ele>182</ele>
        <time>2018-03-18T10:03:17Z</time>
      </trkpt>
      <trkpt lat="45.9384" lon="4.781">
        <ele>183</ele>
        <time>2018-03-18T10:03:18Z</time>
      </trkpt>
      <trkpt lat="45.93837" lon="4.78111">
        <ele>184</ele>
        <time>2018-03-18T10:03:20Z</time>
      </trkpt>
      <trkpt lat="45.93836" lon="4.78116">
        <ele>184</ele>
        <time>2018-03-18T10:03:21Z</time>
      </trkpt>
      <trkpt lat="45.93834" lon="4.78124">
        <ele>184</ele>
        <time>2018-03-18T10:03:23Z</time>
      </trkpt>
      <trkpt lat="45.93832" lon="4.7813">
        <ele>180</ele>
        <time>2018-03-18T10:03:24Z</time>
      </trkpt>
      <trkpt lat="45.93829" lon="4.7814">
        <ele>180</ele>
        <time>2018-03-18T10:03:27Z</time>
      </trkpt>
      <trkpt lat="45.93826" lon="4.78149">
        <ele>180</ele>
        <time>2018-03-18T10:03:28Z</time>
      </trkpt>
      <trkpt lat="45.93823" lon="4.78158">
        <ele>181</ele>
        <time>2018-03-18T10:03:30Z</time>
      </trkpt>
      <trkpt lat="45.93822" lon="4.78164">
        <ele>181</ele>
        <time>2018-03-18T10:03:31Z</time>
      </trkpt>
      <trkpt lat="45.93819" lon="4.78175">
        <ele>182</ele>
        <time>2018-03-18T10:03:33Z</time>
      </trkpt>
      <trkpt lat="45.93817" lon="4.7818">
        <ele>182</ele>
        <time>2018-03-18T10:03:34Z</time>
      </trkpt>
      <trkpt lat="45.93814" lon="4.7819">
        <ele>182</ele>
        <time>2018-03-18T10:03:36Z</time>
      </trkpt>
      <trkpt lat="45.93813" lon="4.78196">
        <ele>182</ele>
        <time>2018-03-18T10:03:37Z</time>
      </trkpt>
      <trkpt lat="45.93811" lon="4.78207">
        <ele>182</ele>
        <time>2018-03-18T10:03:39Z</time>
      </trkpt>
      <trkpt lat="45.93811" lon="4.78213">
        <ele>182</ele>
        <time>2018-03-18T10:03:40Z</time>
      </trkpt>
      <trkpt lat="45.93809" lon="4.78223">
        <ele>182</ele>
        <time>2018-03-18T10:03:42Z</time>
      </trkpt>
      <trkpt lat="45.93806" lon="4.78229">
        <ele>182</ele>
        <time>2018-03-18T10:03:43Z</time>
      </trkpt>
      <trkpt lat="45.93804" lon="4.78236">
        <ele>182</ele>
        <time>2018-03-18T10:03:44Z</time>
      </trkpt>
      <trkpt lat="45.93801" lon="4.78242">
        <ele>182</ele>
        <time>2018-03-18T10:03:45Z</time>
      </trkpt>
      <trkpt lat="45.93799" lon="4.78248">
        <ele>182</ele>
        <time>2018-03-18T10:03:46Z</time>
      </trkpt>
      <trkpt lat="45.93797" lon="4.78255">
        <ele>183</ele>
        <time>2018-03-18T10:03:47Z</time>
      </trkpt>
      <trkpt lat="45.93794" lon="4.78267">
        <ele>183</ele>
        <time>2018-03-18T10:03:49Z</time>
      </trkpt>
      <trkpt lat="45.93792" lon="4.78274">
        <ele>183</ele>
        <time>2018-03-18T10:03:50Z</time>
      </trkpt>
      <trkpt lat="45.93792" lon="4.78281">
        <ele>183</ele>
        <time>2018-03-18T10:03:51Z</time>
      </trkpt>
      <trkpt lat="45.9379" lon="4.78288">
        <ele>183</ele>
        <time>2018-03-18T10:03:52Z</time>
      </trkpt>
      <trkpt lat="45.9379" lon="4.78294">
        <ele>183</ele>
        <time>2018-03-18T10:03:53Z</time>
      </trkpt>
      <trkpt lat="45.93788" lon="4.78301">
        <ele>183</ele>
        <time>2018-03-18T10:03:54Z</time>
      </trkpt>
      <trkpt lat="45.93786" lon="4.78308">
        <ele>183</ele>
        <time>2018-03-18T10:03:55Z</time>
      </trkpt>
      <trkpt lat="45.93783" lon="4.78316">
        <ele>183</ele>
        <time>2018-03-18T10:03:56Z</time>
      </trkpt>
      <trkpt lat="45.93781" lon="4.78322">
        <ele>183</ele>
        <time>2018-03-18T10:03:57Z</time>
      </trkpt>
      <trkpt lat="45.93778" lon="4.78329">
        <ele>183</ele>
        <time>2018-03-18T10:03:58Z</time>
      </trkpt>
      <trkpt lat="45.93773" lon="4.78337">
        <ele>183</ele>
        <time>2018-03-18T10:04:00Z</time>
      </trkpt>
      <trkpt lat="45.93772" lon="4.78345">
        <ele>183</ele>
        <time>2018-03-18T10:04:01Z</time>
      </trkpt>
      <trkpt lat="45.93769" lon="4.7835">
        <ele>183</ele>
        <time>2018-03-18T10:04:02Z</time>
      </trkpt>
      <trkpt lat="45.93769" lon="4.78358">
        <ele>183</ele>
        <time>2018-03-18T10:04:03Z</time>
      </trkpt>
      <trkpt lat="45.93766" lon="4.78365">
        <ele>183</ele>
        <time>2018-03-18T10:04:04Z</time>
      </trkpt>
      <trkpt lat="45.93764" lon="4.78371">
        <ele>183</ele>
        <time>2018-03-18T10:04:05Z</time>
      </trkpt>
      <trkpt lat="45.93761" lon="4.78378">
        <ele>183</ele>
        <time>2018-03-18T10:04:06Z</time>
      </trkpt>
      <trkpt lat="45.9376" lon="4.78385">
        <ele>183</ele>
        <time>2018-03-18T10:04:07Z</time>
      </trkpt>
      <trkpt lat="45.9376" lon="4.78394">
        <ele>183</ele>
        <time>2018-03-18T10:04:08Z</time>
      </trkpt>
      <trkpt lat="45.93758" lon="4.784">
        <ele>183</ele>
        <time>2018-03-18T10:04:09Z</time>
      </trkpt>
      <trkpt lat="45.93756" lon="4.78408">
        <ele>182</ele>
        <time>2018-03-18T10:04:10Z</time>
      </trkpt>
      <trkpt lat="45.93755" lon="4.78415">
        <ele>182</ele>
        <time>2018-03-18T10:04:11Z</time>
      </trkpt>
      <trkpt lat="45.93754" lon="4.78425">
        <ele>182</ele>
        <time>2018-03-18T10:04:12Z</time>
      </trkpt>
      <trkpt lat="45.93751" lon="4.78433">
        <ele>183</ele>
        <time>2018-03-18T10:04:13Z</time>
      </trkpt>
      <trkpt lat="45.9375" lon="4.78441">
        <ele>183</ele>
        <time>2018-03-18T10:04:14Z</time>
      </trkpt>
      <trkpt lat="45.93748" lon="4.78448">
        <ele>180</ele>
        <time>2018-03-18T10:04:15Z</time>
      </trkpt>
      <trkpt lat="45.93745" lon="4.78455">
        <ele>180</ele>
        <time>2018-03-18T10:04:16Z</time>
      </trkpt>
      <trkpt lat="45.93742" lon="4.78463">
        <ele>180</ele>
        <time>2018-03-18T10:04:17Z</time>
      </trkpt>
      <trkpt lat="45.93739" lon="4.78471">
        <ele>180</ele>
        <time>2018-03-18T10:04:18Z</time>
      </trkpt>
      <trkpt lat="45.93737" lon="4.78482">
        <ele>180</ele>
        <time>2018-03-18T10:04:19Z</time>
      </trkpt>
      <trkpt lat="45.93734" lon="4.78491">
        <ele>180</ele>
        <time>2018-03-18T10:04:20Z</time>
      </trkpt>
      <trkpt lat="45.93733" lon="4.785">
        <ele>179</ele>
        <time>2018-03-18T10:04:21Z</time>
      </trkpt>
      <trkpt lat="45.93731" lon="4.78511">
        <ele>179</ele>
        <time>2018-03-18T10:04:22Z</time>
      </trkpt>
      <trkpt lat="45.93728" lon="4.78522">
        <ele>179</ele>
        <time>2018-03-18T10:04:23Z</time>
      </trkpt>
      <trkpt lat="45.93725" lon="4.78531">
        <ele>178</ele>
        <time>2018-03-18T10:04:24Z</time>
      </trkpt>
      <trkpt lat="45.93723" lon="4.78539">
        <ele>178</ele>
        <time>2018-03-18T10:04:25Z</time>
      </trkpt>
      <trkpt lat="45.93718" lon="4.78549">
        <ele>178</ele>
        <time>2018-03-18T10:04:26Z</time>
      </trkpt>
      <trkpt lat="45.93716" lon="4.78557">
        <ele>178</ele>
        <time>2018-03-18T10:04:27Z</time>
      </trkpt>
      <trkpt lat="45.93714" lon="4.78566">
        <ele>178</ele>
        <time>2018-03-18T10:04:28Z</time>
      </trkpt>
      <trkpt lat="45.93712" lon="4.78575">
        <ele>177</ele>
        <time>2018-03-18T10:04:29Z</time>
      </trkpt>
      <trkpt lat="45.9371" lon="4.78584">
        <ele>176</ele>
        <time>2018-03-18T10:04:30Z</time>
      </trkpt>
      <trkpt lat="45.93709" lon="4.78592">
        <ele>176</ele>
        <time>2018-03-18T10:04:31Z</time>
      </trkpt>
      <trkpt lat="45.93706" lon="4.78598">
        <ele>176</ele>
        <time>2018-03-18T10:04:32Z</time>
      </trkpt>
      <trkpt lat="45.93704" lon="4.78605">
        <ele>176</ele>
        <time>2018-03-18T10:04:33Z</time>
      </trkpt>
      <trkpt lat="45.93705" lon="4.78616">
        <ele>176</ele>
        <time>2018-03-18T10:04:34Z</time>
      </trkpt>
      <trkpt lat="45.93705" lon="4.78623">
        <ele>176</ele>
        <time>2018-03-18T10:04:35Z</time>
      </trkpt>
      <trkpt lat="45.9371" lon="4.78632">
        <ele>176</ele>
        <time>2018-03-18T10:04:37Z</time>
      </trkpt>
      <trkpt lat="45.93716" lon="4.78634">
        <ele>176</ele>
        <time>2018-03-18T10:04:38Z</time>
      </trkpt>
      <trkpt lat="45.9372" lon="4.78636">
        <ele>177</ele>
        <time>2018-03-18T10:04:39Z</time>
      </trkpt>
      <trkpt lat="45.93724" lon="4.78639">
        <ele>177</ele>
        <time>2018-03-18T10:04:40Z</time>
      </trkpt>
      <trkpt lat="45.93728" lon="4.78631">
        <ele>177</ele>
        <time>2018-03-18T10:04:43Z</time>
      </trkpt>
      <trkpt lat="45.9373" lon="4.78628">
        <ele>177</ele>
        <time>2018-03-18T10:04:44Z</time>
      </trkpt>
      <trkpt lat="45.93735" lon="4.78625">
        <ele>177</ele>
        <time>2018-03-18T10:04:46Z</time>
      </trkpt>
      <trkpt lat="45.93744" lon="4.78618">
        <ele>177</ele>
        <time>2018-03-18T10:04:47Z</time>
      </trkpt>
      <trkpt lat="45.93751" lon="4.7862">
        <ele>181</ele>
        <time>2018-03-18T10:04:52Z</time>
      </trkpt>
      <trkpt lat="45.9376" lon="4.78621">
        <ele>181</ele>
        <time>2018-03-18T10:04:53Z</time>
      </trkpt>
      <trkpt lat="45.93767" lon="4.78621">
        <ele>181</ele>
        <time>2018-03-18T10:04:57Z</time>
      </trkpt>
      <trkpt lat="45.9377" lon="4.7862">
        <ele>181</ele>
        <time>2018-03-18T10:04:58Z</time>
      </trkpt>
      <trkpt lat="45.93777" lon="4.78617">
        <ele>181</ele>
        <time>2018-03-18T10:05:01Z</time>
      </trkpt>
      <trkpt lat="45.93779" lon="4.78617">
        <ele>181</ele>
        <time>2018-03-18T10:05:02Z</time>
      </trkpt>
      <trkpt lat="45.93783" lon="4.78616">
        <ele>182</ele>
        <time>2018-03-18T10:05:04Z</time>
      </trkpt>
      <trkpt lat="45.9379" lon="4.78614">
        <ele>182</ele>
        <time>2018-03-18T10:05:05Z</time>
      </trkpt>
      <trkpt lat="45.93796" lon="4.78611">
        <ele>182</ele>
        <time>2018-03-18T10:05:08Z</time>
      </trkpt>
      <trkpt lat="45.93799" lon="4.7861">
        <ele>182</ele>
        <time>2018-03-18T10:05:09Z</time>
      </trkpt>
      <trkpt lat="45.93806" lon="4.78607">
        <ele>183</ele>
        <time>2018-03-18T10:05:11Z</time>
      </trkpt>
      <trkpt lat="45.93815" lon="4.78603">
        <ele>183</ele>
        <time>2018-03-18T10:05:12Z</time>
      </trkpt>
      <trkpt lat="45.93823" lon="4.78599">
        <ele>184</ele>
        <time>2018-03-18T10:05:14Z</time>
      </trkpt>
      <trkpt lat="45.93825" lon="4.78598">
        <ele>184</ele>
        <time>2018-03-18T10:05:15Z</time>
      </trkpt>
      <trkpt lat="45.93831" lon="4.78595">
        <ele>185</ele>
        <time>2018-03-18T10:05:18Z</time>
      </trkpt>
      <trkpt lat="45.93833" lon="4.78595">
        <ele>185</ele>
        <time>2018-03-18T10:05:19Z</time>
      </trkpt>
      <trkpt lat="45.93842" lon="4.78593">
        <ele>187</ele>
        <time>2018-03-18T10:05:24Z</time>
      </trkpt>
      <trkpt lat="45.93843" lon="4.78593">
        <ele>188</ele>
        <time>2018-03-18T10:05:25Z</time>
      </trkpt>
      <trkpt lat="45.93851" lon="4.78592">
        <ele>188</ele>
        <time>2018-03-18T10:05:29Z</time>
      </trkpt>
      <trkpt lat="45.93853" lon="4.78592">
        <ele>188</ele>
        <time>2018-03-18T10:05:30Z</time>
      </trkpt>
      <trkpt lat="45.93861" lon="4.78596">
        <ele>188</ele>
        <time>2018-03-18T10:05:36Z</time>
      </trkpt>
      <trkpt lat="45.93862" lon="4.78596">
        <ele>188</ele>
        <time>2018-03-18T10:05:37Z</time>
      </trkpt>
      <trkpt lat="45.93871" lon="4.78596">
        <ele>189</ele>
        <time>2018-03-18T10:05:42Z</time>
      </trkpt>
      <trkpt lat="45.93872" lon="4.78596">
        <ele>189</ele>
        <time>2018-03-18T10:05:43Z</time>
      </trkpt>
      <trkpt lat="45.93878" lon="4.78593">
        <ele>189</ele>
        <time>2018-03-18T10:05:46Z</time>
      </trkpt>
      <trkpt lat="45.93881" lon="4.7859">
        <ele>189</ele>
        <time>2018-03-18T10:05:47Z</time>
      </trkpt>
      <trkpt lat="45.9389" lon="4.78581">
        <ele>192</ele>
        <time>2018-03-18T10:05:48Z</time>
      </trkpt>
      <trkpt lat="45.93897" lon="4.78577">
        <ele>192</ele>
        <time>2018-03-18T10:05:53Z</time>
      </trkpt>
      <trkpt lat="45.93899" lon="4.78577">
        <ele>192</ele>
        <time>2018-03-18T10:05:54Z</time>
      </trkpt>
      <trkpt lat="45.93906" lon="4.78569">
        <ele>192</ele>
        <time>2018-03-18T10:05:58Z</time>
      </trkpt>
      <trkpt lat="45.93908" lon="4.78568">
        <ele>192</ele>
        <time>2018-03-18T10:05:59Z</time>
      </trkpt>
      <trkpt lat="45.93916" lon="4.78565">
        <ele>192</ele>
        <time>2018-03-18T10:06:03Z</time>
      </trkpt>
      <trkpt lat="45.93918" lon="4.78565">
        <ele>196</ele>
        <time>2018-03-18T10:06:04Z</time>
      </trkpt>
      <trkpt lat="45.93926" lon="4.78563">
        <ele>196</ele>
        <time>2018-03-18T10:06:10Z</time>
      </trkpt>
      <trkpt lat="45.93928" lon="4.78564">
        <ele>196</ele>
        <time>2018-03-18T10:06:11Z</time>
      </trkpt>
      <trkpt lat="45.93933" lon="4.78573">
        <ele>196</ele>
        <time>2018-03-18T10:06:15Z</time>
      </trkpt>
      <trkpt lat="45.93935" lon="4.78587">
        <ele>195</ele>
        <time>2018-03-18T10:06:16Z</time>
      </trkpt>
      <trkpt lat="45.93936" lon="4.78599">
        <ele>195</ele>
        <time>2018-03-18T10:06:20Z</time>
      </trkpt>
      <trkpt lat="45.93937" lon="4.78611">
        <ele>196</ele>
        <time>2018-03-18T10:06:21Z</time>
      </trkpt>
      <trkpt lat="45.93937" lon="4.78617">
        <ele>196</ele>
        <time>2018-03-18T10:06:23Z</time>
      </trkpt>
      <trkpt lat="45.93938" lon="4.78627">
        <ele>195</ele>
        <time>2018-03-18T10:06:24Z</time>
      </trkpt>
      <trkpt lat="45.93939" lon="4.78638">
        <ele>195</ele>
        <time>2018-03-18T10:06:26Z</time>
      </trkpt>
      <trkpt lat="45.93941" lon="4.78645">
        <ele>195</ele>
        <time>2018-03-18T10:06:27Z</time>
      </trkpt>
      <trkpt lat="45.93941" lon="4.78657">
        <ele>195</ele>
        <time>2018-03-18T10:06:29Z</time>
      </trkpt>
      <trkpt lat="45.93941" lon="4.78663">
        <ele>194</ele>
        <time>2018-03-18T10:06:30Z</time>
      </trkpt>
      <trkpt lat="45.9394" lon="4.78675">
        <ele>194</ele>
        <time>2018-03-18T10:06:32Z</time>
      </trkpt>
      <trkpt lat="45.93939" lon="4.78681">
        <ele>194</ele>
        <time>2018-03-18T10:06:33Z</time>
      </trkpt>
      <trkpt lat="45.93939" lon="4.78688">
        <ele>194</ele>
        <time>2018-03-18T10:06:34Z</time>
      </trkpt>
      <trkpt lat="45.93939" lon="4.78694">
        <ele>194</ele>
        <time>2018-03-18T10:06:35Z</time>
      </trkpt>
      <trkpt lat="45.93938" lon="4.78705">
        <ele>194</ele>
        <time>2018-03-18T10:06:37Z</time>
      </trkpt>
      <trkpt lat="45.93937" lon="4.78711">
        <ele>194</ele>
        <time>2018-03-18T10:06:38Z</time>
      </trkpt>
      <trkpt lat="45.93938" lon="4.78722">
        <ele>194</ele>
        <time>2018-03-18T10:06:40Z</time>
      </trkpt>
      <trkpt lat="45.93939" lon="4.78729">
        <ele>194</ele>
        <time>2018-03-18T10:06:41Z</time>
      </trkpt>
      <trkpt lat="45.93939" lon="4.78742">
        <ele>193</ele>
        <time>2018-03-18T10:06:43Z</time>
      </trkpt>
      <trkpt lat="45.93939" lon="4.78748">
        <ele>193</ele>
        <time>2018-03-18T10:06:44Z</time>
      </trkpt>
      <trkpt lat="45.93939" lon="4.7876">
        <ele>193</ele>
        <time>2018-03-18T10:06:46Z</time>
      </trkpt>
      <trkpt lat="45.93938" lon="4.78766">
        <ele>193</ele>
        <time>2018-03-18T10:06:47Z</time>
      </trkpt>
      <trkpt lat="45.93938" lon="4.78775">
        <ele>194</ele>
        <time>2018-03-18T10:06:48Z</time>
      </trkpt>
      <trkpt lat="45.93937" lon="4.78781">
        <ele>194</ele>
        <time>2018-03-18T10:06:49Z</time>
      </trkpt>
      <trkpt lat="45.93938" lon="4.78794">
        <ele>194</ele>
        <time>2018-03-18T10:06:51Z</time>
      </trkpt>
      <trkpt lat="45.93939" lon="4.788">
        <ele>194</ele>
        <time>2018-03-18T10:06:52Z</time>
      </trkpt>
      <trkpt lat="45.93939" lon="4.78813">
        <ele>194</ele>
        <time>2018-03-18T10:06:54Z</time>
      </trkpt>
      <trkpt lat="45.93939" lon="4.78819">
        <ele>194</ele>
        <time>2018-03-18T10:06:55Z</time>
      </trkpt>
      <trkpt lat="45.9394" lon="4.78831">
        <ele>194</ele>
        <time>2018-03-18T10:06:57Z</time>
      </trkpt>
      <trkpt lat="45.9394" lon="4.78837">
        <ele>193</ele>
        <time>2018-03-18T10:06:58Z</time>
      </trkpt>
      <trkpt lat="45.9394" lon="4.78843">
        <ele>193</ele>
        <time>2018-03-18T10:06:59Z</time>
      </trkpt>
      <trkpt lat="45.9394" lon="4.78851">
        <ele>194</ele>
        <time>2018-03-18T10:07:00Z</time>
      </trkpt>
      <trkpt lat="45.93941" lon="4.78863">
        <ele>194</ele>
        <time>2018-03-18T10:07:02Z</time>
      </trkpt>
      <trkpt lat="45.93941" lon="4.7887">
        <ele>194</ele>
        <time>2018-03-18T10:07:03Z</time>
      </trkpt>
      <trkpt lat="45.9394" lon="4.78882">
        <ele>194</ele>
        <time>2018-03-18T10:07:05Z</time>
      </trkpt>
      <trkpt lat="45.9394" lon="4.78889">
        <ele>193</ele>
        <time>2018-03-18T10:07:06Z</time>
      </trkpt>
      <trkpt lat="45.93941" lon="4.78901">
        <ele>193</ele>
        <time>2018-03-18T10:07:08Z</time>
      </trkpt>
      <trkpt lat="45.93941" lon="4.78906">
        <ele>193</ele>
        <time>2018-03-18T10:07:09Z</time>
      </trkpt>
      <trkpt lat="45.93939" lon="4.78918">
        <ele>193</ele>
        <time>2018-03-18T10:07:11Z</time>
      </trkpt>
      <trkpt lat="45.9394" lon="4.78925">
        <ele>193</ele>
        <time>2018-03-18T10:07:12Z</time>
      </trkpt>
      <trkpt lat="45.9394" lon="4.78932">
        <ele>193</ele>
        <time>2018-03-18T10:07:13Z</time>
      </trkpt>
      <trkpt lat="45.93941" lon="4.78938">
        <ele>194</ele>
        <time>2018-03-18T10:07:14Z</time>
      </trkpt>
      <trkpt lat="45.93941" lon="4.7895">
        <ele>194</ele>
        <time>2018-03-18T10:07:16Z</time>
      </trkpt>
      <trkpt lat="45.93942" lon="4.78957">
        <ele>194</ele>
        <time>2018-03-18T10:07:17Z</time>
      </trkpt>
      <trkpt lat="45.93943" lon="4.78966">
        <ele>194</ele>
        <time>2018-03-18T10:07:19Z</time>
      </trkpt>
      <trkpt lat="45.93943" lon="4.7897">
        <ele>194</ele>
        <time>2018-03-18T10:07:20Z</time>
      </trkpt>
      <trkpt lat="45.93941" lon="4.78982">
        <ele>194</ele>
        <time>2018-03-18T10:07:22Z</time>
      </trkpt>
      <trkpt lat="45.93944" lon="4.78991">
        <ele>194</ele>
        <time>2018-03-18T10:07:23Z</time>
      </trkpt>
      <trkpt lat="45.93945" lon="4.79004">
        <ele>195</ele>
        <time>2018-03-18T10:07:25Z</time>
      </trkpt>
      <trkpt lat="45.93945" lon="4.79009">
        <ele>195</ele>
        <time>2018-03-18T10:07:26Z</time>
      </trkpt>
      <trkpt lat="45.93945" lon="4.79019">
        <ele>195</ele>
        <time>2018-03-18T10:07:28Z</time>
      </trkpt>
      <trkpt lat="45.93944" lon="4.79025">
        <ele>195</ele>
        <time>2018-03-18T10:07:29Z</time>
      </trkpt>
      <trkpt lat="45.93945" lon="4.79036">
        <ele>195</ele>
        <time>2018-03-18T10:07:31Z</time>
      </trkpt>
      <trkpt lat="45.93945" lon="4.79042">
        <ele>195</ele>
        <time>2018-03-18T10:07:32Z</time>
      </trkpt>
      <trkpt lat="45.93946" lon="4.79053">
        <ele>196</ele>
        <time>2018-03-18T10:07:34Z</time>
      </trkpt>
      <trkpt lat="45.93946" lon="4.79059">
        <ele>196</ele>
        <time>2018-03-18T10:07:35Z</time>
      </trkpt>
      <trkpt lat="45.93947" lon="4.7907">
        <ele>196</ele>
        <time>2018-03-18T10:07:37Z</time>
      </trkpt>
      <trkpt lat="45.93947" lon="4.79075">
        <ele>196</ele>
        <time>2018-03-18T10:07:38Z</time>
      </trkpt>
      <trkpt lat="45.93948" lon="4.79085">
        <ele>196</ele>
        <time>2018-03-18T10:07:40Z</time>
      </trkpt>
      <trkpt lat="45.93949" lon="4.79091">
        <ele>196</ele>
        <time>2018-03-18T10:07:41Z</time>
      </trkpt>
      <trkpt lat="45.93949" lon="4.79102">
        <ele>196</ele>
        <time>2018-03-18T10:07:43Z</time>
      </trkpt>
      <trkpt lat="45.93949" lon="4.79107">
        <ele>196</ele>
        <time>2018-03-18T10:07:44Z</time>
      </trkpt>
      <trkpt lat="45.93948" lon="4.79118">
        <ele>197</ele>
        <time>2018-03-18T10:07:46Z</time>
      </trkpt>
      <trkpt lat="45.93948" lon="4.79124">
        <ele>197</ele>
        <time>2018-03-18T10:07:47Z</time>
      </trkpt>
      <trkpt lat="45.93948" lon="4.79135">
        <ele>197</ele>
        <time>2018-03-18T10:07:49Z</time>
      </trkpt>
      <trkpt lat="45.93949" lon="4.79141">
        <ele>197</ele>
        <time>2018-03-18T10:07:50Z</time>
      </trkpt>
      <trkpt lat="45.9395" lon="4.79152">
        <ele>197</ele>
        <time>2018-03-18T10:07:53Z</time>
      </trkpt>
      <trkpt lat="45.9395" lon="4.79161">
        <ele>197</ele>
        <time>2018-03-18T10:07:54Z</time>
      </trkpt>
      <trkpt lat="45.9395" lon="4.79172">
        <ele>197</ele>
        <time>2018-03-18T10:07:56Z</time>
      </trkpt>
      <trkpt lat="45.9395" lon="4.79175">
        <ele>197</ele>
        <time>2018-03-18T10:07:57Z</time>
      </trkpt>
      <trkpt lat="45.93949" lon="4.79187">
        <ele>197</ele>
        <time>2018-03-18T10:07:59Z</time>
      </trkpt>
      <trkpt lat="45.93949" lon="4.79192">
        <ele>197</ele>
        <time>2018-03-18T10:08:00Z</time>
      </trkpt>
      <trkpt lat="45.93948" lon="4.79201">
        <ele>197</ele>
        <time>2018-03-18T10:08:03Z</time>
      </trkpt>
      <trkpt lat="45.93948" lon="4.79212">
        <ele>197</ele>
        <time>2018-03-18T10:08:04Z</time>
      </trkpt>
      <trkpt lat="45.93949" lon="4.79222">
        <ele>197</ele>
        <time>2018-03-18T10:08:06Z</time>
      </trkpt>
      <trkpt lat="45.93949" lon="4.79228">
        <ele>197</ele>
        <time>2018-03-18T10:08:07Z</time>
      </trkpt>
      <trkpt lat="45.93948" lon="4.7924">
        <ele>197</ele>
        <time>2018-03-18T10:08:09Z</time>
      </trkpt>
      <trkpt lat="45.93948" lon="4.79246">
        <ele>196</ele>
        <time>2018-03-18T10:08:10Z</time>
      </trkpt>
      <trkpt lat="45.93948" lon="4.79256">
        <ele>197</ele>
        <time>2018-03-18T10:08:12Z</time>
      </trkpt>
      <trkpt lat="45.93948" lon="4.79261">
        <ele>197</ele>
        <time>2018-03-18T10:08:13Z</time>
      </trkpt>
      <trkpt lat="45.93948" lon="4.79272">
        <ele>198</ele>
        <time>2018-03-18T10:08:15Z</time>
      </trkpt>
      <trkpt lat="45.93949" lon="4.79278">
        <ele>198</ele>
        <time>2018-03-18T10:08:16Z</time>
      </trkpt>
      <trkpt lat="45.93949" lon="4.79284">
        <ele>198</ele>
        <time>2018-03-18T10:08:17Z</time>
      </trkpt>
      <trkpt lat="45.9395" lon="4.79292">
        <ele>198</ele>
        <time>2018-03-18T10:08:18Z</time>
      </trkpt>
      <trkpt lat="45.93951" lon="4.793">
        <ele>198</ele>
        <time>2018-03-18T10:08:19Z</time>
      </trkpt>
      <trkpt lat="45.93952" lon="4.79306">
        <ele>198</ele>
        <time>2018-03-18T10:08:20Z</time>
      </trkpt>
      <trkpt lat="45.93952" lon="4.79315">
        <ele>199</ele>
        <time>2018-03-18T10:08:22Z</time>
      </trkpt>
      <trkpt lat="45.93952" lon="4.79321">
        <ele>198</ele>
        <time>2018-03-18T10:08:23Z</time>
      </trkpt>
      <trkpt lat="45.93952" lon="4.79333">
        <ele>199</ele>
        <time>2018-03-18T10:08:26Z</time>
      </trkpt>
      <trkpt lat="45.93952" lon="4.79338">
        <ele>200</ele>
        <time>2018-03-18T10:08:27Z</time>
      </trkpt>
      <trkpt lat="45.93951" lon="4.7935">
        <ele>200</ele>
        <time>2018-03-18T10:08:30Z</time>
      </trkpt>
      <trkpt lat="45.93951" lon="4.79354">
        <ele>200</ele>
        <time>2018-03-18T10:08:31Z</time>
      </trkpt>
      <trkpt lat="45.93951" lon="4.79358">
        <ele>200</ele>
        <time>2018-03-18T10:08:32Z</time>
      </trkpt>
      <trkpt lat="45.9395" lon="4.79371">
        <ele>201</ele>
        <time>2018-03-18T10:08:33Z</time>
      </trkpt>
      <trkpt lat="45.9395" lon="4.79383">
        <ele>201</ele>
        <time>2018-03-18T10:08:36Z</time>
      </trkpt>
      <trkpt lat="45.93949" lon="4.79393">
        <ele>201</ele>
        <time>2018-03-18T10:08:37Z</time>
      </trkpt>
      <trkpt lat="45.93949" lon="4.79404">
        <ele>201</ele>
        <time>2018-03-18T10:08:39Z</time>
      </trkpt>
      <trkpt lat="45.9395" lon="4.7941">
        <ele>201</ele>
        <time>2018-03-18T10:08:40Z</time>
      </trkpt>
      <trkpt lat="45.93951" lon="4.79422">
        <ele>202</ele>
        <time>2018-03-18T10:08:44Z</time>
      </trkpt>
      <trkpt lat="45.93951" lon="4.79433">
        <ele>202</ele>
        <time>2018-03-18T10:08:45Z</time>
      </trkpt>
      <trkpt lat="45.93951" lon="4.79444">
        <ele>202</ele>
        <time>2018-03-18T10:08:48Z</time>
      </trkpt>
      <trkpt lat="45.93951" lon="4.79451">
        <ele>202</ele>
        <time>2018-03-18T10:08:49Z</time>
      </trkpt>
      <trkpt lat="45.93952" lon="4.79461">
        <ele>202</ele>
        <time>2018-03-18T10:08:52Z</time>
      </trkpt>
      <trkpt lat="45.93952" lon="4.79465">
        <ele>203</ele>
        <time>2018-03-18T10:08:53Z</time>
      </trkpt>
      <trkpt lat="45.93951" lon="4.79477">
        <ele>202</ele>
        <time>2018-03-18T10:08:55Z</time>
      </trkpt>
      <trkpt lat="45.93951" lon="4.7948">
        <ele>202</ele>
        <time>2018-03-18T10:08:56Z</time>
      </trkpt>
      <trkpt lat="45.93951" lon="4.79489">
        <ele>202</ele>
        <time>2018-03-18T10:08:59Z</time>
      </trkpt>
      <trkpt lat="45.93952" lon="4.79503">
        <ele>204</ele>
        <time>2018-03-18T10:09:00Z</time>
      </trkpt>
      <trkpt lat="45.93954" lon="4.79514">
        <ele>204</ele>
        <time>2018-03-18T10:09:02Z</time>
      </trkpt>
      <trkpt lat="45.93954" lon="4.79516">
        <ele>204</ele>
        <time>2018-03-18T10:09:03Z</time>
      </trkpt>
      <trkpt lat="45.93954" lon="4.79526">
        <ele>204</ele>
        <time>2018-03-18T10:09:05Z</time>
      </trkpt>
      <trkpt lat="45.93954" lon="4.79534">
        <ele>205</ele>
        <time>2018-03-18T10:09:06Z</time>
      </trkpt>
      <trkpt lat="45.93955" lon="4.79543">
        <ele>205</ele>
        <time>2018-03-18T10:09:09Z</time>
      </trkpt>
      <trkpt lat="45.93955" lon="4.79547">
        <ele>205</ele>
        <time>2018-03-18T10:09:10Z</time>
      </trkpt>
      <trkpt lat="45.93955" lon="4.79559">
        <ele>205</ele>
        <time>2018-03-18T10:09:14Z</time>
      </trkpt>
      <trkpt lat="45.93956" lon="4.79563">
        <ele>205</ele>
        <time>2018-03-18T10:09:15Z</time>
      </trkpt>
      <trkpt lat="45.93956" lon="4.79575">
        <ele>205</ele>
        <time>2018-03-18T10:09:18Z</time>
      </trkpt>
      <trkpt lat="45.93958" lon="4.79589">
        <ele>207</ele>
        <time>2018-03-18T10:09:19Z</time>
      </trkpt>
      <trkpt lat="45.93959" lon="4.79601">
        <ele>207</ele>
        <time>2018-03-18T10:09:23Z</time>
      </trkpt>
      <trkpt lat="45.93959" lon="4.79605">
        <ele>207</ele>
        <time>2018-03-18T10:09:24Z</time>
      </trkpt>
      <trkpt lat="45.9396" lon="4.79617">
        <ele>207</ele>
        <time>2018-03-18T10:09:25Z</time>
      </trkpt>
      <trkpt lat="45.9396" lon="4.7962">
        <ele>207</ele>
        <time>2018-03-18T10:09:26Z</time>
      </trkpt>
      <trkpt lat="45.93962" lon="4.79631">
        <ele>207</ele>
        <time>2018-03-18T10:09:28Z</time>
      </trkpt>
      <trkpt lat="45.93962" lon="4.79635">
        <ele>207</ele>
        <time>2018-03-18T10:09:29Z</time>
      </trkpt>
      <trkpt lat="45.93964" lon="4.79647">
        <ele>207</ele>
        <time>2018-03-18T10:09:31Z</time>
      </trkpt>
      <trkpt lat="45.93965" lon="4.79649">
        <ele>207</ele>
        <time>2018-03-18T10:09:32Z</time>
      </trkpt>
      <trkpt lat="45.93967" lon="4.79661">
        <ele>208</ele>
        <time>2018-03-18T10:09:34Z</time>
      </trkpt>
      <trkpt lat="45.93967" lon="4.79669">
        <ele>207</ele>
        <time>2018-03-18T10:09:35Z</time>
      </trkpt>
      <trkpt lat="45.93968" lon="4.79681">
        <ele>207</ele>
        <time>2018-03-18T10:09:37Z</time>
      </trkpt>
      <trkpt lat="45.93968" lon="4.79686">
        <ele>207</ele>
        <time>2018-03-18T10:09:38Z</time>
      </trkpt>
      <trkpt lat="45.93968" lon="4.79696">
        <ele>207</ele>
        <time>2018-03-18T10:09:41Z</time>
      </trkpt>
      <trkpt lat="45.93969" lon="4.79706">
        <ele>207</ele>
        <time>2018-03-18T10:09:42Z</time>
      </trkpt>
      <trkpt lat="45.9397" lon="4.79719">
        <ele>207</ele>
        <time>2018-03-18T10:09:45Z</time>
      </trkpt>
      <trkpt lat="45.93971" lon="4.79721">
        <ele>207</ele>
        <time>2018-03-18T10:09:46Z</time>
      </trkpt>
      <trkpt lat="45.93972" lon="4.79727">
        <ele>207</ele>
        <time>2018-03-18T10:09:48Z</time>
      </trkpt>
      <trkpt lat="45.93973" lon="4.79739">
        <ele>207</ele>
        <time>2018-03-18T10:09:49Z</time>
      </trkpt>
      <trkpt lat="45.93974" lon="4.7975">
        <ele>207</ele>
        <time>2018-03-18T10:09:51Z</time>
      </trkpt>
      <trkpt lat="45.93974" lon="4.79756">
        <ele>207</ele>
        <time>2018-03-18T10:09:52Z</time>
      </trkpt>
      <trkpt lat="45.93975" lon="4.79768">
        <ele>206</ele>
        <time>2018-03-18T10:09:54Z</time>
      </trkpt>
      <trkpt lat="45.93975" lon="4.79774">
        <ele>206</ele>
        <time>2018-03-18T10:09:55Z</time>
      </trkpt>
      <trkpt lat="45.93974" lon="4.79787">
        <ele>206</ele>
        <time>2018-03-18T10:09:57Z</time>
      </trkpt>
      <trkpt lat="45.93974" lon="4.79792">
        <ele>206</ele>
        <time>2018-03-18T10:09:58Z</time>
      </trkpt>
      <trkpt lat="45.93973" lon="4.79802">
        <ele>207</ele>
        <time>2018-03-18T10:10:00Z</time>
      </trkpt>
      <trkpt lat="45.93974" lon="4.79807">
        <ele>207</ele>
        <time>2018-03-18T10:10:01Z</time>
      </trkpt>
      <trkpt lat="45.93973" lon="4.79819">
        <ele>207</ele>
        <time>2018-03-18T10:10:03Z</time>
      </trkpt>
      <trkpt lat="45.93972" lon="4.79825">
        <ele>207</ele>
        <time>2018-03-18T10:10:04Z</time>
      </trkpt>
      <trkpt lat="45.9397" lon="4.79838">
        <ele>207</ele>
        <time>2018-03-18T10:10:06Z</time>
      </trkpt>
      <trkpt lat="45.93968" lon="4.79844">
        <ele>206</ele>
        <time>2018-03-18T10:10:07Z</time>
      </trkpt>
      <trkpt lat="45.93967" lon="4.79852">
        <ele>206</ele>
        <time>2018-03-18T10:10:08Z</time>
      </trkpt>
      <trkpt lat="45.93966" lon="4.79859">
        <ele>206</ele>
        <time>2018-03-18T10:10:09Z</time>
      </trkpt>
      <trkpt lat="45.93965" lon="4.79866">
        <ele>206</ele>
        <time>2018-03-18T10:10:10Z</time>
      </trkpt>
      <trkpt lat="45.93965" lon="4.79872">
        <ele>206</ele>
        <time>2018-03-18T10:10:11Z</time>
      </trkpt>
      <trkpt lat="45.93963" lon="4.79884">
        <ele>206</ele>
        <time>2018-03-18T10:10:13Z</time>
      </trkpt>
      <trkpt lat="45.93962" lon="4.7989">
        <ele>206</ele>
        <time>2018-03-18T10:10:14Z</time>
      </trkpt>
      <trkpt lat="45.93959" lon="4.79899">
        <ele>206</ele>
        <time>2018-03-18T10:10:16Z</time>
      </trkpt>
      <trkpt lat="45.93957" lon="4.79905">
        <ele>205</ele>
        <time>2018-03-18T10:10:17Z</time>
      </trkpt>
      <trkpt lat="45.93956" lon="4.79911">
        <ele>205</ele>
        <time>2018-03-18T10:10:18Z</time>
      </trkpt>
      <trkpt lat="45.93954" lon="4.79917">
        <ele>205</ele>
        <time>2018-03-18T10:10:19Z</time>
      </trkpt>
      <trkpt lat="45.93953" lon="4.79926">
        <ele>205</ele>
        <time>2018-03-18T10:10:21Z</time>
      </trkpt>
      <trkpt lat="45.93952" lon="4.79932">
        <ele>205</ele>
        <time>2018-03-18T10:10:22Z</time>
      </trkpt>
      <trkpt lat="45.9395" lon="4.79944">
        <ele>205</ele>
        <time>2018-03-18T10:10:24Z</time>
      </trkpt>
      <trkpt lat="45.93949" lon="4.7995">
        <ele>205</ele>
        <time>2018-03-18T10:10:25Z</time>
      </trkpt>
      <trkpt lat="45.93946" lon="4.79961">
        <ele>205</ele>
        <time>2018-03-18T10:10:27Z</time>
      </trkpt>
      <trkpt lat="45.93945" lon="4.79967">
        <ele>205</ele>
        <time>2018-03-18T10:10:28Z</time>
      </trkpt>
      <trkpt lat="45.93944" lon="4.79979">
        <ele>205</ele>
        <time>2018-03-18T10:10:30Z</time>
      </trkpt>
      <trkpt lat="45.9394" lon="4.79987">
        <ele>204</ele>
        <time>2018-03-18T10:10:31Z</time>
      </trkpt>
      <trkpt lat="45.93939" lon="4.79994">
        <ele>204</ele>
        <time>2018-03-18T10:10:32Z</time>
      </trkpt>
      <trkpt lat="45.93938" lon="4.8">
        <ele>204</ele>
        <time>2018-03-18T10:10:33Z</time>
      </trkpt>
      <trkpt lat="45.93938" lon="4.80006">
        <ele>205</ele>
        <time>2018-03-18T10:10:34Z</time>
      </trkpt>
      <trkpt lat="45.93938" lon="4.80015">
        <ele>206</ele>
        <time>2018-03-18T10:10:35Z</time>
      </trkpt>
      <trkpt lat="45.93936" lon="4.80027">
        <ele>206</ele>
        <time>2018-03-18T10:10:37Z</time>
      </trkpt>
      <trkpt lat="45.93935" lon="4.80035">
        <ele>207</ele>
        <time>2018-03-18T10:10:38Z</time>
      </trkpt>
      <trkpt lat="45.93935" lon="4.80042">
        <ele>207</ele>
        <time>2018-03-18T10:10:39Z</time>
      </trkpt>
      <trkpt lat="45.93935" lon="4.8005">
        <ele>207</ele>
        <time>2018-03-18T10:10:40Z</time>
      </trkpt>
      <trkpt lat="45.93935" lon="4.80056">
        <ele>207</ele>
        <time>2018-03-18T10:10:41Z</time>
      </trkpt>
      <trkpt lat="45.93936" lon="4.80066">
        <ele>207</ele>
        <time>2018-03-18T10:10:42Z</time>
      </trkpt>
      <trkpt lat="45.93937" lon="4.80072">
        <ele>207</ele>
        <time>2018-03-18T10:10:43Z</time>
      </trkpt>
      <trkpt lat="45.93937" lon="4.8008">
        <ele>207</ele>
        <time>2018-03-18T10:10:44Z</time>
      </trkpt>
      <trkpt lat="45.93936" lon="4.80087">
        <ele>208</ele>
        <time>2018-03-18T10:10:45Z</time>
      </trkpt>
      <trkpt lat="45.93937" lon="4.80094">
        <ele>208</ele>
        <time>2018-03-18T10:10:46Z</time>
      </trkpt>
      <trkpt lat="45.93938" lon="4.80106">
        <ele>208</ele>
        <time>2018-03-18T10:10:48Z</time>
      </trkpt>
      <trkpt lat="45.9394" lon="4.80112">
        <ele>208</ele>
        <time>2018-03-18T10:10:49Z</time>
      </trkpt>
      <trkpt lat="45.9394" lon="4.80123">
        <ele>208</ele>
        <time>2018-03-18T10:10:51Z</time>
      </trkpt>
      <trkpt lat="45.93942" lon="4.8013">
        <ele>208</ele>
        <time>2018-03-18T10:10:52Z</time>
      </trkpt>
      <trkpt lat="45.93942" lon="4.80137">
        <ele>208</ele>
        <time>2018-03-18T10:10:53Z</time>
      </trkpt>
      <trkpt lat="45.93943" lon="4.80143">
        <ele>208</ele>
        <time>2018-03-18T10:10:54Z</time>
      </trkpt>
      <trkpt lat="45.93944" lon="4.80153">
        <ele>208</ele>
        <time>2018-03-18T10:10:56Z</time>
      </trkpt>
      <trkpt lat="45.93946" lon="4.8016">
        <ele>208</ele>
        <time>2018-03-18T10:10:57Z</time>
      </trkpt>
      <trkpt lat="45.93948" lon="4.8017">
        <ele>206</ele>
        <time>2018-03-18T10:10:58Z</time>
      </trkpt>
      <trkpt lat="45.93949" lon="4.80175">
        <ele>206</ele>
        <time>2018-03-18T10:10:59Z</time>
      </trkpt>
      <trkpt lat="45.93951" lon="4.80187">
        <ele>206</ele>
        <time>2018-03-18T10:11:01Z</time>
      </trkpt>
      <trkpt lat="45.93952" lon="4.80193">
        <ele>206</ele>
        <time>2018-03-18T10:11:02Z</time>
      </trkpt>
      <trkpt lat="45.93955" lon="4.80205">
        <ele>205</ele>
        <time>2018-03-18T10:11:04Z</time>
      </trkpt>
      <trkpt lat="45.93957" lon="4.80212">
        <ele>205</ele>
        <time>2018-03-18T10:11:05Z</time>
      </trkpt>
      <trkpt lat="45.93958" lon="4.80219">
        <ele>205</ele>
        <time>2018-03-18T10:11:06Z</time>
      </trkpt>
      <trkpt lat="45.9396" lon="4.80225">
        <ele>205</ele>
        <time>2018-03-18T10:11:07Z</time>
      </trkpt>
      <trkpt lat="45.93961" lon="4.80232">
        <ele>204</ele>
        <time>2018-03-18T10:11:08Z</time>
      </trkpt>
      <trkpt lat="45.93963" lon="4.80238">
        <ele>204</ele>
        <time>2018-03-18T10:11:09Z</time>
      </trkpt>
      <trkpt lat="45.93964" lon="4.80244">
        <ele>204</ele>
        <time>2018-03-18T10:11:10Z</time>
      </trkpt>
      <trkpt lat="45.93966" lon="4.80251">
        <ele>202</ele>
        <time>2018-03-18T10:11:11Z</time>
      </trkpt>
      <trkpt lat="45.93968" lon="4.80256">
        <ele>202</ele>
        <time>2018-03-18T10:11:12Z</time>
      </trkpt>
      <trkpt lat="45.9397" lon="4.80264">
        <ele>202</ele>
        <time>2018-03-18T10:11:13Z</time>
      </trkpt>
      <trkpt lat="45.93974" lon="4.80275">
        <ele>203</ele>
        <time>2018-03-18T10:11:15Z</time>
      </trkpt>
      <trkpt lat="45.93975" lon="4.80282">
        <ele>203</ele>
        <time>2018-03-18T10:11:16Z</time>
      </trkpt>
      <trkpt lat="45.93977" lon="4.80292">
        <ele>203</ele>
        <time>2018-03-18T10:11:18Z</time>
      </trkpt>
      <trkpt lat="45.93979" lon="4.80298">
        <ele>203</ele>
        <time>2018-03-18T10:11:19Z</time>
      </trkpt>
      <trkpt lat="45.93982" lon="4.80308">
        <ele>203</ele>
        <time>2018-03-18T10:11:22Z</time>
      </trkpt>
      <trkpt lat="45.93982" lon="4.80311">
        <ele>203</ele>
        <time>2018-03-18T10:11:23Z</time>
      </trkpt>
      <trkpt lat="45.93985" lon="4.80321">
        <ele>204</ele>
        <time>2018-03-18T10:11:26Z</time>
      </trkpt>
      <trkpt lat="45.93986" lon="4.80325">
        <ele>204</ele>
        <time>2018-03-18T10:11:27Z</time>
      </trkpt>
      <trkpt lat="45.93989" lon="4.80336">
        <ele>206</ele>
        <time>2018-03-18T10:11:30Z</time>
      </trkpt>
      <trkpt lat="45.9399" lon="4.80339">
        <ele>206</ele>
        <time>2018-03-18T10:11:31Z</time>
      </trkpt>
      <trkpt lat="45.93992" lon="4.80347">
        <ele>206</ele>
        <time>2018-03-18T10:11:33Z</time>
      </trkpt>
      <trkpt lat="45.93996" lon="4.8036">
        <ele>207</ele>
        <time>2018-03-18T10:11:34Z</time>
      </trkpt>
      <trkpt lat="45.93999" lon="4.80369">
        <ele>207</ele>
        <time>2018-03-18T10:11:38Z</time>
      </trkpt>
      <trkpt lat="45.94" lon="4.80372">
        <ele>208</ele>
        <time>2018-03-18T10:11:39Z</time>
      </trkpt>
      <trkpt lat="45.94004" lon="4.80383">
        <ele>217</ele>
        <time>2018-03-18T10:11:44Z</time>
      </trkpt>
      <trkpt lat="45.94004" lon="4.80385">
        <ele>217</ele>
        <time>2018-03-18T10:11:45Z</time>
      </trkpt>
      <trkpt lat="45.94006" lon="4.80395">
        <ele>217</ele>
        <time>2018-03-18T10:11:49Z</time>
      </trkpt>
      <trkpt lat="45.94007" lon="4.80398">
        <ele>217</ele>
        <time>2018-03-18T10:11:50Z</time>
      </trkpt>
      <trkpt lat="45.9401" lon="4.80409">
        <ele>217</ele>
        <time>2018-03-18T10:11:54Z</time>
      </trkpt>
      <trkpt lat="45.9401" lon="4.80412">
        <ele>217</ele>
        <time>2018-03-18T10:11:55Z</time>
      </trkpt>
      <trkpt lat="45.94014" lon="4.80424">
        <ele>220</ele>
        <time>2018-03-18T10:11:59Z</time>
      </trkpt>
      <trkpt lat="45.94015" lon="4.80427">
        <ele>221</ele>
        <time>2018-03-18T10:12:00Z</time>
      </trkpt>
      <trkpt lat="45.94016" lon="4.80439">
        <ele>222</ele>
        <time>2018-03-18T10:12:05Z</time>
      </trkpt>
      <trkpt lat="45.94016" lon="4.80442">
        <ele>222</ele>
        <time>2018-03-18T10:12:06Z</time>
      </trkpt>
      <trkpt lat="45.94016" lon="4.80453">
        <ele>223</ele>
        <time>2018-03-18T10:12:10Z</time>
      </trkpt>
      <trkpt lat="45.94016" lon="4.80456">
        <ele>223</ele>
        <time>2018-03-18T10:12:11Z</time>
      </trkpt>
      <trkpt lat="45.94017" lon="4.80467">
        <ele>223</ele>
        <time>2018-03-18T10:12:14Z</time>
      </trkpt>
      <trkpt lat="45.94017" lon="4.80471">
        <ele>223</ele>
        <time>2018-03-18T10:12:15Z</time>
      </trkpt>
      <trkpt lat="45.94019" lon="4.80481">
        <ele>223</ele>
        <time>2018-03-18T10:12:18Z</time>
      </trkpt>
      <trkpt lat="45.9402" lon="4.80484">
        <ele>223</ele>
        <time>2018-03-18T10:12:19Z</time>
      </trkpt>
      <trkpt lat="45.94022" lon="4.80496">
        <ele>223</ele>
        <time>2018-03-18T10:12:23Z</time>
      </trkpt>
      <trkpt lat="45.94022" lon="4.80498">
        <ele>223</ele>
        <time>2018-03-18T10:12:24Z</time>
      </trkpt>
      <trkpt lat="45.94021" lon="4.80508">
        <ele>223</ele>
        <time>2018-03-18T10:12:28Z</time>
      </trkpt>
      <trkpt lat="45.94021" lon="4.80512">
        <ele>224</ele>
        <time>2018-03-18T10:12:29Z</time>
      </trkpt>
      <trkpt lat="45.9402" lon="4.80524">
        <ele>224</ele>
        <time>2018-03-18T10:12:34Z</time>
      </trkpt>
      <trkpt lat="45.94019" lon="4.80528">
        <ele>224</ele>
        <time>2018-03-18T10:12:35Z</time>
      </trkpt>
      <trkpt lat="45.94019" lon="4.8054">
        <ele>225</ele>
        <time>2018-03-18T10:12:39Z</time>
      </trkpt>
      <trkpt lat="45.94019" lon="4.80543">
        <ele>225</ele>
        <time>2018-03-18T10:12:40Z</time>
      </trkpt>
      <trkpt lat="45.94019" lon="4.80553">
        <ele>224</ele>
        <time>2018-03-18T10:12:43Z</time>
      </trkpt>
      <trkpt lat="45.9402" lon="4.80556">
        <ele>224</ele>
        <time>2018-03-18T10:12:44Z</time>
      </trkpt>
      <trkpt lat="45.94022" lon="4.80567">
        <ele>224</ele>
        <time>2018-03-18T10:12:47Z</time>
      </trkpt>
      <trkpt lat="45.94023" lon="4.80571">
        <ele>224</ele>
        <time>2018-03-18T10:12:48Z</time>
      </trkpt>
      <trkpt lat="45.94026" lon="4.80582">
        <ele>224</ele>
        <time>2018-03-18T10:12:51Z</time>
      </trkpt>
      <trkpt lat="45.94027" lon="4.80587">
        <ele>224</ele>
        <time>2018-03-18T10:12:52Z</time>
      </trkpt>
      <trkpt lat="45.94029" lon="4.80598">
        <ele>225</ele>
        <time>2018-03-18T10:12:55Z</time>
      </trkpt>
      <trkpt lat="45.9403" lon="4.80602">
        <ele>225</ele>
        <time>2018-03-18T10:12:56Z</time>
      </trkpt>
      <trkpt lat="45.94031" lon="4.80613">
        <ele>225</ele>
        <time>2018-03-18T10:12:59Z</time>
      </trkpt>
      <trkpt lat="45.94031" lon="4.80617">
        <ele>225</ele>
        <time>2018-03-18T10:13:00Z</time>
      </trkpt>
      <trkpt lat="45.94032" lon="4.80627">
        <ele>225</ele>
        <time>2018-03-18T10:13:03Z</time>
      </trkpt>
      <trkpt lat="45.94032" lon="4.80631">
        <ele>226</ele>
        <time>2018-03-18T10:13:04Z</time>
      </trkpt>
      <trkpt lat="45.94033" lon="4.8064">
        <ele>225</ele>
        <time>2018-03-18T10:13:07Z</time>
      </trkpt>
      <trkpt lat="45.94033" lon="4.80644">
        <ele>225</ele>
        <time>2018-03-18T10:13:08Z</time>
      </trkpt>
      <trkpt lat="45.94033" lon="4.80654">
        <ele>225</ele>
        <time>2018-03-18T10:13:11Z</time>
      </trkpt>
      <trkpt lat="45.94034" lon="4.80658">
        <ele>225</ele>
        <time>2018-03-18T10:13:12Z</time>
      </trkpt>
      <trkpt lat="45.94036" lon="4.80668">
        <ele>225</ele>
        <time>2018-03-18T10:13:15Z</time>
      </trkpt>
      <trkpt lat="45.94036" lon="4.80671">
        <ele>226</ele>
        <time>2018-03-18T10:13:16Z</time>
      </trkpt>
      <trkpt lat="45.94037" lon="4.80682">
        <ele>226</ele>
        <time>2018-03-18T10:13:19Z</time>
      </trkpt>
      <trkpt lat="45.94038" lon="4.80685">
        <ele>226</ele>
        <time>2018-03-18T10:13:20Z</time>
      </trkpt>
      <trkpt lat="45.94038" lon="4.80698">
        <ele>226</ele>
        <time>2018-03-18T10:13:24Z</time>
      </trkpt>
      <trkpt lat="45.94038" lon="4.80701">
        <ele>226</ele>
        <time>2018-03-18T10:13:25Z</time>
      </trkpt>
      <trkpt lat="45.94038" lon="4.80712">
        <ele>226</ele>
        <time>2018-03-18T10:13:29Z</time>
      </trkpt>
      <trkpt lat="45.94038" lon="4.80715">
        <ele>226</ele>
        <time>2018-03-18T10:13:30Z</time>
      </trkpt>
      <trkpt lat="45.9404" lon="4.80725">
        <ele>227</ele>
        <time>2018-03-18T10:13:33Z</time>
      </trkpt>
      <trkpt lat="45.94042" lon="4.80729">
        <ele>227</ele>
        <time>2018-03-18T10:13:34Z</time>
      </trkpt>
      <trkpt lat="45.94044" lon="4.8074">
        <ele>227</ele>
        <time>2018-03-18T10:13:37Z</time>
      </trkpt>
      <trkpt lat="45.94045" lon="4.80743">
        <ele>228</ele>
        <time>2018-03-18T10:13:38Z</time>
      </trkpt>
      <trkpt lat="45.94047" lon="4.80755">
        <ele>229</ele>
        <time>2018-03-18T10:13:41Z</time>
      </trkpt>
      <trkpt lat="45.94047" lon="4.80758">
        <ele>229</ele>
        <time>2018-03-18T10:13:42Z</time>
      </trkpt>
      <trkpt lat="45.94047" lon="4.80769">
        <ele>229</ele>
        <time>2018-03-18T10:13:45Z</time>
      </trkpt>
      <trkpt lat="45.94048" lon="4.80773">
        <ele>229</ele>
        <time>2018-03-18T10:13:46Z</time>
      </trkpt>
      <trkpt lat="45.94048" lon="4.80784">
        <ele>229</ele>
        <time>2018-03-18T10:13:49Z</time>
      </trkpt>
      <trkpt lat="45.94049" lon="4.80788">
        <ele>229</ele>
        <time>2018-03-18T10:13:50Z</time>
      </trkpt>
      <trkpt lat="45.94049" lon="4.80799">
        <ele>229</ele>
        <time>2018-03-18T10:13:53Z</time>
      </trkpt>
      <trkpt lat="45.9405" lon="4.80802">
        <ele>229</ele>
        <time>2018-03-18T10:13:54Z</time>
      </trkpt>
      <trkpt lat="45.94051" lon="4.80813">
        <ele>230</ele>
        <time>2018-03-18T10:13:57Z</time>
      </trkpt>
      <trkpt lat="45.94052" lon="4.80816">
        <ele>230</ele>
        <time>2018-03-18T10:13:58Z</time>
      </trkpt>
      <trkpt lat="45.94053" lon="4.80826">
        <ele>230</ele>
        <time>2018-03-18T10:14:01Z</time>
      </trkpt>
      <trkpt lat="45.94054" lon="4.80829">
        <ele>231</ele>
        <time>2018-03-18T10:14:02Z</time>
      </trkpt>
      <trkpt lat="45.94055" lon="4.80842">
        <ele>231</ele>
        <time>2018-03-18T10:14:06Z</time>
      </trkpt>
      <trkpt lat="45.94055" lon="4.80845">
        <ele>231</ele>
        <time>2018-03-18T10:14:07Z</time>
      </trkpt>
      <trkpt lat="45.94057" lon="4.80857">
        <ele>231</ele>
        <time>2018-03-18T10:14:11Z</time>
      </trkpt>
      <trkpt lat="45.94058" lon="4.8086">
        <ele>231</ele>
        <time>2018-03-18T10:14:12Z</time>
      </trkpt>
      <trkpt lat="45.94059" lon="4.8087">
        <ele>231</ele>
        <time>2018-03-18T10:14:15Z</time>
      </trkpt>
      <trkpt lat="45.94059" lon="4.80873">
        <ele>231</ele>
        <time>2018-03-18T10:14:16Z</time>
      </trkpt>
      <trkpt lat="45.9406" lon="4.80882">
        <ele>231</ele>
        <time>2018-03-18T10:14:19Z</time>
      </trkpt>
      <trkpt lat="45.94061" lon="4.80886">
        <ele>231</ele>
        <time>2018-03-18T10:14:20Z</time>
      </trkpt>
      <trkpt lat="45.94063" lon="4.80895">
        <ele>232</ele>
        <time>2018-03-18T10:14:23Z</time>
      </trkpt>
      <trkpt lat="45.94063" lon="4.80898">
        <ele>232</ele>
        <time>2018-03-18T10:14:24Z</time>
      </trkpt>
      <trkpt lat="45.94064" lon="4.80908">
        <ele>233</ele>
        <time>2018-03-18T10:14:27Z</time>
      </trkpt>
      <trkpt lat="45.94064" lon="4.80911">
        <ele>233</ele>
        <time>2018-03-18T10:14:28Z</time>
      </trkpt>
      <trkpt lat="45.94065" lon="4.80921">
        <ele>234</ele>
        <time>2018-03-18T10:14:31Z</time>
      </trkpt>
      <trkpt lat="45.94066" lon="4.80925">
        <ele>234</ele>
        <time>2018-03-18T10:14:32Z</time>
      </trkpt>
      <trkpt lat="45.94067" lon="4.80934">
        <ele>233</ele>
        <time>2018-03-18T10:14:35Z</time>
      </trkpt>
      <trkpt lat="45.94068" lon="4.80937">
        <ele>233</ele>
        <time>2018-03-18T10:14:36Z</time>
      </trkpt>
      <trkpt lat="45.94069" lon="4.80947">
        <ele>233</ele>
        <time>2018-03-18T10:14:39Z</time>
      </trkpt>
      <trkpt lat="45.9407" lon="4.8095">
        <ele>233</ele>
        <time>2018-03-18T10:14:40Z</time>
      </trkpt>
      <trkpt lat="45.94072" lon="4.80959">
        <ele>233</ele>
        <time>2018-03-18T10:14:43Z</time>
      </trkpt>
      <trkpt lat="45.94072" lon="4.80962">
        <ele>233</ele>
        <time>2018-03-18T10:14:44Z</time>
      </trkpt>
      <trkpt lat="45.94074" lon="4.80973">
        <ele>234</ele>
        <time>2018-03-18T10:14:48Z</time>
      </trkpt>
      <trkpt lat="45.94074" lon="4.80976">
        <ele>234</ele>
        <time>2018-03-18T10:14:49Z</time>
      </trkpt>
      <trkpt lat="45.94075" lon="4.80986">
        <ele>235</ele>
        <time>2018-03-18T10:14:53Z</time>
      </trkpt>
      <trkpt lat="45.94075" lon="4.80989">
        <ele>236</ele>
        <time>2018-03-18T10:14:54Z</time>
      </trkpt>
      <trkpt lat="45.94075" lon="4.80999">
        <ele>237</ele>
        <time>2018-03-18T10:14:58Z</time>
      </trkpt>
      <trkpt lat="45.94076" lon="4.81002">
        <ele>237</ele>
        <time>2018-03-18T10:14:59Z</time>
      </trkpt>
      <trkpt lat="45.94077" lon="4.81014">
        <ele>236</ele>
        <time>2018-03-18T10:15:03Z</time>
      </trkpt>
      <trkpt lat="45.94078" lon="4.81017">
        <ele>235</ele>
        <time>2018-03-18T10:15:04Z</time>
      </trkpt>
      <trkpt lat="45.9408" lon="4.81028">
        <ele>234</ele>
        <time>2018-03-18T10:15:08Z</time>
      </trkpt>
      <trkpt lat="45.94081" lon="4.81031">
        <ele>234</ele>
        <time>2018-03-18T10:15:09Z</time>
      </trkpt>
      <trkpt lat="45.94084" lon="4.8104">
        <ele>244</ele>
        <time>2018-03-18T10:15:12Z</time>
      </trkpt>
      <trkpt lat="45.94085" lon="4.81043">
        <ele>243</ele>
        <time>2018-03-18T10:15:13Z</time>
      </trkpt>
      <trkpt lat="45.94088" lon="4.81054">
        <ele>243</ele>
        <time>2018-03-18T10:15:17Z</time>
      </trkpt>
      <trkpt lat="45.94089" lon="4.81056">
        <ele>243</ele>
        <time>2018-03-18T10:15:18Z</time>
      </trkpt>
      <trkpt lat="45.94093" lon="4.81066">
        <ele>242</ele>
        <time>2018-03-18T10:15:22Z</time>
      </trkpt>
      <trkpt lat="45.94094" lon="4.81068">
        <ele>242</ele>
        <time>2018-03-18T10:15:23Z</time>
      </trkpt>
      <trkpt lat="45.94098" lon="4.81076">
        <ele>242</ele>
        <time>2018-03-18T10:15:27Z</time>
      </trkpt>
      <trkpt lat="45.94099" lon="4.81078">
        <ele>242</ele>
        <time>2018-03-18T10:15:28Z</time>
      </trkpt>
      <trkpt lat="45.94104" lon="4.81088">
        <ele>241</ele>
        <time>2018-03-18T10:15:33Z</time>
      </trkpt>
      <trkpt lat="45.94105" lon="4.8109">
        <ele>241</ele>
        <time>2018-03-18T10:15:34Z</time>
      </trkpt>
      <trkpt lat="45.9411" lon="4.81101">
        <ele>242</ele>
        <time>2018-03-18T10:15:38Z</time>
      </trkpt>
      <trkpt lat="45.94112" lon="4.81103">
        <ele>242</ele>
        <time>2018-03-18T10:15:39Z</time>
      </trkpt>
      <trkpt lat="45.94116" lon="4.81113">
        <ele>243</ele>
        <time>2018-03-18T10:15:43Z</time>
      </trkpt>
      <trkpt lat="45.94117" lon="4.81115">
        <ele>243</ele>
        <time>2018-03-18T10:15:44Z</time>
      </trkpt>
      <trkpt lat="45.94121" lon="4.81123">
        <ele>243</ele>
        <time>2018-03-18T10:15:48Z</time>
      </trkpt>
      <trkpt lat="45.94122" lon="4.81125">
        <ele>243</ele>
        <time>2018-03-18T10:15:49Z</time>
      </trkpt>
      <trkpt lat="45.94127" lon="4.81135">
        <ele>243</ele>
        <time>2018-03-18T10:15:53Z</time>
      </trkpt>
      <trkpt lat="45.94129" lon="4.81137">
        <ele>243</ele>
        <time>2018-03-18T10:15:54Z</time>
      </trkpt>
      <trkpt lat="45.94133" lon="4.81146">
        <ele>244</ele>
        <time>2018-03-18T10:15:57Z</time>
      </trkpt>
      <trkpt lat="45.94135" lon="4.81149">
        <ele>244</ele>
        <time>2018-03-18T10:15:58Z</time>
      </trkpt>
      <trkpt lat="45.94138" lon="4.81158">
        <ele>244</ele>
        <time>2018-03-18T10:16:01Z</time>
      </trkpt>
      <trkpt lat="45.94139" lon="4.81161">
        <ele>244</ele>
        <time>2018-03-18T10:16:02Z</time>
      </trkpt>
      <trkpt lat="45.94143" lon="4.81172">
        <ele>244</ele>
        <time>2018-03-18T10:16:06Z</time>
      </trkpt>
      <trkpt lat="45.94144" lon="4.81174">
        <ele>244</ele>
        <time>2018-03-18T10:16:07Z</time>
      </trkpt>
      <trkpt lat="45.94148" lon="4.81184">
        <ele>244</ele>
        <time>2018-03-18T10:16:11Z</time>
      </trkpt>
      <trkpt lat="45.94149" lon="4.81186">
        <ele>244</ele>
        <time>2018-03-18T10:16:12Z</time>
      </trkpt>
      <trkpt lat="45.94153" lon="4.81195">
        <ele>244</ele>
        <time>2018-03-18T10:16:16Z</time>
      </trkpt>
      <trkpt lat="45.94154" lon="4.81198">
        <ele>244</ele>
        <time>2018-03-18T10:16:17Z</time>
      </trkpt>
      <trkpt lat="45.94156" lon="4.81209">
        <ele>245</ele>
        <time>2018-03-18T10:16:21Z</time>
      </trkpt>
      <trkpt lat="45.94156" lon="4.81211">
        <ele>245</ele>
        <time>2018-03-18T10:16:22Z</time>
      </trkpt>
      <trkpt lat="45.94159" lon="4.81221">
        <ele>245</ele>
        <time>2018-03-18T10:16:26Z</time>
      </trkpt>
      <trkpt lat="45.94159" lon="4.81224">
        <ele>245</ele>
        <time>2018-03-18T10:16:27Z</time>
      </trkpt>
      <trkpt lat="45.94162" lon="4.81236">
        <ele>247</ele>
        <time>2018-03-18T10:16:31Z</time>
      </trkpt>
      <trkpt lat="45.94162" lon="4.81239">
        <ele>247</ele>
        <time>2018-03-18T10:16:32Z</time>
      </trkpt>
      <trkpt lat="45.94165" lon="4.81249">
        <ele>250</ele>
        <time>2018-03-18T10:16:37Z</time>
      </trkpt>
      <trkpt lat="45.94166" lon="4.81251">
        <ele>250</ele>
        <time>2018-03-18T10:16:38Z</time>
      </trkpt>
      <trkpt lat="45.94167" lon="4.81264">
        <ele>253</ele>
        <time>2018-03-18T10:16:42Z</time>
      </trkpt>
      <trkpt lat="45.94168" lon="4.81266">
        <ele>254</ele>
        <time>2018-03-18T10:16:43Z</time>
      </trkpt>
      <trkpt lat="45.94168" lon="4.81277">
        <ele>255</ele>
        <time>2018-03-18T10:16:46Z</time>
      </trkpt>
      <trkpt lat="45.94168" lon="4.8128">
        <ele>255</ele>
        <time>2018-03-18T10:16:47Z</time>
      </trkpt>
      <trkpt lat="45.94169" lon="4.81291">
        <ele>255</ele>
        <time>2018-03-18T10:16:51Z</time>
      </trkpt>
      <trkpt lat="45.94169" lon="4.81293">
        <ele>255</ele>
        <time>2018-03-18T10:16:52Z</time>
      </trkpt>
      <trkpt lat="45.94171" lon="4.81303">
        <ele>255</ele>
        <time>2018-03-18T10:16:55Z</time>
      </trkpt>
      <trkpt lat="45.94171" lon="4.81306">
        <ele>255</ele>
        <time>2018-03-18T10:16:56Z</time>
      </trkpt>
      <trkpt lat="45.94171" lon="4.81317">
        <ele>255</ele>
        <time>2018-03-18T10:17:00Z</time>
      </trkpt>
      <trkpt lat="45.94171" lon="4.81319">
        <ele>254</ele>
        <time>2018-03-18T10:17:01Z</time>
      </trkpt>
      <trkpt lat="45.9417" lon="4.81331">
        <ele>253</ele>
        <time>2018-03-18T10:17:08Z</time>
      </trkpt>
      <trkpt lat="45.9417" lon="4.81333">
        <ele>253</ele>
        <time>2018-03-18T10:17:09Z</time>
      </trkpt>
      <trkpt lat="45.9417" lon="4.81344">
        <ele>255</ele>
        <time>2018-03-18T10:17:13Z</time>
      </trkpt>
      <trkpt lat="45.94169" lon="4.81347">
        <ele>255</ele>
        <time>2018-03-18T10:17:14Z</time>
      </trkpt>
      <trkpt lat="45.94169" lon="4.81357">
        <ele>256</ele>
        <time>2018-03-18T10:17:17Z</time>
      </trkpt>
      <trkpt lat="45.94169" lon="4.81361">
        <ele>257</ele>
        <time>2018-03-18T10:17:18Z</time>
      </trkpt>
      <trkpt lat="45.94169" lon="4.8137">
        <ele>257</ele>
        <time>2018-03-18T10:17:20Z</time>
      </trkpt>
      <trkpt lat="45.94169" lon="4.81374">
        <ele>258</ele>
        <time>2018-03-18T10:17:21Z</time>
      </trkpt>
      <trkpt lat="45.94169" lon="4.81386">
        <ele>258</ele>
        <time>2018-03-18T10:17:24Z</time>
      </trkpt>
      <trkpt lat="45.94169" lon="4.8139">
        <ele>258</ele>
        <time>2018-03-18T10:17:25Z</time>
      </trkpt>
      <trkpt lat="45.9417" lon="4.81402">
        <ele>257</ele>
        <time>2018-03-18T10:17:29Z</time>
      </trkpt>
      <trkpt lat="45.94169" lon="4.81405">
        <ele>257</ele>
        <time>2018-03-18T10:17:30Z</time>
      </trkpt>
      <trkpt lat="45.94167" lon="4.81417">
        <ele>256</ele>
        <time>2018-03-18T10:17:35Z</time>
      </trkpt>
      <trkpt lat="45.94167" lon="4.81419">
        <ele>257</ele>
        <time>2018-03-18T10:17:36Z</time>
      </trkpt>
      <trkpt lat="45.94164" lon="4.8143">
        <ele>256</ele>
        <time>2018-03-18T10:17:40Z</time>
      </trkpt>
      <trkpt lat="45.94163" lon="4.81433">
        <ele>256</ele>
        <time>2018-03-18T10:17:41Z</time>
      </trkpt>
      <trkpt lat="45.94162" lon="4.81444">
        <ele>256</ele>
        <time>2018-03-18T10:17:46Z</time>
      </trkpt>
      <trkpt lat="45.94161" lon="4.81447">
        <ele>257</ele>
        <time>2018-03-18T10:17:47Z</time>
      </trkpt>
      <trkpt lat="45.9416" lon="4.81459">
        <ele>257</ele>
        <time>2018-03-18T10:17:51Z</time>
      </trkpt>
      <trkpt lat="45.94159" lon="4.81461">
        <ele>257</ele>
        <time>2018-03-18T10:17:52Z</time>
      </trkpt>
      <trkpt lat="45.9416" lon="4.81472">
        <ele>258</ele>
        <time>2018-03-18T10:17:55Z</time>
      </trkpt>
      <trkpt lat="45.9416" lon="4.81475">
        <ele>259</ele>
        <time>2018-03-18T10:17:56Z</time>
      </trkpt>
      <trkpt lat="45.9416" lon="4.81487">
        <ele>260</ele>
        <time>2018-03-18T10:17:59Z</time>
      </trkpt>
      <trkpt lat="45.9416" lon="4.81491">
        <ele>260</ele>
        <time>2018-03-18T10:18:00Z</time>
      </trkpt>
      <trkpt lat="45.94159" lon="4.81503">
        <ele>263</ele>
        <time>2018-03-18T10:18:04Z</time>
      </trkpt>
      <trkpt lat="45.94159" lon="4.81505">
        <ele>263</ele>
        <time>2018-03-18T10:18:05Z</time>
      </trkpt>
      <trkpt lat="45.94157" lon="4.81517">
        <ele>263</ele>
        <time>2018-03-18T10:18:10Z</time>
      </trkpt>
      <trkpt lat="45.94157" lon="4.8152">
        <ele>263</ele>
        <time>2018-03-18T10:18:11Z</time>
      </trkpt>
      <trkpt lat="45.94157" lon="4.81531">
        <ele>264</ele>
        <time>2018-03-18T10:18:16Z</time>
      </trkpt>
      <trkpt lat="45.94157" lon="4.81535">
        <ele>264</ele>
        <time>2018-03-18T10:18:17Z</time>
      </trkpt>
      <trkpt lat="45.94156" lon="4.81547">
        <ele>264</ele>
        <time>2018-03-18T10:18:21Z</time>
      </trkpt>
      <trkpt lat="45.94156" lon="4.8155">
        <ele>264</ele>
        <time>2018-03-18T10:18:22Z</time>
      </trkpt>
      <trkpt lat="45.94156" lon="4.81561">
        <ele>265</ele>
        <time>2018-03-18T10:18:26Z</time>
      </trkpt>
      <trkpt lat="45.94157" lon="4.81564">
        <ele>265</ele>
        <time>2018-03-18T10:18:27Z</time>
      </trkpt>
      <trkpt lat="45.94158" lon="4.81573">
        <ele>266</ele>
        <time>2018-03-18T10:18:30Z</time>
      </trkpt>
      <trkpt lat="45.94158" lon="4.81577">
        <ele>266</ele>
        <time>2018-03-18T10:18:31Z</time>
      </trkpt>
      <trkpt lat="45.9416" lon="4.81586">
        <ele>267</ele>
        <time>2018-03-18T10:18:34Z</time>
      </trkpt>
      <trkpt lat="45.94161" lon="4.8159">
        <ele>267</ele>
        <time>2018-03-18T10:18:35Z</time>
      </trkpt>
      <trkpt lat="45.94163" lon="4.81601">
        <ele>267</ele>
        <time>2018-03-18T10:18:38Z</time>
      </trkpt>
      <trkpt lat="45.94164" lon="4.81605">
        <ele>267</ele>
        <time>2018-03-18T10:18:39Z</time>
      </trkpt>
      <trkpt lat="45.94166" lon="4.81617">
        <ele>268</ele>
        <time>2018-03-18T10:18:42Z</time>
      </trkpt>
      <trkpt lat="45.94167" lon="4.81621">
        <ele>268</ele>
        <time>2018-03-18T10:18:43Z</time>
      </trkpt>
      <trkpt lat="45.94168" lon="4.81631">
        <ele>267</ele>
        <time>2018-03-18T10:18:46Z</time>
      </trkpt>
      <trkpt lat="45.94169" lon="4.81635">
        <ele>268</ele>
        <time>2018-03-18T10:18:47Z</time>
      </trkpt>
      <trkpt lat="45.94172" lon="4.81643">
        <ele>268</ele>
        <time>2018-03-18T10:18:49Z</time>
      </trkpt>
      <trkpt lat="45.94173" lon="4.81647">
        <ele>268</ele>
        <time>2018-03-18T10:18:50Z</time>
      </trkpt>
      <trkpt lat="45.94174" lon="4.81658">
        <ele>268</ele>
        <time>2018-03-18T10:18:53Z</time>
      </trkpt>
      <trkpt lat="45.94175" lon="4.81661">
        <ele>268</ele>
        <time>2018-03-18T10:18:54Z</time>
      </trkpt>
      <trkpt lat="45.94177" lon="4.81671">
        <ele>268</ele>
        <time>2018-03-18T10:18:57Z</time>
      </trkpt>
      <trkpt lat="45.94178" lon="4.81675">
        <ele>268</ele>
        <time>2018-03-18T10:18:58Z</time>
      </trkpt>
      <trkpt lat="45.9418" lon="4.81683">
        <ele>267</ele>
        <time>2018-03-18T10:19:00Z</time>
      </trkpt>
      <trkpt lat="45.94182" lon="4.81688">
        <ele>267</ele>
        <time>2018-03-18T10:19:01Z</time>
      </trkpt>
      <trkpt lat="45.94186" lon="4.81697">
        <ele>267</ele>
        <time>2018-03-18T10:19:04Z</time>
      </trkpt>
      <trkpt lat="45.94187" lon="4.817">
        <ele>267</ele>
        <time>2018-03-18T10:19:05Z</time>
      </trkpt>
      <trkpt lat="45.94188" lon="4.81711">
        <ele>267</ele>
        <time>2018-03-18T10:19:08Z</time>
      </trkpt>
      <trkpt lat="45.94188" lon="4.81715">
        <ele>267</ele>
        <time>2018-03-18T10:19:09Z</time>
      </trkpt>
      <trkpt lat="45.94189" lon="4.81724">
        <ele>267</ele>
        <time>2018-03-18T10:19:11Z</time>
      </trkpt>
      <trkpt lat="45.94189" lon="4.81729">
        <ele>267</ele>
        <time>2018-03-18T10:19:12Z</time>
      </trkpt>
      <trkpt lat="45.9419" lon="4.81738">
        <ele>267</ele>
        <time>2018-03-18T10:19:14Z</time>
      </trkpt>
      <trkpt lat="45.94191" lon="4.81742">
        <ele>267</ele>
        <time>2018-03-18T10:19:15Z</time>
      </trkpt>
      <trkpt lat="45.94194" lon="4.81751">
        <ele>266</ele>
        <time>2018-03-18T10:19:17Z</time>
      </trkpt>
      <trkpt lat="45.94198" lon="4.81765">
        <ele>266</ele>
        <time>2018-03-18T10:19:18Z</time>
      </trkpt>
      <trkpt lat="45.94199" lon="4.81777">
        <ele>266</ele>
        <time>2018-03-18T10:19:20Z</time>
      </trkpt>
      <trkpt lat="45.94199" lon="4.8178">
        <ele>266</ele>
        <time>2018-03-18T10:19:21Z</time>
      </trkpt>
      <trkpt lat="45.94199" lon="4.81792">
        <ele>266</ele>
        <time>2018-03-18T10:19:24Z</time>
      </trkpt>
      <trkpt lat="45.94199" lon="4.81796">
        <ele>266</ele>
        <time>2018-03-18T10:19:25Z</time>
      </trkpt>
      <trkpt lat="45.94199" lon="4.81807">
        <ele>266</ele>
        <time>2018-03-18T10:19:28Z</time>
      </trkpt>
      <trkpt lat="45.942" lon="4.8181">
        <ele>266</ele>
        <time>2018-03-18T10:19:29Z</time>
      </trkpt>
      <trkpt lat="45.94201" lon="4.81822">
        <ele>266</ele>
        <time>2018-03-18T10:19:32Z</time>
      </trkpt>
      <trkpt lat="45.94202" lon="4.81825">
        <ele>266</ele>
        <time>2018-03-18T10:19:33Z</time>
      </trkpt>
      <trkpt lat="45.94203" lon="4.81836">
        <ele>266</ele>
        <time>2018-03-18T10:19:36Z</time>
      </trkpt>
      <trkpt lat="45.94204" lon="4.8184">
        <ele>266</ele>
        <time>2018-03-18T10:19:37Z</time>
      </trkpt>
      <trkpt lat="45.94205" lon="4.81844">
        <ele>266</ele>
        <time>2018-03-18T10:19:38Z</time>
      </trkpt>
      <trkpt lat="45.94207" lon="4.81859">
        <ele>265</ele>
        <time>2018-03-18T10:19:39Z</time>
      </trkpt>
      <trkpt lat="45.94209" lon="4.8187">
        <ele>265</ele>
        <time>2018-03-18T10:19:41Z</time>
      </trkpt>
      <trkpt lat="45.94208" lon="4.81877">
        <ele>265</ele>
        <time>2018-03-18T10:19:42Z</time>
      </trkpt>
      <trkpt lat="45.94211" lon="4.81889">
        <ele>265</ele>
        <time>2018-03-18T10:19:44Z</time>
      </trkpt>
      <trkpt lat="45.94212" lon="4.81894">
        <ele>265</ele>
        <time>2018-03-18T10:19:45Z</time>
      </trkpt>
      <trkpt lat="45.94215" lon="4.81904">
        <ele>265</ele>
        <time>2018-03-18T10:19:47Z</time>
      </trkpt>
      <trkpt lat="45.94216" lon="4.8191">
        <ele>265</ele>
        <time>2018-03-18T10:19:48Z</time>
      </trkpt>
      <trkpt lat="45.94217" lon="4.81918">
        <ele>264</ele>
        <time>2018-03-18T10:19:49Z</time>
      </trkpt>
      <trkpt lat="45.94219" lon="4.81925">
        <ele>264</ele>
        <time>2018-03-18T10:19:50Z</time>
      </trkpt>
      <trkpt lat="45.94222" lon="4.81936">
        <ele>264</ele>
        <time>2018-03-18T10:19:52Z</time>
      </trkpt>
      <trkpt lat="45.94223" lon="4.81943">
        <ele>264</ele>
        <time>2018-03-18T10:19:53Z</time>
      </trkpt>
      <trkpt lat="45.94224" lon="4.81949">
        <ele>264</ele>
        <time>2018-03-18T10:19:54Z</time>
      </trkpt>
      <trkpt lat="45.94226" lon="4.81956">
        <ele>264</ele>
        <time>2018-03-18T10:19:55Z</time>
      </trkpt>
      <trkpt lat="45.94229" lon="4.81967">
        <ele>264</ele>
        <time>2018-03-18T10:19:57Z</time>
      </trkpt>
      <trkpt lat="45.94229" lon="4.81968">
        <ele>264</ele>
        <time>2018-03-18T10:19:58Z</time>
      </trkpt>
      <trkpt lat="45.94229" lon="4.81971">
        <ele>264</ele>
        <time>2018-03-18T10:19:59Z</time>
      </trkpt>
      <trkpt lat="45.94232" lon="4.81986">
        <ele>263</ele>
        <time>2018-03-18T10:20:00Z</time>
      </trkpt>
      <trkpt lat="45.94235" lon="4.81998">
        <ele>263</ele>
        <time>2018-03-18T10:20:02Z</time>
      </trkpt>
      <trkpt lat="45.94237" lon="4.82004">
        <ele>263</ele>
        <time>2018-03-18T10:20:03Z</time>
      </trkpt>
      <trkpt lat="45.94238" lon="4.82011">
        <ele>263</ele>
        <time>2018-03-18T10:20:04Z</time>
      </trkpt>
      <trkpt lat="45.9424" lon="4.82017">
        <ele>263</ele>
        <time>2018-03-18T10:20:05Z</time>
      </trkpt>
      <trkpt lat="45.94242" lon="4.82028">
        <ele>263</ele>
        <time>2018-03-18T10:20:07Z</time>
      </trkpt>
      <trkpt lat="45.94243" lon="4.82035">
        <ele>263</ele>
        <time>2018-03-18T10:20:08Z</time>
      </trkpt>
      <trkpt lat="45.94245" lon="4.82045">
        <ele>263</ele>
        <time>2018-03-18T10:20:10Z</time>
      </trkpt>
      <trkpt lat="45.94246" lon="4.82053">
        <ele>263</ele>
        <time>2018-03-18T10:20:11Z</time>
      </trkpt>
      <trkpt lat="45.94249" lon="4.82064">
        <ele>263</ele>
        <time>2018-03-18T10:20:13Z</time>
      </trkpt>
      <trkpt lat="45.9425" lon="4.82068">
        <ele>262</ele>
        <time>2018-03-18T10:20:14Z</time>
      </trkpt>
      <trkpt lat="45.94253" lon="4.8208">
        <ele>262</ele>
        <time>2018-03-18T10:20:17Z</time>
      </trkpt>
      <trkpt lat="45.94254" lon="4.82086">
        <ele>262</ele>
        <time>2018-03-18T10:20:18Z</time>
      </trkpt>
      <trkpt lat="45.94255" lon="4.82092">
        <ele>262</ele>
        <time>2018-03-18T10:20:19Z</time>
      </trkpt>
      <trkpt lat="45.94256" lon="4.82101">
        <ele>262</ele>
        <time>2018-03-18T10:20:20Z</time>
      </trkpt>
      <trkpt lat="45.94259" lon="4.82111">
        <ele>263</ele>
        <time>2018-03-18T10:20:22Z</time>
      </trkpt>
      <trkpt lat="45.94259" lon="4.82117">
        <ele>263</ele>
        <time>2018-03-18T10:20:23Z</time>
      </trkpt>
      <trkpt lat="45.94261" lon="4.82127">
        <ele>263</ele>
        <time>2018-03-18T10:20:25Z</time>
      </trkpt>
      <trkpt lat="45.94262" lon="4.82133">
        <ele>263</ele>
        <time>2018-03-18T10:20:26Z</time>
      </trkpt>
      <trkpt lat="45.94264" lon="4.82143">
        <ele>263</ele>
        <time>2018-03-18T10:20:28Z</time>
      </trkpt>
      <trkpt lat="45.94265" lon="4.82148">
        <ele>263</ele>
        <time>2018-03-18T10:20:29Z</time>
      </trkpt>
      <trkpt lat="45.94266" lon="4.82157">
        <ele>263</ele>
        <time>2018-03-18T10:20:31Z</time>
      </trkpt>
      <trkpt lat="45.94267" lon="4.82162">
        <ele>263</ele>
        <time>2018-03-18T10:20:32Z</time>
      </trkpt>
      <trkpt lat="45.94269" lon="4.82172">
        <ele>264</ele>
        <time>2018-03-18T10:20:35Z</time>
      </trkpt>
      <trkpt lat="45.9427" lon="4.82179">
        <ele>264</ele>
        <time>2018-03-18T10:20:36Z</time>
      </trkpt>
      <trkpt lat="45.94272" lon="4.82191">
        <ele>264</ele>
        <time>2018-03-18T10:20:38Z</time>
      </trkpt>
      <trkpt lat="45.94275" lon="4.82198">
        <ele>264</ele>
        <time>2018-03-18T10:20:39Z</time>
      </trkpt>
      <trkpt lat="45.94276" lon="4.82205">
        <ele>264</ele>
        <time>2018-03-18T10:20:40Z</time>
      </trkpt>
      <trkpt lat="45.94274" lon="4.82215">
        <ele>264</ele>
        <time>2018-03-18T10:20:41Z</time>
      </trkpt>
      <trkpt lat="45.94275" lon="4.82228">
        <ele>264</ele>
        <time>2018-03-18T10:20:43Z</time>
      </trkpt>
      <trkpt lat="45.94276" lon="4.82235">
        <ele>264</ele>
        <time>2018-03-18T10:20:44Z</time>
      </trkpt>
      <trkpt lat="45.94277" lon="4.82241">
        <ele>264</ele>
        <time>2018-03-18T10:20:45Z</time>
      </trkpt>
      <trkpt lat="45.94276" lon="4.82249">
        <ele>264</ele>
        <time>2018-03-18T10:20:46Z</time>
      </trkpt>
      <trkpt lat="45.94278" lon="4.82254">
        <ele>265</ele>
        <time>2018-03-18T10:20:47Z</time>
      </trkpt>
      <trkpt lat="45.94279" lon="4.82261">
        <ele>265</ele>
        <time>2018-03-18T10:20:48Z</time>
      </trkpt>
      <trkpt lat="45.94281" lon="4.82273">
        <ele>265</ele>
        <time>2018-03-18T10:20:50Z</time>
      </trkpt>
      <trkpt lat="45.9428" lon="4.82279">
        <ele>265</ele>
        <time>2018-03-18T10:20:51Z</time>
      </trkpt>
      <trkpt lat="45.94281" lon="4.82289">
        <ele>265</ele>
        <time>2018-03-18T10:20:52Z</time>
      </trkpt>
      <trkpt lat="45.94281" lon="4.82297">
        <ele>265</ele>
        <time>2018-03-18T10:20:53Z</time>
      </trkpt>
      <trkpt lat="45.9428" lon="4.82306">
        <ele>265</ele>
        <time>2018-03-18T10:20:54Z</time>
      </trkpt>
      <trkpt lat="45.94281" lon="4.82318">
        <ele>265</ele>
        <time>2018-03-18T10:20:55Z</time>
      </trkpt>
      <trkpt lat="45.94282" lon="4.82324">
        <ele>265</ele>
        <time>2018-03-18T10:20:56Z</time>
      </trkpt>
      <trkpt lat="45.94284" lon="4.82331">
        <ele>265</ele>
        <time>2018-03-18T10:20:57Z</time>
      </trkpt>
      <trkpt lat="45.94282" lon="4.8234">
        <ele>264</ele>
        <time>2018-03-18T10:20:58Z</time>
      </trkpt>
      <trkpt lat="45.94283" lon="4.82346">
        <ele>264</ele>
        <time>2018-03-18T10:20:59Z</time>
      </trkpt>
      <trkpt lat="45.94283" lon="4.82357">
        <ele>264</ele>
        <time>2018-03-18T10:21:01Z</time>
      </trkpt>
      <trkpt lat="45.94283" lon="4.82362">
        <ele>264</ele>
        <time>2018-03-18T10:21:02Z</time>
      </trkpt>
      <trkpt lat="45.94283" lon="4.8237">
        <ele>264</ele>
        <time>2018-03-18T10:21:03Z</time>
      </trkpt>
      <trkpt lat="45.94284" lon="4.82376">
        <ele>264</ele>
        <time>2018-03-18T10:21:04Z</time>
      </trkpt>
      <trkpt lat="45.94283" lon="4.82384">
        <ele>264</ele>
        <time>2018-03-18T10:21:05Z</time>
      </trkpt>
      <trkpt lat="45.94284" lon="4.8239">
        <ele>264</ele>
        <time>2018-03-18T10:21:06Z</time>
      </trkpt>
      <trkpt lat="45.94285" lon="4.82401">
        <ele>264</ele>
        <time>2018-03-18T10:21:08Z</time>
      </trkpt>
      <trkpt lat="45.94284" lon="4.82408">
        <ele>264</ele>
        <time>2018-03-18T10:21:09Z</time>
      </trkpt>
      <trkpt lat="45.94286" lon="4.82419">
        <ele>264</ele>
        <time>2018-03-18T10:21:11Z</time>
      </trkpt>
      <trkpt lat="45.94286" lon="4.82425">
        <ele>264</ele>
        <time>2018-03-18T10:21:12Z</time>
      </trkpt>
      <trkpt lat="45.94287" lon="4.82437">
        <ele>264</ele>
        <time>2018-03-18T10:21:14Z</time>
      </trkpt>
      <trkpt lat="45.94287" lon="4.82443">
        <ele>264</ele>
        <time>2018-03-18T10:21:15Z</time>
      </trkpt>
      <trkpt lat="45.94288" lon="4.82452">
        <ele>264</ele>
        <time>2018-03-18T10:21:17Z</time>
      </trkpt>
      <trkpt lat="45.94287" lon="4.82459">
        <ele>264</ele>
        <time>2018-03-18T10:21:18Z</time>
      </trkpt>
      <trkpt lat="45.94288" lon="4.8247">
        <ele>264</ele>
        <time>2018-03-18T10:21:20Z</time>
      </trkpt>
      <trkpt lat="45.94288" lon="4.82476">
        <ele>264</ele>
        <time>2018-03-18T10:21:21Z</time>
      </trkpt>
      <trkpt lat="45.94288" lon="4.82487">
        <ele>264</ele>
        <time>2018-03-18T10:21:23Z</time>
      </trkpt>
      <trkpt lat="45.94288" lon="4.82493">
        <ele>264</ele>
        <time>2018-03-18T10:21:24Z</time>
      </trkpt>
      <trkpt lat="45.94288" lon="4.82505">
        <ele>264</ele>
        <time>2018-03-18T10:21:26Z</time>
      </trkpt>
      <trkpt lat="45.94287" lon="4.82511">
        <ele>264</ele>
        <time>2018-03-18T10:21:27Z</time>
      </trkpt>
      <trkpt lat="45.94287" lon="4.82523">
        <ele>264</ele>
        <time>2018-03-18T10:21:29Z</time>
      </trkpt>
      <trkpt lat="45.94287" lon="4.82529">
        <ele>264</ele>
        <time>2018-03-18T10:21:30Z</time>
      </trkpt>
      <trkpt lat="45.94287" lon="4.82541">
        <ele>264</ele>
        <time>2018-03-18T10:21:32Z</time>
      </trkpt>
      <trkpt lat="45.94287" lon="4.82547">
        <ele>264</ele>
        <time>2018-03-18T10:21:33Z</time>
      </trkpt>
      <trkpt lat="45.94288" lon="4.82559">
        <ele>264</ele>
        <time>2018-03-18T10:21:35Z</time>
      </trkpt>
      <trkpt lat="45.94288" lon="4.82565">
        <ele>264</ele>
        <time>2018-03-18T10:21:36Z</time>
      </trkpt>
      <trkpt lat="45.94288" lon="4.82576">
        <ele>265</ele>
        <time>2018-03-18T10:21:38Z</time>
      </trkpt>
      <trkpt lat="45.94289" lon="4.82583">
        <ele>265</ele>
        <time>2018-03-18T10:21:39Z</time>
      </trkpt>
      <trkpt lat="45.94289" lon="4.82593">
        <ele>265</ele>
        <time>2018-03-18T10:21:41Z</time>
      </trkpt>
      <trkpt lat="45.94289" lon="4.82599">
        <ele>265</ele>
        <time>2018-03-18T10:21:42Z</time>
      </trkpt>
      <trkpt lat="45.94289" lon="4.82606">
        <ele>265</ele>
        <time>2018-03-18T10:21:43Z</time>
      </trkpt>
      <trkpt lat="45.94289" lon="4.82613">
        <ele>265</ele>
        <time>2018-03-18T10:21:44Z</time>
      </trkpt>
      <trkpt lat="45.94289" lon="4.82625">
        <ele>265</ele>
        <time>2018-03-18T10:21:46Z</time>
      </trkpt>
      <trkpt lat="45.94287" lon="4.8263">
        <ele>265</ele>
        <time>2018-03-18T10:21:47Z</time>
      </trkpt>
      <trkpt lat="45.94287" lon="4.82636">
        <ele>265</ele>
        <time>2018-03-18T10:21:48Z</time>
      </trkpt>
      <trkpt lat="45.94287" lon="4.82644">
        <ele>265</ele>
        <time>2018-03-18T10:21:49Z</time>
      </trkpt>
      <trkpt lat="45.94286" lon="4.8265">
        <ele>265</ele>
        <time>2018-03-18T10:21:50Z</time>
      </trkpt>
      <trkpt lat="45.94287" lon="4.82657">
        <ele>265</ele>
        <time>2018-03-18T10:21:51Z</time>
      </trkpt>
      <trkpt lat="45.94286" lon="4.82665">
        <ele>265</ele>
        <time>2018-03-18T10:21:52Z</time>
      </trkpt>
      <trkpt lat="45.94286" lon="4.8267">
        <ele>265</ele>
        <time>2018-03-18T10:21:53Z</time>
      </trkpt>
      <trkpt lat="45.94287" lon="4.82678">
        <ele>265</ele>
        <time>2018-03-18T10:21:54Z</time>
      </trkpt>
      <trkpt lat="45.94287" lon="4.82684">
        <ele>265</ele>
        <time>2018-03-18T10:21:55Z</time>
      </trkpt>
      <trkpt lat="45.94286" lon="4.82692">
        <ele>265</ele>
        <time>2018-03-18T10:21:56Z</time>
      </trkpt>
      <trkpt lat="45.94286" lon="4.82699">
        <ele>265</ele>
        <time>2018-03-18T10:21:57Z</time>
      </trkpt>
      <trkpt lat="45.94284" lon="4.82705">
        <ele>265</ele>
        <time>2018-03-18T10:21:58Z</time>
      </trkpt>
      <trkpt lat="45.94284" lon="4.82713">
        <ele>265</ele>
        <time>2018-03-18T10:21:59Z</time>
      </trkpt>
      <trkpt lat="45.94284" lon="4.82723">
        <ele>265</ele>
        <time>2018-03-18T10:22:01Z</time>
      </trkpt>
      <trkpt lat="45.94284" lon="4.8273">
        <ele>265</ele>
        <time>2018-03-18T10:22:02Z</time>
      </trkpt>
      <trkpt lat="45.94284" lon="4.82736">
        <ele>265</ele>
        <time>2018-03-18T10:22:03Z</time>
      </trkpt>
      <trkpt lat="45.94284" lon="4.82743">
        <ele>265</ele>
        <time>2018-03-18T10:22:04Z</time>
      </trkpt>
      <trkpt lat="45.94284" lon="4.82755">
        <ele>265</ele>
        <time>2018-03-18T10:22:06Z</time>
      </trkpt>
      <trkpt lat="45.94285" lon="4.82766">
        <ele>265</ele>
        <time>2018-03-18T10:22:07Z</time>
      </trkpt>
      <trkpt lat="45.94285" lon="4.82773">
        <ele>265</ele>
        <time>2018-03-18T10:22:08Z</time>
      </trkpt>
      <trkpt lat="45.94285" lon="4.82779">
        <ele>265</ele>
        <time>2018-03-18T10:22:09Z</time>
      </trkpt>
      <trkpt lat="45.94286" lon="4.82786">
        <ele>265</ele>
        <time>2018-03-18T10:22:10Z</time>
      </trkpt>
      <trkpt lat="45.94286" lon="4.82792">
        <ele>265</ele>
        <time>2018-03-18T10:22:11Z</time>
      </trkpt>
      <trkpt lat="45.94286" lon="4.82796">
        <ele>265</ele>
        <time>2018-03-18T10:22:12Z</time>
      </trkpt>
      <trkpt lat="45.94285" lon="4.82807">
        <ele>265</ele>
        <time>2018-03-18T10:22:13Z</time>
      </trkpt>
      <trkpt lat="45.94285" lon="4.82815">
        <ele>265</ele>
        <time>2018-03-18T10:22:14Z</time>
      </trkpt>
      <trkpt lat="45.94284" lon="4.8282">
        <ele>265</ele>
        <time>2018-03-18T10:22:15Z</time>
      </trkpt>
      <trkpt lat="45.94285" lon="4.82832">
        <ele>265</ele>
        <time>2018-03-18T10:22:17Z</time>
      </trkpt>
      <trkpt lat="45.94285" lon="4.82837">
        <ele>265</ele>
        <time>2018-03-18T10:22:18Z</time>
      </trkpt>
      <trkpt lat="45.94286" lon="4.82848">
        <ele>265</ele>
        <time>2018-03-18T10:22:20Z</time>
      </trkpt>
      <trkpt lat="45.94286" lon="4.82853">
        <ele>265</ele>
        <time>2018-03-18T10:22:21Z</time>
      </trkpt>
      <trkpt lat="45.94285" lon="4.82865">
        <ele>265</ele>
        <time>2018-03-18T10:22:23Z</time>
      </trkpt>
      <trkpt lat="45.94285" lon="4.82871">
        <ele>265</ele>
        <time>2018-03-18T10:22:24Z</time>
      </trkpt>
      <trkpt lat="45.94284" lon="4.82884">
        <ele>265</ele>
        <time>2018-03-18T10:22:26Z</time>
      </trkpt>
      <trkpt lat="45.94284" lon="4.8289">
        <ele>265</ele>
        <time>2018-03-18T10:22:27Z</time>
      </trkpt>
      <trkpt lat="45.94284" lon="4.82901">
        <ele>265</ele>
        <time>2018-03-18T10:22:29Z</time>
      </trkpt>
      <trkpt lat="45.94282" lon="4.82908">
        <ele>265</ele>
        <time>2018-03-18T10:22:30Z</time>
      </trkpt>
      <trkpt lat="45.94282" lon="4.82918">
        <ele>265</ele>
        <time>2018-03-18T10:22:32Z</time>
      </trkpt>
      <trkpt lat="45.9428" lon="4.82924">
        <ele>265</ele>
        <time>2018-03-18T10:22:33Z</time>
      </trkpt>
      <trkpt lat="45.9428" lon="4.82934">
        <ele>265</ele>
        <time>2018-03-18T10:22:35Z</time>
      </trkpt>
      <trkpt lat="45.94279" lon="4.8294">
        <ele>265</ele>
        <time>2018-03-18T10:22:36Z</time>
      </trkpt>
      <trkpt lat="45.94278" lon="4.82946">
        <ele>265</ele>
        <time>2018-03-18T10:22:37Z</time>
      </trkpt>
      <trkpt lat="45.94276" lon="4.82953">
        <ele>265</ele>
        <time>2018-03-18T10:22:38Z</time>
      </trkpt>
      <trkpt lat="45.94277" lon="4.82964">
        <ele>265</ele>
        <time>2018-03-18T10:22:40Z</time>
      </trkpt>
      <trkpt lat="45.94278" lon="4.82967">
        <ele>265</ele>
        <time>2018-03-18T10:22:41Z</time>
      </trkpt>
      <trkpt lat="45.9428" lon="4.82973">
        <ele>265</ele>
        <time>2018-03-18T10:22:42Z</time>
      </trkpt>
      <trkpt lat="45.94283" lon="4.82979">
        <ele>265</ele>
        <time>2018-03-18T10:22:43Z</time>
      </trkpt>
      <trkpt lat="45.94284" lon="4.82986">
        <ele>265</ele>
        <time>2018-03-18T10:22:44Z</time>
      </trkpt>
      <trkpt lat="45.94286" lon="4.82993">
        <ele>265</ele>
        <time>2018-03-18T10:22:45Z</time>
      </trkpt>
      <trkpt lat="45.94288" lon="4.82999">
        <ele>265</ele>
        <time>2018-03-18T10:22:46Z</time>
      </trkpt>
      <trkpt lat="45.94289" lon="4.83006">
        <ele>266</ele>
        <time>2018-03-18T10:22:47Z</time>
      </trkpt>
      <trkpt lat="45.9429" lon="4.83018">
        <ele>266</ele>
        <time>2018-03-18T10:22:49Z</time>
      </trkpt>
      <trkpt lat="45.94292" lon="4.83025">
        <ele>266</ele>
        <time>2018-03-18T10:22:50Z</time>
      </trkpt>
      <trkpt lat="45.94293" lon="4.83034">
        <ele>266</ele>
        <time>2018-03-18T10:22:51Z</time>
      </trkpt>
      <trkpt lat="45.94294" lon="4.83039">
        <ele>266</ele>
        <time>2018-03-18T10:22:52Z</time>
      </trkpt>
      <trkpt lat="45.94297" lon="4.83049">
        <ele>266</ele>
        <time>2018-03-18T10:22:54Z</time>
      </trkpt>
      <trkpt lat="45.94298" lon="4.83056">
        <ele>266</ele>
        <time>2018-03-18T10:22:55Z</time>
      </trkpt>
      <trkpt lat="45.94298" lon="4.83062">
        <ele>266</ele>
        <time>2018-03-18T10:22:56Z</time>
      </trkpt>
      <trkpt lat="45.943" lon="4.83068">
        <ele>266</ele>
        <time>2018-03-18T10:22:57Z</time>
      </trkpt>
      <trkpt lat="45.94302" lon="4.83075">
        <ele>266</ele>
        <time>2018-03-18T10:22:58Z</time>
      </trkpt>
      <trkpt lat="45.94304" lon="4.8308">
        <ele>266</ele>
        <time>2018-03-18T10:22:59Z</time>
      </trkpt>
      <trkpt lat="45.94308" lon="4.83091">
        <ele>266</ele>
        <time>2018-03-18T10:23:01Z</time>
      </trkpt>
      <trkpt lat="45.94311" lon="4.831">
        <ele>266</ele>
        <time>2018-03-18T10:23:02Z</time>
      </trkpt>
      <trkpt lat="45.94314" lon="4.83106">
        <ele>266</ele>
        <time>2018-03-18T10:23:03Z</time>
      </trkpt>
      <trkpt lat="45.94316" lon="4.83112">
        <ele>266</ele>
        <time>2018-03-18T10:23:04Z</time>
      </trkpt>
      <trkpt lat="45.94319" lon="4.83123">
        <ele>266</ele>
        <time>2018-03-18T10:23:06Z</time>
      </trkpt>
      <trkpt lat="45.94321" lon="4.83128">
        <ele>266</ele>
        <time>2018-03-18T10:23:07Z</time>
      </trkpt>
      <trkpt lat="45.94323" lon="4.83133">
        <ele>266</ele>
        <time>2018-03-18T10:23:08Z</time>
      </trkpt>
      <trkpt lat="45.94326" lon="4.83139">
        <ele>266</ele>
        <time>2018-03-18T10:23:09Z</time>
      </trkpt>
      <trkpt lat="45.9433" lon="4.8315">
        <ele>266</ele>
        <time>2018-03-18T10:23:11Z</time>
      </trkpt>
      <trkpt lat="45.94332" lon="4.83155">
        <ele>266</ele>
        <time>2018-03-18T10:23:12Z</time>
      </trkpt>
      <trkpt lat="45.94334" lon="4.83161">
        <ele>266</ele>
        <time>2018-03-18T10:23:13Z</time>
      </trkpt>
      <trkpt lat="45.94337" lon="4.83167">
        <ele>266</ele>
        <time>2018-03-18T10:23:14Z</time>
      </trkpt>
      <trkpt lat="45.94339" lon="4.83174">
        <ele>266</ele>
        <time>2018-03-18T10:23:15Z</time>
      </trkpt>
      <trkpt lat="45.94341" lon="4.8318">
        <ele>266</ele>
        <time>2018-03-18T10:23:16Z</time>
      </trkpt>
      <trkpt lat="45.94344" lon="4.83191">
        <ele>266</ele>
        <time>2018-03-18T10:23:18Z</time>
      </trkpt>
      <trkpt lat="45.94346" lon="4.83198">
        <ele>266</ele>
        <time>2018-03-18T10:23:19Z</time>
      </trkpt>
      <trkpt lat="45.94348" lon="4.83204">
        <ele>266</ele>
        <time>2018-03-18T10:23:20Z</time>
      </trkpt>
      <trkpt lat="45.9435" lon="4.8321">
        <ele>266</ele>
        <time>2018-03-18T10:23:21Z</time>
      </trkpt>
      <trkpt lat="45.94353" lon="4.83221">
        <ele>266</ele>
        <time>2018-03-18T10:23:23Z</time>
      </trkpt>
      <trkpt lat="45.94355" lon="4.83227">
        <ele>266</ele>
        <time>2018-03-18T10:23:24Z</time>
      </trkpt>
      <trkpt lat="45.94358" lon="4.83232">
        <ele>265</ele>
        <time>2018-03-18T10:23:25Z</time>
      </trkpt>
      <trkpt lat="45.9436" lon="4.83238">
        <ele>265</ele>
        <time>2018-03-18T10:23:26Z</time>
      </trkpt>
      <trkpt lat="45.94363" lon="4.83245">
        <ele>265</ele>
        <time>2018-03-18T10:23:27Z</time>
      </trkpt>
      <trkpt lat="45.94364" lon="4.83251">
        <ele>265</ele>
        <time>2018-03-18T10:23:28Z</time>
      </trkpt>
      <trkpt lat="45.94366" lon="4.83258">
        <ele>265</ele>
        <time>2018-03-18T10:23:29Z</time>
      </trkpt>
      <trkpt lat="45.94368" lon="4.83265">
        <ele>264</ele>
        <time>2018-03-18T10:23:30Z</time>
      </trkpt>
      <trkpt lat="45.9437" lon="4.83271">
        <ele>264</ele>
        <time>2018-03-18T10:23:31Z</time>
      </trkpt>
      <trkpt lat="45.94373" lon="4.83279">
        <ele>264</ele>
        <time>2018-03-18T10:23:32Z</time>
      </trkpt>
      <trkpt lat="45.94375" lon="4.83284">
        <ele>264</ele>
        <time>2018-03-18T10:23:33Z</time>
      </trkpt>
      <trkpt lat="45.94377" lon="4.83291">
        <ele>264</ele>
        <time>2018-03-18T10:23:34Z</time>
      </trkpt>
      <trkpt lat="45.9438" lon="4.83298">
        <ele>264</ele>
        <time>2018-03-18T10:23:35Z</time>
      </trkpt>
      <trkpt lat="45.94383" lon="4.83304">
        <ele>264</ele>
        <time>2018-03-18T10:23:36Z</time>
      </trkpt>
      <trkpt lat="45.94386" lon="4.83315">
        <ele>264</ele>
        <time>2018-03-18T10:23:38Z</time>
      </trkpt>
      <trkpt lat="45.94389" lon="4.83324">
        <ele>264</ele>
        <time>2018-03-18T10:23:39Z</time>
      </trkpt>
      <trkpt lat="45.94391" lon="4.83329">
        <ele>264</ele>
        <time>2018-03-18T10:23:40Z</time>
      </trkpt>
      <trkpt lat="45.94392" lon="4.83336">
        <ele>263</ele>
        <time>2018-03-18T10:23:41Z</time>
      </trkpt>
      <trkpt lat="45.94393" lon="4.83343">
        <ele>264</ele>
        <time>2018-03-18T10:23:42Z</time>
      </trkpt>
      <trkpt lat="45.94398" lon="4.8335">
        <ele>264</ele>
        <time>2018-03-18T10:23:43Z</time>
      </trkpt>
      <trkpt lat="45.944" lon="4.83356">
        <ele>264</ele>
        <time>2018-03-18T10:23:44Z</time>
      </trkpt>
      <trkpt lat="45.94404" lon="4.83362">
        <ele>264</ele>
        <time>2018-03-18T10:23:45Z</time>
      </trkpt>
      <trkpt lat="45.94405" lon="4.83369">
        <ele>264</ele>
        <time>2018-03-18T10:23:46Z</time>
      </trkpt>
      <trkpt lat="45.94406" lon="4.83375">
        <ele>264</ele>
        <time>2018-03-18T10:23:47Z</time>
      </trkpt>
      <trkpt lat="45.94409" lon="4.83384">
        <ele>264</ele>
        <time>2018-03-18T10:23:48Z</time>
      </trkpt>
      <trkpt lat="45.94412" lon="4.8339">
        <ele>264</ele>
        <time>2018-03-18T10:23:49Z</time>
      </trkpt>
      <trkpt lat="45.94414" lon="4.83397">
        <ele>264</ele>
        <time>2018-03-18T10:23:50Z</time>
      </trkpt>
      <trkpt lat="45.94417" lon="4.83402">
        <ele>264</ele>
        <time>2018-03-18T10:23:51Z</time>
      </trkpt>
      <trkpt lat="45.94422" lon="4.83411">
        <ele>264</ele>
        <time>2018-03-18T10:23:53Z</time>
      </trkpt>
      <trkpt lat="45.94425" lon="4.83415">
        <ele>264</ele>
        <time>2018-03-18T10:23:54Z</time>
      </trkpt>
      <trkpt lat="45.94429" lon="4.83426">
        <ele>264</ele>
        <time>2018-03-18T10:23:56Z</time>
      </trkpt>
      <trkpt lat="45.94432" lon="4.83431">
        <ele>264</ele>
        <time>2018-03-18T10:23:57Z</time>
      </trkpt>
      <trkpt lat="45.94435" lon="4.83436">
        <ele>263</ele>
        <time>2018-03-18T10:23:58Z</time>
      </trkpt>
      <trkpt lat="45.94438" lon="4.83443">
        <ele>263</ele>
        <time>2018-03-18T10:23:59Z</time>
      </trkpt>
      <trkpt lat="45.94443" lon="4.83451">
        <ele>263</ele>
        <time>2018-03-18T10:24:00Z</time>
      </trkpt>
      <trkpt lat="45.94447" lon="4.83458">
        <ele>263</ele>
        <time>2018-03-18T10:24:01Z</time>
      </trkpt>
      <trkpt lat="45.94451" lon="4.83465">
        <ele>263</ele>
        <time>2018-03-18T10:24:02Z</time>
      </trkpt>
      <trkpt lat="45.94455" lon="4.83471">
        <ele>263</ele>
        <time>2018-03-18T10:24:03Z</time>
      </trkpt>
      <trkpt lat="45.94457" lon="4.83477">
        <ele>263</ele>
        <time>2018-03-18T10:24:04Z</time>
      </trkpt>
      <trkpt lat="45.94461" lon="4.83483">
        <ele>263</ele>
        <time>2018-03-18T10:24:05Z</time>
      </trkpt>
      <trkpt lat="45.94463" lon="4.83488">
        <ele>263</ele>
        <time>2018-03-18T10:24:06Z</time>
      </trkpt>
      <trkpt lat="45.94466" lon="4.83494">
        <ele>263</ele>
        <time>2018-03-18T10:24:07Z</time>
      </trkpt>
      <trkpt lat="45.9447" lon="4.83499">
        <ele>263</ele>
        <time>2018-03-18T10:24:08Z</time>
      </trkpt>
      <trkpt lat="45.94474" lon="4.83504">
        <ele>262</ele>
        <time>2018-03-18T10:24:09Z</time>
      </trkpt>
      <trkpt lat="45.94477" lon="4.83509">
        <ele>262</ele>
        <time>2018-03-18T10:24:10Z</time>
      </trkpt>
      <trkpt lat="45.9448" lon="4.83514">
        <ele>262</ele>
        <time>2018-03-18T10:24:11Z</time>
      </trkpt>
      <trkpt lat="45.94485" lon="4.8352">
        <ele>262</ele>
        <time>2018-03-18T10:24:12Z</time>
      </trkpt>
      <trkpt lat="45.94488" lon="4.83526">
        <ele>262</ele>
        <time>2018-03-18T10:24:13Z</time>
      </trkpt>
      <trkpt lat="45.94491" lon="4.83532">
        <ele>262</ele>
        <time>2018-03-18T10:24:14Z</time>
      </trkpt>
      <trkpt lat="45.94495" lon="4.83537">
        <ele>262</ele>
        <time>2018-03-18T10:24:15Z</time>
      </trkpt>
      <trkpt lat="45.94498" lon="4.83543">
        <ele>262</ele>
        <time>2018-03-18T10:24:16Z</time>
      </trkpt>
      <trkpt lat="45.94502" lon="4.83549">
        <ele>261</ele>
        <time>2018-03-18T10:24:17Z</time>
      </trkpt>
      <trkpt lat="45.94506" lon="4.83555">
        <ele>261</ele>
        <time>2018-03-18T10:24:18Z</time>
      </trkpt>
      <trkpt lat="45.94509" lon="4.83561">
        <ele>261</ele>
        <time>2018-03-18T10:24:19Z</time>
      </trkpt>
      <trkpt lat="45.94513" lon="4.83569">
        <ele>261</ele>
        <time>2018-03-18T10:24:20Z</time>
      </trkpt>
      <trkpt lat="45.94516" lon="4.83574">
        <ele>261</ele>
        <time>2018-03-18T10:24:21Z</time>
      </trkpt>
      <trkpt lat="45.9452" lon="4.8358">
        <ele>261</ele>
        <time>2018-03-18T10:24:22Z</time>
      </trkpt>
      <trkpt lat="45.94524" lon="4.83584">
        <ele>261</ele>
        <time>2018-03-18T10:24:23Z</time>
      </trkpt>
      <trkpt lat="45.94528" lon="4.83591">
        <ele>261</ele>
        <time>2018-03-18T10:24:24Z</time>
      </trkpt>
      <trkpt lat="45.94532" lon="4.83596">
        <ele>261</ele>
        <time>2018-03-18T10:24:25Z</time>
      </trkpt>
      <trkpt lat="45.94535" lon="4.83601">
        <ele>261</ele>
        <time>2018-03-18T10:24:26Z</time>
      </trkpt>
      <trkpt lat="45.9454" lon="4.83607">
        <ele>261</ele>
        <time>2018-03-18T10:24:27Z</time>
      </trkpt>
      <trkpt lat="45.94543" lon="4.83612">
        <ele>261</ele>
        <time>2018-03-18T10:24:28Z</time>
      </trkpt>
      <trkpt lat="45.94549" lon="4.83618">
        <ele>261</ele>
        <time>2018-03-18T10:24:29Z</time>
      </trkpt>
      <trkpt lat="45.94552" lon="4.83624">
        <ele>261</ele>
        <time>2018-03-18T10:24:30Z</time>
      </trkpt>
      <trkpt lat="45.94555" lon="4.83628">
        <ele>261</ele>
        <time>2018-03-18T10:24:31Z</time>
      </trkpt>
      <trkpt lat="45.94563" lon="4.83633">
        <ele>261</ele>
        <time>2018-03-18T10:24:33Z</time>
      </trkpt>
      <trkpt lat="45.94567" lon="4.83635">
        <ele>261</ele>
        <time>2018-03-18T10:24:34Z</time>
      </trkpt>
      <trkpt lat="45.94571" lon="4.83639">
        <ele>261</ele>
        <time>2018-03-18T10:24:35Z</time>
      </trkpt>
      <trkpt lat="45.94575" lon="4.83642">
        <ele>261</ele>
        <time>2018-03-18T10:24:36Z</time>
      </trkpt>
      <trkpt lat="45.94578" lon="4.83646">
        <ele>261</ele>
        <time>2018-03-18T10:24:37Z</time>
      </trkpt>
      <trkpt lat="45.94584" lon="4.83651">
        <ele>261</ele>
        <time>2018-03-18T10:24:38Z</time>
      </trkpt>
      <trkpt lat="45.94591" lon="4.83654">
        <ele>261</ele>
        <time>2018-03-18T10:24:39Z</time>
      </trkpt>
      <trkpt lat="45.94595" lon="4.83661">
        <ele>261</ele>
        <time>2018-03-18T10:24:40Z</time>
      </trkpt>
      <trkpt lat="45.94598" lon="4.83669">
        <ele>261</ele>
        <time>2018-03-18T10:24:41Z</time>
      </trkpt>
      <trkpt lat="45.94602" lon="4.83674">
        <ele>261</ele>
        <time>2018-03-18T10:24:42Z</time>
      </trkpt>
      <trkpt lat="45.94608" lon="4.83679">
        <ele>261</ele>
        <time>2018-03-18T10:24:43Z</time>
      </trkpt>
      <trkpt lat="45.94613" lon="4.83682">
        <ele>261</ele>
        <time>2018-03-18T10:24:44Z</time>
      </trkpt>
      <trkpt lat="45.94618" lon="4.83686">
        <ele>261</ele>
        <time>2018-03-18T10:24:45Z</time>
      </trkpt>
      <trkpt lat="45.94623" lon="4.83689">
        <ele>261</ele>
        <time>2018-03-18T10:24:46Z</time>
      </trkpt>
      <trkpt lat="45.94628" lon="4.83693">
        <ele>261</ele>
        <time>2018-03-18T10:24:47Z</time>
      </trkpt>
      <trkpt lat="45.94632" lon="4.83695">
        <ele>261</ele>
        <time>2018-03-18T10:24:48Z</time>
      </trkpt>
      <trkpt lat="45.94637" lon="4.83697">
        <ele>261</ele>
        <time>2018-03-18T10:24:49Z</time>
      </trkpt>
      <trkpt lat="45.94641" lon="4.83703">
        <ele>261</ele>
        <time>2018-03-18T10:24:50Z</time>
      </trkpt>
      <trkpt lat="45.94645" lon="4.83708">
        <ele>261</ele>
        <time>2018-03-18T10:24:51Z</time>
      </trkpt>
      <trkpt lat="45.94649" lon="4.8371">
        <ele>261</ele>
        <time>2018-03-18T10:24:52Z</time>
      </trkpt>
      <trkpt lat="45.94658" lon="4.83715">
        <ele>261</ele>
        <time>2018-03-18T10:24:54Z</time>
      </trkpt>
      <trkpt lat="45.94661" lon="4.83719">
        <ele>261</ele>
        <time>2018-03-18T10:24:55Z</time>
      </trkpt>
      <trkpt lat="45.94668" lon="4.83726">
        <ele>261</ele>
        <time>2018-03-18T10:24:57Z</time>
      </trkpt>
      <trkpt lat="45.94671" lon="4.8373">
        <ele>262</ele>
        <time>2018-03-18T10:24:58Z</time>
      </trkpt>
      <trkpt lat="45.94677" lon="4.83737">
        <ele>262</ele>
        <time>2018-03-18T10:25:00Z</time>
      </trkpt>
      <trkpt lat="45.9468" lon="4.8374">
        <ele>262</ele>
        <time>2018-03-18T10:25:01Z</time>
      </trkpt>
      <trkpt lat="45.94686" lon="4.83746">
        <ele>262</ele>
        <time>2018-03-18T10:25:03Z</time>
      </trkpt>
      <trkpt lat="45.9469" lon="4.83749">
        <ele>262</ele>
        <time>2018-03-18T10:25:04Z</time>
      </trkpt>
      <trkpt lat="45.94693" lon="4.83754">
        <ele>263</ele>
        <time>2018-03-18T10:25:05Z</time>
      </trkpt>
      <trkpt lat="45.94699" lon="4.83759">
        <ele>263</ele>
        <time>2018-03-18T10:25:06Z</time>
      </trkpt>
      <trkpt lat="45.94706" lon="4.83765">
        <ele>263</ele>
        <time>2018-03-18T10:25:08Z</time>
      </trkpt>
      <trkpt lat="45.9471" lon="4.83769">
        <ele>263</ele>
        <time>2018-03-18T10:25:09Z</time>
      </trkpt>
      <trkpt lat="45.94715" lon="4.83776">
        <ele>263</ele>
        <time>2018-03-18T10:25:11Z</time>
      </trkpt>
      <trkpt lat="45.94717" lon="4.83778">
        <ele>263</ele>
        <time>2018-03-18T10:25:12Z</time>
      </trkpt>
      <trkpt lat="45.94721" lon="4.83783">
        <ele>263</ele>
        <time>2018-03-18T10:25:13Z</time>
      </trkpt>
      <trkpt lat="45.94723" lon="4.83787">
        <ele>263</ele>
        <time>2018-03-18T10:25:14Z</time>
      </trkpt>
      <trkpt lat="45.94728" lon="4.83792">
        <ele>264</ele>
        <time>2018-03-18T10:25:16Z</time>
      </trkpt>
      <trkpt lat="45.94732" lon="4.83797">
        <ele>264</ele>
        <time>2018-03-18T10:25:17Z</time>
      </trkpt>
      <trkpt lat="45.94738" lon="4.83803">
        <ele>264</ele>
        <time>2018-03-18T10:25:19Z</time>
      </trkpt>
      <trkpt lat="45.94739" lon="4.83804">
        <ele>264</ele>
        <time>2018-03-18T10:25:20Z</time>
      </trkpt>
      <trkpt lat="45.94745" lon="4.83811">
        <ele>264</ele>
        <time>2018-03-18T10:25:23Z</time>
      </trkpt>
      <trkpt lat="45.94747" lon="4.83813">
        <ele>264</ele>
        <time>2018-03-18T10:25:24Z</time>
      </trkpt>
      <trkpt lat="45.94749" lon="4.83815">
        <ele>264</ele>
        <time>2018-03-18T10:25:25Z</time>
      </trkpt>
      <trkpt lat="45.94755" lon="4.83823">
        <ele>264</ele>
        <time>2018-03-18T10:25:26Z</time>
      </trkpt>
      <trkpt lat="45.94761" lon="4.83832">
        <ele>264</ele>
        <time>2018-03-18T10:25:29Z</time>
      </trkpt>
      <trkpt lat="45.94763" lon="4.83834">
        <ele>265</ele>
        <time>2018-03-18T10:25:30Z</time>
      </trkpt>
      <trkpt lat="45.94764" lon="4.83837">
        <ele>265</ele>
        <time>2018-03-18T10:25:31Z</time>
      </trkpt>
      <trkpt lat="45.94769" lon="4.83844">
        <ele>265</ele>
        <time>2018-03-18T10:25:32Z</time>
      </trkpt>
      <trkpt lat="45.94773" lon="4.83852">
        <ele>265</ele>
        <time>2018-03-18T10:25:35Z</time>
      </trkpt>
      <trkpt lat="45.94774" lon="4.83855">
        <ele>265</ele>
        <time>2018-03-18T10:25:36Z</time>
      </trkpt>
      <trkpt lat="45.94776" lon="4.83858">
        <ele>265</ele>
        <time>2018-03-18T10:25:37Z</time>
      </trkpt>
      <trkpt lat="45.94781" lon="4.83868">
        <ele>265</ele>
        <time>2018-03-18T10:25:38Z</time>
      </trkpt>
      <trkpt lat="45.94787" lon="4.83877">
        <ele>266</ele>
        <time>2018-03-18T10:25:40Z</time>
      </trkpt>
      <trkpt lat="45.9479" lon="4.83881">
        <ele>266</ele>
        <time>2018-03-18T10:25:41Z</time>
      </trkpt>
      <trkpt lat="45.94795" lon="4.8389">
        <ele>266</ele>
        <time>2018-03-18T10:25:43Z</time>
      </trkpt>
      <trkpt lat="45.94799" lon="4.83894">
        <ele>266</ele>
        <time>2018-03-18T10:25:44Z</time>
      </trkpt>
      <trkpt lat="45.94805" lon="4.83903">
        <ele>265</ele>
        <time>2018-03-18T10:25:46Z</time>
      </trkpt>
      <trkpt lat="45.94807" lon="4.83907">
        <ele>265</ele>
        <time>2018-03-18T10:25:47Z</time>
      </trkpt>
      <trkpt lat="45.94811" lon="4.83915">
        <ele>265</ele>
        <time>2018-03-18T10:25:49Z</time>
      </trkpt>
      <trkpt lat="45.94813" lon="4.83919">
        <ele>266</ele>
        <time>2018-03-18T10:25:50Z</time>
      </trkpt>
      <trkpt lat="45.94818" lon="4.83929">
        <ele>266</ele>
        <time>2018-03-18T10:25:53Z</time>
      </trkpt>
      <trkpt lat="45.9482" lon="4.83931">
        <ele>266</ele>
        <time>2018-03-18T10:25:54Z</time>
      </trkpt>
      <trkpt lat="45.94825" lon="4.83941">
        <ele>266</ele>
        <time>2018-03-18T10:25:57Z</time>
      </trkpt>
      <trkpt lat="45.94827" lon="4.83945">
        <ele>266</ele>
        <time>2018-03-18T10:25:58Z</time>
      </trkpt>
      <trkpt lat="45.94831" lon="4.83952">
        <ele>266</ele>
        <time>2018-03-18T10:26:00Z</time>
      </trkpt>
      <trkpt lat="45.94836" lon="4.83964">
        <ele>265</ele>
        <time>2018-03-18T10:26:01Z</time>
      </trkpt>
      <trkpt lat="45.9484" lon="4.83974">
        <ele>265</ele>
        <time>2018-03-18T10:26:03Z</time>
      </trkpt>
      <trkpt lat="45.94842" lon="4.83979">
        <ele>265</ele>
        <time>2018-03-18T10:26:04Z</time>
      </trkpt>
      <trkpt lat="45.94845" lon="4.83989">
        <ele>265</ele>
        <time>2018-03-18T10:26:06Z</time>
      </trkpt>
      <trkpt lat="45.94846" lon="4.83995">
        <ele>266</ele>
        <time>2018-03-18T10:26:07Z</time>
      </trkpt>
      <trkpt lat="45.9485" lon="4.84007">
        <ele>266</ele>
        <time>2018-03-18T10:26:09Z</time>
      </trkpt>
      <trkpt lat="45.94852" lon="4.84012">
        <ele>266</ele>
        <time>2018-03-18T10:26:10Z</time>
      </trkpt>
      <trkpt lat="45.94856" lon="4.84023">
        <ele>266</ele>
        <time>2018-03-18T10:26:12Z</time>
      </trkpt>
      <trkpt lat="45.94857" lon="4.84028">
        <ele>266</ele>
        <time>2018-03-18T10:26:13Z</time>
      </trkpt>
      <trkpt lat="45.9486" lon="4.84036">
        <ele>266</ele>
        <time>2018-03-18T10:26:14Z</time>
      </trkpt>
      <trkpt lat="45.94861" lon="4.8404">
        <ele>266</ele>
        <time>2018-03-18T10:26:15Z</time>
      </trkpt>
      <trkpt lat="45.94863" lon="4.84045">
        <ele>266</ele>
        <time>2018-03-18T10:26:16Z</time>
      </trkpt>
      <trkpt lat="45.94866" lon="4.84051">
        <ele>266</ele>
        <time>2018-03-18T10:26:17Z</time>
      </trkpt>
      <trkpt lat="45.94868" lon="4.84057">
        <ele>267</ele>
        <time>2018-03-18T10:26:18Z</time>
      </trkpt>
      <trkpt lat="45.94873" lon="4.84067">
        <ele>267</ele>
        <time>2018-03-18T10:26:19Z</time>
      </trkpt>
      <trkpt lat="45.94874" lon="4.84071">
        <ele>267</ele>
        <time>2018-03-18T10:26:20Z</time>
      </trkpt>
      <trkpt lat="45.94879" lon="4.84079">
        <ele>267</ele>
        <time>2018-03-18T10:26:21Z</time>
      </trkpt>
      <trkpt lat="45.94883" lon="4.8409">
        <ele>267</ele>
        <time>2018-03-18T10:26:23Z</time>
      </trkpt>
      <trkpt lat="45.94886" lon="4.84095">
        <ele>267</ele>
        <time>2018-03-18T10:26:24Z</time>
      </trkpt>
      <trkpt lat="45.94888" lon="4.841">
        <ele>267</ele>
        <time>2018-03-18T10:26:25Z</time>
      </trkpt>
      <trkpt lat="45.9489" lon="4.84107">
        <ele>267</ele>
        <time>2018-03-18T10:26:26Z</time>
      </trkpt>
      <trkpt lat="45.94892" lon="4.84113">
        <ele>267</ele>
        <time>2018-03-18T10:26:27Z</time>
      </trkpt>
      <trkpt lat="45.94894" lon="4.84118">
        <ele>267</ele>
        <time>2018-03-18T10:26:28Z</time>
      </trkpt>
      <trkpt lat="45.94898" lon="4.84129">
        <ele>267</ele>
        <time>2018-03-18T10:26:30Z</time>
      </trkpt>
      <trkpt lat="45.94898" lon="4.84132">
        <ele>267</ele>
        <time>2018-03-18T10:26:31Z</time>
      </trkpt>
      <trkpt lat="45.94901" lon="4.84137">
        <ele>267</ele>
        <time>2018-03-18T10:26:32Z</time>
      </trkpt>
      <trkpt lat="45.94904" lon="4.84143">
        <ele>268</ele>
        <time>2018-03-18T10:26:33Z</time>
      </trkpt>
      <trkpt lat="45.94908" lon="4.84148">
        <ele>268</ele>
        <time>2018-03-18T10:26:34Z</time>
      </trkpt>
      <trkpt lat="45.94913" lon="4.84153">
        <ele>268</ele>
        <time>2018-03-18T10:26:35Z</time>
      </trkpt>
      <trkpt lat="45.94916" lon="4.84159">
        <ele>268</ele>
        <time>2018-03-18T10:26:36Z</time>
      </trkpt>
      <trkpt lat="45.94919" lon="4.84163">
        <ele>268</ele>
        <time>2018-03-18T10:26:37Z</time>
      </trkpt>
      <trkpt lat="45.94922" lon="4.84166">
        <ele>268</ele>
        <time>2018-03-18T10:26:38Z</time>
      </trkpt>
      <trkpt lat="45.94926" lon="4.84172">
        <ele>268</ele>
        <time>2018-03-18T10:26:39Z</time>
      </trkpt>
      <trkpt lat="45.94929" lon="4.84177">
        <ele>267</ele>
        <time>2018-03-18T10:26:40Z</time>
      </trkpt>
      <trkpt lat="45.94933" lon="4.8418">
        <ele>267</ele>
        <time>2018-03-18T10:26:41Z</time>
      </trkpt>
      <trkpt lat="45.94938" lon="4.84188">
        <ele>267</ele>
        <time>2018-03-18T10:26:43Z</time>
      </trkpt>
      <trkpt lat="45.94939" lon="4.84193">
        <ele>267</ele>
        <time>2018-03-18T10:26:44Z</time>
      </trkpt>
      <trkpt lat="45.94945" lon="4.84201">
        <ele>267</ele>
        <time>2018-03-18T10:26:46Z</time>
      </trkpt>
      <trkpt lat="45.94948" lon="4.84205">
        <ele>267</ele>
        <time>2018-03-18T10:26:47Z</time>
      </trkpt>
      <trkpt lat="45.94953" lon="4.84215">
        <ele>267</ele>
        <time>2018-03-18T10:26:49Z</time>
      </trkpt>
      <trkpt lat="45.94956" lon="4.8422">
        <ele>267</ele>
        <time>2018-03-18T10:26:50Z</time>
      </trkpt>
      <trkpt lat="45.94962" lon="4.84228">
        <ele>267</ele>
        <time>2018-03-18T10:26:52Z</time>
      </trkpt>
      <trkpt lat="45.94965" lon="4.84232">
        <ele>267</ele>
        <time>2018-03-18T10:26:53Z</time>
      </trkpt>
      <trkpt lat="45.94971" lon="4.84241">
        <ele>267</ele>
        <time>2018-03-18T10:26:55Z</time>
      </trkpt>
      <trkpt lat="45.94974" lon="4.84244">
        <ele>267</ele>
        <time>2018-03-18T10:26:56Z</time>
      </trkpt>
      <trkpt lat="45.94979" lon="4.84251">
        <ele>267</ele>
        <time>2018-03-18T10:26:58Z</time>
      </trkpt>
      <trkpt lat="45.94982" lon="4.84255">
        <ele>267</ele>
        <time>2018-03-18T10:26:59Z</time>
      </trkpt>
      <trkpt lat="45.94987" lon="4.84262">
        <ele>267</ele>
        <time>2018-03-18T10:27:01Z</time>
      </trkpt>
      <trkpt lat="45.9499" lon="4.84265">
        <ele>267</ele>
        <time>2018-03-18T10:27:02Z</time>
      </trkpt>
      <trkpt lat="45.94996" lon="4.84273">
        <ele>267</ele>
        <time>2018-03-18T10:27:04Z</time>
      </trkpt>
      <trkpt lat="45.94998" lon="4.84278">
        <ele>267</ele>
        <time>2018-03-18T10:27:05Z</time>
      </trkpt>
      <trkpt lat="45.95003" lon="4.84287">
        <ele>267</ele>
        <time>2018-03-18T10:27:07Z</time>
      </trkpt>
      <trkpt lat="45.95005" lon="4.84292">
        <ele>267</ele>
        <time>2018-03-18T10:27:08Z</time>
      </trkpt>
      <trkpt lat="45.9501" lon="4.843">
        <ele>267</ele>
        <time>2018-03-18T10:27:10Z</time>
      </trkpt>
      <trkpt lat="45.95011" lon="4.84302">
        <ele>267</ele>
        <time>2018-03-18T10:27:11Z</time>
      </trkpt>
      <trkpt lat="45.95015" lon="4.84311">
        <ele>267</ele>
        <time>2018-03-18T10:27:13Z</time>
      </trkpt>
      <trkpt lat="45.95017" lon="4.84316">
        <ele>267</ele>
        <time>2018-03-18T10:27:14Z</time>
      </trkpt>
      <trkpt lat="45.95021" lon="4.84326">
        <ele>267</ele>
        <time>2018-03-18T10:27:16Z</time>
      </trkpt>
      <trkpt lat="45.95024" lon="4.8433">
        <ele>267</ele>
        <time>2018-03-18T10:27:17Z</time>
      </trkpt>
      <trkpt lat="45.95026" lon="4.84336">
        <ele>267</ele>
        <time>2018-03-18T10:27:18Z</time>
      </trkpt>
      <trkpt lat="45.9503" lon="4.84341">
        <ele>267</ele>
        <time>2018-03-18T10:27:19Z</time>
      </trkpt>
      <trkpt lat="45.95032" lon="4.84347">
        <ele>267</ele>
        <time>2018-03-18T10:27:20Z</time>
      </trkpt>
      <trkpt lat="45.95036" lon="4.84352">
        <ele>267</ele>
        <time>2018-03-18T10:27:21Z</time>
      </trkpt>
      <trkpt lat="45.95039" lon="4.84358">
        <ele>267</ele>
        <time>2018-03-18T10:27:22Z</time>
      </trkpt>
      <trkpt lat="45.95042" lon="4.84363">
        <ele>267</ele>
        <time>2018-03-18T10:27:23Z</time>
      </trkpt>
      <trkpt lat="45.95048" lon="4.84373">
        <ele>267</ele>
        <time>2018-03-18T10:27:25Z</time>
      </trkpt>
      <trkpt lat="45.9505" lon="4.84376">
        <ele>267</ele>
        <time>2018-03-18T10:27:26Z</time>
      </trkpt>
      <trkpt lat="45.95057" lon="4.84382">
        <ele>267</ele>
        <time>2018-03-18T10:27:28Z</time>
      </trkpt>
      <trkpt lat="45.95061" lon="4.84386">
        <ele>267</ele>
        <time>2018-03-18T10:27:29Z</time>
      </trkpt>
      <trkpt lat="45.95066" lon="4.84392">
        <ele>267</ele>
        <time>2018-03-18T10:27:30Z</time>
      </trkpt>
      <trkpt lat="45.95069" lon="4.84396">
        <ele>267</ele>
        <time>2018-03-18T10:27:31Z</time>
      </trkpt>
      <trkpt lat="45.95072" lon="4.84399">
        <ele>267</ele>
        <time>2018-03-18T10:27:32Z</time>
      </trkpt>
      <trkpt lat="45.95076" lon="4.84404">
        <ele>267</ele>
        <time>2018-03-18T10:27:33Z</time>
      </trkpt>
      <trkpt lat="45.95082" lon="4.84412">
        <ele>267</ele>
        <time>2018-03-18T10:27:35Z</time>
      </trkpt>
      <trkpt lat="45.95085" lon="4.84415">
        <ele>267</ele>
        <time>2018-03-18T10:27:36Z</time>
      </trkpt>
      <trkpt lat="45.95091" lon="4.8442">
        <ele>267</ele>
        <time>2018-03-18T10:27:37Z</time>
      </trkpt>
      <trkpt lat="45.95095" lon="4.84424">
        <ele>267</ele>
        <time>2018-03-18T10:27:38Z</time>
      </trkpt>
      <trkpt lat="45.95098" lon="4.84428">
        <ele>267</ele>
        <time>2018-03-18T10:27:39Z</time>
      </trkpt>
      <trkpt lat="45.95105" lon="4.84434">
        <ele>267</ele>
        <time>2018-03-18T10:27:40Z</time>
      </trkpt>
      <trkpt lat="45.95108" lon="4.8444">
        <ele>267</ele>
        <time>2018-03-18T10:27:41Z</time>
      </trkpt>
      <trkpt lat="45.95112" lon="4.84447">
        <ele>267</ele>
        <time>2018-03-18T10:27:42Z</time>
      </trkpt>
      <trkpt lat="45.95117" lon="4.84452">
        <ele>267</ele>
        <time>2018-03-18T10:27:43Z</time>
      </trkpt>
      <trkpt lat="45.95121" lon="4.84457">
        <ele>267</ele>
        <time>2018-03-18T10:27:44Z</time>
      </trkpt>
      <trkpt lat="45.95126" lon="4.84461">
        <ele>266</ele>
        <time>2018-03-18T10:27:45Z</time>
      </trkpt>
      <trkpt lat="45.95131" lon="4.84467">
        <ele>266</ele>
        <time>2018-03-18T10:27:46Z</time>
      </trkpt>
      <trkpt lat="45.95138" lon="4.84472">
        <ele>266</ele>
        <time>2018-03-18T10:27:47Z</time>
      </trkpt>
      <trkpt lat="45.95142" lon="4.84476">
        <ele>266</ele>
        <time>2018-03-18T10:27:48Z</time>
      </trkpt>
      <trkpt lat="45.95148" lon="4.84483">
        <ele>266</ele>
        <time>2018-03-18T10:27:49Z</time>
      </trkpt>
      <trkpt lat="45.95152" lon="4.84489">
        <ele>266</ele>
        <time>2018-03-18T10:27:50Z</time>
      </trkpt>
      <trkpt lat="45.95156" lon="4.84495">
        <ele>266</ele>
        <time>2018-03-18T10:27:51Z</time>
      </trkpt>
      <trkpt lat="45.95162" lon="4.845">
        <ele>266</ele>
        <time>2018-03-18T10:27:52Z</time>
      </trkpt>
      <trkpt lat="45.95168" lon="4.84507">
        <ele>266</ele>
        <time>2018-03-18T10:27:53Z</time>
      </trkpt>
      <trkpt lat="45.95172" lon="4.84512">
        <ele>265</ele>
        <time>2018-03-18T10:27:54Z</time>
      </trkpt>
      <trkpt lat="45.95179" lon="4.84519">
        <ele>265</ele>
        <time>2018-03-18T10:27:55Z</time>
      </trkpt>
      <trkpt lat="45.95185" lon="4.84527">
        <ele>265</ele>
        <time>2018-03-18T10:27:56Z</time>
      </trkpt>
      <trkpt lat="45.9519" lon="4.84537">
        <ele>265</ele>
        <time>2018-03-18T10:27:58Z</time>
      </trkpt>
      <trkpt lat="45.95193" lon="4.84542">
        <ele>265</ele>
        <time>2018-03-18T10:27:59Z</time>
      </trkpt>
      <trkpt lat="45.95199" lon="4.84547">
        <ele>265</ele>
        <time>2018-03-18T10:28:00Z</time>
      </trkpt>
      <trkpt lat="45.95203" lon="4.84552">
        <ele>264</ele>
        <time>2018-03-18T10:28:01Z</time>
      </trkpt>
      <trkpt lat="45.95209" lon="4.84556">
        <ele>264</ele>
        <time>2018-03-18T10:28:02Z</time>
      </trkpt>
      <trkpt lat="45.95215" lon="4.84561">
        <ele>264</ele>
        <time>2018-03-18T10:28:03Z</time>
      </trkpt>
      <trkpt lat="45.95218" lon="4.84565">
        <ele>264</ele>
        <time>2018-03-18T10:28:04Z</time>
      </trkpt>
      <trkpt lat="45.95223" lon="4.84571">
        <ele>264</ele>
        <time>2018-03-18T10:28:05Z</time>
      </trkpt>
      <trkpt lat="45.95226" lon="4.84578">
        <ele>264</ele>
        <time>2018-03-18T10:28:06Z</time>
      </trkpt>
      <trkpt lat="45.9523" lon="4.84583">
        <ele>264</ele>
        <time>2018-03-18T10:28:07Z</time>
      </trkpt>
      <trkpt lat="45.95234" lon="4.84587">
        <ele>264</ele>
        <time>2018-03-18T10:28:08Z</time>
      </trkpt>
      <trkpt lat="45.95237" lon="4.84591">
        <ele>264</ele>
        <time>2018-03-18T10:28:09Z</time>
      </trkpt>
      <trkpt lat="45.95241" lon="4.84595">
        <ele>264</ele>
        <time>2018-03-18T10:28:10Z</time>
      </trkpt>
      <trkpt lat="45.95244" lon="4.84601">
        <ele>264</ele>
        <time>2018-03-18T10:28:11Z</time>
      </trkpt>
      <trkpt lat="45.9525" lon="4.84606">
        <ele>264</ele>
        <time>2018-03-18T10:28:12Z</time>
      </trkpt>
      <trkpt lat="45.95253" lon="4.8461">
        <ele>264</ele>
        <time>2018-03-18T10:28:13Z</time>
      </trkpt>
      <trkpt lat="45.95258" lon="4.84618">
        <ele>264</ele>
        <time>2018-03-18T10:28:15Z</time>
      </trkpt>
      <trkpt lat="45.95262" lon="4.84622">
        <ele>264</ele>
        <time>2018-03-18T10:28:16Z</time>
      </trkpt>
      <trkpt lat="45.95268" lon="4.84629">
        <ele>264</ele>
        <time>2018-03-18T10:28:18Z</time>
      </trkpt>
      <trkpt lat="45.95272" lon="4.84632">
        <ele>264</ele>
        <time>2018-03-18T10:28:19Z</time>
      </trkpt>
      <trkpt lat="45.95275" lon="4.84638">
        <ele>264</ele>
        <time>2018-03-18T10:28:20Z</time>
      </trkpt>
      <trkpt lat="45.9528" lon="4.84644">
        <ele>264</ele>
        <time>2018-03-18T10:28:21Z</time>
      </trkpt>
      <trkpt lat="45.95283" lon="4.84647">
        <ele>264</ele>
        <time>2018-03-18T10:28:22Z</time>
      </trkpt>
      <trkpt lat="45.95288" lon="4.84651">
        <ele>264</ele>
        <time>2018-03-18T10:28:23Z</time>
      </trkpt>
      <trkpt lat="45.95295" lon="4.84657">
        <ele>264</ele>
        <time>2018-03-18T10:28:25Z</time>
      </trkpt>
      <trkpt lat="45.95299" lon="4.8466">
        <ele>265</ele>
        <time>2018-03-18T10:28:26Z</time>
      </trkpt>
      <trkpt lat="45.95303" lon="4.84663">
        <ele>265</ele>
        <time>2018-03-18T10:28:27Z</time>
      </trkpt>
      <trkpt lat="45.95307" lon="4.84666">
        <ele>265</ele>
        <time>2018-03-18T10:28:28Z</time>
      </trkpt>
      <trkpt lat="45.95312" lon="4.8467">
        <ele>265</ele>
        <time>2018-03-18T10:28:29Z</time>
      </trkpt>
      <trkpt lat="45.95316" lon="4.84673">
        <ele>265</ele>
        <time>2018-03-18T10:28:30Z</time>
      </trkpt>
      <trkpt lat="45.95322" lon="4.84678">
        <ele>265</ele>
        <time>2018-03-18T10:28:31Z</time>
      </trkpt>
      <trkpt lat="45.95326" lon="4.84681">
        <ele>265</ele>
        <time>2018-03-18T10:28:32Z</time>
      </trkpt>
      <trkpt lat="45.95333" lon="4.84686">
        <ele>265</ele>
        <time>2018-03-18T10:28:34Z</time>
      </trkpt>
      <trkpt lat="45.95337" lon="4.84687">
        <ele>266</ele>
        <time>2018-03-18T10:28:35Z</time>
      </trkpt>
      <trkpt lat="45.95344" lon="4.8469">
        <ele>266</ele>
        <time>2018-03-18T10:28:37Z</time>
      </trkpt>
      <trkpt lat="45.95346" lon="4.84695">
        <ele>266</ele>
        <time>2018-03-18T10:28:38Z</time>
      </trkpt>
      <trkpt lat="45.95352" lon="4.84697">
        <ele>266</ele>
        <time>2018-03-18T10:28:39Z</time>
      </trkpt>
      <trkpt lat="45.95356" lon="4.84701">
        <ele>266</ele>
        <time>2018-03-18T10:28:40Z</time>
      </trkpt>
      <trkpt lat="45.95363" lon="4.84707">
        <ele>266</ele>
        <time>2018-03-18T10:28:42Z</time>
      </trkpt>
      <trkpt lat="45.95367" lon="4.8471">
        <ele>266</ele>
        <time>2018-03-18T10:28:43Z</time>
      </trkpt>
      <trkpt lat="45.95374" lon="4.84716">
        <ele>266</ele>
        <time>2018-03-18T10:28:45Z</time>
      </trkpt>
      <trkpt lat="45.95377" lon="4.84718">
        <ele>266</ele>
        <time>2018-03-18T10:28:46Z</time>
      </trkpt>
      <trkpt lat="45.95383" lon="4.84724">
        <ele>266</ele>
        <time>2018-03-18T10:28:48Z</time>
      </trkpt>
      <trkpt lat="45.95387" lon="4.84727">
        <ele>266</ele>
        <time>2018-03-18T10:28:49Z</time>
      </trkpt>
      <trkpt lat="45.95393" lon="4.84732">
        <ele>266</ele>
        <time>2018-03-18T10:28:51Z</time>
      </trkpt>
      <trkpt lat="45.95396" lon="4.84735">
        <ele>266</ele>
        <time>2018-03-18T10:28:52Z</time>
      </trkpt>
      <trkpt lat="45.95403" lon="4.84743">
        <ele>267</ele>
        <time>2018-03-18T10:28:55Z</time>
      </trkpt>
      <trkpt lat="45.95404" lon="4.84745">
        <ele>267</ele>
        <time>2018-03-18T10:28:56Z</time>
      </trkpt>
      <trkpt lat="45.95411" lon="4.84751">
        <ele>267</ele>
        <time>2018-03-18T10:28:59Z</time>
      </trkpt>
      <trkpt lat="45.95413" lon="4.84753">
        <ele>267</ele>
        <time>2018-03-18T10:29:00Z</time>
      </trkpt>
      <trkpt lat="45.95421" lon="4.84761">
        <ele>267</ele>
        <time>2018-03-18T10:29:01Z</time>
      </trkpt>
      <trkpt lat="45.95427" lon="4.84769">
        <ele>267</ele>
        <time>2018-03-18T10:29:04Z</time>
      </trkpt>
      <trkpt lat="45.95429" lon="4.84771">
        <ele>267</ele>
        <time>2018-03-18T10:29:05Z</time>
      </trkpt>
      <trkpt lat="45.95436" lon="4.84778">
        <ele>267</ele>
        <time>2018-03-18T10:29:06Z</time>
      </trkpt>
      <trkpt lat="45.95438" lon="4.84779">
        <ele>267</ele>
        <time>2018-03-18T10:29:07Z</time>
      </trkpt>
      <trkpt lat="45.9544" lon="4.84781">
        <ele>267</ele>
        <time>2018-03-18T10:29:08Z</time>
      </trkpt>
      <trkpt lat="45.95446" lon="4.84787">
        <ele>267</ele>
        <time>2018-03-18T10:29:09Z</time>
      </trkpt>
      <trkpt lat="45.95451" lon="4.84794">
        <ele>267</ele>
        <time>2018-03-18T10:29:11Z</time>
      </trkpt>
      <trkpt lat="45.95454" lon="4.84797">
        <ele>267</ele>
        <time>2018-03-18T10:29:12Z</time>
      </trkpt>
      <trkpt lat="45.95459" lon="4.84804">
        <ele>267</ele>
        <time>2018-03-18T10:29:14Z</time>
      </trkpt>
      <trkpt lat="45.95462" lon="4.84807">
        <ele>267</ele>
        <time>2018-03-18T10:29:15Z</time>
      </trkpt>
      <trkpt lat="45.95467" lon="4.84814">
        <ele>267</ele>
        <time>2018-03-18T10:29:17Z</time>
      </trkpt>
      <trkpt lat="45.95469" lon="4.84818">
        <ele>267</ele>
        <time>2018-03-18T10:29:18Z</time>
      </trkpt>
      <trkpt lat="45.95473" lon="4.84822">
        <ele>267</ele>
        <time>2018-03-18T10:29:19Z</time>
      </trkpt>
      <trkpt lat="45.95476" lon="4.84826">
        <ele>267</ele>
        <time>2018-03-18T10:29:20Z</time>
      </trkpt>
      <trkpt lat="45.95483" lon="4.84833">
        <ele>267</ele>
        <time>2018-03-18T10:29:22Z</time>
      </trkpt>
      <trkpt lat="45.95486" lon="4.84837">
        <ele>268</ele>
        <time>2018-03-18T10:29:23Z</time>
      </trkpt>
      <trkpt lat="45.95492" lon="4.84844">
        <ele>268</ele>
        <time>2018-03-18T10:29:25Z</time>
      </trkpt>
      <trkpt lat="45.95495" lon="4.84847">
        <ele>268</ele>
        <time>2018-03-18T10:29:26Z</time>
      </trkpt>
      <trkpt lat="45.95501" lon="4.84855">
        <ele>268</ele>
        <time>2018-03-18T10:29:28Z</time>
      </trkpt>
      <trkpt lat="45.95506" lon="4.84859">
        <ele>268</ele>
        <time>2018-03-18T10:29:29Z</time>
      </trkpt>
      <trkpt lat="45.95513" lon="4.84866">
        <ele>268</ele>
        <time>2018-03-18T10:29:31Z</time>
      </trkpt>
      <trkpt lat="45.95516" lon="4.84869">
        <ele>268</ele>
        <time>2018-03-18T10:29:32Z</time>
      </trkpt>
      <trkpt lat="45.95522" lon="4.84875">
        <ele>268</ele>
        <time>2018-03-18T10:29:34Z</time>
      </trkpt>
      <trkpt lat="45.95525" lon="4.84879">
        <ele>268</ele>
        <time>2018-03-18T10:29:35Z</time>
      </trkpt>
      <trkpt lat="45.9553" lon="4.84886">
        <ele>268</ele>
        <time>2018-03-18T10:29:37Z</time>
      </trkpt>
      <trkpt lat="45.95533" lon="4.84889">
        <ele>268</ele>
        <time>2018-03-18T10:29:38Z</time>
      </trkpt>
      <trkpt lat="45.9554" lon="4.84896">
        <ele>268</ele>
        <time>2018-03-18T10:29:40Z</time>
      </trkpt>
      <trkpt lat="45.95543" lon="4.84898">
        <ele>268</ele>
        <time>2018-03-18T10:29:41Z</time>
      </trkpt>
      <trkpt lat="45.9555" lon="4.84903">
        <ele>268</ele>
        <time>2018-03-18T10:29:43Z</time>
      </trkpt>
      <trkpt lat="45.95553" lon="4.84906">
        <ele>268</ele>
        <time>2018-03-18T10:29:44Z</time>
      </trkpt>
      <trkpt lat="45.9556" lon="4.84911">
        <ele>268</ele>
        <time>2018-03-18T10:29:46Z</time>
      </trkpt>
      <trkpt lat="45.95563" lon="4.84913">
        <ele>268</ele>
        <time>2018-03-18T10:29:47Z</time>
      </trkpt>
      <trkpt lat="45.95568" lon="4.84916">
        <ele>269</ele>
        <time>2018-03-18T10:29:49Z</time>
      </trkpt>
      <trkpt lat="45.95573" lon="4.84919">
        <ele>269</ele>
        <time>2018-03-18T10:29:50Z</time>
      </trkpt>
      <trkpt lat="45.95581" lon="4.84924">
        <ele>269</ele>
        <time>2018-03-18T10:29:53Z</time>
      </trkpt>
      <trkpt lat="45.95585" lon="4.84927">
        <ele>270</ele>
        <time>2018-03-18T10:29:54Z</time>
      </trkpt>
      <trkpt lat="45.95591" lon="4.84932">
        <ele>270</ele>
        <time>2018-03-18T10:29:57Z</time>
      </trkpt>
      <trkpt lat="45.95597" lon="4.84937">
        <ele>270</ele>
        <time>2018-03-18T10:29:58Z</time>
      </trkpt>
      <trkpt lat="45.95604" lon="4.84942">
        <ele>270</ele>
        <time>2018-03-18T10:30:00Z</time>
      </trkpt>
      <trkpt lat="45.95607" lon="4.84945">
        <ele>270</ele>
        <time>2018-03-18T10:30:01Z</time>
      </trkpt>
      <trkpt lat="45.95613" lon="4.84951">
        <ele>271</ele>
        <time>2018-03-18T10:30:03Z</time>
      </trkpt>
      <trkpt lat="45.95617" lon="4.84955">
        <ele>271</ele>
        <time>2018-03-18T10:30:04Z</time>
      </trkpt>
      <trkpt lat="45.95622" lon="4.84959">
        <ele>271</ele>
        <time>2018-03-18T10:30:06Z</time>
      </trkpt>
      <trkpt lat="45.95627" lon="4.84963">
        <ele>271</ele>
        <time>2018-03-18T10:30:07Z</time>
      </trkpt>
      <trkpt lat="45.95633" lon="4.8497">
        <ele>271</ele>
        <time>2018-03-18T10:30:09Z</time>
      </trkpt>
      <trkpt lat="45.95636" lon="4.84972">
        <ele>271</ele>
        <time>2018-03-18T10:30:10Z</time>
      </trkpt>
      <trkpt lat="45.95642" lon="4.84978">
        <ele>271</ele>
        <time>2018-03-18T10:30:12Z</time>
      </trkpt>
      <trkpt lat="45.95646" lon="4.84981">
        <ele>271</ele>
        <time>2018-03-18T10:30:13Z</time>
      </trkpt>
      <trkpt lat="45.95652" lon="4.84987">
        <ele>272</ele>
        <time>2018-03-18T10:30:15Z</time>
      </trkpt>
      <trkpt lat="45.95656" lon="4.84991">
        <ele>272</ele>
        <time>2018-03-18T10:30:16Z</time>
      </trkpt>
      <trkpt lat="45.95662" lon="4.84998">
        <ele>273</ele>
        <time>2018-03-18T10:30:18Z</time>
      </trkpt>
      <trkpt lat="45.95665" lon="4.85001">
        <ele>273</ele>
        <time>2018-03-18T10:30:19Z</time>
      </trkpt>
      <trkpt lat="45.9567" lon="4.8501">
        <ele>274</ele>
        <time>2018-03-18T10:30:22Z</time>
      </trkpt>
      <trkpt lat="45.95674" lon="4.85018">
        <ele>275</ele>
        <time>2018-03-18T10:30:23Z</time>
      </trkpt>
      <trkpt lat="45.95679" lon="4.85026">
        <ele>275</ele>
        <time>2018-03-18T10:30:26Z</time>
      </trkpt>
      <trkpt lat="45.95681" lon="4.85029">
        <ele>275</ele>
        <time>2018-03-18T10:30:27Z</time>
      </trkpt>
      <trkpt lat="45.95686" lon="4.85039">
        <ele>276</ele>
        <time>2018-03-18T10:30:30Z</time>
      </trkpt>
      <trkpt lat="45.95688" lon="4.85042">
        <ele>276</ele>
        <time>2018-03-18T10:30:31Z</time>
      </trkpt>
      <trkpt lat="45.95692" lon="4.85049">
        <ele>276</ele>
        <time>2018-03-18T10:30:33Z</time>
      </trkpt>
      <trkpt lat="45.95694" lon="4.85052">
        <ele>276</ele>
        <time>2018-03-18T10:30:34Z</time>
      </trkpt>
      <trkpt lat="45.957" lon="4.85063">
        <ele>276</ele>
        <time>2018-03-18T10:30:35Z</time>
      </trkpt>
      <trkpt lat="45.95705" lon="4.85072">
        <ele>277</ele>
        <time>2018-03-18T10:30:37Z</time>
      </trkpt>
      <trkpt lat="45.95708" lon="4.85076">
        <ele>277</ele>
        <time>2018-03-18T10:30:38Z</time>
      </trkpt>
      <trkpt lat="45.95714" lon="4.85086">
        <ele>279</ele>
        <time>2018-03-18T10:30:40Z</time>
      </trkpt>
      <trkpt lat="45.95717" lon="4.85092">
        <ele>279</ele>
        <time>2018-03-18T10:30:41Z</time>
      </trkpt>
      <trkpt lat="45.9572" lon="4.85097">
        <ele>279</ele>
        <time>2018-03-18T10:30:42Z</time>
      </trkpt>
      <trkpt lat="45.95723" lon="4.85103">
        <ele>279</ele>
        <time>2018-03-18T10:30:43Z</time>
      </trkpt>
      <trkpt lat="45.95729" lon="4.85111">
        <ele>279</ele>
        <time>2018-03-18T10:30:46Z</time>
      </trkpt>
      <trkpt lat="45.95731" lon="4.85114">
        <ele>279</ele>
        <time>2018-03-18T10:30:47Z</time>
      </trkpt>
      <trkpt lat="45.95737" lon="4.85121">
        <ele>279</ele>
        <time>2018-03-18T10:30:50Z</time>
      </trkpt>
      <trkpt lat="45.95739" lon="4.85123">
        <ele>279</ele>
        <time>2018-03-18T10:30:51Z</time>
      </trkpt>
      <trkpt lat="45.95744" lon="4.85131">
        <ele>279</ele>
        <time>2018-03-18T10:30:54Z</time>
      </trkpt>
      <trkpt lat="45.95751" lon="4.85142">
        <ele>277</ele>
        <time>2018-03-18T10:30:55Z</time>
      </trkpt>
      <trkpt lat="45.95756" lon="4.85148">
        <ele>277</ele>
        <time>2018-03-18T10:30:58Z</time>
      </trkpt>
      <trkpt lat="45.95761" lon="4.85157">
        <ele>277</ele>
        <time>2018-03-18T10:30:59Z</time>
      </trkpt>
      <trkpt lat="45.95767" lon="4.85166">
        <ele>277</ele>
        <time>2018-03-18T10:31:02Z</time>
      </trkpt>
      <trkpt lat="45.95774" lon="4.85173">
        <ele>277</ele>
        <time>2018-03-18T10:31:03Z</time>
      </trkpt>
      <trkpt lat="45.95776" lon="4.85175">
        <ele>277</ele>
        <time>2018-03-18T10:31:04Z</time>
      </trkpt>
      <trkpt lat="45.95781" lon="4.8518">
        <ele>276</ele>
        <time>2018-03-18T10:31:05Z</time>
      </trkpt>
      <trkpt lat="45.95785" lon="4.85185">
        <ele>276</ele>
        <time>2018-03-18T10:31:06Z</time>
      </trkpt>
      <trkpt lat="45.95789" lon="4.8519">
        <ele>276</ele>
        <time>2018-03-18T10:31:07Z</time>
      </trkpt>
      <trkpt lat="45.95794" lon="4.85195">
        <ele>276</ele>
        <time>2018-03-18T10:31:08Z</time>
      </trkpt>
      <trkpt lat="45.95805" lon="4.85204">
        <ele>275</ele>
        <time>2018-03-18T10:31:09Z</time>
      </trkpt>
      <trkpt lat="45.9581" lon="4.8521">
        <ele>275</ele>
        <time>2018-03-18T10:31:10Z</time>
      </trkpt>
      <trkpt lat="45.95819" lon="4.85215">
        <ele>275</ele>
        <time>2018-03-18T10:31:11Z</time>
      </trkpt>
      <trkpt lat="45.95822" lon="4.85222">
        <ele>275</ele>
        <time>2018-03-18T10:31:12Z</time>
      </trkpt>
      <trkpt lat="45.95825" lon="4.85228">
        <ele>274</ele>
        <time>2018-03-18T10:31:13Z</time>
      </trkpt>
      <trkpt lat="45.95829" lon="4.85233">
        <ele>274</ele>
        <time>2018-03-18T10:31:14Z</time>
      </trkpt>
      <trkpt lat="45.95833" lon="4.85239">
        <ele>273</ele>
        <time>2018-03-18T10:31:15Z</time>
      </trkpt>
      <trkpt lat="45.95835" lon="4.85246">
        <ele>272</ele>
        <time>2018-03-18T10:31:16Z</time>
      </trkpt>
      <trkpt lat="45.95838" lon="4.85253">
        <ele>271</ele>
        <time>2018-03-18T10:31:17Z</time>
      </trkpt>
      <trkpt lat="45.95841" lon="4.8526">
        <ele>271</ele>
        <time>2018-03-18T10:31:18Z</time>
      </trkpt>
      <trkpt lat="45.95844" lon="4.85267">
        <ele>271</ele>
        <time>2018-03-18T10:31:19Z</time>
      </trkpt>
      <trkpt lat="45.95847" lon="4.85272">
        <ele>270</ele>
        <time>2018-03-18T10:31:20Z</time>
      </trkpt>
      <trkpt lat="45.9585" lon="4.85279">
        <ele>270</ele>
        <time>2018-03-18T10:31:21Z</time>
      </trkpt>
      <trkpt lat="45.95855" lon="4.85285">
        <ele>270</ele>
        <time>2018-03-18T10:31:22Z</time>
      </trkpt>
      <trkpt lat="45.95858" lon="4.85291">
        <ele>270</ele>
        <time>2018-03-18T10:31:23Z</time>
      </trkpt>
      <trkpt lat="45.95863" lon="4.85296">
        <ele>270</ele>
        <time>2018-03-18T10:31:24Z</time>
      </trkpt>
      <trkpt lat="45.95866" lon="4.85302">
        <ele>269</ele>
        <time>2018-03-18T10:31:25Z</time>
      </trkpt>
      <trkpt lat="45.9587" lon="4.85308">
        <ele>269</ele>
        <time>2018-03-18T10:31:26Z</time>
      </trkpt>
      <trkpt lat="45.95876" lon="4.85313">
        <ele>269</ele>
        <time>2018-03-18T10:31:27Z</time>
      </trkpt>
      <trkpt lat="45.95879" lon="4.85317">
        <ele>269</ele>
        <time>2018-03-18T10:31:28Z</time>
      </trkpt>
      <trkpt lat="45.95882" lon="4.85322">
        <ele>269</ele>
        <time>2018-03-18T10:31:29Z</time>
      </trkpt>
      <trkpt lat="45.95889" lon="4.8533">
        <ele>269</ele>
        <time>2018-03-18T10:31:31Z</time>
      </trkpt>
      <trkpt lat="45.95891" lon="4.85333">
        <ele>269</ele>
        <time>2018-03-18T10:31:32Z</time>
      </trkpt>
      <trkpt lat="45.95895" lon="4.85337">
        <ele>267</ele>
        <time>2018-03-18T10:31:33Z</time>
      </trkpt>
      <trkpt lat="45.959" lon="4.8534">
        <ele>267</ele>
        <time>2018-03-18T10:31:34Z</time>
      </trkpt>
      <trkpt lat="45.95907" lon="4.85344">
        <ele>267</ele>
        <time>2018-03-18T10:31:35Z</time>
      </trkpt>
      <trkpt lat="45.95913" lon="4.85347">
        <ele>267</ele>
        <time>2018-03-18T10:31:36Z</time>
      </trkpt>
      <trkpt lat="45.95919" lon="4.85349">
        <ele>266</ele>
        <time>2018-03-18T10:31:37Z</time>
      </trkpt>
      <trkpt lat="45.95925" lon="4.85353">
        <ele>266</ele>
        <time>2018-03-18T10:31:38Z</time>
      </trkpt>
      <trkpt lat="45.9593" lon="4.85354">
        <ele>266</ele>
        <time>2018-03-18T10:31:39Z</time>
      </trkpt>
      <trkpt lat="45.95936" lon="4.85354">
        <ele>266</ele>
        <time>2018-03-18T10:31:40Z</time>
      </trkpt>
      <trkpt lat="45.95942" lon="4.85354">
        <ele>266</ele>
        <time>2018-03-18T10:31:41Z</time>
      </trkpt>
      <trkpt lat="45.95947" lon="4.85354">
        <ele>266</ele>
        <time>2018-03-18T10:31:42Z</time>
      </trkpt>
      <trkpt lat="45.95953" lon="4.85354">
        <ele>265</ele>
        <time>2018-03-18T10:31:43Z</time>
      </trkpt>
      <trkpt lat="45.9596" lon="4.85354">
        <ele>265</ele>
        <time>2018-03-18T10:31:44Z</time>
      </trkpt>
      <trkpt lat="45.95966" lon="4.85354">
        <ele>265</ele>
        <time>2018-03-18T10:31:45Z</time>
      </trkpt>
      <trkpt lat="45.95973" lon="4.85355">
        <ele>265</ele>
        <time>2018-03-18T10:31:46Z</time>
      </trkpt>
      <trkpt lat="45.95979" lon="4.85355">
        <ele>265</ele>
        <time>2018-03-18T10:31:47Z</time>
      </trkpt>
      <trkpt lat="45.95985" lon="4.85357">
        <ele>265</ele>
        <time>2018-03-18T10:31:48Z</time>
      </trkpt>
      <trkpt lat="45.95992" lon="4.85358">
        <ele>265</ele>
        <time>2018-03-18T10:31:49Z</time>
      </trkpt>
      <trkpt lat="45.95998" lon="4.85357">
        <ele>265</ele>
        <time>2018-03-18T10:31:50Z</time>
      </trkpt>
      <trkpt lat="45.96006" lon="4.85358">
        <ele>263</ele>
        <time>2018-03-18T10:31:51Z</time>
      </trkpt>
      <trkpt lat="45.96012" lon="4.85358">
        <ele>263</ele>
        <time>2018-03-18T10:31:52Z</time>
      </trkpt>
      <trkpt lat="45.96017" lon="4.85361">
        <ele>263</ele>
        <time>2018-03-18T10:31:53Z</time>
      </trkpt>
      <trkpt lat="45.96027" lon="4.85357">
        <ele>263</ele>
        <time>2018-03-18T10:31:54Z</time>
      </trkpt>
      <trkpt lat="45.96034" lon="4.85359">
        <ele>263</ele>
        <time>2018-03-18T10:31:55Z</time>
      </trkpt>
      <trkpt lat="45.96041" lon="4.85359">
        <ele>262</ele>
        <time>2018-03-18T10:31:56Z</time>
      </trkpt>
      <trkpt lat="45.96047" lon="4.85357">
        <ele>262</ele>
        <time>2018-03-18T10:31:57Z</time>
      </trkpt>
      <trkpt lat="45.96054" lon="4.85357">
        <ele>262</ele>
        <time>2018-03-18T10:31:58Z</time>
      </trkpt>
      <trkpt lat="45.96062" lon="4.85355">
        <ele>262</ele>
        <time>2018-03-18T10:31:59Z</time>
      </trkpt>
      <trkpt lat="45.96069" lon="4.85356">
        <ele>262</ele>
        <time>2018-03-18T10:32:00Z</time>
      </trkpt>
      <trkpt lat="45.96077" lon="4.8536">
        <ele>262</ele>
        <time>2018-03-18T10:32:01Z</time>
      </trkpt>
      <trkpt lat="45.96084" lon="4.85361">
        <ele>259</ele>
        <time>2018-03-18T10:32:02Z</time>
      </trkpt>
      <trkpt lat="45.9609" lon="4.85365">
        <ele>259</ele>
        <time>2018-03-18T10:32:03Z</time>
      </trkpt>
      <trkpt lat="45.96097" lon="4.85368">
        <ele>259</ele>
        <time>2018-03-18T10:32:04Z</time>
      </trkpt>
      <trkpt lat="45.96103" lon="4.85371">
        <ele>259</ele>
        <time>2018-03-18T10:32:05Z</time>
      </trkpt>
      <trkpt lat="45.96111" lon="4.85375">
        <ele>259</ele>
        <time>2018-03-18T10:32:06Z</time>
      </trkpt>
      <trkpt lat="45.96118" lon="4.85378">
        <ele>258</ele>
        <time>2018-03-18T10:32:07Z</time>
      </trkpt>
      <trkpt lat="45.96125" lon="4.85379">
        <ele>258</ele>
        <time>2018-03-18T10:32:08Z</time>
      </trkpt>
      <trkpt lat="45.96132" lon="4.85383">
        <ele>258</ele>
        <time>2018-03-18T10:32:09Z</time>
      </trkpt>
      <trkpt lat="45.96138" lon="4.85386">
        <ele>258</ele>
        <time>2018-03-18T10:32:10Z</time>
      </trkpt>
      <trkpt lat="45.96146" lon="4.85389">
        <ele>258</ele>
        <time>2018-03-18T10:32:11Z</time>
      </trkpt>
      <trkpt lat="45.96151" lon="4.85392">
        <ele>258</ele>
        <time>2018-03-18T10:32:12Z</time>
      </trkpt>
      <trkpt lat="45.96156" lon="4.85395">
        <ele>258</ele>
        <time>2018-03-18T10:32:13Z</time>
      </trkpt>
      <trkpt lat="45.96161" lon="4.85398">
        <ele>258</ele>
        <time>2018-03-18T10:32:14Z</time>
      </trkpt>
      <trkpt lat="45.96167" lon="4.854">
        <ele>258</ele>
        <time>2018-03-18T10:32:15Z</time>
      </trkpt>
      <trkpt lat="45.96171" lon="4.85404">
        <ele>258</ele>
        <time>2018-03-18T10:32:16Z</time>
      </trkpt>
      <trkpt lat="45.96175" lon="4.85407">
        <ele>258</ele>
        <time>2018-03-18T10:32:17Z</time>
      </trkpt>
      <trkpt lat="45.96182" lon="4.85414">
        <ele>258</ele>
        <time>2018-03-18T10:32:18Z</time>
      </trkpt>
      <trkpt lat="45.96189" lon="4.8542">
        <ele>260</ele>
        <time>2018-03-18T10:32:20Z</time>
      </trkpt>
      <trkpt lat="45.96192" lon="4.85427">
        <ele>260</ele>
        <time>2018-03-18T10:32:21Z</time>
      </trkpt>
      <trkpt lat="45.96198" lon="4.85431">
        <ele>260</ele>
        <time>2018-03-18T10:32:23Z</time>
      </trkpt>
      <trkpt lat="45.96203" lon="4.85434">
        <ele>260</ele>
        <time>2018-03-18T10:32:24Z</time>
      </trkpt>
      <trkpt lat="45.96208" lon="4.85439">
        <ele>261</ele>
        <time>2018-03-18T10:32:26Z</time>
      </trkpt>
      <trkpt lat="45.96214" lon="4.85441">
        <ele>261</ele>
        <time>2018-03-18T10:32:27Z</time>
      </trkpt>
      <trkpt lat="45.96222" lon="4.85443">
        <ele>261</ele>
        <time>2018-03-18T10:32:29Z</time>
      </trkpt>
      <trkpt lat="45.96225" lon="4.85445">
        <ele>261</ele>
        <time>2018-03-18T10:32:30Z</time>
      </trkpt>
      <trkpt lat="45.96233" lon="4.85449">
        <ele>261</ele>
        <time>2018-03-18T10:32:34Z</time>
      </trkpt>
      <trkpt lat="45.96236" lon="4.8545">
        <ele>261</ele>
        <time>2018-03-18T10:32:35Z</time>
      </trkpt>
      <trkpt lat="45.96244" lon="4.85454">
        <ele>261</ele>
        <time>2018-03-18T10:32:38Z</time>
      </trkpt>
      <trkpt lat="45.96247" lon="4.85455">
        <ele>262</ele>
        <time>2018-03-18T10:32:39Z</time>
      </trkpt>
      <trkpt lat="45.9625" lon="4.85457">
        <ele>264</ele>
        <time>2018-03-18T10:32:40Z</time>
      </trkpt>
      <trkpt lat="45.9626" lon="4.85462">
        <ele>264</ele>
        <time>2018-03-18T10:32:41Z</time>
      </trkpt>
      <trkpt lat="45.96267" lon="4.85463">
        <ele>264</ele>
        <time>2018-03-18T10:32:45Z</time>
      </trkpt>
      <trkpt lat="45.9627" lon="4.85464">
        <ele>264</ele>
        <time>2018-03-18T10:32:46Z</time>
      </trkpt>
      <trkpt lat="45.96278" lon="4.85466">
        <ele>265</ele>
        <time>2018-03-18T10:32:49Z</time>
      </trkpt>
      <trkpt lat="45.96281" lon="4.85467">
        <ele>265</ele>
        <time>2018-03-18T10:32:50Z</time>
      </trkpt>
      <trkpt lat="45.96285" lon="4.85467">
        <ele>265</ele>
        <time>2018-03-18T10:32:51Z</time>
      </trkpt>
      <trkpt lat="45.96295" lon="4.85468">
        <ele>265</ele>
        <time>2018-03-18T10:32:52Z</time>
      </trkpt>
      <trkpt lat="45.96304" lon="4.85469">
        <ele>265</ele>
        <time>2018-03-18T10:32:56Z</time>
      </trkpt>
      <trkpt lat="45.96306" lon="4.85469">
        <ele>265</ele>
        <time>2018-03-18T10:32:57Z</time>
      </trkpt>
      <trkpt lat="45.96313" lon="4.8547">
        <ele>265</ele>
        <time>2018-03-18T10:33:00Z</time>
      </trkpt>
      <trkpt lat="45.96316" lon="4.85471">
        <ele>265</ele>
        <time>2018-03-18T10:33:01Z</time>
      </trkpt>
      <trkpt lat="45.96325" lon="4.85472">
        <ele>266</ele>
        <time>2018-03-18T10:33:04Z</time>
      </trkpt>
      <trkpt lat="45.96327" lon="4.85473">
        <ele>266</ele>
        <time>2018-03-18T10:33:05Z</time>
      </trkpt>
      <trkpt lat="45.96335" lon="4.85472">
        <ele>268</ele>
        <time>2018-03-18T10:33:08Z</time>
      </trkpt>
      <trkpt lat="45.96337" lon="4.85472">
        <ele>268</ele>
        <time>2018-03-18T10:33:09Z</time>
      </trkpt>
      <trkpt lat="45.96345" lon="4.85473">
        <ele>268</ele>
        <time>2018-03-18T10:33:12Z</time>
      </trkpt>
      <trkpt lat="45.96348" lon="4.85473">
        <ele>268</ele>
        <time>2018-03-18T10:33:13Z</time>
      </trkpt>
      <trkpt lat="45.96355" lon="4.85473">
        <ele>268</ele>
        <time>2018-03-18T10:33:16Z</time>
      </trkpt>
      <trkpt lat="45.96358" lon="4.85472">
        <ele>268</ele>
        <time>2018-03-18T10:33:17Z</time>
      </trkpt>
      <trkpt lat="45.96365" lon="4.8547">
        <ele>268</ele>
        <time>2018-03-18T10:33:20Z</time>
      </trkpt>
      <trkpt lat="45.96368" lon="4.8547">
        <ele>268</ele>
        <time>2018-03-18T10:33:21Z</time>
      </trkpt>
      <trkpt lat="45.96375" lon="4.8547">
        <ele>268</ele>
        <time>2018-03-18T10:33:25Z</time>
      </trkpt>
      <trkpt lat="45.96378" lon="4.85471">
        <ele>268</ele>
        <time>2018-03-18T10:33:26Z</time>
      </trkpt>
      <trkpt lat="45.96385" lon="4.8547">
        <ele>268</ele>
        <time>2018-03-18T10:33:29Z</time>
      </trkpt>
      <trkpt lat="45.96387" lon="4.8547">
        <ele>269</ele>
        <time>2018-03-18T10:33:30Z</time>
      </trkpt>
      <trkpt lat="45.96394" lon="4.85471">
        <ele>269</ele>
        <time>2018-03-18T10:33:35Z</time>
      </trkpt>
      <trkpt lat="45.96397" lon="4.85472">
        <ele>269</ele>
        <time>2018-03-18T10:33:36Z</time>
      </trkpt>
      <trkpt lat="45.96405" lon="4.85474">
        <ele>269</ele>
        <time>2018-03-18T10:33:40Z</time>
      </trkpt>
      <trkpt lat="45.96407" lon="4.85475">
        <ele>269</ele>
        <time>2018-03-18T10:33:41Z</time>
      </trkpt>
      <trkpt lat="45.96411" lon="4.85476">
        <ele>269</ele>
        <time>2018-03-18T10:33:43Z</time>
      </trkpt>
      <trkpt lat="45.96419" lon="4.85479">
        <ele>271</ele>
        <time>2018-03-18T10:33:44Z</time>
      </trkpt>
      <trkpt lat="45.96426" lon="4.85479">
        <ele>271</ele>
        <time>2018-03-18T10:33:47Z</time>
      </trkpt>
      <trkpt lat="45.96429" lon="4.85479">
        <ele>271</ele>
        <time>2018-03-18T10:33:48Z</time>
      </trkpt>
      <trkpt lat="45.96436" lon="4.85479">
        <ele>271</ele>
        <time>2018-03-18T10:33:51Z</time>
      </trkpt>
      <trkpt lat="45.96439" lon="4.85479">
        <ele>271</ele>
        <time>2018-03-18T10:33:52Z</time>
      </trkpt>
      <trkpt lat="45.96447" lon="4.8548">
        <ele>272</ele>
        <time>2018-03-18T10:33:55Z</time>
      </trkpt>
      <trkpt lat="45.9645" lon="4.8548">
        <ele>272</ele>
        <time>2018-03-18T10:33:56Z</time>
      </trkpt>
      <trkpt lat="45.96456" lon="4.8548">
        <ele>272</ele>
        <time>2018-03-18T10:33:58Z</time>
      </trkpt>
      <trkpt lat="45.96459" lon="4.8548">
        <ele>272</ele>
        <time>2018-03-18T10:33:59Z</time>
      </trkpt>
      <trkpt lat="45.96466" lon="4.8548">
        <ele>272</ele>
        <time>2018-03-18T10:34:01Z</time>
      </trkpt>
      <trkpt lat="45.96469" lon="4.8548">
        <ele>272</ele>
        <time>2018-03-18T10:34:02Z</time>
      </trkpt>
      <trkpt lat="45.96477" lon="4.85479">
        <ele>273</ele>
        <time>2018-03-18T10:34:04Z</time>
      </trkpt>
      <trkpt lat="45.9648" lon="4.85478">
        <ele>273</ele>
        <time>2018-03-18T10:34:05Z</time>
      </trkpt>
      <trkpt lat="45.96486" lon="4.85477">
        <ele>273</ele>
        <time>2018-03-18T10:34:07Z</time>
      </trkpt>
      <trkpt lat="45.9649" lon="4.85476">
        <ele>273</ele>
        <time>2018-03-18T10:34:08Z</time>
      </trkpt>
      <trkpt lat="45.96496" lon="4.85474">
        <ele>273</ele>
        <time>2018-03-18T10:34:10Z</time>
      </trkpt>
      <trkpt lat="45.965" lon="4.85474">
        <ele>273</ele>
        <time>2018-03-18T10:34:11Z</time>
      </trkpt>
      <trkpt lat="45.96506" lon="4.85472">
        <ele>275</ele>
        <time>2018-03-18T10:34:13Z</time>
      </trkpt>
      <trkpt lat="45.96509" lon="4.85471">
        <ele>275</ele>
        <time>2018-03-18T10:34:14Z</time>
      </trkpt>
      <trkpt lat="45.96518" lon="4.85469">
        <ele>275</ele>
        <time>2018-03-18T10:34:17Z</time>
      </trkpt>
      <trkpt lat="45.9652" lon="4.85468">
        <ele>275</ele>
        <time>2018-03-18T10:34:18Z</time>
      </trkpt>
      <trkpt lat="45.96526" lon="4.85467">
        <ele>275</ele>
        <time>2018-03-18T10:34:20Z</time>
      </trkpt>
      <trkpt lat="45.9653" lon="4.85466">
        <ele>275</ele>
        <time>2018-03-18T10:34:21Z</time>
      </trkpt>
      <trkpt lat="45.96536" lon="4.85464">
        <ele>275</ele>
        <time>2018-03-18T10:34:23Z</time>
      </trkpt>
      <trkpt lat="45.96539" lon="4.85464">
        <ele>275</ele>
        <time>2018-03-18T10:34:24Z</time>
      </trkpt>
      <trkpt lat="45.96547" lon="4.85462">
        <ele>275</ele>
        <time>2018-03-18T10:34:27Z</time>
      </trkpt>
      <trkpt lat="45.9655" lon="4.85462">
        <ele>275</ele>
        <time>2018-03-18T10:34:28Z</time>
      </trkpt>
      <trkpt lat="45.96558" lon="4.85463">
        <ele>275</ele>
        <time>2018-03-18T10:34:31Z</time>
      </trkpt>
      <trkpt lat="45.96561" lon="4.85463">
        <ele>275</ele>
        <time>2018-03-18T10:34:32Z</time>
      </trkpt>
      <trkpt lat="45.96566" lon="4.85462">
        <ele>275</ele>
        <time>2018-03-18T10:34:34Z</time>
      </trkpt>
      <trkpt lat="45.96575" lon="4.8546">
        <ele>275</ele>
        <time>2018-03-18T10:34:35Z</time>
      </trkpt>
      <trkpt lat="45.96584" lon="4.85457">
        <ele>276</ele>
        <time>2018-03-18T10:34:39Z</time>
      </trkpt>
      <trkpt lat="45.96587" lon="4.85456">
        <ele>276</ele>
        <time>2018-03-18T10:34:40Z</time>
      </trkpt>
      <trkpt lat="45.96592" lon="4.85454">
        <ele>276</ele>
        <time>2018-03-18T10:34:42Z</time>
      </trkpt>
      <trkpt lat="45.96595" lon="4.85453">
        <ele>276</ele>
        <time>2018-03-18T10:34:43Z</time>
      </trkpt>
      <trkpt lat="45.96602" lon="4.8545">
        <ele>276</ele>
        <time>2018-03-18T10:34:45Z</time>
      </trkpt>
      <trkpt lat="45.96606" lon="4.85449">
        <ele>276</ele>
        <time>2018-03-18T10:34:46Z</time>
      </trkpt>
      <trkpt lat="45.96617" lon="4.85446">
        <ele>276</ele>
        <time>2018-03-18T10:34:47Z</time>
      </trkpt>
      <trkpt lat="45.96621" lon="4.85445">
        <ele>276</ele>
        <time>2018-03-18T10:34:49Z</time>
      </trkpt>
      <trkpt lat="45.96627" lon="4.85442">
        <ele>276</ele>
        <time>2018-03-18T10:34:50Z</time>
      </trkpt>
      <trkpt lat="45.96635" lon="4.8544">
        <ele>276</ele>
        <time>2018-03-18T10:34:52Z</time>
      </trkpt>
      <trkpt lat="45.96637" lon="4.85439">
        <ele>276</ele>
        <time>2018-03-18T10:34:53Z</time>
      </trkpt>
      <trkpt lat="45.96645" lon="4.85437">
        <ele>276</ele>
        <time>2018-03-18T10:34:55Z</time>
      </trkpt>
      <trkpt lat="45.96647" lon="4.85437">
        <ele>276</ele>
        <time>2018-03-18T10:34:56Z</time>
      </trkpt>
      <trkpt lat="45.96654" lon="4.85436">
        <ele>276</ele>
        <time>2018-03-18T10:34:59Z</time>
      </trkpt>
      <trkpt lat="45.96663" lon="4.85434">
        <ele>276</ele>
        <time>2018-03-18T10:35:00Z</time>
      </trkpt>
      <trkpt lat="45.96672" lon="4.8543">
        <ele>276</ele>
        <time>2018-03-18T10:35:02Z</time>
      </trkpt>
      <trkpt lat="45.96676" lon="4.85429">
        <ele>276</ele>
        <time>2018-03-18T10:35:03Z</time>
      </trkpt>
      <trkpt lat="45.96683" lon="4.85426">
        <ele>276</ele>
        <time>2018-03-18T10:35:05Z</time>
      </trkpt>
      <trkpt lat="45.96687" lon="4.85425">
        <ele>276</ele>
        <time>2018-03-18T10:35:06Z</time>
      </trkpt>
      <trkpt lat="45.96695" lon="4.85423">
        <ele>276</ele>
        <time>2018-03-18T10:35:08Z</time>
      </trkpt>
      <trkpt lat="45.96698" lon="4.85422">
        <ele>276</ele>
        <time>2018-03-18T10:35:09Z</time>
      </trkpt>
      <trkpt lat="45.96702" lon="4.8542">
        <ele>276</ele>
        <time>2018-03-18T10:35:11Z</time>
      </trkpt>
      <trkpt lat="45.96709" lon="4.85416">
        <ele>276</ele>
        <time>2018-03-18T10:35:12Z</time>
      </trkpt>
      <trkpt lat="45.96716" lon="4.85412">
        <ele>276</ele>
        <time>2018-03-18T10:35:15Z</time>
      </trkpt>
      <trkpt lat="45.96723" lon="4.85408">
        <ele>276</ele>
        <time>2018-03-18T10:35:16Z</time>
      </trkpt>
      <trkpt lat="45.96724" lon="4.85407">
        <ele>276</ele>
        <time>2018-03-18T10:35:18Z</time>
      </trkpt>
      <trkpt lat="45.96729" lon="4.85397">
        <ele>277</ele>
        <time>2018-03-18T10:35:19Z</time>
      </trkpt>
      <trkpt lat="45.96737" lon="4.85394">
        <ele>277</ele>
        <time>2018-03-18T10:35:25Z</time>
      </trkpt>
      <trkpt lat="45.96739" lon="4.85392">
        <ele>277</ele>
        <time>2018-03-18T10:35:26Z</time>
      </trkpt>
      <trkpt lat="45.96745" lon="4.85387">
        <ele>277</ele>
        <time>2018-03-18T10:35:29Z</time>
      </trkpt>
      <trkpt lat="45.96747" lon="4.85385">
        <ele>277</ele>
        <time>2018-03-18T10:35:30Z</time>
      </trkpt>
      <trkpt lat="45.96753" lon="4.85379">
        <ele>278</ele>
        <time>2018-03-18T10:35:32Z</time>
      </trkpt>
      <trkpt lat="45.96756" lon="4.85377">
        <ele>278</ele>
        <time>2018-03-18T10:35:33Z</time>
      </trkpt>
      <trkpt lat="45.96763" lon="4.85373">
        <ele>278</ele>
        <time>2018-03-18T10:35:36Z</time>
      </trkpt>
      <trkpt lat="45.96765" lon="4.85371">
        <ele>278</ele>
        <time>2018-03-18T10:35:37Z</time>
      </trkpt>
      <trkpt lat="45.96773" lon="4.85364">
        <ele>278</ele>
        <time>2018-03-18T10:35:40Z</time>
      </trkpt>
      <trkpt lat="45.96776" lon="4.85362">
        <ele>278</ele>
        <time>2018-03-18T10:35:41Z</time>
      </trkpt>
      <trkpt lat="45.96781" lon="4.85359">
        <ele>278</ele>
        <time>2018-03-18T10:35:43Z</time>
      </trkpt>
      <trkpt lat="45.96791" lon="4.85353">
        <ele>278</ele>
        <time>2018-03-18T10:35:44Z</time>
      </trkpt>
      <trkpt lat="45.96798" lon="4.85349">
        <ele>279</ele>
        <time>2018-03-18T10:35:47Z</time>
      </trkpt>
      <trkpt lat="45.968" lon="4.85348">
        <ele>279</ele>
        <time>2018-03-18T10:35:48Z</time>
      </trkpt>
      <trkpt lat="45.96807" lon="4.85344">
        <ele>279</ele>
        <time>2018-03-18T10:35:51Z</time>
      </trkpt>
      <trkpt lat="45.9681" lon="4.85343">
        <ele>279</ele>
        <time>2018-03-18T10:35:52Z</time>
      </trkpt>
      <trkpt lat="45.96819" lon="4.85339">
        <ele>279</ele>
        <time>2018-03-18T10:35:55Z</time>
      </trkpt>
      <trkpt lat="45.96821" lon="4.85338">
        <ele>279</ele>
        <time>2018-03-18T10:35:56Z</time>
      </trkpt>
      <trkpt lat="45.96829" lon="4.85336">
        <ele>280</ele>
        <time>2018-03-18T10:35:58Z</time>
      </trkpt>
      <trkpt lat="45.96831" lon="4.85335">
        <ele>280</ele>
        <time>2018-03-18T10:35:59Z</time>
      </trkpt>
      <trkpt lat="45.96838" lon="4.85332">
        <ele>280</ele>
        <time>2018-03-18T10:36:01Z</time>
      </trkpt>
      <trkpt lat="45.96841" lon="4.85331">
        <ele>281</ele>
        <time>2018-03-18T10:36:02Z</time>
      </trkpt>
      <trkpt lat="45.96847" lon="4.85328">
        <ele>281</ele>
        <time>2018-03-18T10:36:04Z</time>
      </trkpt>
      <trkpt lat="45.9685" lon="4.85326">
        <ele>281</ele>
        <time>2018-03-18T10:36:05Z</time>
      </trkpt>
      <trkpt lat="45.96856" lon="4.85322">
        <ele>282</ele>
        <time>2018-03-18T10:36:07Z</time>
      </trkpt>
      <trkpt lat="45.96859" lon="4.85321">
        <ele>282</ele>
        <time>2018-03-18T10:36:08Z</time>
      </trkpt>
      <trkpt lat="45.96867" lon="4.85317">
        <ele>282</ele>
        <time>2018-03-18T10:36:11Z</time>
      </trkpt>
      <trkpt lat="45.9687" lon="4.85316">
        <ele>282</ele>
        <time>2018-03-18T10:36:12Z</time>
      </trkpt>
      <trkpt lat="45.96878" lon="4.85314">
        <ele>283</ele>
        <time>2018-03-18T10:36:15Z</time>
      </trkpt>
      <trkpt lat="45.9688" lon="4.85313">
        <ele>283</ele>
        <time>2018-03-18T10:36:16Z</time>
      </trkpt>
      <trkpt lat="45.96888" lon="4.85309">
        <ele>283</ele>
        <time>2018-03-18T10:36:19Z</time>
      </trkpt>
      <trkpt lat="45.9689" lon="4.85308">
        <ele>283</ele>
        <time>2018-03-18T10:36:20Z</time>
      </trkpt>
      <trkpt lat="45.96898" lon="4.85307">
        <ele>283</ele>
        <time>2018-03-18T10:36:23Z</time>
      </trkpt>
      <trkpt lat="45.969" lon="4.85306">
        <ele>284</ele>
        <time>2018-03-18T10:36:24Z</time>
      </trkpt>
      <trkpt lat="45.96907" lon="4.85306">
        <ele>284</ele>
        <time>2018-03-18T10:36:27Z</time>
      </trkpt>
      <trkpt lat="45.96909" lon="4.85306">
        <ele>284</ele>
        <time>2018-03-18T10:36:28Z</time>
      </trkpt>
      <trkpt lat="45.96916" lon="4.85304">
        <ele>284</ele>
        <time>2018-03-18T10:36:31Z</time>
      </trkpt>
      <trkpt lat="45.96919" lon="4.85303">
        <ele>285</ele>
        <time>2018-03-18T10:36:32Z</time>
      </trkpt>
      <trkpt lat="45.96927" lon="4.853">
        <ele>284</ele>
        <time>2018-03-18T10:36:35Z</time>
      </trkpt>
      <trkpt lat="45.9693" lon="4.853">
        <ele>284</ele>
        <time>2018-03-18T10:36:36Z</time>
      </trkpt>
      <trkpt lat="45.9694" lon="4.85298">
        <ele>284</ele>
        <time>2018-03-18T10:36:37Z</time>
      </trkpt>
      <trkpt lat="45.96946" lon="4.85298">
        <ele>284</ele>
        <time>2018-03-18T10:36:40Z</time>
      </trkpt>
      <trkpt lat="45.96954" lon="4.85298">
        <ele>284</ele>
        <time>2018-03-18T10:36:41Z</time>
      </trkpt>
      <trkpt lat="45.96962" lon="4.85298">
        <ele>284</ele>
        <time>2018-03-18T10:36:43Z</time>
      </trkpt>
      <trkpt lat="45.96966" lon="4.85298">
        <ele>284</ele>
        <time>2018-03-18T10:36:44Z</time>
      </trkpt>
      <trkpt lat="45.96973" lon="4.85297">
        <ele>284</ele>
        <time>2018-03-18T10:36:46Z</time>
      </trkpt>
      <trkpt lat="45.96977" lon="4.85296">
        <ele>284</ele>
        <time>2018-03-18T10:36:47Z</time>
      </trkpt>
      <trkpt lat="45.96985" lon="4.85295">
        <ele>284</ele>
        <time>2018-03-18T10:36:49Z</time>
      </trkpt>
      <trkpt lat="45.96991" lon="4.85295">
        <ele>283</ele>
        <time>2018-03-18T10:36:50Z</time>
      </trkpt>
      <trkpt lat="45.96995" lon="4.85295">
        <ele>283</ele>
        <time>2018-03-18T10:36:51Z</time>
      </trkpt>
      <trkpt lat="45.97001" lon="4.85295">
        <ele>282</ele>
        <time>2018-03-18T10:36:52Z</time>
      </trkpt>
      <trkpt lat="45.97005" lon="4.85297">
        <ele>282</ele>
        <time>2018-03-18T10:36:53Z</time>
      </trkpt>
      <trkpt lat="45.97011" lon="4.85296">
        <ele>282</ele>
        <time>2018-03-18T10:36:54Z</time>
      </trkpt>
      <trkpt lat="45.97016" lon="4.85294">
        <ele>282</ele>
        <time>2018-03-18T10:36:55Z</time>
      </trkpt>
      <trkpt lat="45.97021" lon="4.85292">
        <ele>282</ele>
        <time>2018-03-18T10:36:56Z</time>
      </trkpt>
      <trkpt lat="45.97027" lon="4.85292">
        <ele>282</ele>
        <time>2018-03-18T10:36:57Z</time>
      </trkpt>
      <trkpt lat="45.97032" lon="4.85292">
        <ele>282</ele>
        <time>2018-03-18T10:36:58Z</time>
      </trkpt>
      <trkpt lat="45.97037" lon="4.85291">
        <ele>282</ele>
        <time>2018-03-18T10:36:59Z</time>
      </trkpt>
      <trkpt lat="45.97043" lon="4.8529">
        <ele>282</ele>
        <time>2018-03-18T10:37:00Z</time>
      </trkpt>
      <trkpt lat="45.97049" lon="4.8529">
        <ele>282</ele>
        <time>2018-03-18T10:37:01Z</time>
      </trkpt>
      <trkpt lat="45.97055" lon="4.8529">
        <ele>282</ele>
        <time>2018-03-18T10:37:02Z</time>
      </trkpt>
      <trkpt lat="45.97061" lon="4.85288">
        <ele>282</ele>
        <time>2018-03-18T10:37:03Z</time>
      </trkpt>
      <trkpt lat="45.97068" lon="4.85287">
        <ele>282</ele>
        <time>2018-03-18T10:37:04Z</time>
      </trkpt>
      <trkpt lat="45.97074" lon="4.85288">
        <ele>282</ele>
        <time>2018-03-18T10:37:05Z</time>
      </trkpt>
      <trkpt lat="45.9708" lon="4.85287">
        <ele>281</ele>
        <time>2018-03-18T10:37:06Z</time>
      </trkpt>
      <trkpt lat="45.97086" lon="4.85287">
        <ele>280</ele>
        <time>2018-03-18T10:37:07Z</time>
      </trkpt>
      <trkpt lat="45.97091" lon="4.85285">
        <ele>280</ele>
        <time>2018-03-18T10:37:08Z</time>
      </trkpt>
      <trkpt lat="45.97099" lon="4.85283">
        <ele>280</ele>
        <time>2018-03-18T10:37:10Z</time>
      </trkpt>
      <trkpt lat="45.97101" lon="4.85282">
        <ele>280</ele>
        <time>2018-03-18T10:37:11Z</time>
      </trkpt>
      <trkpt lat="45.97109" lon="4.85281">
        <ele>280</ele>
        <time>2018-03-18T10:37:15Z</time>
      </trkpt>
      <trkpt lat="45.97112" lon="4.85281">
        <ele>280</ele>
        <time>2018-03-18T10:37:16Z</time>
      </trkpt>
      <trkpt lat="45.97118" lon="4.85282">
        <ele>280</ele>
        <time>2018-03-18T10:37:18Z</time>
      </trkpt>
      <trkpt lat="45.97127" lon="4.85284">
        <ele>279</ele>
        <time>2018-03-18T10:37:19Z</time>
      </trkpt>
      <trkpt lat="45.97135" lon="4.85282">
        <ele>279</ele>
        <time>2018-03-18T10:37:21Z</time>
      </trkpt>
      <trkpt lat="45.9714" lon="4.85281">
        <ele>279</ele>
        <time>2018-03-18T10:37:22Z</time>
      </trkpt>
      <trkpt lat="45.97144" lon="4.8528">
        <ele>279</ele>
        <time>2018-03-18T10:37:23Z</time>
      </trkpt>
      <trkpt lat="45.97149" lon="4.85282">
        <ele>279</ele>
        <time>2018-03-18T10:37:24Z</time>
      </trkpt>
      <trkpt lat="45.97154" lon="4.8528">
        <ele>279</ele>
        <time>2018-03-18T10:37:25Z</time>
      </trkpt>
      <trkpt lat="45.97159" lon="4.85281">
        <ele>279</ele>
        <time>2018-03-18T10:37:26Z</time>
      </trkpt>
      <trkpt lat="45.97165" lon="4.8528">
        <ele>279</ele>
        <time>2018-03-18T10:37:27Z</time>
      </trkpt>
      <trkpt lat="45.97171" lon="4.85278">
        <ele>279</ele>
        <time>2018-03-18T10:37:28Z</time>
      </trkpt>
      <trkpt lat="45.97177" lon="4.85278">
        <ele>279</ele>
        <time>2018-03-18T10:37:29Z</time>
      </trkpt>
      <trkpt lat="45.97182" lon="4.85278">
        <ele>279</ele>
        <time>2018-03-18T10:37:30Z</time>
      </trkpt>
      <trkpt lat="45.97187" lon="4.85278">
        <ele>279</ele>
        <time>2018-03-18T10:37:31Z</time>
      </trkpt>
      <trkpt lat="45.97192" lon="4.85277">
        <ele>279</ele>
        <time>2018-03-18T10:37:32Z</time>
      </trkpt>
      <trkpt lat="45.97196" lon="4.85278">
        <ele>279</ele>
        <time>2018-03-18T10:37:33Z</time>
      </trkpt>
      <trkpt lat="45.97202" lon="4.85278">
        <ele>279</ele>
        <time>2018-03-18T10:37:34Z</time>
      </trkpt>
      <trkpt lat="45.97208" lon="4.85278">
        <ele>279</ele>
        <time>2018-03-18T10:37:35Z</time>
      </trkpt>
      <trkpt lat="45.97213" lon="4.85279">
        <ele>279</ele>
        <time>2018-03-18T10:37:36Z</time>
      </trkpt>
      <trkpt lat="45.97219" lon="4.85278">
        <ele>279</ele>
        <time>2018-03-18T10:37:37Z</time>
      </trkpt>
      <trkpt lat="45.97224" lon="4.85277">
        <ele>279</ele>
        <time>2018-03-18T10:37:38Z</time>
      </trkpt>
      <trkpt lat="45.9723" lon="4.85277">
        <ele>279</ele>
        <time>2018-03-18T10:37:39Z</time>
      </trkpt>
      <trkpt lat="45.97236" lon="4.85277">
        <ele>279</ele>
        <time>2018-03-18T10:37:40Z</time>
      </trkpt>
      <trkpt lat="45.97244" lon="4.85277">
        <ele>279</ele>
        <time>2018-03-18T10:37:42Z</time>
      </trkpt>
      <trkpt lat="45.97249" lon="4.85277">
        <ele>279</ele>
        <time>2018-03-18T10:37:43Z</time>
      </trkpt>
      <trkpt lat="45.97254" lon="4.85278">
        <ele>281</ele>
        <time>2018-03-18T10:37:44Z</time>
      </trkpt>
      <trkpt lat="45.97258" lon="4.85278">
        <ele>281</ele>
        <time>2018-03-18T10:37:45Z</time>
      </trkpt>
      <trkpt lat="45.97263" lon="4.85277">
        <ele>281</ele>
        <time>2018-03-18T10:37:46Z</time>
      </trkpt>
      <trkpt lat="45.97268" lon="4.85275">
        <ele>281</ele>
        <time>2018-03-18T10:37:47Z</time>
      </trkpt>
      <trkpt lat="45.97276" lon="4.85273">
        <ele>281</ele>
        <time>2018-03-18T10:37:49Z</time>
      </trkpt>
      <trkpt lat="45.9728" lon="4.85271">
        <ele>281</ele>
        <time>2018-03-18T10:37:50Z</time>
      </trkpt>
      <trkpt lat="45.97287" lon="4.85273">
        <ele>281</ele>
        <time>2018-03-18T10:37:51Z</time>
      </trkpt>
      <trkpt lat="45.97292" lon="4.85276">
        <ele>282</ele>
        <time>2018-03-18T10:37:52Z</time>
      </trkpt>
      <trkpt lat="45.97299" lon="4.85271">
        <ele>282</ele>
        <time>2018-03-18T10:37:54Z</time>
      </trkpt>
      <trkpt lat="45.97302" lon="4.85268">
        <ele>282</ele>
        <time>2018-03-18T10:37:55Z</time>
      </trkpt>
      <trkpt lat="45.97307" lon="4.85268">
        <ele>282</ele>
        <time>2018-03-18T10:37:56Z</time>
      </trkpt>
      <trkpt lat="45.97311" lon="4.85268">
        <ele>282</ele>
        <time>2018-03-18T10:37:57Z</time>
      </trkpt>
      <trkpt lat="45.97315" lon="4.85267">
        <ele>282</ele>
        <time>2018-03-18T10:37:58Z</time>
      </trkpt>
      <trkpt lat="45.97321" lon="4.85266">
        <ele>282</ele>
        <time>2018-03-18T10:37:59Z</time>
      </trkpt>
      <trkpt lat="45.97327" lon="4.85267">
        <ele>282</ele>
        <time>2018-03-18T10:38:00Z</time>
      </trkpt>
      <trkpt lat="45.97332" lon="4.85268">
        <ele>282</ele>
        <time>2018-03-18T10:38:01Z</time>
      </trkpt>
      <trkpt lat="45.9734" lon="4.85271">
        <ele>284</ele>
        <time>2018-03-18T10:38:02Z</time>
      </trkpt>
      <trkpt lat="45.97345" lon="4.85268">
        <ele>284</ele>
        <time>2018-03-18T10:38:03Z</time>
      </trkpt>
      <trkpt lat="45.97351" lon="4.85264">
        <ele>284</ele>
        <time>2018-03-18T10:38:04Z</time>
      </trkpt>
      <trkpt lat="45.97355" lon="4.85262">
        <ele>284</ele>
        <time>2018-03-18T10:38:05Z</time>
      </trkpt>
      <trkpt lat="45.97361" lon="4.85261">
        <ele>284</ele>
        <time>2018-03-18T10:38:07Z</time>
      </trkpt>
      <trkpt lat="45.97365" lon="4.85256">
        <ele>284</ele>
        <time>2018-03-18T10:38:08Z</time>
      </trkpt>
      <trkpt lat="45.97373" lon="4.85263">
        <ele>285</ele>
        <time>2018-03-18T10:38:09Z</time>
      </trkpt>
      <trkpt lat="45.9738" lon="4.85264">
        <ele>285</ele>
        <time>2018-03-18T10:38:11Z</time>
      </trkpt>
      <trkpt lat="45.97384" lon="4.85262">
        <ele>285</ele>
        <time>2018-03-18T10:38:12Z</time>
      </trkpt>
      <trkpt lat="45.97388" lon="4.85263">
        <ele>285</ele>
        <time>2018-03-18T10:38:13Z</time>
      </trkpt>
      <trkpt lat="45.97394" lon="4.85264">
        <ele>285</ele>
        <time>2018-03-18T10:38:14Z</time>
      </trkpt>
      <trkpt lat="45.97402" lon="4.85262">
        <ele>286</ele>
        <time>2018-03-18T10:38:16Z</time>
      </trkpt>
      <trkpt lat="45.97406" lon="4.85263">
        <ele>286</ele>
        <time>2018-03-18T10:38:17Z</time>
      </trkpt>
      <trkpt lat="45.97412" lon="4.85266">
        <ele>286</ele>
        <time>2018-03-18T10:38:18Z</time>
      </trkpt>
      <trkpt lat="45.97417" lon="4.85267">
        <ele>285</ele>
        <time>2018-03-18T10:38:19Z</time>
      </trkpt>
      <trkpt lat="45.97422" lon="4.85267">
        <ele>285</ele>
        <time>2018-03-18T10:38:20Z</time>
      </trkpt>
      <trkpt lat="45.97427" lon="4.85266">
        <ele>285</ele>
        <time>2018-03-18T10:38:21Z</time>
      </trkpt>
      <trkpt lat="45.97434" lon="4.85271">
        <ele>285</ele>
        <time>2018-03-18T10:38:22Z</time>
      </trkpt>
      <trkpt lat="45.97439" lon="4.85268">
        <ele>285</ele>
        <time>2018-03-18T10:38:23Z</time>
      </trkpt>
      <trkpt lat="45.97444" lon="4.85267">
        <ele>285</ele>
        <time>2018-03-18T10:38:24Z</time>
      </trkpt>
      <trkpt lat="45.97449" lon="4.85268">
        <ele>285</ele>
        <time>2018-03-18T10:38:25Z</time>
      </trkpt>
      <trkpt lat="45.97454" lon="4.85268">
        <ele>284</ele>
        <time>2018-03-18T10:38:26Z</time>
      </trkpt>
      <trkpt lat="45.97463" lon="4.85271">
        <ele>284</ele>
        <time>2018-03-18T10:38:27Z</time>
      </trkpt>
      <trkpt lat="45.97468" lon="4.85273">
        <ele>284</ele>
        <time>2018-03-18T10:38:28Z</time>
      </trkpt>
      <trkpt lat="45.97474" lon="4.85269">
        <ele>284</ele>
        <time>2018-03-18T10:38:29Z</time>
      </trkpt>
      <trkpt lat="45.9748" lon="4.8527">
        <ele>284</ele>
        <time>2018-03-18T10:38:30Z</time>
      </trkpt>
      <trkpt lat="45.97485" lon="4.85269">
        <ele>284</ele>
        <time>2018-03-18T10:38:31Z</time>
      </trkpt>
      <trkpt lat="45.97489" lon="4.8527">
        <ele>283</ele>
        <time>2018-03-18T10:38:32Z</time>
      </trkpt>
      <trkpt lat="45.97494" lon="4.8527">
        <ele>283</ele>
        <time>2018-03-18T10:38:33Z</time>
      </trkpt>
      <trkpt lat="45.975" lon="4.85272">
        <ele>281</ele>
        <time>2018-03-18T10:38:35Z</time>
      </trkpt>
      <trkpt lat="45.97504" lon="4.85274">
        <ele>281</ele>
        <time>2018-03-18T10:38:36Z</time>
      </trkpt>
      <trkpt lat="45.97511" lon="4.85274">
        <ele>281</ele>
        <time>2018-03-18T10:38:37Z</time>
      </trkpt>
      <trkpt lat="45.97515" lon="4.85274">
        <ele>281</ele>
        <time>2018-03-18T10:38:38Z</time>
      </trkpt>
      <trkpt lat="45.9752" lon="4.85275">
        <ele>281</ele>
        <time>2018-03-18T10:38:39Z</time>
      </trkpt>
      <trkpt lat="45.97524" lon="4.85277">
        <ele>281</ele>
        <time>2018-03-18T10:38:40Z</time>
      </trkpt>
      <trkpt lat="45.97528" lon="4.85277">
        <ele>281</ele>
        <time>2018-03-18T10:38:41Z</time>
      </trkpt>
      <trkpt lat="45.97534" lon="4.85277">
        <ele>281</ele>
        <time>2018-03-18T10:38:42Z</time>
      </trkpt>
      <trkpt lat="45.97541" lon="4.85279">
        <ele>281</ele>
        <time>2018-03-18T10:38:44Z</time>
      </trkpt>
      <trkpt lat="45.97547" lon="4.85278">
        <ele>281</ele>
        <time>2018-03-18T10:38:45Z</time>
      </trkpt>
      <trkpt lat="45.9755" lon="4.85281">
        <ele>280</ele>
        <time>2018-03-18T10:38:46Z</time>
      </trkpt>
      <trkpt lat="45.97556" lon="4.85282">
        <ele>280</ele>
        <time>2018-03-18T10:38:47Z</time>
      </trkpt>
      <trkpt lat="45.97562" lon="4.85281">
        <ele>280</ele>
        <time>2018-03-18T10:38:48Z</time>
      </trkpt>
      <trkpt lat="45.97569" lon="4.8528">
        <ele>280</ele>
        <time>2018-03-18T10:38:49Z</time>
      </trkpt>
      <trkpt lat="45.97576" lon="4.85278">
        <ele>281</ele>
        <time>2018-03-18T10:38:50Z</time>
      </trkpt>
      <trkpt lat="45.97585" lon="4.85275">
        <ele>279</ele>
        <time>2018-03-18T10:38:51Z</time>
      </trkpt>
      <trkpt lat="45.97591" lon="4.85272">
        <ele>279</ele>
        <time>2018-03-18T10:38:52Z</time>
      </trkpt>
      <trkpt lat="45.97598" lon="4.85272">
        <ele>279</ele>
        <time>2018-03-18T10:38:53Z</time>
      </trkpt>
      <trkpt lat="45.97606" lon="4.8527">
        <ele>279</ele>
        <time>2018-03-18T10:38:54Z</time>
      </trkpt>
      <trkpt lat="45.97611" lon="4.85267">
        <ele>279</ele>
        <time>2018-03-18T10:38:55Z</time>
      </trkpt>
      <trkpt lat="45.97617" lon="4.85267">
        <ele>279</ele>
        <time>2018-03-18T10:38:56Z</time>
      </trkpt>
      <trkpt lat="45.97623" lon="4.85266">
        <ele>278</ele>
        <time>2018-03-18T10:38:57Z</time>
      </trkpt>
      <trkpt lat="45.97628" lon="4.85264">
        <ele>278</ele>
        <time>2018-03-18T10:38:58Z</time>
      </trkpt>
      <trkpt lat="45.97634" lon="4.85264">
        <ele>278</ele>
        <time>2018-03-18T10:38:59Z</time>
      </trkpt>
      <trkpt lat="45.97638" lon="4.85264">
        <ele>278</ele>
        <time>2018-03-18T10:39:00Z</time>
      </trkpt>
      <trkpt lat="45.97643" lon="4.85262">
        <ele>278</ele>
        <time>2018-03-18T10:39:01Z</time>
      </trkpt>
      <trkpt lat="45.97648" lon="4.85261">
        <ele>277</ele>
        <time>2018-03-18T10:39:02Z</time>
      </trkpt>
      <trkpt lat="45.97653" lon="4.85261">
        <ele>277</ele>
        <time>2018-03-18T10:39:03Z</time>
      </trkpt>
      <trkpt lat="45.97657" lon="4.85258">
        <ele>277</ele>
        <time>2018-03-18T10:39:04Z</time>
      </trkpt>
      <trkpt lat="45.97663" lon="4.85256">
        <ele>277</ele>
        <time>2018-03-18T10:39:05Z</time>
      </trkpt>
      <trkpt lat="45.97668" lon="4.85255">
        <ele>276</ele>
        <time>2018-03-18T10:39:06Z</time>
      </trkpt>
      <trkpt lat="45.97674" lon="4.85254">
        <ele>276</ele>
        <time>2018-03-18T10:39:07Z</time>
      </trkpt>
      <trkpt lat="45.9768" lon="4.85254">
        <ele>276</ele>
        <time>2018-03-18T10:39:08Z</time>
      </trkpt>
      <trkpt lat="45.97686" lon="4.85253">
        <ele>276</ele>
        <time>2018-03-18T10:39:09Z</time>
      </trkpt>
      <trkpt lat="45.97692" lon="4.85253">
        <ele>276</ele>
        <time>2018-03-18T10:39:10Z</time>
      </trkpt>
      <trkpt lat="45.97698" lon="4.8525">
        <ele>275</ele>
        <time>2018-03-18T10:39:11Z</time>
      </trkpt>
      <trkpt lat="45.97704" lon="4.85252">
        <ele>276</ele>
        <time>2018-03-18T10:39:12Z</time>
      </trkpt>
      <trkpt lat="45.9771" lon="4.85253">
        <ele>275</ele>
        <time>2018-03-18T10:39:13Z</time>
      </trkpt>
      <trkpt lat="45.97715" lon="4.85251">
        <ele>275</ele>
        <time>2018-03-18T10:39:14Z</time>
      </trkpt>
      <trkpt lat="45.97721" lon="4.8525">
        <ele>275</ele>
        <time>2018-03-18T10:39:15Z</time>
      </trkpt>
      <trkpt lat="45.97726" lon="4.85249">
        <ele>275</ele>
        <time>2018-03-18T10:39:16Z</time>
      </trkpt>
      <trkpt lat="45.97731" lon="4.85248">
        <ele>275</ele>
        <time>2018-03-18T10:39:17Z</time>
      </trkpt>
      <trkpt lat="45.97736" lon="4.85247">
        <ele>275</ele>
        <time>2018-03-18T10:39:18Z</time>
      </trkpt>
      <trkpt lat="45.97741" lon="4.85246">
        <ele>274</ele>
        <time>2018-03-18T10:39:19Z</time>
      </trkpt>
      <trkpt lat="45.97746" lon="4.85245">
        <ele>274</ele>
        <time>2018-03-18T10:39:20Z</time>
      </trkpt>
      <trkpt lat="45.97751" lon="4.85245">
        <ele>274</ele>
        <time>2018-03-18T10:39:21Z</time>
      </trkpt>
      <trkpt lat="45.97759" lon="4.85249">
        <ele>274</ele>
        <time>2018-03-18T10:39:23Z</time>
      </trkpt>
      <trkpt lat="45.97764" lon="4.8525">
        <ele>274</ele>
        <time>2018-03-18T10:39:24Z</time>
      </trkpt>
      <trkpt lat="45.97769" lon="4.85249">
        <ele>274</ele>
        <time>2018-03-18T10:39:25Z</time>
      </trkpt>
      <trkpt lat="45.97773" lon="4.85248">
        <ele>274</ele>
        <time>2018-03-18T10:39:26Z</time>
      </trkpt>
      <trkpt lat="45.97778" lon="4.85247">
        <ele>274</ele>
        <time>2018-03-18T10:39:27Z</time>
      </trkpt>
      <trkpt lat="45.97783" lon="4.85245">
        <ele>274</ele>
        <time>2018-03-18T10:39:28Z</time>
      </trkpt>
      <trkpt lat="45.97789" lon="4.85243">
        <ele>274</ele>
        <time>2018-03-18T10:39:29Z</time>
      </trkpt>
      <trkpt lat="45.97794" lon="4.85243">
        <ele>274</ele>
        <time>2018-03-18T10:39:30Z</time>
      </trkpt>
      <trkpt lat="45.97801" lon="4.85246">
        <ele>274</ele>
        <time>2018-03-18T10:39:32Z</time>
      </trkpt>
      <trkpt lat="45.97805" lon="4.85244">
        <ele>274</ele>
        <time>2018-03-18T10:39:33Z</time>
      </trkpt>
      <trkpt lat="45.9781" lon="4.85244">
        <ele>275</ele>
        <time>2018-03-18T10:39:34Z</time>
      </trkpt>
      <trkpt lat="45.97815" lon="4.85245">
        <ele>275</ele>
        <time>2018-03-18T10:39:35Z</time>
      </trkpt>
      <trkpt lat="45.9782" lon="4.85243">
        <ele>275</ele>
        <time>2018-03-18T10:39:36Z</time>
      </trkpt>
      <trkpt lat="45.97825" lon="4.85243">
        <ele>275</ele>
        <time>2018-03-18T10:39:37Z</time>
      </trkpt>
      <trkpt lat="45.9783" lon="4.85241">
        <ele>275</ele>
        <time>2018-03-18T10:39:38Z</time>
      </trkpt>
      <trkpt lat="45.97836" lon="4.85241">
        <ele>275</ele>
        <time>2018-03-18T10:39:39Z</time>
      </trkpt>
      <trkpt lat="45.97842" lon="4.85239">
        <ele>275</ele>
        <time>2018-03-18T10:39:40Z</time>
      </trkpt>
      <trkpt lat="45.97848" lon="4.85239">
        <ele>275</ele>
        <time>2018-03-18T10:39:41Z</time>
      </trkpt>
      <trkpt lat="45.97853" lon="4.85239">
        <ele>275</ele>
        <time>2018-03-18T10:39:42Z</time>
      </trkpt>
      <trkpt lat="45.97859" lon="4.85238">
        <ele>275</ele>
        <time>2018-03-18T10:39:43Z</time>
      </trkpt>
      <trkpt lat="45.97865" lon="4.85237">
        <ele>275</ele>
        <time>2018-03-18T10:39:44Z</time>
      </trkpt>
      <trkpt lat="45.9787" lon="4.85236">
        <ele>275</ele>
        <time>2018-03-18T10:39:45Z</time>
      </trkpt>
      <trkpt lat="45.97879" lon="4.85234">
        <ele>275</ele>
        <time>2018-03-18T10:39:47Z</time>
      </trkpt>
      <trkpt lat="45.97883" lon="4.85235">
        <ele>275</ele>
        <time>2018-03-18T10:39:48Z</time>
      </trkpt>
      <trkpt lat="45.97888" lon="4.85234">
        <ele>275</ele>
        <time>2018-03-18T10:39:49Z</time>
      </trkpt>
      <trkpt lat="45.97894" lon="4.85231">
        <ele>275</ele>
        <time>2018-03-18T10:39:50Z</time>
      </trkpt>
      <trkpt lat="45.97898" lon="4.85233">
        <ele>275</ele>
        <time>2018-03-18T10:39:51Z</time>
      </trkpt>
      <trkpt lat="45.97903" lon="4.85234">
        <ele>275</ele>
        <time>2018-03-18T10:39:52Z</time>
      </trkpt>
      <trkpt lat="45.97908" lon="4.85233">
        <ele>275</ele>
        <time>2018-03-18T10:39:53Z</time>
      </trkpt>
      <trkpt lat="45.97913" lon="4.85233">
        <ele>276</ele>
        <time>2018-03-18T10:39:54Z</time>
      </trkpt>
      <trkpt lat="45.97918" lon="4.85232">
        <ele>276</ele>
        <time>2018-03-18T10:39:55Z</time>
      </trkpt>
      <trkpt lat="45.97925" lon="4.85231">
        <ele>276</ele>
        <time>2018-03-18T10:39:56Z</time>
      </trkpt>
      <trkpt lat="45.9793" lon="4.85229">
        <ele>276</ele>
        <time>2018-03-18T10:39:57Z</time>
      </trkpt>
      <trkpt lat="45.97935" lon="4.85228">
        <ele>276</ele>
        <time>2018-03-18T10:39:58Z</time>
      </trkpt>
      <trkpt lat="45.97941" lon="4.85227">
        <ele>276</ele>
        <time>2018-03-18T10:39:59Z</time>
      </trkpt>
      <trkpt lat="45.97947" lon="4.85223">
        <ele>276</ele>
        <time>2018-03-18T10:40:00Z</time>
      </trkpt>
      <trkpt lat="45.97956" lon="4.85227">
        <ele>276</ele>
        <time>2018-03-18T10:40:02Z</time>
      </trkpt>
      <trkpt lat="45.97961" lon="4.85227">
        <ele>276</ele>
        <time>2018-03-18T10:40:03Z</time>
      </trkpt>
      <trkpt lat="45.97966" lon="4.85228">
        <ele>276</ele>
        <time>2018-03-18T10:40:04Z</time>
      </trkpt>
      <trkpt lat="45.97972" lon="4.85228">
        <ele>276</ele>
        <time>2018-03-18T10:40:05Z</time>
      </trkpt>
      <trkpt lat="45.97977" lon="4.85227">
        <ele>276</ele>
        <time>2018-03-18T10:40:06Z</time>
      </trkpt>
      <trkpt lat="45.97982" lon="4.85225">
        <ele>276</ele>
        <time>2018-03-18T10:40:07Z</time>
      </trkpt>
      <trkpt lat="45.97988" lon="4.85227">
        <ele>276</ele>
        <time>2018-03-18T10:40:08Z</time>
      </trkpt>
      <trkpt lat="45.97992" lon="4.85226">
        <ele>276</ele>
        <time>2018-03-18T10:40:09Z</time>
      </trkpt>
      <trkpt lat="45.98001" lon="4.85225">
        <ele>276</ele>
        <time>2018-03-18T10:40:11Z</time>
      </trkpt>
      <trkpt lat="45.98005" lon="4.85225">
        <ele>276</ele>
        <time>2018-03-18T10:40:12Z</time>
      </trkpt>
      <trkpt lat="45.98013" lon="4.85226">
        <ele>276</ele>
        <time>2018-03-18T10:40:15Z</time>
      </trkpt>
      <trkpt lat="45.98015" lon="4.85227">
        <ele>276</ele>
        <time>2018-03-18T10:40:16Z</time>
      </trkpt>
      <trkpt lat="45.98024" lon="4.85226">
        <ele>276</ele>
        <time>2018-03-18T10:40:17Z</time>
      </trkpt>
      <trkpt lat="45.98029" lon="4.85222">
        <ele>276</ele>
        <time>2018-03-18T10:40:18Z</time>
      </trkpt>
      <trkpt lat="45.98034" lon="4.85221">
        <ele>276</ele>
        <time>2018-03-18T10:40:19Z</time>
      </trkpt>
      <trkpt lat="45.98042" lon="4.85219">
        <ele>276</ele>
        <time>2018-03-18T10:40:21Z</time>
      </trkpt>
      <trkpt lat="45.98047" lon="4.85219">
        <ele>276</ele>
        <time>2018-03-18T10:40:22Z</time>
      </trkpt>
      <trkpt lat="45.98055" lon="4.85218">
        <ele>276</ele>
        <time>2018-03-18T10:40:24Z</time>
      </trkpt>
      <trkpt lat="45.98059" lon="4.85218">
        <ele>276</ele>
        <time>2018-03-18T10:40:25Z</time>
      </trkpt>
      <trkpt lat="45.98067" lon="4.85218">
        <ele>276</ele>
        <time>2018-03-18T10:40:27Z</time>
      </trkpt>
      <trkpt lat="45.98071" lon="4.85218">
        <ele>276</ele>
        <time>2018-03-18T10:40:28Z</time>
      </trkpt>
      <trkpt lat="45.98079" lon="4.85218">
        <ele>276</ele>
        <time>2018-03-18T10:40:30Z</time>
      </trkpt>
      <trkpt lat="45.98085" lon="4.85215">
        <ele>275</ele>
        <time>2018-03-18T10:40:31Z</time>
      </trkpt>
      <trkpt lat="45.98093" lon="4.85215">
        <ele>275</ele>
        <time>2018-03-18T10:40:33Z</time>
      </trkpt>
      <trkpt lat="45.98098" lon="4.85215">
        <ele>275</ele>
        <time>2018-03-18T10:40:34Z</time>
      </trkpt>
      <trkpt lat="45.98102" lon="4.85214">
        <ele>275</ele>
        <time>2018-03-18T10:40:35Z</time>
      </trkpt>
      <trkpt lat="45.98107" lon="4.85213">
        <ele>275</ele>
        <time>2018-03-18T10:40:36Z</time>
      </trkpt>
      <trkpt lat="45.98111" lon="4.85214">
        <ele>275</ele>
        <time>2018-03-18T10:40:37Z</time>
      </trkpt>
      <trkpt lat="45.98116" lon="4.85213">
        <ele>275</ele>
        <time>2018-03-18T10:40:38Z</time>
      </trkpt>
      <trkpt lat="45.98121" lon="4.85213">
        <ele>275</ele>
        <time>2018-03-18T10:40:39Z</time>
      </trkpt>
      <trkpt lat="45.98126" lon="4.85214">
        <ele>275</ele>
        <time>2018-03-18T10:40:40Z</time>
      </trkpt>
      <trkpt lat="45.98131" lon="4.85213">
        <ele>275</ele>
        <time>2018-03-18T10:40:41Z</time>
      </trkpt>
      <trkpt lat="45.98136" lon="4.85213">
        <ele>275</ele>
        <time>2018-03-18T10:40:42Z</time>
      </trkpt>
      <trkpt lat="45.98141" lon="4.85212">
        <ele>275</ele>
        <time>2018-03-18T10:40:43Z</time>
      </trkpt>
      <trkpt lat="45.98145" lon="4.85212">
        <ele>275</ele>
        <time>2018-03-18T10:40:44Z</time>
      </trkpt>
      <trkpt lat="45.9815" lon="4.85211">
        <ele>275</ele>
        <time>2018-03-18T10:40:45Z</time>
      </trkpt>
      <trkpt lat="45.98154" lon="4.85209">
        <ele>275</ele>
        <time>2018-03-18T10:40:46Z</time>
      </trkpt>
      <trkpt lat="45.98159" lon="4.85209">
        <ele>274</ele>
        <time>2018-03-18T10:40:47Z</time>
      </trkpt>
      <trkpt lat="45.98164" lon="4.85208">
        <ele>274</ele>
        <time>2018-03-18T10:40:48Z</time>
      </trkpt>
      <trkpt lat="45.98169" lon="4.85208">
        <ele>274</ele>
        <time>2018-03-18T10:40:49Z</time>
      </trkpt>
      <trkpt lat="45.98174" lon="4.85207">
        <ele>274</ele>
        <time>2018-03-18T10:40:50Z</time>
      </trkpt>
      <trkpt lat="45.98179" lon="4.85207">
        <ele>274</ele>
        <time>2018-03-18T10:40:51Z</time>
      </trkpt>
      <trkpt lat="45.98185" lon="4.85206">
        <ele>274</ele>
        <time>2018-03-18T10:40:52Z</time>
      </trkpt>
      <trkpt lat="45.98191" lon="4.85206">
        <ele>274</ele>
        <time>2018-03-18T10:40:53Z</time>
      </trkpt>
      <trkpt lat="45.98196" lon="4.85206">
        <ele>274</ele>
        <time>2018-03-18T10:40:54Z</time>
      </trkpt>
      <trkpt lat="45.98203" lon="4.85206">
        <ele>274</ele>
        <time>2018-03-18T10:40:55Z</time>
      </trkpt>
      <trkpt lat="45.98209" lon="4.85205">
        <ele>274</ele>
        <time>2018-03-18T10:40:56Z</time>
      </trkpt>
      <trkpt lat="45.98213" lon="4.85204">
        <ele>274</ele>
        <time>2018-03-18T10:40:57Z</time>
      </trkpt>
      <trkpt lat="45.98218" lon="4.85203">
        <ele>274</ele>
        <time>2018-03-18T10:40:58Z</time>
      </trkpt>
      <trkpt lat="45.98223" lon="4.85201">
        <ele>274</ele>
        <time>2018-03-18T10:40:59Z</time>
      </trkpt>
      <trkpt lat="45.98228" lon="4.85201">
        <ele>274</ele>
        <time>2018-03-18T10:41:00Z</time>
      </trkpt>
      <trkpt lat="45.98233" lon="4.852">
        <ele>274</ele>
        <time>2018-03-18T10:41:01Z</time>
      </trkpt>
      <trkpt lat="45.98237" lon="4.85199">
        <ele>274</ele>
        <time>2018-03-18T10:41:02Z</time>
      </trkpt>
      <trkpt lat="45.98244" lon="4.85199">
        <ele>274</ele>
        <time>2018-03-18T10:41:03Z</time>
      </trkpt>
      <trkpt lat="45.98248" lon="4.85202">
        <ele>274</ele>
        <time>2018-03-18T10:41:04Z</time>
      </trkpt>
      <trkpt lat="45.98255" lon="4.85201">
        <ele>274</ele>
        <time>2018-03-18T10:41:05Z</time>
      </trkpt>
      <trkpt lat="45.98261" lon="4.85201">
        <ele>274</ele>
        <time>2018-03-18T10:41:06Z</time>
      </trkpt>
      <trkpt lat="45.98265" lon="4.852">
        <ele>274</ele>
        <time>2018-03-18T10:41:07Z</time>
      </trkpt>
      <trkpt lat="45.9827" lon="4.85198">
        <ele>274</ele>
        <time>2018-03-18T10:41:08Z</time>
      </trkpt>
      <trkpt lat="45.98278" lon="4.85196">
        <ele>274</ele>
        <time>2018-03-18T10:41:10Z</time>
      </trkpt>
      <trkpt lat="45.98284" lon="4.85195">
        <ele>274</ele>
        <time>2018-03-18T10:41:11Z</time>
      </trkpt>
      <trkpt lat="45.98288" lon="4.85195">
        <ele>274</ele>
        <time>2018-03-18T10:41:12Z</time>
      </trkpt>
      <trkpt lat="45.98293" lon="4.85194">
        <ele>274</ele>
        <time>2018-03-18T10:41:13Z</time>
      </trkpt>
      <trkpt lat="45.98302" lon="4.85193">
        <ele>274</ele>
        <time>2018-03-18T10:41:15Z</time>
      </trkpt>
      <trkpt lat="45.98307" lon="4.85193">
        <ele>274</ele>
        <time>2018-03-18T10:41:16Z</time>
      </trkpt>
      <trkpt lat="45.98312" lon="4.85193">
        <ele>274</ele>
        <time>2018-03-18T10:41:17Z</time>
      </trkpt>
      <trkpt lat="45.98317" lon="4.85193">
        <ele>274</ele>
        <time>2018-03-18T10:41:18Z</time>
      </trkpt>
      <trkpt lat="45.98322" lon="4.85193">
        <ele>274</ele>
        <time>2018-03-18T10:41:19Z</time>
      </trkpt>
      <trkpt lat="45.98327" lon="4.85193">
        <ele>274</ele>
        <time>2018-03-18T10:41:20Z</time>
      </trkpt>
      <trkpt lat="45.98331" lon="4.85192">
        <ele>274</ele>
        <time>2018-03-18T10:41:21Z</time>
      </trkpt>
      <trkpt lat="45.98336" lon="4.85192">
        <ele>275</ele>
        <time>2018-03-18T10:41:22Z</time>
      </trkpt>
      <trkpt lat="45.98341" lon="4.85191">
        <ele>275</ele>
        <time>2018-03-18T10:41:23Z</time>
      </trkpt>
      <trkpt lat="45.98345" lon="4.8519">
        <ele>275</ele>
        <time>2018-03-18T10:41:24Z</time>
      </trkpt>
      <trkpt lat="45.9835" lon="4.85189">
        <ele>275</ele>
        <time>2018-03-18T10:41:25Z</time>
      </trkpt>
      <trkpt lat="45.98355" lon="4.85189">
        <ele>275</ele>
        <time>2018-03-18T10:41:26Z</time>
      </trkpt>
      <trkpt lat="45.9836" lon="4.85189">
        <ele>275</ele>
        <time>2018-03-18T10:41:27Z</time>
      </trkpt>
      <trkpt lat="45.98366" lon="4.85188">
        <ele>275</ele>
        <time>2018-03-18T10:41:28Z</time>
      </trkpt>
      <trkpt lat="45.98371" lon="4.85187">
        <ele>275</ele>
        <time>2018-03-18T10:41:29Z</time>
      </trkpt>
      <trkpt lat="45.98376" lon="4.85187">
        <ele>275</ele>
        <time>2018-03-18T10:41:30Z</time>
      </trkpt>
      <trkpt lat="45.9838" lon="4.85187">
        <ele>275</ele>
        <time>2018-03-18T10:41:31Z</time>
      </trkpt>
      <trkpt lat="45.98386" lon="4.85188">
        <ele>275</ele>
        <time>2018-03-18T10:41:32Z</time>
      </trkpt>
      <trkpt lat="45.98392" lon="4.85188">
        <ele>275</ele>
        <time>2018-03-18T10:41:33Z</time>
      </trkpt>
      <trkpt lat="45.98398" lon="4.85188">
        <ele>275</ele>
        <time>2018-03-18T10:41:34Z</time>
      </trkpt>
      <trkpt lat="45.98404" lon="4.85187">
        <ele>275</ele>
        <time>2018-03-18T10:41:35Z</time>
      </trkpt>
      <trkpt lat="45.98409" lon="4.85186">
        <ele>275</ele>
        <time>2018-03-18T10:41:36Z</time>
      </trkpt>
      <trkpt lat="45.98414" lon="4.85186">
        <ele>275</ele>
        <time>2018-03-18T10:41:37Z</time>
      </trkpt>
      <trkpt lat="45.98419" lon="4.85186">
        <ele>275</ele>
        <time>2018-03-18T10:41:38Z</time>
      </trkpt>
      <trkpt lat="45.98424" lon="4.85185">
        <ele>275</ele>
        <time>2018-03-18T10:41:39Z</time>
      </trkpt>
      <trkpt lat="45.98429" lon="4.85184">
        <ele>275</ele>
        <time>2018-03-18T10:41:40Z</time>
      </trkpt>
      <trkpt lat="45.98434" lon="4.85184">
        <ele>275</ele>
        <time>2018-03-18T10:41:41Z</time>
      </trkpt>
      <trkpt lat="45.98439" lon="4.85183">
        <ele>275</ele>
        <time>2018-03-18T10:41:42Z</time>
      </trkpt>
      <trkpt lat="45.98445" lon="4.85182">
        <ele>275</ele>
        <time>2018-03-18T10:41:43Z</time>
      </trkpt>
      <trkpt lat="45.9845" lon="4.85182">
        <ele>275</ele>
        <time>2018-03-18T10:41:44Z</time>
      </trkpt>
      <trkpt lat="45.98456" lon="4.85182">
        <ele>275</ele>
        <time>2018-03-18T10:41:45Z</time>
      </trkpt>
      <trkpt lat="45.98461" lon="4.85182">
        <ele>275</ele>
        <time>2018-03-18T10:41:46Z</time>
      </trkpt>
      <trkpt lat="45.98466" lon="4.85181">
        <ele>275</ele>
        <time>2018-03-18T10:41:47Z</time>
      </trkpt>
      <trkpt lat="45.98472" lon="4.8518">
        <ele>275</ele>
        <time>2018-03-18T10:41:48Z</time>
      </trkpt>
      <trkpt lat="45.98478" lon="4.85179">
        <ele>275</ele>
        <time>2018-03-18T10:41:49Z</time>
      </trkpt>
      <trkpt lat="45.98483" lon="4.85178">
        <ele>275</ele>
        <time>2018-03-18T10:41:50Z</time>
      </trkpt>
      <trkpt lat="45.98488" lon="4.85178">
        <ele>275</ele>
        <time>2018-03-18T10:41:51Z</time>
      </trkpt>
      <trkpt lat="45.98493" lon="4.85177">
        <ele>275</ele>
        <time>2018-03-18T10:41:52Z</time>
      </trkpt>
      <trkpt lat="45.98501" lon="4.85175">
        <ele>274</ele>
        <time>2018-03-18T10:41:54Z</time>
      </trkpt>
      <trkpt lat="45.98506" lon="4.85173">
        <ele>274</ele>
        <time>2018-03-18T10:41:55Z</time>
      </trkpt>
      <trkpt lat="45.98513" lon="4.8517">
        <ele>274</ele>
        <time>2018-03-18T10:41:57Z</time>
      </trkpt>
      <trkpt lat="45.98517" lon="4.85169">
        <ele>274</ele>
        <time>2018-03-18T10:41:58Z</time>
      </trkpt>
      <trkpt lat="45.98526" lon="4.85166">
        <ele>274</ele>
        <time>2018-03-18T10:42:00Z</time>
      </trkpt>
      <trkpt lat="45.9853" lon="4.85166">
        <ele>274</ele>
        <time>2018-03-18T10:42:01Z</time>
      </trkpt>
      <trkpt lat="45.98536" lon="4.85162">
        <ele>274</ele>
        <time>2018-03-18T10:42:02Z</time>
      </trkpt>
      <trkpt lat="45.9854" lon="4.85162">
        <ele>274</ele>
        <time>2018-03-18T10:42:03Z</time>
      </trkpt>
      <trkpt lat="45.98545" lon="4.85163">
        <ele>274</ele>
        <time>2018-03-18T10:42:04Z</time>
      </trkpt>
      <trkpt lat="45.98549" lon="4.85161">
        <ele>274</ele>
        <time>2018-03-18T10:42:05Z</time>
      </trkpt>
      <trkpt lat="45.98553" lon="4.8516">
        <ele>274</ele>
        <time>2018-03-18T10:42:06Z</time>
      </trkpt>
      <trkpt lat="45.98558" lon="4.85157">
        <ele>274</ele>
        <time>2018-03-18T10:42:07Z</time>
      </trkpt>
      <trkpt lat="45.98563" lon="4.85155">
        <ele>274</ele>
        <time>2018-03-18T10:42:08Z</time>
      </trkpt>
      <trkpt lat="45.98567" lon="4.85153">
        <ele>273</ele>
        <time>2018-03-18T10:42:09Z</time>
      </trkpt>
      <trkpt lat="45.98573" lon="4.85147">
        <ele>273</ele>
        <time>2018-03-18T10:42:10Z</time>
      </trkpt>
      <trkpt lat="45.98575" lon="4.85148">
        <ele>273</ele>
        <time>2018-03-18T10:42:11Z</time>
      </trkpt>
      <trkpt lat="45.98581" lon="4.85147">
        <ele>273</ele>
        <time>2018-03-18T10:42:12Z</time>
      </trkpt>
      <trkpt lat="45.98585" lon="4.85147">
        <ele>272</ele>
        <time>2018-03-18T10:42:13Z</time>
      </trkpt>
      <trkpt lat="45.98588" lon="4.85147">
        <ele>272</ele>
        <time>2018-03-18T10:42:14Z</time>
      </trkpt>
      <trkpt lat="45.98594" lon="4.85142">
        <ele>272</ele>
        <time>2018-03-18T10:42:15Z</time>
      </trkpt>
      <trkpt lat="45.986" lon="4.85138">
        <ele>272</ele>
        <time>2018-03-18T10:42:16Z</time>
      </trkpt>
      <trkpt lat="45.98606" lon="4.85137">
        <ele>272</ele>
        <time>2018-03-18T10:42:17Z</time>
      </trkpt>
      <trkpt lat="45.98614" lon="4.85136">
        <ele>272</ele>
        <time>2018-03-18T10:42:19Z</time>
      </trkpt>
      <trkpt lat="45.98622" lon="4.85132">
        <ele>272</ele>
        <time>2018-03-18T10:42:20Z</time>
      </trkpt>
      <trkpt lat="45.98629" lon="4.85125">
        <ele>272</ele>
        <time>2018-03-18T10:42:21Z</time>
      </trkpt>
      <trkpt lat="45.98629" lon="4.85122">
        <ele>272</ele>
        <time>2018-03-18T10:42:22Z</time>
      </trkpt>
      <trkpt lat="45.98634" lon="4.8512">
        <ele>272</ele>
        <time>2018-03-18T10:42:23Z</time>
      </trkpt>
      <trkpt lat="45.98639" lon="4.85115">
        <ele>272</ele>
        <time>2018-03-18T10:42:24Z</time>
      </trkpt>
      <trkpt lat="45.98643" lon="4.85113">
        <ele>272</ele>
        <time>2018-03-18T10:42:25Z</time>
      </trkpt>
      <trkpt lat="45.98648" lon="4.85111">
        <ele>272</ele>
        <time>2018-03-18T10:42:26Z</time>
      </trkpt>
      <trkpt lat="45.98655" lon="4.85107">
        <ele>271</ele>
        <time>2018-03-18T10:42:27Z</time>
      </trkpt>
      <trkpt lat="45.9866" lon="4.85104">
        <ele>271</ele>
        <time>2018-03-18T10:42:28Z</time>
      </trkpt>
      <trkpt lat="45.98665" lon="4.85102">
        <ele>271</ele>
        <time>2018-03-18T10:42:29Z</time>
      </trkpt>
      <trkpt lat="45.9867" lon="4.851">
        <ele>270</ele>
        <time>2018-03-18T10:42:30Z</time>
      </trkpt>
      <trkpt lat="45.98677" lon="4.85098">
        <ele>270</ele>
        <time>2018-03-18T10:42:31Z</time>
      </trkpt>
      <trkpt lat="45.98682" lon="4.85096">
        <ele>270</ele>
        <time>2018-03-18T10:42:32Z</time>
      </trkpt>
      <trkpt lat="45.98688" lon="4.85096">
        <ele>270</ele>
        <time>2018-03-18T10:42:33Z</time>
      </trkpt>
      <trkpt lat="45.98693" lon="4.85094">
        <ele>270</ele>
        <time>2018-03-18T10:42:34Z</time>
      </trkpt>
      <trkpt lat="45.98698" lon="4.85091">
        <ele>270</ele>
        <time>2018-03-18T10:42:35Z</time>
      </trkpt>
      <trkpt lat="45.98705" lon="4.8509">
        <ele>270</ele>
        <time>2018-03-18T10:42:36Z</time>
      </trkpt>
      <trkpt lat="45.98712" lon="4.85085">
        <ele>270</ele>
        <time>2018-03-18T10:42:37Z</time>
      </trkpt>
      <trkpt lat="45.98719" lon="4.85082">
        <ele>270</ele>
        <time>2018-03-18T10:42:38Z</time>
      </trkpt>
      <trkpt lat="45.98726" lon="4.85078">
        <ele>270</ele>
        <time>2018-03-18T10:42:39Z</time>
      </trkpt>
      <trkpt lat="45.98732" lon="4.85075">
        <ele>269</ele>
        <time>2018-03-18T10:42:40Z</time>
      </trkpt>
      <trkpt lat="45.98737" lon="4.85072">
        <ele>269</ele>
        <time>2018-03-18T10:42:41Z</time>
      </trkpt>
      <trkpt lat="45.98743" lon="4.85068">
        <ele>269</ele>
        <time>2018-03-18T10:42:42Z</time>
      </trkpt>
      <trkpt lat="45.98749" lon="4.85064">
        <ele>269</ele>
        <time>2018-03-18T10:42:43Z</time>
      </trkpt>
      <trkpt lat="45.98756" lon="4.85061">
        <ele>268</ele>
        <time>2018-03-18T10:42:44Z</time>
      </trkpt>
      <trkpt lat="45.98762" lon="4.85057">
        <ele>268</ele>
        <time>2018-03-18T10:42:45Z</time>
      </trkpt>
      <trkpt lat="45.98766" lon="4.85054">
        <ele>268</ele>
        <time>2018-03-18T10:42:46Z</time>
      </trkpt>
      <trkpt lat="45.98771" lon="4.85051">
        <ele>268</ele>
        <time>2018-03-18T10:42:47Z</time>
      </trkpt>
      <trkpt lat="45.98775" lon="4.85048">
        <ele>268</ele>
        <time>2018-03-18T10:42:48Z</time>
      </trkpt>
      <trkpt lat="45.98782" lon="4.85047">
        <ele>267</ele>
        <time>2018-03-18T10:42:49Z</time>
      </trkpt>
      <trkpt lat="45.98786" lon="4.85043">
        <ele>267</ele>
        <time>2018-03-18T10:42:50Z</time>
      </trkpt>
      <trkpt lat="45.98788" lon="4.85042">
        <ele>267</ele>
        <time>2018-03-18T10:42:51Z</time>
      </trkpt>
      <trkpt lat="45.98795" lon="4.85038">
        <ele>267</ele>
        <time>2018-03-18T10:42:52Z</time>
      </trkpt>
      <trkpt lat="45.988" lon="4.85036">
        <ele>267</ele>
        <time>2018-03-18T10:42:53Z</time>
      </trkpt>
      <trkpt lat="45.98805" lon="4.85032">
        <ele>267</ele>
        <time>2018-03-18T10:42:54Z</time>
      </trkpt>
      <trkpt lat="45.98809" lon="4.85031">
        <ele>267</ele>
        <time>2018-03-18T10:42:55Z</time>
      </trkpt>
      <trkpt lat="45.98815" lon="4.85029">
        <ele>267</ele>
        <time>2018-03-18T10:42:56Z</time>
      </trkpt>
      <trkpt lat="45.98821" lon="4.85026">
        <ele>267</ele>
        <time>2018-03-18T10:42:57Z</time>
      </trkpt>
      <trkpt lat="45.98825" lon="4.85026">
        <ele>267</ele>
        <time>2018-03-18T10:42:58Z</time>
      </trkpt>
      <trkpt lat="45.98832" lon="4.85022">
        <ele>267</ele>
        <time>2018-03-18T10:42:59Z</time>
      </trkpt>
      <trkpt lat="45.98838" lon="4.8502">
        <ele>267</ele>
        <time>2018-03-18T10:43:00Z</time>
      </trkpt>
      <trkpt lat="45.98843" lon="4.85017">
        <ele>267</ele>
        <time>2018-03-18T10:43:01Z</time>
      </trkpt>
      <trkpt lat="45.98849" lon="4.85013">
        <ele>267</ele>
        <time>2018-03-18T10:43:02Z</time>
      </trkpt>
      <trkpt lat="45.98854" lon="4.85011">
        <ele>267</ele>
        <time>2018-03-18T10:43:03Z</time>
      </trkpt>
      <trkpt lat="45.98858" lon="4.8501">
        <ele>267</ele>
        <time>2018-03-18T10:43:04Z</time>
      </trkpt>
      <trkpt lat="45.98862" lon="4.85007">
        <ele>267</ele>
        <time>2018-03-18T10:43:05Z</time>
      </trkpt>
      <trkpt lat="45.98868" lon="4.85005">
        <ele>267</ele>
        <time>2018-03-18T10:43:06Z</time>
      </trkpt>
      <trkpt lat="45.98873" lon="4.85002">
        <ele>267</ele>
        <time>2018-03-18T10:43:07Z</time>
      </trkpt>
      <trkpt lat="45.98879" lon="4.85">
        <ele>267</ele>
        <time>2018-03-18T10:43:08Z</time>
      </trkpt>
      <trkpt lat="45.98884" lon="4.84998">
        <ele>267</ele>
        <time>2018-03-18T10:43:09Z</time>
      </trkpt>
      <trkpt lat="45.9889" lon="4.84994">
        <ele>267</ele>
        <time>2018-03-18T10:43:10Z</time>
      </trkpt>
      <trkpt lat="45.98895" lon="4.84992">
        <ele>267</ele>
        <time>2018-03-18T10:43:11Z</time>
      </trkpt>
      <trkpt lat="45.98901" lon="4.84989">
        <ele>267</ele>
        <time>2018-03-18T10:43:12Z</time>
      </trkpt>
      <trkpt lat="45.98907" lon="4.84986">
        <ele>267</ele>
        <time>2018-03-18T10:43:13Z</time>
      </trkpt>
      <trkpt lat="45.98913" lon="4.84983">
        <ele>267</ele>
        <time>2018-03-18T10:43:14Z</time>
      </trkpt>
      <trkpt lat="45.98918" lon="4.84981">
        <ele>267</ele>
        <time>2018-03-18T10:43:15Z</time>
      </trkpt>
      <trkpt lat="45.98923" lon="4.84979">
        <ele>267</ele>
        <time>2018-03-18T10:43:16Z</time>
      </trkpt>
      <trkpt lat="45.98929" lon="4.84972">
        <ele>266</ele>
        <time>2018-03-18T10:43:17Z</time>
      </trkpt>
      <trkpt lat="45.98935" lon="4.84969">
        <ele>266</ele>
        <time>2018-03-18T10:43:18Z</time>
      </trkpt>
      <trkpt lat="45.98942" lon="4.84966">
        <ele>266</ele>
        <time>2018-03-18T10:43:19Z</time>
      </trkpt>
      <trkpt lat="45.98948" lon="4.84963">
        <ele>266</ele>
        <time>2018-03-18T10:43:20Z</time>
      </trkpt>
      <trkpt lat="45.98955" lon="4.84959">
        <ele>266</ele>
        <time>2018-03-18T10:43:21Z</time>
      </trkpt>
      <trkpt lat="45.98961" lon="4.84957">
        <ele>266</ele>
        <time>2018-03-18T10:43:22Z</time>
      </trkpt>
      <trkpt lat="45.98966" lon="4.84952">
        <ele>266</ele>
        <time>2018-03-18T10:43:23Z</time>
      </trkpt>
      <trkpt lat="45.9897" lon="4.84948">
        <ele>266</ele>
        <time>2018-03-18T10:43:24Z</time>
      </trkpt>
      <trkpt lat="45.98976" lon="4.84945">
        <ele>266</ele>
        <time>2018-03-18T10:43:25Z</time>
      </trkpt>
      <trkpt lat="45.98981" lon="4.84944">
        <ele>266</ele>
        <time>2018-03-18T10:43:26Z</time>
      </trkpt>
      <trkpt lat="45.98988" lon="4.84939">
        <ele>266</ele>
        <time>2018-03-18T10:43:27Z</time>
      </trkpt>
      <trkpt lat="45.98996" lon="4.84935">
        <ele>266</ele>
        <time>2018-03-18T10:43:28Z</time>
      </trkpt>
      <trkpt lat="45.99001" lon="4.84932">
        <ele>265</ele>
        <time>2018-03-18T10:43:29Z</time>
      </trkpt>
      <trkpt lat="45.99007" lon="4.84927">
        <ele>265</ele>
        <time>2018-03-18T10:43:30Z</time>
      </trkpt>
      <trkpt lat="45.99012" lon="4.84926">
        <ele>265</ele>
        <time>2018-03-18T10:43:31Z</time>
      </trkpt>
      <trkpt lat="45.99017" lon="4.84924">
        <ele>265</ele>
        <time>2018-03-18T10:43:32Z</time>
      </trkpt>
      <trkpt lat="45.99023" lon="4.84923">
        <ele>264</ele>
        <time>2018-03-18T10:43:33Z</time>
      </trkpt>
      <trkpt lat="45.9903" lon="4.8492">
        <ele>264</ele>
        <time>2018-03-18T10:43:34Z</time>
      </trkpt>
      <trkpt lat="45.99036" lon="4.84917">
        <ele>264</ele>
        <time>2018-03-18T10:43:35Z</time>
      </trkpt>
      <trkpt lat="45.99041" lon="4.84915">
        <ele>264</ele>
        <time>2018-03-18T10:43:36Z</time>
      </trkpt>
      <trkpt lat="45.99047" lon="4.84913">
        <ele>264</ele>
        <time>2018-03-18T10:43:37Z</time>
      </trkpt>
      <trkpt lat="45.99053" lon="4.84911">
        <ele>263</ele>
        <time>2018-03-18T10:43:38Z</time>
      </trkpt>
      <trkpt lat="45.99058" lon="4.84907">
        <ele>263</ele>
        <time>2018-03-18T10:43:39Z</time>
      </trkpt>
      <trkpt lat="45.99063" lon="4.84906">
        <ele>263</ele>
        <time>2018-03-18T10:43:40Z</time>
      </trkpt>
      <trkpt lat="45.99068" lon="4.84904">
        <ele>263</ele>
        <time>2018-03-18T10:43:41Z</time>
      </trkpt>
      <trkpt lat="45.99076" lon="4.849">
        <ele>263</ele>
        <time>2018-03-18T10:43:42Z</time>
      </trkpt>
      <trkpt lat="45.99082" lon="4.84896">
        <ele>263</ele>
        <time>2018-03-18T10:43:43Z</time>
      </trkpt>
      <trkpt lat="45.99088" lon="4.84893">
        <ele>261</ele>
        <time>2018-03-18T10:43:44Z</time>
      </trkpt>
      <trkpt lat="45.99094" lon="4.84889">
        <ele>261</ele>
        <time>2018-03-18T10:43:45Z</time>
      </trkpt>
      <trkpt lat="45.99102" lon="4.84884">
        <ele>261</ele>
        <time>2018-03-18T10:43:46Z</time>
      </trkpt>
      <trkpt lat="45.99108" lon="4.8488">
        <ele>260</ele>
        <time>2018-03-18T10:43:47Z</time>
      </trkpt>
      <trkpt lat="45.99116" lon="4.84877">
        <ele>260</ele>
        <time>2018-03-18T10:43:48Z</time>
      </trkpt>
      <trkpt lat="45.99123" lon="4.84875">
        <ele>260</ele>
        <time>2018-03-18T10:43:49Z</time>
      </trkpt>
      <trkpt lat="45.99131" lon="4.84873">
        <ele>260</ele>
        <time>2018-03-18T10:43:50Z</time>
      </trkpt>
      <trkpt lat="45.99137" lon="4.8487">
        <ele>260</ele>
        <time>2018-03-18T10:43:51Z</time>
      </trkpt>
      <trkpt lat="45.99147" lon="4.84864">
        <ele>260</ele>
        <time>2018-03-18T10:43:52Z</time>
      </trkpt>
      <trkpt lat="45.99154" lon="4.84861">
        <ele>259</ele>
        <time>2018-03-18T10:43:53Z</time>
      </trkpt>
      <trkpt lat="45.99162" lon="4.84855">
        <ele>259</ele>
        <time>2018-03-18T10:43:54Z</time>
      </trkpt>
      <trkpt lat="45.99171" lon="4.84847">
        <ele>258</ele>
        <time>2018-03-18T10:43:55Z</time>
      </trkpt>
      <trkpt lat="45.99178" lon="4.84844">
        <ele>257</ele>
        <time>2018-03-18T10:43:56Z</time>
      </trkpt>
      <trkpt lat="45.99186" lon="4.8484">
        <ele>257</ele>
        <time>2018-03-18T10:43:57Z</time>
      </trkpt>
      <trkpt lat="45.99193" lon="4.84836">
        <ele>257</ele>
        <time>2018-03-18T10:43:58Z</time>
      </trkpt>
      <trkpt lat="45.99201" lon="4.84832">
        <ele>257</ele>
        <time>2018-03-18T10:43:59Z</time>
      </trkpt>
      <trkpt lat="45.99211" lon="4.84823">
        <ele>257</ele>
        <time>2018-03-18T10:44:00Z</time>
      </trkpt>
      <trkpt lat="45.99218" lon="4.84818">
        <ele>257</ele>
        <time>2018-03-18T10:44:01Z</time>
      </trkpt>
      <trkpt lat="45.99226" lon="4.84815">
        <ele>256</ele>
        <time>2018-03-18T10:44:02Z</time>
      </trkpt>
      <trkpt lat="45.99232" lon="4.84812">
        <ele>256</ele>
        <time>2018-03-18T10:44:03Z</time>
      </trkpt>
      <trkpt lat="45.9924" lon="4.84808">
        <ele>256</ele>
        <time>2018-03-18T10:44:04Z</time>
      </trkpt>
      <trkpt lat="45.99248" lon="4.84804">
        <ele>256</ele>
        <time>2018-03-18T10:44:05Z</time>
      </trkpt>
      <trkpt lat="45.99255" lon="4.84798">
        <ele>254</ele>
        <time>2018-03-18T10:44:06Z</time>
      </trkpt>
      <trkpt lat="45.99262" lon="4.84794">
        <ele>253</ele>
        <time>2018-03-18T10:44:07Z</time>
      </trkpt>
      <trkpt lat="45.99269" lon="4.84794">
        <ele>253</ele>
        <time>2018-03-18T10:44:08Z</time>
      </trkpt>
      <trkpt lat="45.99276" lon="4.8479">
        <ele>253</ele>
        <time>2018-03-18T10:44:09Z</time>
      </trkpt>
      <trkpt lat="45.99282" lon="4.84786">
        <ele>253</ele>
        <time>2018-03-18T10:44:10Z</time>
      </trkpt>
      <trkpt lat="45.99289" lon="4.84782">
        <ele>253</ele>
        <time>2018-03-18T10:44:11Z</time>
      </trkpt>
      <trkpt lat="45.99294" lon="4.8478">
        <ele>253</ele>
        <time>2018-03-18T10:44:12Z</time>
      </trkpt>
      <trkpt lat="45.99303" lon="4.84774">
        <ele>253</ele>
        <time>2018-03-18T10:44:13Z</time>
      </trkpt>
      <trkpt lat="45.99309" lon="4.84772">
        <ele>253</ele>
        <time>2018-03-18T10:44:14Z</time>
      </trkpt>
      <trkpt lat="45.99313" lon="4.84773">
        <ele>252</ele>
        <time>2018-03-18T10:44:15Z</time>
      </trkpt>
      <trkpt lat="45.9932" lon="4.8477">
        <ele>252</ele>
        <time>2018-03-18T10:44:16Z</time>
      </trkpt>
      <trkpt lat="45.99328" lon="4.84766">
        <ele>252</ele>
        <time>2018-03-18T10:44:17Z</time>
      </trkpt>
      <trkpt lat="45.99333" lon="4.84764">
        <ele>252</ele>
        <time>2018-03-18T10:44:18Z</time>
      </trkpt>
      <trkpt lat="45.99341" lon="4.84757">
        <ele>251</ele>
        <time>2018-03-18T10:44:19Z</time>
      </trkpt>
      <trkpt lat="45.99348" lon="4.84754">
        <ele>251</ele>
        <time>2018-03-18T10:44:20Z</time>
      </trkpt>
      <trkpt lat="45.99353" lon="4.8475">
        <ele>250</ele>
        <time>2018-03-18T10:44:21Z</time>
      </trkpt>
      <trkpt lat="45.99362" lon="4.84742">
        <ele>250</ele>
        <time>2018-03-18T10:44:22Z</time>
      </trkpt>
      <trkpt lat="45.99368" lon="4.84739">
        <ele>250</ele>
        <time>2018-03-18T10:44:23Z</time>
      </trkpt>
      <trkpt lat="45.99374" lon="4.84735">
        <ele>250</ele>
        <time>2018-03-18T10:44:24Z</time>
      </trkpt>
      <trkpt lat="45.99382" lon="4.8473">
        <ele>250</ele>
        <time>2018-03-18T10:44:25Z</time>
      </trkpt>
      <trkpt lat="45.99391" lon="4.84726">
        <ele>249</ele>
        <time>2018-03-18T10:44:26Z</time>
      </trkpt>
      <trkpt lat="45.99398" lon="4.84722">
        <ele>249</ele>
        <time>2018-03-18T10:44:27Z</time>
      </trkpt>
      <trkpt lat="45.99404" lon="4.84719">
        <ele>249</ele>
        <time>2018-03-18T10:44:28Z</time>
      </trkpt>
      <trkpt lat="45.9941" lon="4.84713">
        <ele>249</ele>
        <time>2018-03-18T10:44:29Z</time>
      </trkpt>
      <trkpt lat="45.99416" lon="4.84711">
        <ele>249</ele>
        <time>2018-03-18T10:44:30Z</time>
      </trkpt>
      <trkpt lat="45.99428" lon="4.84696">
        <ele>249</ele>
        <time>2018-03-18T10:44:31Z</time>
      </trkpt>
      <trkpt lat="45.99433" lon="4.84699">
        <ele>249</ele>
        <time>2018-03-18T10:44:32Z</time>
      </trkpt>
      <trkpt lat="45.9944" lon="4.84696">
        <ele>249</ele>
        <time>2018-03-18T10:44:33Z</time>
      </trkpt>
      <trkpt lat="45.99447" lon="4.84691">
        <ele>249</ele>
        <time>2018-03-18T10:44:34Z</time>
      </trkpt>
      <trkpt lat="45.99452" lon="4.84688">
        <ele>250</ele>
        <time>2018-03-18T10:44:35Z</time>
      </trkpt>
      <trkpt lat="45.99457" lon="4.84685">
        <ele>250</ele>
        <time>2018-03-18T10:44:36Z</time>
      </trkpt>
      <trkpt lat="45.99463" lon="4.84682">
        <ele>250</ele>
        <time>2018-03-18T10:44:37Z</time>
      </trkpt>
      <trkpt lat="45.99472" lon="4.84679">
        <ele>250</ele>
        <time>2018-03-18T10:44:38Z</time>
      </trkpt>
      <trkpt lat="45.99481" lon="4.84681">
        <ele>250</ele>
        <time>2018-03-18T10:44:40Z</time>
      </trkpt>
      <trkpt lat="45.99487" lon="4.84681">
        <ele>250</ele>
        <time>2018-03-18T10:44:41Z</time>
      </trkpt>
      <trkpt lat="45.99493" lon="4.84681">
        <ele>250</ele>
        <time>2018-03-18T10:44:42Z</time>
      </trkpt>
      <trkpt lat="45.99495" lon="4.84669">
        <ele>251</ele>
        <time>2018-03-18T10:44:43Z</time>
      </trkpt>
      <trkpt lat="45.99504" lon="4.84669">
        <ele>251</ele>
        <time>2018-03-18T10:44:45Z</time>
      </trkpt>
      <trkpt lat="45.9951" lon="4.84669">
        <ele>251</ele>
        <time>2018-03-18T10:44:46Z</time>
      </trkpt>
      <trkpt lat="45.99518" lon="4.84666">
        <ele>250</ele>
        <time>2018-03-18T10:44:47Z</time>
      </trkpt>
      <trkpt lat="45.99523" lon="4.84665">
        <ele>250</ele>
        <time>2018-03-18T10:44:48Z</time>
      </trkpt>
      <trkpt lat="45.99531" lon="4.84663">
        <ele>250</ele>
        <time>2018-03-18T10:44:50Z</time>
      </trkpt>
      <trkpt lat="45.99536" lon="4.84664">
        <ele>250</ele>
        <time>2018-03-18T10:44:51Z</time>
      </trkpt>
      <trkpt lat="45.99541" lon="4.84664">
        <ele>250</ele>
        <time>2018-03-18T10:44:52Z</time>
      </trkpt>
      <trkpt lat="45.99545" lon="4.84662">
        <ele>250</ele>
        <time>2018-03-18T10:44:53Z</time>
      </trkpt>
      <trkpt lat="45.99551" lon="4.84665">
        <ele>250</ele>
        <time>2018-03-18T10:44:54Z</time>
      </trkpt>
      <trkpt lat="45.99555" lon="4.84664">
        <ele>250</ele>
        <time>2018-03-18T10:44:55Z</time>
      </trkpt>
      <trkpt lat="45.99564" lon="4.84662">
        <ele>250</ele>
        <time>2018-03-18T10:44:57Z</time>
      </trkpt>
      <trkpt lat="45.99571" lon="4.84659">
        <ele>250</ele>
        <time>2018-03-18T10:44:58Z</time>
      </trkpt>
      <trkpt lat="45.99575" lon="4.8466">
        <ele>250</ele>
        <time>2018-03-18T10:44:59Z</time>
      </trkpt>
      <trkpt lat="45.9958" lon="4.84661">
        <ele>250</ele>
        <time>2018-03-18T10:45:00Z</time>
      </trkpt>
      <trkpt lat="45.99586" lon="4.8466">
        <ele>250</ele>
        <time>2018-03-18T10:45:01Z</time>
      </trkpt>
      <trkpt lat="45.99593" lon="4.84657">
        <ele>250</ele>
        <time>2018-03-18T10:45:02Z</time>
      </trkpt>
      <trkpt lat="45.99598" lon="4.84656">
        <ele>250</ele>
        <time>2018-03-18T10:45:03Z</time>
      </trkpt>
      <trkpt lat="45.99605" lon="4.84654">
        <ele>250</ele>
        <time>2018-03-18T10:45:04Z</time>
      </trkpt>
      <trkpt lat="45.9961" lon="4.84653">
        <ele>250</ele>
        <time>2018-03-18T10:45:05Z</time>
      </trkpt>
      <trkpt lat="45.99615" lon="4.84653">
        <ele>250</ele>
        <time>2018-03-18T10:45:06Z</time>
      </trkpt>
      <trkpt lat="45.99619" lon="4.84652">
        <ele>250</ele>
        <time>2018-03-18T10:45:07Z</time>
      </trkpt>
      <trkpt lat="45.99624" lon="4.84651">
        <ele>250</ele>
        <time>2018-03-18T10:45:08Z</time>
      </trkpt>
      <trkpt lat="45.99631" lon="4.84651">
        <ele>250</ele>
        <time>2018-03-18T10:45:09Z</time>
      </trkpt>
      <trkpt lat="45.99636" lon="4.8465">
        <ele>250</ele>
        <time>2018-03-18T10:45:10Z</time>
      </trkpt>
      <trkpt lat="45.9964" lon="4.84646">
        <ele>250</ele>
        <time>2018-03-18T10:45:11Z</time>
      </trkpt>
      <trkpt lat="45.99646" lon="4.84644">
        <ele>250</ele>
        <time>2018-03-18T10:45:12Z</time>
      </trkpt>
      <trkpt lat="45.9965" lon="4.84643">
        <ele>250</ele>
        <time>2018-03-18T10:45:13Z</time>
      </trkpt>
      <trkpt lat="45.99656" lon="4.84642">
        <ele>250</ele>
        <time>2018-03-18T10:45:14Z</time>
      </trkpt>
      <trkpt lat="45.99663" lon="4.84642">
        <ele>250</ele>
        <time>2018-03-18T10:45:16Z</time>
      </trkpt>
      <trkpt lat="45.99667" lon="4.84641">
        <ele>251</ele>
        <time>2018-03-18T10:45:17Z</time>
      </trkpt>
      <trkpt lat="45.99672" lon="4.8464">
        <ele>251</ele>
        <time>2018-03-18T10:45:18Z</time>
      </trkpt>
      <trkpt lat="45.99677" lon="4.8464">
        <ele>252</ele>
        <time>2018-03-18T10:45:19Z</time>
      </trkpt>
      <trkpt lat="45.99681" lon="4.84637">
        <ele>252</ele>
        <time>2018-03-18T10:45:20Z</time>
      </trkpt>
      <trkpt lat="45.99686" lon="4.84636">
        <ele>252</ele>
        <time>2018-03-18T10:45:21Z</time>
      </trkpt>
      <trkpt lat="45.99691" lon="4.84638">
        <ele>252</ele>
        <time>2018-03-18T10:45:22Z</time>
      </trkpt>
      <trkpt lat="45.99696" lon="4.84641">
        <ele>252</ele>
        <time>2018-03-18T10:45:23Z</time>
      </trkpt>
      <trkpt lat="45.997" lon="4.8464">
        <ele>252</ele>
        <time>2018-03-18T10:45:24Z</time>
      </trkpt>
      <trkpt lat="45.99706" lon="4.84638">
        <ele>252</ele>
        <time>2018-03-18T10:45:25Z</time>
      </trkpt>
      <trkpt lat="45.99713" lon="4.84635">
        <ele>252</ele>
        <time>2018-03-18T10:45:27Z</time>
      </trkpt>
      <trkpt lat="45.99717" lon="4.84634">
        <ele>252</ele>
        <time>2018-03-18T10:45:28Z</time>
      </trkpt>
      <trkpt lat="45.99724" lon="4.84634">
        <ele>252</ele>
        <time>2018-03-18T10:45:30Z</time>
      </trkpt>
      <trkpt lat="45.99728" lon="4.84633">
        <ele>252</ele>
        <time>2018-03-18T10:45:31Z</time>
      </trkpt>
      <trkpt lat="45.99735" lon="4.84631">
        <ele>252</ele>
        <time>2018-03-18T10:45:33Z</time>
      </trkpt>
      <trkpt lat="45.99739" lon="4.84631">
        <ele>252</ele>
        <time>2018-03-18T10:45:34Z</time>
      </trkpt>
      <trkpt lat="45.99747" lon="4.84629">
        <ele>253</ele>
        <time>2018-03-18T10:45:36Z</time>
      </trkpt>
      <trkpt lat="45.9975" lon="4.84628">
        <ele>254</ele>
        <time>2018-03-18T10:45:37Z</time>
      </trkpt>
      <trkpt lat="45.99754" lon="4.84627">
        <ele>254</ele>
        <time>2018-03-18T10:45:39Z</time>
      </trkpt>
      <trkpt lat="45.9976" lon="4.84626">
        <ele>254</ele>
        <time>2018-03-18T10:45:40Z</time>
      </trkpt>
      <trkpt lat="45.99768" lon="4.84627">
        <ele>254</ele>
        <time>2018-03-18T10:45:42Z</time>
      </trkpt>
      <trkpt lat="45.99772" lon="4.84628">
        <ele>254</ele>
        <time>2018-03-18T10:45:43Z</time>
      </trkpt>
      <trkpt lat="45.9978" lon="4.84631">
        <ele>254</ele>
        <time>2018-03-18T10:45:45Z</time>
      </trkpt>
      <trkpt lat="45.99784" lon="4.84632">
        <ele>254</ele>
        <time>2018-03-18T10:45:46Z</time>
      </trkpt>
      <trkpt lat="45.99791" lon="4.84633">
        <ele>254</ele>
        <time>2018-03-18T10:45:48Z</time>
      </trkpt>
      <trkpt lat="45.99795" lon="4.84635">
        <ele>254</ele>
        <time>2018-03-18T10:45:49Z</time>
      </trkpt>
      <trkpt lat="45.99803" lon="4.84636">
        <ele>254</ele>
        <time>2018-03-18T10:45:51Z</time>
      </trkpt>
      <trkpt lat="45.99807" lon="4.84637">
        <ele>254</ele>
        <time>2018-03-18T10:45:52Z</time>
      </trkpt>
      <trkpt lat="45.99815" lon="4.84637">
        <ele>254</ele>
        <time>2018-03-18T10:45:54Z</time>
      </trkpt>
      <trkpt lat="45.99819" lon="4.84638">
        <ele>254</ele>
        <time>2018-03-18T10:45:55Z</time>
      </trkpt>
      <trkpt lat="45.99827" lon="4.84639">
        <ele>254</ele>
        <time>2018-03-18T10:45:57Z</time>
      </trkpt>
      <trkpt lat="45.99831" lon="4.84641">
        <ele>254</ele>
        <time>2018-03-18T10:45:58Z</time>
      </trkpt>
      <trkpt lat="45.99839" lon="4.84643">
        <ele>254</ele>
        <time>2018-03-18T10:46:00Z</time>
      </trkpt>
      <trkpt lat="45.99843" lon="4.84644">
        <ele>254</ele>
        <time>2018-03-18T10:46:01Z</time>
      </trkpt>
      <trkpt lat="45.99851" lon="4.84647">
        <ele>254</ele>
        <time>2018-03-18T10:46:03Z</time>
      </trkpt>
      <trkpt lat="45.99856" lon="4.84648">
        <ele>254</ele>
        <time>2018-03-18T10:46:04Z</time>
      </trkpt>
      <trkpt lat="45.9986" lon="4.84649">
        <ele>254</ele>
        <time>2018-03-18T10:46:05Z</time>
      </trkpt>
      <trkpt lat="45.99864" lon="4.84651">
        <ele>254</ele>
        <time>2018-03-18T10:46:06Z</time>
      </trkpt>
      <trkpt lat="45.99873" lon="4.84653">
        <ele>254</ele>
        <time>2018-03-18T10:46:08Z</time>
      </trkpt>
      <trkpt lat="45.99877" lon="4.84654">
        <ele>254</ele>
        <time>2018-03-18T10:46:09Z</time>
      </trkpt>
      <trkpt lat="45.99882" lon="4.84656">
        <ele>254</ele>
        <time>2018-03-18T10:46:10Z</time>
      </trkpt>
      <trkpt lat="45.99886" lon="4.84658">
        <ele>254</ele>
        <time>2018-03-18T10:46:11Z</time>
      </trkpt>
      <trkpt lat="45.99895" lon="4.8466">
        <ele>254</ele>
        <time>2018-03-18T10:46:13Z</time>
      </trkpt>
      <trkpt lat="45.999" lon="4.84661">
        <ele>254</ele>
        <time>2018-03-18T10:46:14Z</time>
      </trkpt>
      <trkpt lat="45.99908" lon="4.84664">
        <ele>254</ele>
        <time>2018-03-18T10:46:16Z</time>
      </trkpt>
      <trkpt lat="45.99912" lon="4.84665">
        <ele>254</ele>
        <time>2018-03-18T10:46:17Z</time>
      </trkpt>
      <trkpt lat="45.9992" lon="4.84667">
        <ele>254</ele>
        <time>2018-03-18T10:46:19Z</time>
      </trkpt>
      <trkpt lat="45.99925" lon="4.84668">
        <ele>254</ele>
        <time>2018-03-18T10:46:20Z</time>
      </trkpt>
      <trkpt lat="45.99933" lon="4.8467">
        <ele>255</ele>
        <time>2018-03-18T10:46:22Z</time>
      </trkpt>
      <trkpt lat="45.99938" lon="4.84671">
        <ele>255</ele>
        <time>2018-03-18T10:46:23Z</time>
      </trkpt>
      <trkpt lat="45.99944" lon="4.84675">
        <ele>255</ele>
        <time>2018-03-18T10:46:25Z</time>
      </trkpt>
      <trkpt lat="45.99948" lon="4.84676">
        <ele>255</ele>
        <time>2018-03-18T10:46:26Z</time>
      </trkpt>
      <trkpt lat="45.99953" lon="4.84675">
        <ele>255</ele>
        <time>2018-03-18T10:46:27Z</time>
      </trkpt>
      <trkpt lat="45.99957" lon="4.84676">
        <ele>255</ele>
        <time>2018-03-18T10:46:28Z</time>
      </trkpt>
      <trkpt lat="45.99962" lon="4.84677">
        <ele>255</ele>
        <time>2018-03-18T10:46:29Z</time>
      </trkpt>
      <trkpt lat="45.99967" lon="4.84678">
        <ele>255</ele>
        <time>2018-03-18T10:46:30Z</time>
      </trkpt>
      <trkpt lat="45.99975" lon="4.84679">
        <ele>255</ele>
        <time>2018-03-18T10:46:32Z</time>
      </trkpt>
      <trkpt lat="45.99979" lon="4.84681">
        <ele>255</ele>
        <time>2018-03-18T10:46:33Z</time>
      </trkpt>
      <trkpt lat="45.99987" lon="4.84683">
        <ele>255</ele>
        <time>2018-03-18T10:46:35Z</time>
      </trkpt>
      <trkpt lat="45.9999" lon="4.84683">
        <ele>255</ele>
        <time>2018-03-18T10:46:36Z</time>
      </trkpt>
      <trkpt lat="45.99996" lon="4.84685">
        <ele>255</ele>
        <time>2018-03-18T10:46:37Z</time>
      </trkpt>
      <trkpt lat="46" lon="4.84686">
        <ele>255</ele>
        <time>2018-03-18T10:46:38Z</time>
      </trkpt>
      <trkpt lat="46.00004" lon="4.84689">
        <ele>256</ele>
        <time>2018-03-18T10:46:39Z</time>
      </trkpt>
      <trkpt lat="46.00009" lon="4.84689">
        <ele>256</ele>
        <time>2018-03-18T10:46:40Z</time>
      </trkpt>
      <trkpt lat="46.00013" lon="4.84691">
        <ele>256</ele>
        <time>2018-03-18T10:46:41Z</time>
      </trkpt>
      <trkpt lat="46.00018" lon="4.84693">
        <ele>256</ele>
        <time>2018-03-18T10:46:42Z</time>
      </trkpt>
      <trkpt lat="46.00026" lon="4.84692">
        <ele>256</ele>
        <time>2018-03-18T10:46:44Z</time>
      </trkpt>
      <trkpt lat="46.00029" lon="4.84693">
        <ele>256</ele>
        <time>2018-03-18T10:46:45Z</time>
      </trkpt>
      <trkpt lat="46.00037" lon="4.84694">
        <ele>256</ele>
        <time>2018-03-18T10:46:47Z</time>
      </trkpt>
      <trkpt lat="46.00041" lon="4.84694">
        <ele>256</ele>
        <time>2018-03-18T10:46:48Z</time>
      </trkpt>
      <trkpt lat="46.0005" lon="4.84695">
        <ele>256</ele>
        <time>2018-03-18T10:46:50Z</time>
      </trkpt>
      <trkpt lat="46.00054" lon="4.84695">
        <ele>256</ele>
        <time>2018-03-18T10:46:51Z</time>
      </trkpt>
      <trkpt lat="46.00062" lon="4.84696">
        <ele>256</ele>
        <time>2018-03-18T10:46:53Z</time>
      </trkpt>
      <trkpt lat="46.00066" lon="4.84697">
        <ele>256</ele>
        <time>2018-03-18T10:46:54Z</time>
      </trkpt>
      <trkpt lat="46.00075" lon="4.84697">
        <ele>256</ele>
        <time>2018-03-18T10:47:00Z</time>
      </trkpt>
      <trkpt lat="46.00076" lon="4.84697">
        <ele>256</ele>
        <time>2018-03-18T10:47:01Z</time>
      </trkpt>
      <trkpt lat="46.00079" lon="4.84688">
        <ele>256</ele>
        <time>2018-03-18T10:47:05Z</time>
      </trkpt>
      <trkpt lat="46.0008" lon="4.84685">
        <ele>256</ele>
        <time>2018-03-18T10:47:06Z</time>
      </trkpt>
      <trkpt lat="46.00081" lon="4.84681">
        <ele>256</ele>
        <time>2018-03-18T10:47:07Z</time>
      </trkpt>
      <trkpt lat="46.00082" lon="4.84668">
        <ele>256</ele>
        <time>2018-03-18T10:47:08Z</time>
      </trkpt>
      <trkpt lat="46.00082" lon="4.84657">
        <ele>256</ele>
        <time>2018-03-18T10:47:10Z</time>
      </trkpt>
      <trkpt lat="46.0008" lon="4.84652">
        <ele>256</ele>
        <time>2018-03-18T10:47:11Z</time>
      </trkpt>
      <trkpt lat="46.0008" lon="4.84644">
        <ele>256</ele>
        <time>2018-03-18T10:47:12Z</time>
      </trkpt>
      <trkpt lat="46.00082" lon="4.84636">
        <ele>256</ele>
        <time>2018-03-18T10:47:13Z</time>
      </trkpt>
      <trkpt lat="46.00081" lon="4.84624">
        <ele>256</ele>
        <time>2018-03-18T10:47:15Z</time>
      </trkpt>
      <trkpt lat="46.00081" lon="4.84618">
        <ele>256</ele>
        <time>2018-03-18T10:47:16Z</time>
      </trkpt>
      <trkpt lat="46.0008" lon="4.84606">
        <ele>256</ele>
        <time>2018-03-18T10:47:19Z</time>
      </trkpt>
      <trkpt lat="46.0008" lon="4.84603">
        <ele>256</ele>
        <time>2018-03-18T10:47:20Z</time>
      </trkpt>
      <trkpt lat="46.0008" lon="4.84595">
        <ele>257</ele>
        <time>2018-03-18T10:47:22Z</time>
      </trkpt>
      <trkpt lat="46.00079" lon="4.84582">
        <ele>257</ele>
        <time>2018-03-18T10:47:23Z</time>
      </trkpt>
      <trkpt lat="46.00078" lon="4.84571">
        <ele>257</ele>
        <time>2018-03-18T10:47:25Z</time>
      </trkpt>
      <trkpt lat="46.00078" lon="4.84566">
        <ele>257</ele>
        <time>2018-03-18T10:47:26Z</time>
      </trkpt>
      <trkpt lat="46.00077" lon="4.84554">
        <ele>257</ele>
        <time>2018-03-18T10:47:28Z</time>
      </trkpt>
      <trkpt lat="46.00077" lon="4.84549">
        <ele>257</ele>
        <time>2018-03-18T10:47:29Z</time>
      </trkpt>
      <trkpt lat="46.00077" lon="4.84543">
        <ele>257</ele>
        <time>2018-03-18T10:47:31Z</time>
      </trkpt>
      <trkpt lat="46.00079" lon="4.84534">
        <ele>257</ele>
        <time>2018-03-18T10:47:32Z</time>
      </trkpt>
      <trkpt lat="46.00081" lon="4.84529">
        <ele>257</ele>
        <time>2018-03-18T10:47:34Z</time>
      </trkpt>
      <trkpt lat="46.00085" lon="4.84521">
        <ele>259</ele>
        <time>2018-03-18T10:47:35Z</time>
      </trkpt>
      <trkpt lat="46.00087" lon="4.84511">
        <ele>259</ele>
        <time>2018-03-18T10:47:37Z</time>
      </trkpt>
      <trkpt lat="46.00088" lon="4.84506">
        <ele>259</ele>
        <time>2018-03-18T10:47:38Z</time>
      </trkpt>
      <trkpt lat="46.0009" lon="4.84494">
        <ele>259</ele>
        <time>2018-03-18T10:47:40Z</time>
      </trkpt>
      <trkpt lat="46.0009" lon="4.84489">
        <ele>259</ele>
        <time>2018-03-18T10:47:41Z</time>
      </trkpt>
      <trkpt lat="46.00092" lon="4.84477">
        <ele>260</ele>
        <time>2018-03-18T10:47:43Z</time>
      </trkpt>
      <trkpt lat="46.00093" lon="4.84471">
        <ele>260</ele>
        <time>2018-03-18T10:47:44Z</time>
      </trkpt>
      <trkpt lat="46.00093" lon="4.84461">
        <ele>260</ele>
        <time>2018-03-18T10:47:46Z</time>
      </trkpt>
      <trkpt lat="46.00094" lon="4.84455">
        <ele>260</ele>
        <time>2018-03-18T10:47:47Z</time>
      </trkpt>
      <trkpt lat="46.00085" lon="4.84452">
        <ele>260</ele>
        <time>2018-03-18T10:47:55Z</time>
      </trkpt>
      <trkpt lat="46.00084" lon="4.84453">
        <ele>260</ele>
        <time>2018-03-18T10:47:56Z</time>
      </trkpt>
      <trkpt lat="46.0008" lon="4.84456">
        <ele>258</ele>
        <time>2018-03-18T10:54:54Z</time>
      </trkpt>
      <trkpt lat="46.0008" lon="4.84456">
        <ele>258</ele>
        <time>2018-03-18T10:54:55Z</time>
      </trkpt>
      <trkpt lat="46.00075" lon="4.84466">
        <ele>258</ele>
        <time>2018-03-18T10:58:31Z</time>
      </trkpt>
      <trkpt lat="46.00074" lon="4.84467">
        <ele>258</ele>
        <time>2018-03-18T10:58:32Z</time>
      </trkpt>
      <trkpt lat="46.00077" lon="4.8446">
        <ele>258</ele>
        <time>2018-03-18T11:00:01Z</time>
      </trkpt>
      <trkpt lat="46.00077" lon="4.8446">
        <ele>258</ele>
        <time>2018-03-18T11:00:02Z</time>
      </trkpt>
      <trkpt lat="46.00077" lon="4.84463">
        <ele>258</ele>
        <time>2018-03-18T11:00:33Z</time>
      </trkpt>
      <trkpt lat="46.00077" lon="4.84463">
        <ele>258</ele>
        <time>2018-03-18T11:00:34Z</time>
      </trkpt>
      <trkpt lat="46.00084" lon="4.84467">
        <ele>260</ele>
        <time>2018-03-18T11:01:02Z</time>
      </trkpt>
      <trkpt lat="46.00085" lon="4.84468">
        <ele>260</ele>
        <time>2018-03-18T11:01:03Z</time>
      </trkpt>
      <trkpt lat="46.00087" lon="4.84477">
        <ele>260</ele>
        <time>2018-03-18T11:01:07Z</time>
      </trkpt>
      <trkpt lat="46.00087" lon="4.84481">
        <ele>259</ele>
        <time>2018-03-18T11:01:08Z</time>
      </trkpt>
      <trkpt lat="46.00085" lon="4.8449">
        <ele>259</ele>
        <time>2018-03-18T11:01:10Z</time>
      </trkpt>
      <trkpt lat="46.00084" lon="4.84495">
        <ele>259</ele>
        <time>2018-03-18T11:01:11Z</time>
      </trkpt>
      <trkpt lat="46.00081" lon="4.84507">
        <ele>258</ele>
        <time>2018-03-18T11:01:12Z</time>
      </trkpt>
      <trkpt lat="46.00075" lon="4.84512">
        <ele>258</ele>
        <time>2018-03-18T11:01:14Z</time>
      </trkpt>
      <trkpt lat="46.00072" lon="4.8451">
        <ele>258</ele>
        <time>2018-03-18T11:01:15Z</time>
      </trkpt>
      <trkpt lat="46.00069" lon="4.84499">
        <ele>258</ele>
        <time>2018-03-18T11:01:17Z</time>
      </trkpt>
      <trkpt lat="46.00069" lon="4.84495">
        <ele>258</ele>
        <time>2018-03-18T11:01:18Z</time>
      </trkpt>
      <trkpt lat="46.00068" lon="4.84487">
        <ele>258</ele>
        <time>2018-03-18T11:01:19Z</time>
      </trkpt>
      <trkpt lat="46.00068" lon="4.84481">
        <ele>258</ele>
        <time>2018-03-18T11:01:20Z</time>
      </trkpt>
      <trkpt lat="46.00067" lon="4.84469">
        <ele>258</ele>
        <time>2018-03-18T11:01:22Z</time>
      </trkpt>
      <trkpt lat="46.00067" lon="4.84466">
        <ele>258</ele>
        <time>2018-03-18T11:01:23Z</time>
      </trkpt>
      <trkpt lat="46.00065" lon="4.84453">
        <ele>258</ele>
        <time>2018-03-18T11:01:26Z</time>
      </trkpt>
      <trkpt lat="46.00065" lon="4.84449">
        <ele>258</ele>
        <time>2018-03-18T11:01:27Z</time>
      </trkpt>
      <trkpt lat="46.00064" lon="4.84445">
        <ele>258</ele>
        <time>2018-03-18T11:01:28Z</time>
      </trkpt>
      <trkpt lat="46.00063" lon="4.84431">
        <ele>258</ele>
        <time>2018-03-18T11:01:29Z</time>
      </trkpt>
      <trkpt lat="46.00062" lon="4.84421">
        <ele>258</ele>
        <time>2018-03-18T11:01:31Z</time>
      </trkpt>
      <trkpt lat="46.00061" lon="4.84415">
        <ele>259</ele>
        <time>2018-03-18T11:01:32Z</time>
      </trkpt>
      <trkpt lat="46.00059" lon="4.84404">
        <ele>259</ele>
        <time>2018-03-18T11:01:34Z</time>
      </trkpt>
      <trkpt lat="46.00058" lon="4.84399">
        <ele>259</ele>
        <time>2018-03-18T11:01:35Z</time>
      </trkpt>
      <trkpt lat="46.00056" lon="4.84388">
        <ele>259</ele>
        <time>2018-03-18T11:01:37Z</time>
      </trkpt>
      <trkpt lat="46.00055" lon="4.84383">
        <ele>259</ele>
        <time>2018-03-18T11:01:38Z</time>
      </trkpt>
      <trkpt lat="46.00054" lon="4.84373">
        <ele>259</ele>
        <time>2018-03-18T11:01:40Z</time>
      </trkpt>
      <trkpt lat="46.00053" lon="4.84368">
        <ele>259</ele>
        <time>2018-03-18T11:01:41Z</time>
      </trkpt>
      <trkpt lat="46.00051" lon="4.84358">
        <ele>259</ele>
        <time>2018-03-18T11:01:43Z</time>
      </trkpt>
      <trkpt lat="46.0005" lon="4.84353">
        <ele>259</ele>
        <time>2018-03-18T11:01:44Z</time>
      </trkpt>
      <trkpt lat="46.00048" lon="4.84343">
        <ele>259</ele>
        <time>2018-03-18T11:01:46Z</time>
      </trkpt>
      <trkpt lat="46.00046" lon="4.84338">
        <ele>259</ele>
        <time>2018-03-18T11:01:47Z</time>
      </trkpt>
      <trkpt lat="46.00044" lon="4.84328">
        <ele>260</ele>
        <time>2018-03-18T11:01:49Z</time>
      </trkpt>
      <trkpt lat="46.00043" lon="4.84323">
        <ele>260</ele>
        <time>2018-03-18T11:01:50Z</time>
      </trkpt>
      <trkpt lat="46.00039" lon="4.84312">
        <ele>259</ele>
        <time>2018-03-18T11:01:52Z</time>
      </trkpt>
      <trkpt lat="46.00038" lon="4.84306">
        <ele>259</ele>
        <time>2018-03-18T11:01:53Z</time>
      </trkpt>
      <trkpt lat="46.00034" lon="4.84295">
        <ele>259</ele>
        <time>2018-03-18T11:01:55Z</time>
      </trkpt>
      <trkpt lat="46.00032" lon="4.84288">
        <ele>260</ele>
        <time>2018-03-18T11:01:56Z</time>
      </trkpt>
      <trkpt lat="46.00029" lon="4.84281">
        <ele>260</ele>
        <time>2018-03-18T11:01:57Z</time>
      </trkpt>
      <trkpt lat="46.00027" lon="4.84275">
        <ele>260</ele>
        <time>2018-03-18T11:01:58Z</time>
      </trkpt>
      <trkpt lat="46.00025" lon="4.84268">
        <ele>260</ele>
        <time>2018-03-18T11:01:59Z</time>
      </trkpt>
      <trkpt lat="46.00023" lon="4.84262">
        <ele>260</ele>
        <time>2018-03-18T11:02:00Z</time>
      </trkpt>
      <trkpt lat="46.00021" lon="4.84254">
        <ele>260</ele>
        <time>2018-03-18T11:02:01Z</time>
      </trkpt>
      <trkpt lat="46.00019" lon="4.84247">
        <ele>259</ele>
        <time>2018-03-18T11:02:02Z</time>
      </trkpt>
      <trkpt lat="46.00017" lon="4.8424">
        <ele>259</ele>
        <time>2018-03-18T11:02:03Z</time>
      </trkpt>
      <trkpt lat="46.00016" lon="4.84233">
        <ele>259</ele>
        <time>2018-03-18T11:02:04Z</time>
      </trkpt>
      <trkpt lat="46.00014" lon="4.84226">
        <ele>259</ele>
        <time>2018-03-18T11:02:05Z</time>
      </trkpt>
      <trkpt lat="46.00011" lon="4.84219">
        <ele>259</ele>
        <time>2018-03-18T11:02:06Z</time>
      </trkpt>
      <trkpt lat="46.00009" lon="4.84213">
        <ele>259</ele>
        <time>2018-03-18T11:02:07Z</time>
      </trkpt>
      <trkpt lat="46.00008" lon="4.84205">
        <ele>259</ele>
        <time>2018-03-18T11:02:08Z</time>
      </trkpt>
      <trkpt lat="46.00006" lon="4.84197">
        <ele>258</ele>
        <time>2018-03-18T11:02:09Z</time>
      </trkpt>
      <trkpt lat="46.00004" lon="4.8419">
        <ele>258</ele>
        <time>2018-03-18T11:02:10Z</time>
      </trkpt>
      <trkpt lat="46.00002" lon="4.84183">
        <ele>258</ele>
        <time>2018-03-18T11:02:11Z</time>
      </trkpt>
      <trkpt lat="45.99999" lon="4.84175">
        <ele>257</ele>
        <time>2018-03-18T11:02:12Z</time>
      </trkpt>
      <trkpt lat="45.99997" lon="4.84168">
        <ele>257</ele>
        <time>2018-03-18T11:02:13Z</time>
      </trkpt>
      <trkpt lat="45.99995" lon="4.8416">
        <ele>257</ele>
        <time>2018-03-18T11:02:14Z</time>
      </trkpt>
      <trkpt lat="45.99993" lon="4.84153">
        <ele>257</ele>
        <time>2018-03-18T11:02:15Z</time>
      </trkpt>
      <trkpt lat="45.99991" lon="4.84146">
        <ele>257</ele>
        <time>2018-03-18T11:02:16Z</time>
      </trkpt>
      <trkpt lat="45.9999" lon="4.84138">
        <ele>257</ele>
        <time>2018-03-18T11:02:17Z</time>
      </trkpt>
      <trkpt lat="45.99988" lon="4.84131">
        <ele>257</ele>
        <time>2018-03-18T11:02:18Z</time>
      </trkpt>
      <trkpt lat="45.99985" lon="4.84125">
        <ele>257</ele>
        <time>2018-03-18T11:02:19Z</time>
      </trkpt>
      <trkpt lat="45.99984" lon="4.84118">
        <ele>258</ele>
        <time>2018-03-18T11:02:20Z</time>
      </trkpt>
      <trkpt lat="45.99981" lon="4.84111">
        <ele>258</ele>
        <time>2018-03-18T11:02:21Z</time>
      </trkpt>
      <trkpt lat="45.9998" lon="4.84104">
        <ele>258</ele>
        <time>2018-03-18T11:02:22Z</time>
      </trkpt>
      <trkpt lat="45.99978" lon="4.84097">
        <ele>258</ele>
        <time>2018-03-18T11:02:23Z</time>
      </trkpt>
      <trkpt lat="45.99975" lon="4.84091">
        <ele>258</ele>
        <time>2018-03-18T11:02:24Z</time>
      </trkpt>
      <trkpt lat="45.99974" lon="4.84084">
        <ele>258</ele>
        <time>2018-03-18T11:02:25Z</time>
      </trkpt>
      <trkpt lat="45.99971" lon="4.84077">
        <ele>259</ele>
        <time>2018-03-18T11:02:26Z</time>
      </trkpt>
      <trkpt lat="45.9997" lon="4.8407">
        <ele>259</ele>
        <time>2018-03-18T11:02:27Z</time>
      </trkpt>
      <trkpt lat="45.99968" lon="4.84063">
        <ele>259</ele>
        <time>2018-03-18T11:02:28Z</time>
      </trkpt>
      <trkpt lat="45.99965" lon="4.84057">
        <ele>259</ele>
        <time>2018-03-18T11:02:29Z</time>
      </trkpt>
      <trkpt lat="45.99963" lon="4.8405">
        <ele>259</ele>
        <time>2018-03-18T11:02:30Z</time>
      </trkpt>
      <trkpt lat="45.99962" lon="4.84044">
        <ele>259</ele>
        <time>2018-03-18T11:02:31Z</time>
      </trkpt>
      <trkpt lat="45.99961" lon="4.84037">
        <ele>259</ele>
        <time>2018-03-18T11:02:32Z</time>
      </trkpt>
      <trkpt lat="45.9996" lon="4.84028">
        <ele>259</ele>
        <time>2018-03-18T11:02:33Z</time>
      </trkpt>
      <trkpt lat="45.99958" lon="4.84021">
        <ele>259</ele>
        <time>2018-03-18T11:02:34Z</time>
      </trkpt>
      <trkpt lat="45.99956" lon="4.84014">
        <ele>259</ele>
        <time>2018-03-18T11:02:35Z</time>
      </trkpt>
      <trkpt lat="45.99954" lon="4.84008">
        <ele>259</ele>
        <time>2018-03-18T11:02:36Z</time>
      </trkpt>
      <trkpt lat="45.99954" lon="4.84001">
        <ele>259</ele>
        <time>2018-03-18T11:02:37Z</time>
      </trkpt>
      <trkpt lat="45.99954" lon="4.83993">
        <ele>259</ele>
        <time>2018-03-18T11:02:38Z</time>
      </trkpt>
      <trkpt lat="45.99951" lon="4.83985">
        <ele>259</ele>
        <time>2018-03-18T11:02:39Z</time>
      </trkpt>
      <trkpt lat="45.99949" lon="4.83979">
        <ele>259</ele>
        <time>2018-03-18T11:02:40Z</time>
      </trkpt>
      <trkpt lat="45.99947" lon="4.83972">
        <ele>259</ele>
        <time>2018-03-18T11:02:41Z</time>
      </trkpt>
      <trkpt lat="45.99945" lon="4.83965">
        <ele>259</ele>
        <time>2018-03-18T11:02:42Z</time>
      </trkpt>
      <trkpt lat="45.99943" lon="4.83958">
        <ele>259</ele>
        <time>2018-03-18T11:02:43Z</time>
      </trkpt>
      <trkpt lat="45.99941" lon="4.83951">
        <ele>259</ele>
        <time>2018-03-18T11:02:44Z</time>
      </trkpt>
      <trkpt lat="45.9994" lon="4.83944">
        <ele>259</ele>
        <time>2018-03-18T11:02:45Z</time>
      </trkpt>
      <trkpt lat="45.99937" lon="4.83937">
        <ele>259</ele>
        <time>2018-03-18T11:02:46Z</time>
      </trkpt>
      <trkpt lat="45.99935" lon="4.83929">
        <ele>259</ele>
        <time>2018-03-18T11:02:47Z</time>
      </trkpt>
      <trkpt lat="45.99933" lon="4.83921">
        <ele>259</ele>
        <time>2018-03-18T11:02:48Z</time>
      </trkpt>
      <trkpt lat="45.9993" lon="4.83913">
        <ele>259</ele>
        <time>2018-03-18T11:02:49Z</time>
      </trkpt>
      <trkpt lat="45.99928" lon="4.83906">
        <ele>259</ele>
        <time>2018-03-18T11:02:50Z</time>
      </trkpt>
      <trkpt lat="45.99926" lon="4.83898">
        <ele>259</ele>
        <time>2018-03-18T11:02:51Z</time>
      </trkpt>
      <trkpt lat="45.99924" lon="4.83892">
        <ele>259</ele>
        <time>2018-03-18T11:02:52Z</time>
      </trkpt>
      <trkpt lat="45.99921" lon="4.83885">
        <ele>259</ele>
        <time>2018-03-18T11:02:53Z</time>
      </trkpt>
      <trkpt lat="45.99919" lon="4.83878">
        <ele>259</ele>
        <time>2018-03-18T11:02:54Z</time>
      </trkpt>
      <trkpt lat="45.99917" lon="4.83871">
        <ele>259</ele>
        <time>2018-03-18T11:02:55Z</time>
      </trkpt>
      <trkpt lat="45.99914" lon="4.83865">
        <ele>258</ele>
        <time>2018-03-18T11:02:56Z</time>
      </trkpt>
      <trkpt lat="45.99912" lon="4.83857">
        <ele>258</ele>
        <time>2018-03-18T11:02:57Z</time>
      </trkpt>
      <trkpt lat="45.99911" lon="4.8385">
        <ele>258</ele>
        <time>2018-03-18T11:02:58Z</time>
      </trkpt>
      <trkpt lat="45.99909" lon="4.83843">
        <ele>258</ele>
        <time>2018-03-18T11:02:59Z</time>
      </trkpt>
      <trkpt lat="45.99907" lon="4.83836">
        <ele>258</ele>
        <time>2018-03-18T11:03:00Z</time>
      </trkpt>
      <trkpt lat="45.99906" lon="4.83829">
        <ele>257</ele>
        <time>2018-03-18T11:03:01Z</time>
      </trkpt>
      <trkpt lat="45.99903" lon="4.83823">
        <ele>257</ele>
        <time>2018-03-18T11:03:02Z</time>
      </trkpt>
      <trkpt lat="45.99901" lon="4.83815">
        <ele>257</ele>
        <time>2018-03-18T11:03:03Z</time>
      </trkpt>
      <trkpt lat="45.99899" lon="4.83808">
        <ele>257</ele>
        <time>2018-03-18T11:03:04Z</time>
      </trkpt>
      <trkpt lat="45.99897" lon="4.838">
        <ele>257</ele>
        <time>2018-03-18T11:03:05Z</time>
      </trkpt>
      <trkpt lat="45.99894" lon="4.83793">
        <ele>257</ele>
        <time>2018-03-18T11:03:06Z</time>
      </trkpt>
      <trkpt lat="45.99892" lon="4.83786">
        <ele>257</ele>
        <time>2018-03-18T11:03:07Z</time>
      </trkpt>
      <trkpt lat="45.9989" lon="4.8378">
        <ele>257</ele>
        <time>2018-03-18T11:03:08Z</time>
      </trkpt>
      <trkpt lat="45.99887" lon="4.83771">
        <ele>257</ele>
        <time>2018-03-18T11:03:09Z</time>
      </trkpt>
      <trkpt lat="45.99885" lon="4.83763">
        <ele>257</ele>
        <time>2018-03-18T11:03:10Z</time>
      </trkpt>
      <trkpt lat="45.99882" lon="4.83754">
        <ele>256</ele>
        <time>2018-03-18T11:03:11Z</time>
      </trkpt>
      <trkpt lat="45.9988" lon="4.83748">
        <ele>256</ele>
        <time>2018-03-18T11:03:12Z</time>
      </trkpt>
      <trkpt lat="45.99878" lon="4.8374">
        <ele>256</ele>
        <time>2018-03-18T11:03:13Z</time>
      </trkpt>
      <trkpt lat="45.99877" lon="4.83733">
        <ele>256</ele>
        <time>2018-03-18T11:03:14Z</time>
      </trkpt>
      <trkpt lat="45.99875" lon="4.83726">
        <ele>256</ele>
        <time>2018-03-18T11:03:15Z</time>
      </trkpt>
      <trkpt lat="45.99873" lon="4.83718">
        <ele>256</ele>
        <time>2018-03-18T11:03:16Z</time>
      </trkpt>
      <trkpt lat="45.99871" lon="4.83711">
        <ele>256</ele>
        <time>2018-03-18T11:03:17Z</time>
      </trkpt>
      <trkpt lat="45.9987" lon="4.83705">
        <ele>256</ele>
        <time>2018-03-18T11:03:18Z</time>
      </trkpt>
      <trkpt lat="45.99865" lon="4.83694">
        <ele>256</ele>
        <time>2018-03-18T11:03:20Z</time>
      </trkpt>
      <trkpt lat="45.99864" lon="4.83687">
        <ele>256</ele>
        <time>2018-03-18T11:03:21Z</time>
      </trkpt>
      <trkpt lat="45.99863" lon="4.83679">
        <ele>256</ele>
        <time>2018-03-18T11:03:22Z</time>
      </trkpt>
      <trkpt lat="45.9986" lon="4.83672">
        <ele>256</ele>
        <time>2018-03-18T11:03:23Z</time>
      </trkpt>
      <trkpt lat="45.99858" lon="4.83665">
        <ele>257</ele>
        <time>2018-03-18T11:03:24Z</time>
      </trkpt>
      <trkpt lat="45.99857" lon="4.83658">
        <ele>257</ele>
        <time>2018-03-18T11:03:25Z</time>
      </trkpt>
      <trkpt lat="45.99855" lon="4.83651">
        <ele>257</ele>
        <time>2018-03-18T11:03:26Z</time>
      </trkpt>
      <trkpt lat="45.99854" lon="4.83644">
        <ele>257</ele>
        <time>2018-03-18T11:03:27Z</time>
      </trkpt>
      <trkpt lat="45.99852" lon="4.83637">
        <ele>257</ele>
        <time>2018-03-18T11:03:28Z</time>
      </trkpt>
      <trkpt lat="45.99851" lon="4.83632">
        <ele>257</ele>
        <time>2018-03-18T11:03:29Z</time>
      </trkpt>
      <trkpt lat="45.9985" lon="4.83625">
        <ele>257</ele>
        <time>2018-03-18T11:03:30Z</time>
      </trkpt>
      <trkpt lat="45.99848" lon="4.83618">
        <ele>257</ele>
        <time>2018-03-18T11:03:31Z</time>
      </trkpt>
      <trkpt lat="45.99846" lon="4.83611">
        <ele>257</ele>
        <time>2018-03-18T11:03:32Z</time>
      </trkpt>
      <trkpt lat="45.99844" lon="4.83604">
        <ele>257</ele>
        <time>2018-03-18T11:03:33Z</time>
      </trkpt>
      <trkpt lat="45.99841" lon="4.83598">
        <ele>257</ele>
        <time>2018-03-18T11:03:34Z</time>
      </trkpt>
      <trkpt lat="45.99841" lon="4.83591">
        <ele>257</ele>
        <time>2018-03-18T11:03:35Z</time>
      </trkpt>
      <trkpt lat="45.99838" lon="4.83585">
        <ele>257</ele>
        <time>2018-03-18T11:03:36Z</time>
      </trkpt>
      <trkpt lat="45.99837" lon="4.83579">
        <ele>257</ele>
        <time>2018-03-18T11:03:37Z</time>
      </trkpt>
      <trkpt lat="45.99835" lon="4.83572">
        <ele>257</ele>
        <time>2018-03-18T11:03:38Z</time>
      </trkpt>
      <trkpt lat="45.99833" lon="4.83565">
        <ele>258</ele>
        <time>2018-03-18T11:03:39Z</time>
      </trkpt>
      <trkpt lat="45.99832" lon="4.83559">
        <ele>258</ele>
        <time>2018-03-18T11:03:40Z</time>
      </trkpt>
      <trkpt lat="45.99831" lon="4.83552">
        <ele>258</ele>
        <time>2018-03-18T11:03:41Z</time>
      </trkpt>
      <trkpt lat="45.99831" lon="4.83545">
        <ele>259</ele>
        <time>2018-03-18T11:03:42Z</time>
      </trkpt>
      <trkpt lat="45.99829" lon="4.83538">
        <ele>259</ele>
        <time>2018-03-18T11:03:43Z</time>
      </trkpt>
      <trkpt lat="45.99828" lon="4.83531">
        <ele>259</ele>
        <time>2018-03-18T11:03:44Z</time>
      </trkpt>
      <trkpt lat="45.99825" lon="4.83524">
        <ele>259</ele>
        <time>2018-03-18T11:03:45Z</time>
      </trkpt>
      <trkpt lat="45.99823" lon="4.83513">
        <ele>259</ele>
        <time>2018-03-18T11:03:47Z</time>
      </trkpt>
      <trkpt lat="45.99821" lon="4.83507">
        <ele>259</ele>
        <time>2018-03-18T11:03:48Z</time>
      </trkpt>
      <trkpt lat="45.99819" lon="4.83501">
        <ele>259</ele>
        <time>2018-03-18T11:03:49Z</time>
      </trkpt>
      <trkpt lat="45.99818" lon="4.83495">
        <ele>260</ele>
        <time>2018-03-18T11:03:50Z</time>
      </trkpt>
      <trkpt lat="45.99816" lon="4.83482">
        <ele>260</ele>
        <time>2018-03-18T11:03:52Z</time>
      </trkpt>
      <trkpt lat="45.99815" lon="4.83476">
        <ele>260</ele>
        <time>2018-03-18T11:03:53Z</time>
      </trkpt>
      <trkpt lat="45.99812" lon="4.83465">
        <ele>260</ele>
        <time>2018-03-18T11:03:55Z</time>
      </trkpt>
      <trkpt lat="45.99811" lon="4.83459">
        <ele>261</ele>
        <time>2018-03-18T11:03:56Z</time>
      </trkpt>
      <trkpt lat="45.99808" lon="4.83447">
        <ele>261</ele>
        <time>2018-03-18T11:03:58Z</time>
      </trkpt>
      <trkpt lat="45.99806" lon="4.83442">
        <ele>261</ele>
        <time>2018-03-18T11:03:59Z</time>
      </trkpt>
      <trkpt lat="45.99803" lon="4.83431">
        <ele>261</ele>
        <time>2018-03-18T11:04:01Z</time>
      </trkpt>
      <trkpt lat="45.99802" lon="4.83425">
        <ele>261</ele>
        <time>2018-03-18T11:04:02Z</time>
      </trkpt>
      <trkpt lat="45.99801" lon="4.83414">
        <ele>262</ele>
        <time>2018-03-18T11:04:04Z</time>
      </trkpt>
      <trkpt lat="45.998" lon="4.83408">
        <ele>262</ele>
        <time>2018-03-18T11:04:05Z</time>
      </trkpt>
      <trkpt lat="45.99797" lon="4.83397">
        <ele>262</ele>
        <time>2018-03-18T11:04:07Z</time>
      </trkpt>
      <trkpt lat="45.99795" lon="4.83392">
        <ele>262</ele>
        <time>2018-03-18T11:04:08Z</time>
      </trkpt>
      <trkpt lat="45.99793" lon="4.83382">
        <ele>262</ele>
        <time>2018-03-18T11:04:10Z</time>
      </trkpt>
      <trkpt lat="45.99792" lon="4.83376">
        <ele>262</ele>
        <time>2018-03-18T11:04:11Z</time>
      </trkpt>
      <trkpt lat="45.9979" lon="4.83364">
        <ele>262</ele>
        <time>2018-03-18T11:04:13Z</time>
      </trkpt>
      <trkpt lat="45.99789" lon="4.83358">
        <ele>262</ele>
        <time>2018-03-18T11:04:14Z</time>
      </trkpt>
      <trkpt lat="45.99787" lon="4.83346">
        <ele>262</ele>
        <time>2018-03-18T11:04:16Z</time>
      </trkpt>
      <trkpt lat="45.99786" lon="4.83341">
        <ele>263</ele>
        <time>2018-03-18T11:04:17Z</time>
      </trkpt>
      <trkpt lat="45.99784" lon="4.8333">
        <ele>264</ele>
        <time>2018-03-18T11:04:19Z</time>
      </trkpt>
      <trkpt lat="45.99784" lon="4.83325">
        <ele>264</ele>
        <time>2018-03-18T11:04:20Z</time>
      </trkpt>
      <trkpt lat="45.99782" lon="4.83315">
        <ele>264</ele>
        <time>2018-03-18T11:04:22Z</time>
      </trkpt>
      <trkpt lat="45.99781" lon="4.8331">
        <ele>264</ele>
        <time>2018-03-18T11:04:23Z</time>
      </trkpt>
      <trkpt lat="45.9978" lon="4.83299">
        <ele>264</ele>
        <time>2018-03-18T11:04:25Z</time>
      </trkpt>
      <trkpt lat="45.99779" lon="4.83294">
        <ele>264</ele>
        <time>2018-03-18T11:04:26Z</time>
      </trkpt>
      <trkpt lat="45.99778" lon="4.83283">
        <ele>265</ele>
        <time>2018-03-18T11:04:28Z</time>
      </trkpt>
      <trkpt lat="45.99778" lon="4.83278">
        <ele>265</ele>
        <time>2018-03-18T11:04:29Z</time>
      </trkpt>
      <trkpt lat="45.99777" lon="4.83267">
        <ele>265</ele>
        <time>2018-03-18T11:04:31Z</time>
      </trkpt>
      <trkpt lat="45.99776" lon="4.83262">
        <ele>265</ele>
        <time>2018-03-18T11:04:32Z</time>
      </trkpt>
      <trkpt lat="45.99776" lon="4.83251">
        <ele>265</ele>
        <time>2018-03-18T11:04:34Z</time>
      </trkpt>
      <trkpt lat="45.99775" lon="4.83245">
        <ele>267</ele>
        <time>2018-03-18T11:04:35Z</time>
      </trkpt>
      <trkpt lat="45.99774" lon="4.83234">
        <ele>267</ele>
        <time>2018-03-18T11:04:37Z</time>
      </trkpt>
      <trkpt lat="45.99774" lon="4.83229">
        <ele>267</ele>
        <time>2018-03-18T11:04:38Z</time>
      </trkpt>
      <trkpt lat="45.99772" lon="4.83219">
        <ele>268</ele>
        <time>2018-03-18T11:04:40Z</time>
      </trkpt>
      <trkpt lat="45.99771" lon="4.83214">
        <ele>268</ele>
        <time>2018-03-18T11:04:41Z</time>
      </trkpt>
      <trkpt lat="45.9977" lon="4.83204">
        <ele>268</ele>
        <time>2018-03-18T11:04:44Z</time>
      </trkpt>
      <trkpt lat="45.9977" lon="4.832">
        <ele>268</ele>
        <time>2018-03-18T11:04:45Z</time>
      </trkpt>
      <trkpt lat="45.99769" lon="4.83191">
        <ele>269</ele>
        <time>2018-03-18T11:04:47Z</time>
      </trkpt>
      <trkpt lat="45.99769" lon="4.83186">
        <ele>269</ele>
        <time>2018-03-18T11:04:48Z</time>
      </trkpt>
      <trkpt lat="45.99768" lon="4.83173">
        <ele>269</ele>
        <time>2018-03-18T11:04:51Z</time>
      </trkpt>
      <trkpt lat="45.99768" lon="4.83169">
        <ele>269</ele>
        <time>2018-03-18T11:04:52Z</time>
      </trkpt>
      <trkpt lat="45.99768" lon="4.8316">
        <ele>271</ele>
        <time>2018-03-18T11:04:54Z</time>
      </trkpt>
      <trkpt lat="45.99767" lon="4.83156">
        <ele>271</ele>
        <time>2018-03-18T11:04:55Z</time>
      </trkpt>
      <trkpt lat="45.99766" lon="4.83147">
        <ele>271</ele>
        <time>2018-03-18T11:04:57Z</time>
      </trkpt>
      <trkpt lat="45.99766" lon="4.83143">
        <ele>271</ele>
        <time>2018-03-18T11:04:58Z</time>
      </trkpt>
      <trkpt lat="45.99765" lon="4.83134">
        <ele>271</ele>
        <time>2018-03-18T11:05:00Z</time>
      </trkpt>
      <trkpt lat="45.99764" lon="4.8313">
        <ele>271</ele>
        <time>2018-03-18T11:05:01Z</time>
      </trkpt>
      <trkpt lat="45.99763" lon="4.83121">
        <ele>271</ele>
        <time>2018-03-18T11:05:03Z</time>
      </trkpt>
      <trkpt lat="45.99763" lon="4.83117">
        <ele>271</ele>
        <time>2018-03-18T11:05:04Z</time>
      </trkpt>
      <trkpt lat="45.99762" lon="4.83108">
        <ele>271</ele>
        <time>2018-03-18T11:05:06Z</time>
      </trkpt>
      <trkpt lat="45.99761" lon="4.83104">
        <ele>271</ele>
        <time>2018-03-18T11:05:07Z</time>
      </trkpt>
      <trkpt lat="45.99761" lon="4.83091">
        <ele>272</ele>
        <time>2018-03-18T11:05:10Z</time>
      </trkpt>
      <trkpt lat="45.9976" lon="4.83087">
        <ele>272</ele>
        <time>2018-03-18T11:05:11Z</time>
      </trkpt>
      <trkpt lat="45.99759" lon="4.83075">
        <ele>272</ele>
        <time>2018-03-18T11:05:14Z</time>
      </trkpt>
      <trkpt lat="45.99757" lon="4.83071">
        <ele>272</ele>
        <time>2018-03-18T11:05:15Z</time>
      </trkpt>
      <trkpt lat="45.99755" lon="4.83063">
        <ele>272</ele>
        <time>2018-03-18T11:05:17Z</time>
      </trkpt>
      <trkpt lat="45.99753" lon="4.83059">
        <ele>272</ele>
        <time>2018-03-18T11:05:18Z</time>
      </trkpt>
      <trkpt lat="45.9975" lon="4.83048">
        <ele>271</ele>
        <time>2018-03-18T11:05:21Z</time>
      </trkpt>
      <trkpt lat="45.99749" lon="4.83045">
        <ele>271</ele>
        <time>2018-03-18T11:05:22Z</time>
      </trkpt>
      <trkpt lat="45.99745" lon="4.83034">
        <ele>271</ele>
        <time>2018-03-18T11:05:25Z</time>
      </trkpt>
      <trkpt lat="45.99744" lon="4.8303">
        <ele>271</ele>
        <time>2018-03-18T11:05:26Z</time>
      </trkpt>
      <trkpt lat="45.99742" lon="4.83022">
        <ele>271</ele>
        <time>2018-03-18T11:05:28Z</time>
      </trkpt>
      <trkpt lat="45.99741" lon="4.83018">
        <ele>271</ele>
        <time>2018-03-18T11:05:29Z</time>
      </trkpt>
      <trkpt lat="45.99739" lon="4.83009">
        <ele>271</ele>
        <time>2018-03-18T11:05:31Z</time>
      </trkpt>
      <trkpt lat="45.99738" lon="4.83005">
        <ele>271</ele>
        <time>2018-03-18T11:05:32Z</time>
      </trkpt>
      <trkpt lat="45.99736" lon="4.82997">
        <ele>271</ele>
        <time>2018-03-18T11:05:34Z</time>
      </trkpt>
      <trkpt lat="45.99735" lon="4.82992">
        <ele>271</ele>
        <time>2018-03-18T11:05:35Z</time>
      </trkpt>
      <trkpt lat="45.99733" lon="4.82983">
        <ele>271</ele>
        <time>2018-03-18T11:05:37Z</time>
      </trkpt>
      <trkpt lat="45.99732" lon="4.82978">
        <ele>271</ele>
        <time>2018-03-18T11:05:38Z</time>
      </trkpt>
      <trkpt lat="45.99728" lon="4.82964">
        <ele>271</ele>
        <time>2018-03-18T11:05:39Z</time>
      </trkpt>
      <trkpt lat="45.99725" lon="4.82954">
        <ele>271</ele>
        <time>2018-03-18T11:05:41Z</time>
      </trkpt>
      <trkpt lat="45.99724" lon="4.82949">
        <ele>271</ele>
        <time>2018-03-18T11:05:42Z</time>
      </trkpt>
      <trkpt lat="45.9972" lon="4.82938">
        <ele>271</ele>
        <time>2018-03-18T11:05:44Z</time>
      </trkpt>
      <trkpt lat="45.99719" lon="4.82932">
        <ele>271</ele>
        <time>2018-03-18T11:05:45Z</time>
      </trkpt>
      <trkpt lat="45.99717" lon="4.82924">
        <ele>271</ele>
        <time>2018-03-18T11:05:46Z</time>
      </trkpt>
      <trkpt lat="45.99714" lon="4.82918">
        <ele>271</ele>
        <time>2018-03-18T11:05:47Z</time>
      </trkpt>
      <trkpt lat="45.99712" lon="4.82912">
        <ele>271</ele>
        <time>2018-03-18T11:05:48Z</time>
      </trkpt>
      <trkpt lat="45.99711" lon="4.82906">
        <ele>271</ele>
        <time>2018-03-18T11:05:49Z</time>
      </trkpt>
      <trkpt lat="45.99709" lon="4.82898">
        <ele>271</ele>
        <time>2018-03-18T11:05:50Z</time>
      </trkpt>
      <trkpt lat="45.99707" lon="4.82891">
        <ele>271</ele>
        <time>2018-03-18T11:05:51Z</time>
      </trkpt>
      <trkpt lat="45.99705" lon="4.82884">
        <ele>271</ele>
        <time>2018-03-18T11:05:52Z</time>
      </trkpt>
      <trkpt lat="45.99703" lon="4.82878">
        <ele>271</ele>
        <time>2018-03-18T11:05:53Z</time>
      </trkpt>
      <trkpt lat="45.99701" lon="4.82871">
        <ele>270</ele>
        <time>2018-03-18T11:05:54Z</time>
      </trkpt>
      <trkpt lat="45.99699" lon="4.82865">
        <ele>270</ele>
        <time>2018-03-18T11:05:55Z</time>
      </trkpt>
      <trkpt lat="45.99696" lon="4.82858">
        <ele>270</ele>
        <time>2018-03-18T11:05:56Z</time>
      </trkpt>
      <trkpt lat="45.99695" lon="4.82851">
        <ele>270</ele>
        <time>2018-03-18T11:05:57Z</time>
      </trkpt>
      <trkpt lat="45.99693" lon="4.82845">
        <ele>270</ele>
        <time>2018-03-18T11:05:58Z</time>
      </trkpt>
      <trkpt lat="45.99691" lon="4.82839">
        <ele>270</ele>
        <time>2018-03-18T11:05:59Z</time>
      </trkpt>
      <trkpt lat="45.99689" lon="4.82831">
        <ele>270</ele>
        <time>2018-03-18T11:06:00Z</time>
      </trkpt>
      <trkpt lat="45.99688" lon="4.82823">
        <ele>270</ele>
        <time>2018-03-18T11:06:01Z</time>
      </trkpt>
      <trkpt lat="45.99686" lon="4.82815">
        <ele>270</ele>
        <time>2018-03-18T11:06:02Z</time>
      </trkpt>
      <trkpt lat="45.99684" lon="4.82807">
        <ele>270</ele>
        <time>2018-03-18T11:06:03Z</time>
      </trkpt>
      <trkpt lat="45.99681" lon="4.82799">
        <ele>270</ele>
        <time>2018-03-18T11:06:04Z</time>
      </trkpt>
      <trkpt lat="45.99679" lon="4.82791">
        <ele>269</ele>
        <time>2018-03-18T11:06:05Z</time>
      </trkpt>
      <trkpt lat="45.99678" lon="4.82784">
        <ele>269</ele>
        <time>2018-03-18T11:06:06Z</time>
      </trkpt>
      <trkpt lat="45.99676" lon="4.82776">
        <ele>269</ele>
        <time>2018-03-18T11:06:07Z</time>
      </trkpt>
      <trkpt lat="45.99676" lon="4.82768">
        <ele>269</ele>
        <time>2018-03-18T11:06:08Z</time>
      </trkpt>
      <trkpt lat="45.99676" lon="4.8276">
        <ele>269</ele>
        <time>2018-03-18T11:06:09Z</time>
      </trkpt>
      <trkpt lat="45.99675" lon="4.82753">
        <ele>269</ele>
        <time>2018-03-18T11:06:10Z</time>
      </trkpt>
      <trkpt lat="45.99673" lon="4.82746">
        <ele>269</ele>
        <time>2018-03-18T11:06:11Z</time>
      </trkpt>
      <trkpt lat="45.99672" lon="4.82735">
        <ele>269</ele>
        <time>2018-03-18T11:06:12Z</time>
      </trkpt>
      <trkpt lat="45.99671" lon="4.82727">
        <ele>269</ele>
        <time>2018-03-18T11:06:13Z</time>
      </trkpt>
      <trkpt lat="45.9967" lon="4.82718">
        <ele>269</ele>
        <time>2018-03-18T11:06:14Z</time>
      </trkpt>
      <trkpt lat="45.99669" lon="4.82709">
        <ele>269</ele>
        <time>2018-03-18T11:06:15Z</time>
      </trkpt>
      <trkpt lat="45.99667" lon="4.82701">
        <ele>268</ele>
        <time>2018-03-18T11:06:16Z</time>
      </trkpt>
      <trkpt lat="45.99666" lon="4.82692">
        <ele>268</ele>
        <time>2018-03-18T11:06:17Z</time>
      </trkpt>
      <trkpt lat="45.99664" lon="4.82683">
        <ele>268</ele>
        <time>2018-03-18T11:06:18Z</time>
      </trkpt>
      <trkpt lat="45.99662" lon="4.82675">
        <ele>268</ele>
        <time>2018-03-18T11:06:19Z</time>
      </trkpt>
      <trkpt lat="45.9966" lon="4.82667">
        <ele>269</ele>
        <time>2018-03-18T11:06:20Z</time>
      </trkpt>
      <trkpt lat="45.9966" lon="4.82659">
        <ele>268</ele>
        <time>2018-03-18T11:06:21Z</time>
      </trkpt>
      <trkpt lat="45.99659" lon="4.82652">
        <ele>268</ele>
        <time>2018-03-18T11:06:22Z</time>
      </trkpt>
      <trkpt lat="45.99659" lon="4.82644">
        <ele>267</ele>
        <time>2018-03-18T11:06:23Z</time>
      </trkpt>
      <trkpt lat="45.99657" lon="4.82636">
        <ele>267</ele>
        <time>2018-03-18T11:06:24Z</time>
      </trkpt>
      <trkpt lat="45.99656" lon="4.82629">
        <ele>267</ele>
        <time>2018-03-18T11:06:25Z</time>
      </trkpt>
      <trkpt lat="45.99653" lon="4.82622">
        <ele>267</ele>
        <time>2018-03-18T11:06:26Z</time>
      </trkpt>
      <trkpt lat="45.99652" lon="4.82613">
        <ele>267</ele>
        <time>2018-03-18T11:06:27Z</time>
      </trkpt>
      <trkpt lat="45.9965" lon="4.82606">
        <ele>267</ele>
        <time>2018-03-18T11:06:28Z</time>
      </trkpt>
      <trkpt lat="45.99649" lon="4.82598">
        <ele>267</ele>
        <time>2018-03-18T11:06:29Z</time>
      </trkpt>
      <trkpt lat="45.99646" lon="4.8259">
        <ele>267</ele>
        <time>2018-03-18T11:06:30Z</time>
      </trkpt>
      <trkpt lat="45.99644" lon="4.82581">
        <ele>266</ele>
        <time>2018-03-18T11:06:31Z</time>
      </trkpt>
      <trkpt lat="45.99642" lon="4.82573">
        <ele>266</ele>
        <time>2018-03-18T11:06:32Z</time>
      </trkpt>
      <trkpt lat="45.9964" lon="4.82565">
        <ele>266</ele>
        <time>2018-03-18T11:06:33Z</time>
      </trkpt>
      <trkpt lat="45.99638" lon="4.82556">
        <ele>266</ele>
        <time>2018-03-18T11:06:34Z</time>
      </trkpt>
      <trkpt lat="45.99638" lon="4.82547">
        <ele>266</ele>
        <time>2018-03-18T11:06:35Z</time>
      </trkpt>
      <trkpt lat="45.99637" lon="4.82538">
        <ele>266</ele>
        <time>2018-03-18T11:06:36Z</time>
      </trkpt>
      <trkpt lat="45.99635" lon="4.8253">
        <ele>266</ele>
        <time>2018-03-18T11:06:37Z</time>
      </trkpt>
      <trkpt lat="45.99633" lon="4.82522">
        <ele>266</ele>
        <time>2018-03-18T11:06:38Z</time>
      </trkpt>
      <trkpt lat="45.9963" lon="4.82514">
        <ele>265</ele>
        <time>2018-03-18T11:06:39Z</time>
      </trkpt>
      <trkpt lat="45.99629" lon="4.82503">
        <ele>265</ele>
        <time>2018-03-18T11:06:40Z</time>
      </trkpt>
      <trkpt lat="45.99626" lon="4.82496">
        <ele>265</ele>
        <time>2018-03-18T11:06:41Z</time>
      </trkpt>
      <trkpt lat="45.99624" lon="4.82488">
        <ele>265</ele>
        <time>2018-03-18T11:06:42Z</time>
      </trkpt>
      <trkpt lat="45.9962" lon="4.8248">
        <ele>265</ele>
        <time>2018-03-18T11:06:43Z</time>
      </trkpt>
      <trkpt lat="45.99617" lon="4.82472">
        <ele>265</ele>
        <time>2018-03-18T11:06:44Z</time>
      </trkpt>
      <trkpt lat="45.99614" lon="4.82465">
        <ele>265</ele>
        <time>2018-03-18T11:06:45Z</time>
      </trkpt>
      <trkpt lat="45.9961" lon="4.82457">
        <ele>265</ele>
        <time>2018-03-18T11:06:46Z</time>
      </trkpt>
      <trkpt lat="45.99605" lon="4.82448">
        <ele>264</ele>
        <time>2018-03-18T11:06:47Z</time>
      </trkpt>
      <trkpt lat="45.99602" lon="4.8244">
        <ele>264</ele>
        <time>2018-03-18T11:06:48Z</time>
      </trkpt>
      <trkpt lat="45.99599" lon="4.82432">
        <ele>264</ele>
        <time>2018-03-18T11:06:49Z</time>
      </trkpt>
      <trkpt lat="45.99596" lon="4.82423">
        <ele>263</ele>
        <time>2018-03-18T11:06:50Z</time>
      </trkpt>
      <trkpt lat="45.99593" lon="4.82413">
        <ele>263</ele>
        <time>2018-03-18T11:06:51Z</time>
      </trkpt>
      <trkpt lat="45.99591" lon="4.82404">
        <ele>263</ele>
        <time>2018-03-18T11:06:52Z</time>
      </trkpt>
      <trkpt lat="45.99589" lon="4.82394">
        <ele>264</ele>
        <time>2018-03-18T11:06:53Z</time>
      </trkpt>
      <trkpt lat="45.99588" lon="4.82384">
        <ele>264</ele>
        <time>2018-03-18T11:06:54Z</time>
      </trkpt>
      <trkpt lat="45.99586" lon="4.82374">
        <ele>264</ele>
        <time>2018-03-18T11:06:55Z</time>
      </trkpt>
      <trkpt lat="45.99585" lon="4.82361">
        <ele>264</ele>
        <time>2018-03-18T11:06:56Z</time>
      </trkpt>
      <trkpt lat="45.99584" lon="4.8235">
        <ele>264</ele>
        <time>2018-03-18T11:06:57Z</time>
      </trkpt>
      <trkpt lat="45.99582" lon="4.82337">
        <ele>263</ele>
        <time>2018-03-18T11:06:58Z</time>
      </trkpt>
      <trkpt lat="45.99581" lon="4.82327">
        <ele>262</ele>
        <time>2018-03-18T11:06:59Z</time>
      </trkpt>
      <trkpt lat="45.99579" lon="4.82316">
        <ele>262</ele>
        <time>2018-03-18T11:07:00Z</time>
      </trkpt>
      <trkpt lat="45.99576" lon="4.82306">
        <ele>262</ele>
        <time>2018-03-18T11:07:01Z</time>
      </trkpt>
      <trkpt lat="45.99572" lon="4.82295">
        <ele>262</ele>
        <time>2018-03-18T11:07:02Z</time>
      </trkpt>
      <trkpt lat="45.9957" lon="4.82285">
        <ele>262</ele>
        <time>2018-03-18T11:07:03Z</time>
      </trkpt>
      <trkpt lat="45.99568" lon="4.82277">
        <ele>262</ele>
        <time>2018-03-18T11:07:04Z</time>
      </trkpt>
      <trkpt lat="45.99565" lon="4.82268">
        <ele>262</ele>
        <time>2018-03-18T11:07:05Z</time>
      </trkpt>
      <trkpt lat="45.99564" lon="4.82259">
        <ele>262</ele>
        <time>2018-03-18T11:07:06Z</time>
      </trkpt>
      <trkpt lat="45.99562" lon="4.82251">
        <ele>262</ele>
        <time>2018-03-18T11:07:07Z</time>
      </trkpt>
      <trkpt lat="45.9956" lon="4.82244">
        <ele>262</ele>
        <time>2018-03-18T11:07:08Z</time>
      </trkpt>
      <trkpt lat="45.99558" lon="4.82236">
        <ele>262</ele>
        <time>2018-03-18T11:07:09Z</time>
      </trkpt>
      <trkpt lat="45.99555" lon="4.82228">
        <ele>262</ele>
        <time>2018-03-18T11:07:10Z</time>
      </trkpt>
      <trkpt lat="45.99553" lon="4.8222">
        <ele>262</ele>
        <time>2018-03-18T11:07:11Z</time>
      </trkpt>
      <trkpt lat="45.99552" lon="4.82212">
        <ele>262</ele>
        <time>2018-03-18T11:07:12Z</time>
      </trkpt>
      <trkpt lat="45.9955" lon="4.82204">
        <ele>262</ele>
        <time>2018-03-18T11:07:13Z</time>
      </trkpt>
      <trkpt lat="45.99545" lon="4.82197">
        <ele>262</ele>
        <time>2018-03-18T11:07:14Z</time>
      </trkpt>
      <trkpt lat="45.99542" lon="4.8219">
        <ele>262</ele>
        <time>2018-03-18T11:07:15Z</time>
      </trkpt>
      <trkpt lat="45.9954" lon="4.82182">
        <ele>262</ele>
        <time>2018-03-18T11:07:16Z</time>
      </trkpt>
      <trkpt lat="45.99539" lon="4.82174">
        <ele>262</ele>
        <time>2018-03-18T11:07:17Z</time>
      </trkpt>
      <trkpt lat="45.99537" lon="4.82165">
        <ele>263</ele>
        <time>2018-03-18T11:07:18Z</time>
      </trkpt>
      <trkpt lat="45.99536" lon="4.82157">
        <ele>263</ele>
        <time>2018-03-18T11:07:19Z</time>
      </trkpt>
      <trkpt lat="45.99535" lon="4.82147">
        <ele>263</ele>
        <time>2018-03-18T11:07:20Z</time>
      </trkpt>
      <trkpt lat="45.99534" lon="4.8214">
        <ele>263</ele>
        <time>2018-03-18T11:07:21Z</time>
      </trkpt>
      <trkpt lat="45.99533" lon="4.82132">
        <ele>263</ele>
        <time>2018-03-18T11:07:22Z</time>
      </trkpt>
      <trkpt lat="45.99533" lon="4.82125">
        <ele>263</ele>
        <time>2018-03-18T11:07:23Z</time>
      </trkpt>
      <trkpt lat="45.99531" lon="4.82117">
        <ele>263</ele>
        <time>2018-03-18T11:07:24Z</time>
      </trkpt>
      <trkpt lat="45.99531" lon="4.8211">
        <ele>263</ele>
        <time>2018-03-18T11:07:25Z</time>
      </trkpt>
      <trkpt lat="45.9953" lon="4.82103">
        <ele>263</ele>
        <time>2018-03-18T11:07:26Z</time>
      </trkpt>
      <trkpt lat="45.99529" lon="4.82095">
        <ele>262</ele>
        <time>2018-03-18T11:07:27Z</time>
      </trkpt>
      <trkpt lat="45.99528" lon="4.82087">
        <ele>262</ele>
        <time>2018-03-18T11:07:28Z</time>
      </trkpt>
      <trkpt lat="45.99527" lon="4.8208">
        <ele>262</ele>
        <time>2018-03-18T11:07:29Z</time>
      </trkpt>
      <trkpt lat="45.99525" lon="4.82071">
        <ele>262</ele>
        <time>2018-03-18T11:07:30Z</time>
      </trkpt>
      <trkpt lat="45.99525" lon="4.82063">
        <ele>262</ele>
        <time>2018-03-18T11:07:31Z</time>
      </trkpt>
      <trkpt lat="45.99525" lon="4.82057">
        <ele>262</ele>
        <time>2018-03-18T11:07:32Z</time>
      </trkpt>
      <trkpt lat="45.99525" lon="4.82048">
        <ele>262</ele>
        <time>2018-03-18T11:07:33Z</time>
      </trkpt>
      <trkpt lat="45.99525" lon="4.82038">
        <ele>262</ele>
        <time>2018-03-18T11:07:34Z</time>
      </trkpt>
      <trkpt lat="45.99523" lon="4.82029">
        <ele>262</ele>
        <time>2018-03-18T11:07:35Z</time>
      </trkpt>
      <trkpt lat="45.99521" lon="4.82023">
        <ele>261</ele>
        <time>2018-03-18T11:07:36Z</time>
      </trkpt>
      <trkpt lat="45.99519" lon="4.82015">
        <ele>261</ele>
        <time>2018-03-18T11:07:37Z</time>
      </trkpt>
      <trkpt lat="45.99519" lon="4.82006">
        <ele>261</ele>
        <time>2018-03-18T11:07:38Z</time>
      </trkpt>
      <trkpt lat="45.99518" lon="4.81998">
        <ele>260</ele>
        <time>2018-03-18T11:07:39Z</time>
      </trkpt>
      <trkpt lat="45.99519" lon="4.81989">
        <ele>261</ele>
        <time>2018-03-18T11:07:40Z</time>
      </trkpt>
      <trkpt lat="45.99518" lon="4.81982">
        <ele>261</ele>
        <time>2018-03-18T11:07:41Z</time>
      </trkpt>
      <trkpt lat="45.99516" lon="4.81974">
        <ele>261</ele>
        <time>2018-03-18T11:07:42Z</time>
      </trkpt>
      <trkpt lat="45.99515" lon="4.81966">
        <ele>261</ele>
        <time>2018-03-18T11:07:43Z</time>
      </trkpt>
      <trkpt lat="45.99514" lon="4.81959">
        <ele>261</ele>
        <time>2018-03-18T11:07:44Z</time>
      </trkpt>
      <trkpt lat="45.99511" lon="4.8195">
        <ele>261</ele>
        <time>2018-03-18T11:07:45Z</time>
      </trkpt>
      <trkpt lat="45.9951" lon="4.81942">
        <ele>261</ele>
        <time>2018-03-18T11:07:46Z</time>
      </trkpt>
      <trkpt lat="45.99509" lon="4.81935">
        <ele>260</ele>
        <time>2018-03-18T11:07:47Z</time>
      </trkpt>
      <trkpt lat="45.99509" lon="4.81926">
        <ele>260</ele>
        <time>2018-03-18T11:07:48Z</time>
      </trkpt>
      <trkpt lat="45.99507" lon="4.81919">
        <ele>260</ele>
        <time>2018-03-18T11:07:49Z</time>
      </trkpt>
      <trkpt lat="45.99505" lon="4.8191">
        <ele>260</ele>
        <time>2018-03-18T11:07:50Z</time>
      </trkpt>
      <trkpt lat="45.99504" lon="4.81901">
        <ele>260</ele>
        <time>2018-03-18T11:07:51Z</time>
      </trkpt>
      <trkpt lat="45.99502" lon="4.81893">
        <ele>261</ele>
        <time>2018-03-18T11:07:52Z</time>
      </trkpt>
      <trkpt lat="45.99501" lon="4.81886">
        <ele>261</ele>
        <time>2018-03-18T11:07:53Z</time>
      </trkpt>
      <trkpt lat="45.99501" lon="4.81878">
        <ele>261</ele>
        <time>2018-03-18T11:07:54Z</time>
      </trkpt>
      <trkpt lat="45.995" lon="4.8187">
        <ele>262</ele>
        <time>2018-03-18T11:07:55Z</time>
      </trkpt>
      <trkpt lat="45.995" lon="4.81863">
        <ele>262</ele>
        <time>2018-03-18T11:07:56Z</time>
      </trkpt>
      <trkpt lat="45.995" lon="4.81855">
        <ele>260</ele>
        <time>2018-03-18T11:07:57Z</time>
      </trkpt>
      <trkpt lat="45.99498" lon="4.81847">
        <ele>261</ele>
        <time>2018-03-18T11:07:58Z</time>
      </trkpt>
      <trkpt lat="45.99497" lon="4.81839">
        <ele>261</ele>
        <time>2018-03-18T11:07:59Z</time>
      </trkpt>
      <trkpt lat="45.99496" lon="4.81831">
        <ele>262</ele>
        <time>2018-03-18T11:08:00Z</time>
      </trkpt>
      <trkpt lat="45.99496" lon="4.81823">
        <ele>262</ele>
        <time>2018-03-18T11:08:01Z</time>
      </trkpt>
      <trkpt lat="45.99495" lon="4.81815">
        <ele>262</ele>
        <time>2018-03-18T11:08:02Z</time>
      </trkpt>
      <trkpt lat="45.99494" lon="4.81808">
        <ele>262</ele>
        <time>2018-03-18T11:08:03Z</time>
      </trkpt>
      <trkpt lat="45.99491" lon="4.81798">
        <ele>262</ele>
        <time>2018-03-18T11:08:04Z</time>
      </trkpt>
      <trkpt lat="45.99489" lon="4.81791">
        <ele>262</ele>
        <time>2018-03-18T11:08:05Z</time>
      </trkpt>
      <trkpt lat="45.99487" lon="4.81784">
        <ele>262</ele>
        <time>2018-03-18T11:08:06Z</time>
      </trkpt>
      <trkpt lat="45.99485" lon="4.81777">
        <ele>262</ele>
        <time>2018-03-18T11:08:07Z</time>
      </trkpt>
      <trkpt lat="45.99485" lon="4.81768">
        <ele>262</ele>
        <time>2018-03-18T11:08:08Z</time>
      </trkpt>
      <trkpt lat="45.99484" lon="4.81758">
        <ele>262</ele>
        <time>2018-03-18T11:08:09Z</time>
      </trkpt>
      <trkpt lat="45.99482" lon="4.81749">
        <ele>262</ele>
        <time>2018-03-18T11:08:10Z</time>
      </trkpt>
      <trkpt lat="45.99483" lon="4.81742">
        <ele>261</ele>
        <time>2018-03-18T11:08:11Z</time>
      </trkpt>
      <trkpt lat="45.99483" lon="4.81733">
        <ele>261</ele>
        <time>2018-03-18T11:08:12Z</time>
      </trkpt>
      <trkpt lat="45.99482" lon="4.81723">
        <ele>261</ele>
        <time>2018-03-18T11:08:13Z</time>
      </trkpt>
      <trkpt lat="45.99482" lon="4.81715">
        <ele>261</ele>
        <time>2018-03-18T11:08:14Z</time>
      </trkpt>
      <trkpt lat="45.99481" lon="4.81706">
        <ele>261</ele>
        <time>2018-03-18T11:08:15Z</time>
      </trkpt>
      <trkpt lat="45.99481" lon="4.81698">
        <ele>261</ele>
        <time>2018-03-18T11:08:16Z</time>
      </trkpt>
      <trkpt lat="45.99481" lon="4.81689">
        <ele>261</ele>
        <time>2018-03-18T11:08:17Z</time>
      </trkpt>
      <trkpt lat="45.9948" lon="4.8168">
        <ele>261</ele>
        <time>2018-03-18T11:08:18Z</time>
      </trkpt>
      <trkpt lat="45.99478" lon="4.81672">
        <ele>261</ele>
        <time>2018-03-18T11:08:19Z</time>
      </trkpt>
      <trkpt lat="45.99477" lon="4.81663">
        <ele>259</ele>
        <time>2018-03-18T11:08:20Z</time>
      </trkpt>
      <trkpt lat="45.99475" lon="4.81655">
        <ele>259</ele>
        <time>2018-03-18T11:08:21Z</time>
      </trkpt>
      <trkpt lat="45.99473" lon="4.81645">
        <ele>259</ele>
        <time>2018-03-18T11:08:22Z</time>
      </trkpt>
      <trkpt lat="45.99471" lon="4.81637">
        <ele>258</ele>
        <time>2018-03-18T11:08:23Z</time>
      </trkpt>
      <trkpt lat="45.99471" lon="4.81627">
        <ele>258</ele>
        <time>2018-03-18T11:08:24Z</time>
      </trkpt>
      <trkpt lat="45.99469" lon="4.81619">
        <ele>258</ele>
        <time>2018-03-18T11:08:25Z</time>
      </trkpt>
      <trkpt lat="45.99467" lon="4.81611">
        <ele>258</ele>
        <time>2018-03-18T11:08:26Z</time>
      </trkpt>
      <trkpt lat="45.99467" lon="4.81602">
        <ele>257</ele>
        <time>2018-03-18T11:08:27Z</time>
      </trkpt>
      <trkpt lat="45.99466" lon="4.81594">
        <ele>257</ele>
        <time>2018-03-18T11:08:28Z</time>
      </trkpt>
      <trkpt lat="45.99464" lon="4.81585">
        <ele>257</ele>
        <time>2018-03-18T11:08:29Z</time>
      </trkpt>
      <trkpt lat="45.99462" lon="4.81576">
        <ele>255</ele>
        <time>2018-03-18T11:08:30Z</time>
      </trkpt>
      <trkpt lat="45.99462" lon="4.81567">
        <ele>255</ele>
        <time>2018-03-18T11:08:31Z</time>
      </trkpt>
      <trkpt lat="45.9946" lon="4.81559">
        <ele>255</ele>
        <time>2018-03-18T11:08:32Z</time>
      </trkpt>
      <trkpt lat="45.99459" lon="4.8155">
        <ele>255</ele>
        <time>2018-03-18T11:08:33Z</time>
      </trkpt>
      <trkpt lat="45.99458" lon="4.8154">
        <ele>255</ele>
        <time>2018-03-18T11:08:34Z</time>
      </trkpt>
      <trkpt lat="45.99456" lon="4.81533">
        <ele>255</ele>
        <time>2018-03-18T11:08:35Z</time>
      </trkpt>
      <trkpt lat="45.99455" lon="4.81524">
        <ele>255</ele>
        <time>2018-03-18T11:08:36Z</time>
      </trkpt>
      <trkpt lat="45.99455" lon="4.81516">
        <ele>255</ele>
        <time>2018-03-18T11:08:37Z</time>
      </trkpt>
      <trkpt lat="45.99454" lon="4.81506">
        <ele>255</ele>
        <time>2018-03-18T11:08:38Z</time>
      </trkpt>
      <trkpt lat="45.99453" lon="4.81497">
        <ele>254</ele>
        <time>2018-03-18T11:08:39Z</time>
      </trkpt>
      <trkpt lat="45.99451" lon="4.81487">
        <ele>254</ele>
        <time>2018-03-18T11:08:40Z</time>
      </trkpt>
      <trkpt lat="45.99449" lon="4.81478">
        <ele>254</ele>
        <time>2018-03-18T11:08:41Z</time>
      </trkpt>
      <trkpt lat="45.99448" lon="4.81469">
        <ele>254</ele>
        <time>2018-03-18T11:08:42Z</time>
      </trkpt>
      <trkpt lat="45.99447" lon="4.81459">
        <ele>254</ele>
        <time>2018-03-18T11:08:43Z</time>
      </trkpt>
      <trkpt lat="45.99446" lon="4.8145">
        <ele>254</ele>
        <time>2018-03-18T11:08:44Z</time>
      </trkpt>
      <trkpt lat="45.99445" lon="4.81441">
        <ele>254</ele>
        <time>2018-03-18T11:08:45Z</time>
      </trkpt>
      <trkpt lat="45.99445" lon="4.81432">
        <ele>254</ele>
        <time>2018-03-18T11:08:46Z</time>
      </trkpt>
      <trkpt lat="45.99443" lon="4.81424">
        <ele>254</ele>
        <time>2018-03-18T11:08:47Z</time>
      </trkpt>
      <trkpt lat="45.99442" lon="4.81415">
        <ele>254</ele>
        <time>2018-03-18T11:08:48Z</time>
      </trkpt>
      <trkpt lat="45.99442" lon="4.81407">
        <ele>254</ele>
        <time>2018-03-18T11:08:49Z</time>
      </trkpt>
      <trkpt lat="45.99441" lon="4.81398">
        <ele>254</ele>
        <time>2018-03-18T11:08:50Z</time>
      </trkpt>
      <trkpt lat="45.99439" lon="4.81389">
        <ele>254</ele>
        <time>2018-03-18T11:08:51Z</time>
      </trkpt>
      <trkpt lat="45.99438" lon="4.8138">
        <ele>254</ele>
        <time>2018-03-18T11:08:52Z</time>
      </trkpt>
      <trkpt lat="45.99436" lon="4.81372">
        <ele>254</ele>
        <time>2018-03-18T11:08:53Z</time>
      </trkpt>
      <trkpt lat="45.99436" lon="4.81363">
        <ele>254</ele>
        <time>2018-03-18T11:08:54Z</time>
      </trkpt>
      <trkpt lat="45.99434" lon="4.81353">
        <ele>254</ele>
        <time>2018-03-18T11:08:55Z</time>
      </trkpt>
      <trkpt lat="45.99433" lon="4.81344">
        <ele>254</ele>
        <time>2018-03-18T11:08:56Z</time>
      </trkpt>
      <trkpt lat="45.99431" lon="4.81336">
        <ele>254</ele>
        <time>2018-03-18T11:08:57Z</time>
      </trkpt>
      <trkpt lat="45.99429" lon="4.81326">
        <ele>254</ele>
        <time>2018-03-18T11:08:58Z</time>
      </trkpt>
      <trkpt lat="45.99428" lon="4.81313">
        <ele>254</ele>
        <time>2018-03-18T11:08:59Z</time>
      </trkpt>
      <trkpt lat="45.99426" lon="4.81303">
        <ele>253</ele>
        <time>2018-03-18T11:09:00Z</time>
      </trkpt>
      <trkpt lat="45.99425" lon="4.81292">
        <ele>253</ele>
        <time>2018-03-18T11:09:01Z</time>
      </trkpt>
      <trkpt lat="45.99424" lon="4.81283">
        <ele>253</ele>
        <time>2018-03-18T11:09:02Z</time>
      </trkpt>
      <trkpt lat="45.99421" lon="4.81272">
        <ele>253</ele>
        <time>2018-03-18T11:09:03Z</time>
      </trkpt>
      <trkpt lat="45.99419" lon="4.81262">
        <ele>252</ele>
        <time>2018-03-18T11:09:04Z</time>
      </trkpt>
      <trkpt lat="45.99417" lon="4.81251">
        <ele>252</ele>
        <time>2018-03-18T11:09:05Z</time>
      </trkpt>
      <trkpt lat="45.99416" lon="4.81239">
        <ele>252</ele>
        <time>2018-03-18T11:09:06Z</time>
      </trkpt>
      <trkpt lat="45.99415" lon="4.8123">
        <ele>252</ele>
        <time>2018-03-18T11:09:07Z</time>
      </trkpt>
      <trkpt lat="45.99414" lon="4.81218">
        <ele>252</ele>
        <time>2018-03-18T11:09:08Z</time>
      </trkpt>
      <trkpt lat="45.99412" lon="4.81208">
        <ele>252</ele>
        <time>2018-03-18T11:09:09Z</time>
      </trkpt>
      <trkpt lat="45.99411" lon="4.81198">
        <ele>252</ele>
        <time>2018-03-18T11:09:10Z</time>
      </trkpt>
      <trkpt lat="45.99409" lon="4.81189">
        <ele>251</ele>
        <time>2018-03-18T11:09:11Z</time>
      </trkpt>
      <trkpt lat="45.99406" lon="4.8118">
        <ele>251</ele>
        <time>2018-03-18T11:09:12Z</time>
      </trkpt>
      <trkpt lat="45.99405" lon="4.81169">
        <ele>251</ele>
        <time>2018-03-18T11:09:13Z</time>
      </trkpt>
      <trkpt lat="45.99404" lon="4.81161">
        <ele>251</ele>
        <time>2018-03-18T11:09:14Z</time>
      </trkpt>
      <trkpt lat="45.99403" lon="4.8115">
        <ele>251</ele>
        <time>2018-03-18T11:09:15Z</time>
      </trkpt>
      <trkpt lat="45.99401" lon="4.81142">
        <ele>251</ele>
        <time>2018-03-18T11:09:16Z</time>
      </trkpt>
      <trkpt lat="45.99398" lon="4.81133">
        <ele>251</ele>
        <time>2018-03-18T11:09:17Z</time>
      </trkpt>
      <trkpt lat="45.99398" lon="4.81126">
        <ele>251</ele>
        <time>2018-03-18T11:09:18Z</time>
      </trkpt>
      <trkpt lat="45.99398" lon="4.81116">
        <ele>251</ele>
        <time>2018-03-18T11:09:19Z</time>
      </trkpt>
      <trkpt lat="45.99396" lon="4.81108">
        <ele>251</ele>
        <time>2018-03-18T11:09:20Z</time>
      </trkpt>
      <trkpt lat="45.99395" lon="4.81098">
        <ele>251</ele>
        <time>2018-03-18T11:09:21Z</time>
      </trkpt>
      <trkpt lat="45.99393" lon="4.8109">
        <ele>251</ele>
        <time>2018-03-18T11:09:22Z</time>
      </trkpt>
      <trkpt lat="45.99392" lon="4.81081">
        <ele>251</ele>
        <time>2018-03-18T11:09:23Z</time>
      </trkpt>
      <trkpt lat="45.9939" lon="4.81073">
        <ele>251</ele>
        <time>2018-03-18T11:09:24Z</time>
      </trkpt>
      <trkpt lat="45.99388" lon="4.81064">
        <ele>251</ele>
        <time>2018-03-18T11:09:25Z</time>
      </trkpt>
      <trkpt lat="45.99388" lon="4.81053">
        <ele>251</ele>
        <time>2018-03-18T11:09:26Z</time>
      </trkpt>
      <trkpt lat="45.99387" lon="4.81046">
        <ele>251</ele>
        <time>2018-03-18T11:09:27Z</time>
      </trkpt>
      <trkpt lat="45.99385" lon="4.81038">
        <ele>251</ele>
        <time>2018-03-18T11:09:28Z</time>
      </trkpt>
      <trkpt lat="45.99385" lon="4.81031">
        <ele>251</ele>
        <time>2018-03-18T11:09:29Z</time>
      </trkpt>
      <trkpt lat="45.99384" lon="4.81024">
        <ele>251</ele>
        <time>2018-03-18T11:09:30Z</time>
      </trkpt>
      <trkpt lat="45.99383" lon="4.81018">
        <ele>251</ele>
        <time>2018-03-18T11:09:31Z</time>
      </trkpt>
      <trkpt lat="45.99382" lon="4.8101">
        <ele>251</ele>
        <time>2018-03-18T11:09:32Z</time>
      </trkpt>
      <trkpt lat="45.99381" lon="4.81002">
        <ele>251</ele>
        <time>2018-03-18T11:09:33Z</time>
      </trkpt>
      <trkpt lat="45.99379" lon="4.80994">
        <ele>250</ele>
        <time>2018-03-18T11:09:34Z</time>
      </trkpt>
      <trkpt lat="45.99379" lon="4.80986">
        <ele>250</ele>
        <time>2018-03-18T11:09:35Z</time>
      </trkpt>
      <trkpt lat="45.99378" lon="4.80979">
        <ele>250</ele>
        <time>2018-03-18T11:09:36Z</time>
      </trkpt>
      <trkpt lat="45.99378" lon="4.8097">
        <ele>250</ele>
        <time>2018-03-18T11:09:37Z</time>
      </trkpt>
      <trkpt lat="45.99376" lon="4.80962">
        <ele>250</ele>
        <time>2018-03-18T11:09:38Z</time>
      </trkpt>
      <trkpt lat="45.99375" lon="4.80955">
        <ele>250</ele>
        <time>2018-03-18T11:09:39Z</time>
      </trkpt>
      <trkpt lat="45.99373" lon="4.80947">
        <ele>250</ele>
        <time>2018-03-18T11:09:40Z</time>
      </trkpt>
      <trkpt lat="45.99372" lon="4.80939">
        <ele>250</ele>
        <time>2018-03-18T11:09:41Z</time>
      </trkpt>
      <trkpt lat="45.9937" lon="4.8093">
        <ele>250</ele>
        <time>2018-03-18T11:09:42Z</time>
      </trkpt>
      <trkpt lat="45.99369" lon="4.80922">
        <ele>250</ele>
        <time>2018-03-18T11:09:43Z</time>
      </trkpt>
      <trkpt lat="45.99368" lon="4.80914">
        <ele>248</ele>
        <time>2018-03-18T11:09:44Z</time>
      </trkpt>
      <trkpt lat="45.99368" lon="4.80905">
        <ele>248</ele>
        <time>2018-03-18T11:09:45Z</time>
      </trkpt>
      <trkpt lat="45.99367" lon="4.80895">
        <ele>248</ele>
        <time>2018-03-18T11:09:46Z</time>
      </trkpt>
      <trkpt lat="45.99366" lon="4.80886">
        <ele>248</ele>
        <time>2018-03-18T11:09:47Z</time>
      </trkpt>
      <trkpt lat="45.99364" lon="4.80876">
        <ele>248</ele>
        <time>2018-03-18T11:09:48Z</time>
      </trkpt>
      <trkpt lat="45.99363" lon="4.80868">
        <ele>248</ele>
        <time>2018-03-18T11:09:49Z</time>
      </trkpt>
      <trkpt lat="45.99363" lon="4.80856">
        <ele>248</ele>
        <time>2018-03-18T11:09:50Z</time>
      </trkpt>
      <trkpt lat="45.99362" lon="4.80846">
        <ele>247</ele>
        <time>2018-03-18T11:09:51Z</time>
      </trkpt>
      <trkpt lat="45.99361" lon="4.80836">
        <ele>247</ele>
        <time>2018-03-18T11:09:52Z</time>
      </trkpt>
      <trkpt lat="45.99359" lon="4.80826">
        <ele>246</ele>
        <time>2018-03-18T11:09:53Z</time>
      </trkpt>
      <trkpt lat="45.99359" lon="4.80817">
        <ele>246</ele>
        <time>2018-03-18T11:09:54Z</time>
      </trkpt>
      <trkpt lat="45.99358" lon="4.80807">
        <ele>246</ele>
        <time>2018-03-18T11:09:55Z</time>
      </trkpt>
      <trkpt lat="45.99357" lon="4.80797">
        <ele>246</ele>
        <time>2018-03-18T11:09:56Z</time>
      </trkpt>
      <trkpt lat="45.99355" lon="4.80787">
        <ele>246</ele>
        <time>2018-03-18T11:09:57Z</time>
      </trkpt>
      <trkpt lat="45.99354" lon="4.80777">
        <ele>245</ele>
        <time>2018-03-18T11:09:58Z</time>
      </trkpt>
      <trkpt lat="45.99352" lon="4.80767">
        <ele>245</ele>
        <time>2018-03-18T11:09:59Z</time>
      </trkpt>
      <trkpt lat="45.99352" lon="4.80757">
        <ele>245</ele>
        <time>2018-03-18T11:10:00Z</time>
      </trkpt>
      <trkpt lat="45.99351" lon="4.80747">
        <ele>245</ele>
        <time>2018-03-18T11:10:01Z</time>
      </trkpt>
      <trkpt lat="45.99348" lon="4.80739">
        <ele>245</ele>
        <time>2018-03-18T11:10:02Z</time>
      </trkpt>
      <trkpt lat="45.99346" lon="4.80729">
        <ele>245</ele>
        <time>2018-03-18T11:10:03Z</time>
      </trkpt>
      <trkpt lat="45.99344" lon="4.8072">
        <ele>244</ele>
        <time>2018-03-18T11:10:04Z</time>
      </trkpt>
      <trkpt lat="45.99344" lon="4.8071">
        <ele>244</ele>
        <time>2018-03-18T11:10:05Z</time>
      </trkpt>
      <trkpt lat="45.99343" lon="4.807">
        <ele>244</ele>
        <time>2018-03-18T11:10:06Z</time>
      </trkpt>
      <trkpt lat="45.99342" lon="4.80691">
        <ele>244</ele>
        <time>2018-03-18T11:10:07Z</time>
      </trkpt>
      <trkpt lat="45.9934" lon="4.80681">
        <ele>244</ele>
        <time>2018-03-18T11:10:08Z</time>
      </trkpt>
      <trkpt lat="45.9934" lon="4.80671">
        <ele>244</ele>
        <time>2018-03-18T11:10:09Z</time>
      </trkpt>
      <trkpt lat="45.99339" lon="4.80661">
        <ele>244</ele>
        <time>2018-03-18T11:10:10Z</time>
      </trkpt>
      <trkpt lat="45.99338" lon="4.80652">
        <ele>244</ele>
        <time>2018-03-18T11:10:11Z</time>
      </trkpt>
      <trkpt lat="45.99337" lon="4.80642">
        <ele>244</ele>
        <time>2018-03-18T11:10:12Z</time>
      </trkpt>
      <trkpt lat="45.99334" lon="4.80634">
        <ele>243</ele>
        <time>2018-03-18T11:10:13Z</time>
      </trkpt>
      <trkpt lat="45.99333" lon="4.80625">
        <ele>243</ele>
        <time>2018-03-18T11:10:14Z</time>
      </trkpt>
      <trkpt lat="45.99332" lon="4.80615">
        <ele>243</ele>
        <time>2018-03-18T11:10:15Z</time>
      </trkpt>
      <trkpt lat="45.99331" lon="4.80607">
        <ele>243</ele>
        <time>2018-03-18T11:10:16Z</time>
      </trkpt>
      <trkpt lat="45.99331" lon="4.80598">
        <ele>242</ele>
        <time>2018-03-18T11:10:17Z</time>
      </trkpt>
      <trkpt lat="45.99329" lon="4.80589">
        <ele>242</ele>
        <time>2018-03-18T11:10:18Z</time>
      </trkpt>
      <trkpt lat="45.99328" lon="4.8058">
        <ele>242</ele>
        <time>2018-03-18T11:10:19Z</time>
      </trkpt>
      <trkpt lat="45.99327" lon="4.8057">
        <ele>242</ele>
        <time>2018-03-18T11:10:20Z</time>
      </trkpt>
      <trkpt lat="45.99326" lon="4.80561">
        <ele>242</ele>
        <time>2018-03-18T11:10:21Z</time>
      </trkpt>
      <trkpt lat="45.99325" lon="4.80552">
        <ele>241</ele>
        <time>2018-03-18T11:10:22Z</time>
      </trkpt>
      <trkpt lat="45.99324" lon="4.80542">
        <ele>241</ele>
        <time>2018-03-18T11:10:23Z</time>
      </trkpt>
      <trkpt lat="45.99323" lon="4.80533">
        <ele>241</ele>
        <time>2018-03-18T11:10:24Z</time>
      </trkpt>
      <trkpt lat="45.99322" lon="4.80525">
        <ele>241</ele>
        <time>2018-03-18T11:10:25Z</time>
      </trkpt>
      <trkpt lat="45.9932" lon="4.80518">
        <ele>241</ele>
        <time>2018-03-18T11:10:26Z</time>
      </trkpt>
      <trkpt lat="45.99319" lon="4.8051">
        <ele>241</ele>
        <time>2018-03-18T11:10:27Z</time>
      </trkpt>
      <trkpt lat="45.99318" lon="4.80502">
        <ele>241</ele>
        <time>2018-03-18T11:10:28Z</time>
      </trkpt>
      <trkpt lat="45.99317" lon="4.80494">
        <ele>241</ele>
        <time>2018-03-18T11:10:29Z</time>
      </trkpt>
      <trkpt lat="45.99314" lon="4.80486">
        <ele>241</ele>
        <time>2018-03-18T11:10:30Z</time>
      </trkpt>
      <trkpt lat="45.99313" lon="4.80478">
        <ele>241</ele>
        <time>2018-03-18T11:10:31Z</time>
      </trkpt>
      <trkpt lat="45.99313" lon="4.80471">
        <ele>241</ele>
        <time>2018-03-18T11:10:32Z</time>
      </trkpt>
      <trkpt lat="45.99312" lon="4.80463">
        <ele>241</ele>
        <time>2018-03-18T11:10:33Z</time>
      </trkpt>
      <trkpt lat="45.99313" lon="4.80454">
        <ele>241</ele>
        <time>2018-03-18T11:10:34Z</time>
      </trkpt>
      <trkpt lat="45.99312" lon="4.80445">
        <ele>241</ele>
        <time>2018-03-18T11:10:35Z</time>
      </trkpt>
      <trkpt lat="45.99313" lon="4.80438">
        <ele>241</ele>
        <time>2018-03-18T11:10:36Z</time>
      </trkpt>
      <trkpt lat="45.99314" lon="4.8043">
        <ele>241</ele>
        <time>2018-03-18T11:10:37Z</time>
      </trkpt>
      <trkpt lat="45.99316" lon="4.80423">
        <ele>241</ele>
        <time>2018-03-18T11:10:38Z</time>
      </trkpt>
      <trkpt lat="45.99317" lon="4.80418">
        <ele>241</ele>
        <time>2018-03-18T11:10:39Z</time>
      </trkpt>
      <trkpt lat="45.99319" lon="4.80411">
        <ele>242</ele>
        <time>2018-03-18T11:10:40Z</time>
      </trkpt>
      <trkpt lat="45.9932" lon="4.80403">
        <ele>242</ele>
        <time>2018-03-18T11:10:41Z</time>
      </trkpt>
      <trkpt lat="45.99319" lon="4.80398">
        <ele>242</ele>
        <time>2018-03-18T11:10:42Z</time>
      </trkpt>
      <trkpt lat="45.99314" lon="4.80391">
        <ele>242</ele>
        <time>2018-03-18T11:10:43Z</time>
      </trkpt>
      <trkpt lat="45.9931" lon="4.80385">
        <ele>242</ele>
        <time>2018-03-18T11:10:44Z</time>
      </trkpt>
      <trkpt lat="45.99304" lon="4.80383">
        <ele>242</ele>
        <time>2018-03-18T11:10:45Z</time>
      </trkpt>
      <trkpt lat="45.99297" lon="4.80383">
        <ele>242</ele>
        <time>2018-03-18T11:10:46Z</time>
      </trkpt>
      <trkpt lat="45.99291" lon="4.80383">
        <ele>242</ele>
        <time>2018-03-18T11:10:47Z</time>
      </trkpt>
      <trkpt lat="45.99285" lon="4.80383">
        <ele>242</ele>
        <time>2018-03-18T11:10:48Z</time>
      </trkpt>
      <trkpt lat="45.99279" lon="4.80381">
        <ele>242</ele>
        <time>2018-03-18T11:10:49Z</time>
      </trkpt>
      <trkpt lat="45.99273" lon="4.80378">
        <ele>242</ele>
        <time>2018-03-18T11:10:50Z</time>
      </trkpt>
      <trkpt lat="45.99267" lon="4.80373">
        <ele>243</ele>
        <time>2018-03-18T11:10:51Z</time>
      </trkpt>
      <trkpt lat="45.99262" lon="4.80368">
        <ele>243</ele>
        <time>2018-03-18T11:10:52Z</time>
      </trkpt>
      <trkpt lat="45.99257" lon="4.80361">
        <ele>243</ele>
        <time>2018-03-18T11:10:53Z</time>
      </trkpt>
      <trkpt lat="45.99253" lon="4.80355">
        <ele>243</ele>
        <time>2018-03-18T11:10:54Z</time>
      </trkpt>
      <trkpt lat="45.99249" lon="4.80347">
        <ele>242</ele>
        <time>2018-03-18T11:10:55Z</time>
      </trkpt>
      <trkpt lat="45.99245" lon="4.80339">
        <ele>243</ele>
        <time>2018-03-18T11:10:56Z</time>
      </trkpt>
      <trkpt lat="45.99241" lon="4.80332">
        <ele>243</ele>
        <time>2018-03-18T11:10:57Z</time>
      </trkpt>
      <trkpt lat="45.99237" lon="4.80324">
        <ele>243</ele>
        <time>2018-03-18T11:10:58Z</time>
      </trkpt>
      <trkpt lat="45.99233" lon="4.80317">
        <ele>243</ele>
        <time>2018-03-18T11:10:59Z</time>
      </trkpt>
      <trkpt lat="45.99229" lon="4.80311">
        <ele>242</ele>
        <time>2018-03-18T11:11:00Z</time>
      </trkpt>
      <trkpt lat="45.99224" lon="4.80304">
        <ele>242</ele>
        <time>2018-03-18T11:11:01Z</time>
      </trkpt>
      <trkpt lat="45.9922" lon="4.80297">
        <ele>242</ele>
        <time>2018-03-18T11:11:02Z</time>
      </trkpt>
      <trkpt lat="45.99216" lon="4.80291">
        <ele>242</ele>
        <time>2018-03-18T11:11:03Z</time>
      </trkpt>
      <trkpt lat="45.99212" lon="4.80285">
        <ele>242</ele>
        <time>2018-03-18T11:11:04Z</time>
      </trkpt>
      <trkpt lat="45.99208" lon="4.80279">
        <ele>242</ele>
        <time>2018-03-18T11:11:05Z</time>
      </trkpt>
      <trkpt lat="45.99203" lon="4.80274">
        <ele>242</ele>
        <time>2018-03-18T11:11:06Z</time>
      </trkpt>
      <trkpt lat="45.99199" lon="4.80268">
        <ele>242</ele>
        <time>2018-03-18T11:11:07Z</time>
      </trkpt>
      <trkpt lat="45.99194" lon="4.80262">
        <ele>242</ele>
        <time>2018-03-18T11:11:08Z</time>
      </trkpt>
      <trkpt lat="45.99189" lon="4.80256">
        <ele>242</ele>
        <time>2018-03-18T11:11:09Z</time>
      </trkpt>
      <trkpt lat="45.99183" lon="4.80252">
        <ele>242</ele>
        <time>2018-03-18T11:11:10Z</time>
      </trkpt>
      <trkpt lat="45.99179" lon="4.80246">
        <ele>242</ele>
        <time>2018-03-18T11:11:11Z</time>
      </trkpt>
      <trkpt lat="45.99174" lon="4.8024">
        <ele>242</ele>
        <time>2018-03-18T11:11:12Z</time>
      </trkpt>
      <trkpt lat="45.99168" lon="4.80234">
        <ele>242</ele>
        <time>2018-03-18T11:11:13Z</time>
      </trkpt>
      <trkpt lat="45.99164" lon="4.80229">
        <ele>241</ele>
        <time>2018-03-18T11:11:14Z</time>
      </trkpt>
      <trkpt lat="45.9916" lon="4.80225">
        <ele>241</ele>
        <time>2018-03-18T11:11:15Z</time>
      </trkpt>
      <trkpt lat="45.99156" lon="4.80221">
        <ele>241</ele>
        <time>2018-03-18T11:11:16Z</time>
      </trkpt>
      <trkpt lat="45.99152" lon="4.80216">
        <ele>242</ele>
        <time>2018-03-18T11:11:17Z</time>
      </trkpt>
      <trkpt lat="45.99149" lon="4.80211">
        <ele>242</ele>
        <time>2018-03-18T11:11:18Z</time>
      </trkpt>
      <trkpt lat="45.99144" lon="4.80207">
        <ele>242</ele>
        <time>2018-03-18T11:11:19Z</time>
      </trkpt>
      <trkpt lat="45.99139" lon="4.80202">
        <ele>242</ele>
        <time>2018-03-18T11:11:20Z</time>
      </trkpt>
      <trkpt lat="45.99135" lon="4.80197">
        <ele>242</ele>
        <time>2018-03-18T11:11:21Z</time>
      </trkpt>
      <trkpt lat="45.99131" lon="4.80192">
        <ele>242</ele>
        <time>2018-03-18T11:11:22Z</time>
      </trkpt>
      <trkpt lat="45.99126" lon="4.80187">
        <ele>242</ele>
        <time>2018-03-18T11:11:23Z</time>
      </trkpt>
      <trkpt lat="45.99122" lon="4.80183">
        <ele>242</ele>
        <time>2018-03-18T11:11:24Z</time>
      </trkpt>
      <trkpt lat="45.99118" lon="4.80177">
        <ele>242</ele>
        <time>2018-03-18T11:11:25Z</time>
      </trkpt>
      <trkpt lat="45.99113" lon="4.80173">
        <ele>242</ele>
        <time>2018-03-18T11:11:26Z</time>
      </trkpt>
      <trkpt lat="45.99109" lon="4.80164">
        <ele>243</ele>
        <time>2018-03-18T11:11:27Z</time>
      </trkpt>
      <trkpt lat="45.99104" lon="4.80158">
        <ele>243</ele>
        <time>2018-03-18T11:11:28Z</time>
      </trkpt>
      <trkpt lat="45.99099" lon="4.80153">
        <ele>243</ele>
        <time>2018-03-18T11:11:29Z</time>
      </trkpt>
      <trkpt lat="45.99095" lon="4.80147">
        <ele>243</ele>
        <time>2018-03-18T11:11:30Z</time>
      </trkpt>
      <trkpt lat="45.99091" lon="4.80142">
        <ele>243</ele>
        <time>2018-03-18T11:11:31Z</time>
      </trkpt>
      <trkpt lat="45.99086" lon="4.80137">
        <ele>243</ele>
        <time>2018-03-18T11:11:32Z</time>
      </trkpt>
      <trkpt lat="45.99082" lon="4.80132">
        <ele>242</ele>
        <time>2018-03-18T11:11:33Z</time>
      </trkpt>
      <trkpt lat="45.99078" lon="4.80127">
        <ele>242</ele>
        <time>2018-03-18T11:11:34Z</time>
      </trkpt>
      <trkpt lat="45.99074" lon="4.80121">
        <ele>242</ele>
        <time>2018-03-18T11:11:35Z</time>
      </trkpt>
      <trkpt lat="45.9907" lon="4.80116">
        <ele>242</ele>
        <time>2018-03-18T11:11:36Z</time>
      </trkpt>
      <trkpt lat="45.99066" lon="4.80112">
        <ele>242</ele>
        <time>2018-03-18T11:11:37Z</time>
      </trkpt>
      <trkpt lat="45.99061" lon="4.80106">
        <ele>242</ele>
        <time>2018-03-18T11:11:38Z</time>
      </trkpt>
      <trkpt lat="45.99057" lon="4.80102">
        <ele>242</ele>
        <time>2018-03-18T11:11:39Z</time>
      </trkpt>
      <trkpt lat="45.99052" lon="4.80095">
        <ele>242</ele>
        <time>2018-03-18T11:11:40Z</time>
      </trkpt>
      <trkpt lat="45.99047" lon="4.80089">
        <ele>242</ele>
        <time>2018-03-18T11:11:41Z</time>
      </trkpt>
      <trkpt lat="45.99042" lon="4.80083">
        <ele>244</ele>
        <time>2018-03-18T11:11:42Z</time>
      </trkpt>
      <trkpt lat="45.99038" lon="4.80077">
        <ele>244</ele>
        <time>2018-03-18T11:11:43Z</time>
      </trkpt>
      <trkpt lat="45.99033" lon="4.80073">
        <ele>243</ele>
        <time>2018-03-18T11:11:44Z</time>
      </trkpt>
      <trkpt lat="45.99029" lon="4.80068">
        <ele>243</ele>
        <time>2018-03-18T11:11:45Z</time>
      </trkpt>
      <trkpt lat="45.99025" lon="4.80064">
        <ele>243</ele>
        <time>2018-03-18T11:11:46Z</time>
      </trkpt>
      <trkpt lat="45.9902" lon="4.80058">
        <ele>243</ele>
        <time>2018-03-18T11:11:47Z</time>
      </trkpt>
      <trkpt lat="45.99016" lon="4.80052">
        <ele>244</ele>
        <time>2018-03-18T11:11:48Z</time>
      </trkpt>
      <trkpt lat="45.99011" lon="4.80046">
        <ele>244</ele>
        <time>2018-03-18T11:11:49Z</time>
      </trkpt>
      <trkpt lat="45.99007" lon="4.80041">
        <ele>244</ele>
        <time>2018-03-18T11:11:50Z</time>
      </trkpt>
      <trkpt lat="45.99002" lon="4.80036">
        <ele>244</ele>
        <time>2018-03-18T11:11:51Z</time>
      </trkpt>
      <trkpt lat="45.98997" lon="4.80031">
        <ele>242</ele>
        <time>2018-03-18T11:11:52Z</time>
      </trkpt>
      <trkpt lat="45.98993" lon="4.80026">
        <ele>243</ele>
        <time>2018-03-18T11:11:53Z</time>
      </trkpt>
      <trkpt lat="45.98988" lon="4.80021">
        <ele>243</ele>
        <time>2018-03-18T11:11:54Z</time>
      </trkpt>
      <trkpt lat="45.98983" lon="4.80015">
        <ele>243</ele>
        <time>2018-03-18T11:11:55Z</time>
      </trkpt>
      <trkpt lat="45.98979" lon="4.8001">
        <ele>243</ele>
        <time>2018-03-18T11:11:56Z</time>
      </trkpt>
      <trkpt lat="45.98975" lon="4.80005">
        <ele>243</ele>
        <time>2018-03-18T11:11:57Z</time>
      </trkpt>
      <trkpt lat="45.98971" lon="4.80001">
        <ele>243</ele>
        <time>2018-03-18T11:11:58Z</time>
      </trkpt>
      <trkpt lat="45.98966" lon="4.79996">
        <ele>245</ele>
        <time>2018-03-18T11:11:59Z</time>
      </trkpt>
      <trkpt lat="45.98962" lon="4.79992">
        <ele>245</ele>
        <time>2018-03-18T11:12:00Z</time>
      </trkpt>
      <trkpt lat="45.98957" lon="4.79983">
        <ele>245</ele>
        <time>2018-03-18T11:12:01Z</time>
      </trkpt>
      <trkpt lat="45.98954" lon="4.79979">
        <ele>245</ele>
        <time>2018-03-18T11:12:02Z</time>
      </trkpt>
      <trkpt lat="45.98951" lon="4.79974">
        <ele>245</ele>
        <time>2018-03-18T11:12:03Z</time>
      </trkpt>
      <trkpt lat="45.98947" lon="4.79969">
        <ele>245</ele>
        <time>2018-03-18T11:12:04Z</time>
      </trkpt>
      <trkpt lat="45.98943" lon="4.79964">
        <ele>245</ele>
        <time>2018-03-18T11:12:05Z</time>
      </trkpt>
      <trkpt lat="45.98939" lon="4.7996">
        <ele>245</ele>
        <time>2018-03-18T11:12:06Z</time>
      </trkpt>
      <trkpt lat="45.98935" lon="4.79956">
        <ele>245</ele>
        <time>2018-03-18T11:12:07Z</time>
      </trkpt>
      <trkpt lat="45.98931" lon="4.79952">
        <ele>245</ele>
        <time>2018-03-18T11:12:08Z</time>
      </trkpt>
      <trkpt lat="45.98927" lon="4.79947">
        <ele>245</ele>
        <time>2018-03-18T11:12:09Z</time>
      </trkpt>
      <trkpt lat="45.98923" lon="4.79943">
        <ele>245</ele>
        <time>2018-03-18T11:12:10Z</time>
      </trkpt>
      <trkpt lat="45.98919" lon="4.79938">
        <ele>245</ele>
        <time>2018-03-18T11:12:11Z</time>
      </trkpt>
      <trkpt lat="45.98915" lon="4.79933">
        <ele>244</ele>
        <time>2018-03-18T11:12:12Z</time>
      </trkpt>
      <trkpt lat="45.98911" lon="4.79929">
        <ele>244</ele>
        <time>2018-03-18T11:12:13Z</time>
      </trkpt>
      <trkpt lat="45.98906" lon="4.79923">
        <ele>244</ele>
        <time>2018-03-18T11:12:14Z</time>
      </trkpt>
      <trkpt lat="45.98902" lon="4.79918">
        <ele>244</ele>
        <time>2018-03-18T11:12:15Z</time>
      </trkpt>
      <trkpt lat="45.98898" lon="4.79914">
        <ele>244</ele>
        <time>2018-03-18T11:12:16Z</time>
      </trkpt>
      <trkpt lat="45.98894" lon="4.7991">
        <ele>244</ele>
        <time>2018-03-18T11:12:17Z</time>
      </trkpt>
      <trkpt lat="45.9889" lon="4.79906">
        <ele>244</ele>
        <time>2018-03-18T11:12:18Z</time>
      </trkpt>
      <trkpt lat="45.98885" lon="4.79901">
        <ele>244</ele>
        <time>2018-03-18T11:12:19Z</time>
      </trkpt>
      <trkpt lat="45.98881" lon="4.79896">
        <ele>244</ele>
        <time>2018-03-18T11:12:20Z</time>
      </trkpt>
      <trkpt lat="45.98877" lon="4.79891">
        <ele>244</ele>
        <time>2018-03-18T11:12:21Z</time>
      </trkpt>
      <trkpt lat="45.98872" lon="4.79886">
        <ele>244</ele>
        <time>2018-03-18T11:12:22Z</time>
      </trkpt>
      <trkpt lat="45.98868" lon="4.79882">
        <ele>244</ele>
        <time>2018-03-18T11:12:23Z</time>
      </trkpt>
      <trkpt lat="45.98863" lon="4.79878">
        <ele>244</ele>
        <time>2018-03-18T11:12:24Z</time>
      </trkpt>
      <trkpt lat="45.98859" lon="4.79872">
        <ele>244</ele>
        <time>2018-03-18T11:12:25Z</time>
      </trkpt>
      <trkpt lat="45.98854" lon="4.79867">
        <ele>244</ele>
        <time>2018-03-18T11:12:26Z</time>
      </trkpt>
      <trkpt lat="45.9885" lon="4.79862">
        <ele>244</ele>
        <time>2018-03-18T11:12:27Z</time>
      </trkpt>
      <trkpt lat="45.98847" lon="4.7986">
        <ele>244</ele>
        <time>2018-03-18T11:12:28Z</time>
      </trkpt>
      <trkpt lat="45.98843" lon="4.79855">
        <ele>244</ele>
        <time>2018-03-18T11:12:29Z</time>
      </trkpt>
      <trkpt lat="45.98839" lon="4.79851">
        <ele>244</ele>
        <time>2018-03-18T11:12:30Z</time>
      </trkpt>
      <trkpt lat="45.98834" lon="4.79846">
        <ele>244</ele>
        <time>2018-03-18T11:12:31Z</time>
      </trkpt>
      <trkpt lat="45.98831" lon="4.79842">
        <ele>244</ele>
        <time>2018-03-18T11:12:32Z</time>
      </trkpt>
      <trkpt lat="45.98826" lon="4.79838">
        <ele>244</ele>
        <time>2018-03-18T11:12:33Z</time>
      </trkpt>
      <trkpt lat="45.98822" lon="4.79833">
        <ele>244</ele>
        <time>2018-03-18T11:12:34Z</time>
      </trkpt>
      <trkpt lat="45.98819" lon="4.79828">
        <ele>244</ele>
        <time>2018-03-18T11:12:35Z</time>
      </trkpt>
      <trkpt lat="45.98815" lon="4.79824">
        <ele>245</ele>
        <time>2018-03-18T11:12:36Z</time>
      </trkpt>
      <trkpt lat="45.98811" lon="4.79818">
        <ele>245</ele>
        <time>2018-03-18T11:12:37Z</time>
      </trkpt>
      <trkpt lat="45.98806" lon="4.79813">
        <ele>245</ele>
        <time>2018-03-18T11:12:38Z</time>
      </trkpt>
      <trkpt lat="45.98802" lon="4.79809">
        <ele>245</ele>
        <time>2018-03-18T11:12:39Z</time>
      </trkpt>
      <trkpt lat="45.98798" lon="4.79804">
        <ele>245</ele>
        <time>2018-03-18T11:12:40Z</time>
      </trkpt>
      <trkpt lat="45.98794" lon="4.79799">
        <ele>245</ele>
        <time>2018-03-18T11:12:41Z</time>
      </trkpt>
      <trkpt lat="45.9879" lon="4.79794">
        <ele>245</ele>
        <time>2018-03-18T11:12:42Z</time>
      </trkpt>
      <trkpt lat="45.98783" lon="4.79786">
        <ele>245</ele>
        <time>2018-03-18T11:12:44Z</time>
      </trkpt>
      <trkpt lat="45.98779" lon="4.79783">
        <ele>245</ele>
        <time>2018-03-18T11:12:45Z</time>
      </trkpt>
      <trkpt lat="45.98776" lon="4.79778">
        <ele>245</ele>
        <time>2018-03-18T11:12:46Z</time>
      </trkpt>
      <trkpt lat="45.9877" lon="4.7977">
        <ele>245</ele>
        <time>2018-03-18T11:12:47Z</time>
      </trkpt>
      <trkpt lat="45.98766" lon="4.79764">
        <ele>245</ele>
        <time>2018-03-18T11:12:48Z</time>
      </trkpt>
      <trkpt lat="45.98762" lon="4.79761">
        <ele>245</ele>
        <time>2018-03-18T11:12:49Z</time>
      </trkpt>
      <trkpt lat="45.98758" lon="4.79756">
        <ele>245</ele>
        <time>2018-03-18T11:12:50Z</time>
      </trkpt>
      <trkpt lat="45.98754" lon="4.79753">
        <ele>245</ele>
        <time>2018-03-18T11:12:51Z</time>
      </trkpt>
      <trkpt lat="45.98749" lon="4.79749">
        <ele>245</ele>
        <time>2018-03-18T11:12:52Z</time>
      </trkpt>
      <trkpt lat="45.98745" lon="4.79745">
        <ele>245</ele>
        <time>2018-03-18T11:12:53Z</time>
      </trkpt>
      <trkpt lat="45.98741" lon="4.79741">
        <ele>245</ele>
        <time>2018-03-18T11:12:54Z</time>
      </trkpt>
      <trkpt lat="45.98737" lon="4.79738">
        <ele>245</ele>
        <time>2018-03-18T11:12:55Z</time>
      </trkpt>
      <trkpt lat="45.98732" lon="4.79736">
        <ele>245</ele>
        <time>2018-03-18T11:12:56Z</time>
      </trkpt>
      <trkpt lat="45.98727" lon="4.79733">
        <ele>245</ele>
        <time>2018-03-18T11:12:57Z</time>
      </trkpt>
      <trkpt lat="45.98719" lon="4.79729">
        <ele>245</ele>
        <time>2018-03-18T11:12:59Z</time>
      </trkpt>
      <trkpt lat="45.98715" lon="4.79727">
        <ele>245</ele>
        <time>2018-03-18T11:13:00Z</time>
      </trkpt>
      <trkpt lat="45.98711" lon="4.79725">
        <ele>245</ele>
        <time>2018-03-18T11:13:01Z</time>
      </trkpt>
      <trkpt lat="45.98706" lon="4.79722">
        <ele>245</ele>
        <time>2018-03-18T11:13:02Z</time>
      </trkpt>
      <trkpt lat="45.98699" lon="4.79719">
        <ele>245</ele>
        <time>2018-03-18T11:13:03Z</time>
      </trkpt>
      <trkpt lat="45.98694" lon="4.79717">
        <ele>245</ele>
        <time>2018-03-18T11:13:04Z</time>
      </trkpt>
      <trkpt lat="45.98689" lon="4.79713">
        <ele>245</ele>
        <time>2018-03-18T11:13:05Z</time>
      </trkpt>
      <trkpt lat="45.98684" lon="4.79709">
        <ele>245</ele>
        <time>2018-03-18T11:13:06Z</time>
      </trkpt>
      <trkpt lat="45.9868" lon="4.79704">
        <ele>245</ele>
        <time>2018-03-18T11:13:07Z</time>
      </trkpt>
      <trkpt lat="45.98675" lon="4.797">
        <ele>245</ele>
        <time>2018-03-18T11:13:08Z</time>
      </trkpt>
      <trkpt lat="45.9867" lon="4.79698">
        <ele>245</ele>
        <time>2018-03-18T11:13:09Z</time>
      </trkpt>
      <trkpt lat="45.98665" lon="4.79693">
        <ele>245</ele>
        <time>2018-03-18T11:13:10Z</time>
      </trkpt>
      <trkpt lat="45.98659" lon="4.79688">
        <ele>245</ele>
        <time>2018-03-18T11:13:11Z</time>
      </trkpt>
      <trkpt lat="45.98656" lon="4.79682">
        <ele>245</ele>
        <time>2018-03-18T11:13:12Z</time>
      </trkpt>
      <trkpt lat="45.98652" lon="4.79677">
        <ele>245</ele>
        <time>2018-03-18T11:13:13Z</time>
      </trkpt>
      <trkpt lat="45.98648" lon="4.79671">
        <ele>245</ele>
        <time>2018-03-18T11:13:14Z</time>
      </trkpt>
      <trkpt lat="45.98645" lon="4.79664">
        <ele>245</ele>
        <time>2018-03-18T11:13:15Z</time>
      </trkpt>
      <trkpt lat="45.98642" lon="4.79658">
        <ele>245</ele>
        <time>2018-03-18T11:13:16Z</time>
      </trkpt>
      <trkpt lat="45.98638" lon="4.79652">
        <ele>245</ele>
        <time>2018-03-18T11:13:17Z</time>
      </trkpt>
      <trkpt lat="45.98635" lon="4.79645">
        <ele>245</ele>
        <time>2018-03-18T11:13:18Z</time>
      </trkpt>
      <trkpt lat="45.98633" lon="4.79636">
        <ele>245</ele>
        <time>2018-03-18T11:13:19Z</time>
      </trkpt>
      <trkpt lat="45.98631" lon="4.79629">
        <ele>245</ele>
        <time>2018-03-18T11:13:20Z</time>
      </trkpt>
      <trkpt lat="45.98629" lon="4.79623">
        <ele>245</ele>
        <time>2018-03-18T11:13:21Z</time>
      </trkpt>
      <trkpt lat="45.98629" lon="4.79615">
        <ele>245</ele>
        <time>2018-03-18T11:13:22Z</time>
      </trkpt>
      <trkpt lat="45.98629" lon="4.79609">
        <ele>245</ele>
        <time>2018-03-18T11:13:23Z</time>
      </trkpt>
      <trkpt lat="45.98628" lon="4.79602">
        <ele>245</ele>
        <time>2018-03-18T11:13:24Z</time>
      </trkpt>
      <trkpt lat="45.98626" lon="4.79595">
        <ele>245</ele>
        <time>2018-03-18T11:13:25Z</time>
      </trkpt>
      <trkpt lat="45.98623" lon="4.7959">
        <ele>245</ele>
        <time>2018-03-18T11:13:26Z</time>
      </trkpt>
      <trkpt lat="45.98621" lon="4.79586">
        <ele>245</ele>
        <time>2018-03-18T11:13:27Z</time>
      </trkpt>
      <trkpt lat="45.98616" lon="4.79583">
        <ele>245</ele>
        <time>2018-03-18T11:13:28Z</time>
      </trkpt>
      <trkpt lat="45.9861" lon="4.7958">
        <ele>245</ele>
        <time>2018-03-18T11:13:29Z</time>
      </trkpt>
      <trkpt lat="45.98605" lon="4.79581">
        <ele>245</ele>
        <time>2018-03-18T11:13:30Z</time>
      </trkpt>
      <trkpt lat="45.98599" lon="4.79583">
        <ele>245</ele>
        <time>2018-03-18T11:13:31Z</time>
      </trkpt>
      <trkpt lat="45.98593" lon="4.79584">
        <ele>245</ele>
        <time>2018-03-18T11:13:32Z</time>
      </trkpt>
      <trkpt lat="45.98587" lon="4.79584">
        <ele>245</ele>
        <time>2018-03-18T11:13:33Z</time>
      </trkpt>
      <trkpt lat="45.98581" lon="4.79583">
        <ele>245</ele>
        <time>2018-03-18T11:13:34Z</time>
      </trkpt>
      <trkpt lat="45.98577" lon="4.79581">
        <ele>245</ele>
        <time>2018-03-18T11:13:35Z</time>
      </trkpt>
      <trkpt lat="45.9857" lon="4.79578">
        <ele>245</ele>
        <time>2018-03-18T11:13:36Z</time>
      </trkpt>
      <trkpt lat="45.98565" lon="4.79575">
        <ele>244</ele>
        <time>2018-03-18T11:13:37Z</time>
      </trkpt>
      <trkpt lat="45.98561" lon="4.7957">
        <ele>244</ele>
        <time>2018-03-18T11:13:38Z</time>
      </trkpt>
      <trkpt lat="45.98557" lon="4.79565">
        <ele>244</ele>
        <time>2018-03-18T11:13:39Z</time>
      </trkpt>
      <trkpt lat="45.98553" lon="4.79559">
        <ele>244</ele>
        <time>2018-03-18T11:13:40Z</time>
      </trkpt>
      <trkpt lat="45.98549" lon="4.79554">
        <ele>244</ele>
        <time>2018-03-18T11:13:41Z</time>
      </trkpt>
      <trkpt lat="45.98545" lon="4.79547">
        <ele>244</ele>
        <time>2018-03-18T11:13:42Z</time>
      </trkpt>
      <trkpt lat="45.98543" lon="4.79542">
        <ele>244</ele>
        <time>2018-03-18T11:13:43Z</time>
      </trkpt>
      <trkpt lat="45.9854" lon="4.79535">
        <ele>244</ele>
        <time>2018-03-18T11:13:44Z</time>
      </trkpt>
      <trkpt lat="45.98537" lon="4.79528">
        <ele>244</ele>
        <time>2018-03-18T11:13:45Z</time>
      </trkpt>
      <trkpt lat="45.98535" lon="4.7952">
        <ele>244</ele>
        <time>2018-03-18T11:13:46Z</time>
      </trkpt>
      <trkpt lat="45.98533" lon="4.79512">
        <ele>244</ele>
        <time>2018-03-18T11:13:47Z</time>
      </trkpt>
      <trkpt lat="45.98531" lon="4.79505">
        <ele>244</ele>
        <time>2018-03-18T11:13:48Z</time>
      </trkpt>
      <trkpt lat="45.98529" lon="4.79497">
        <ele>244</ele>
        <time>2018-03-18T11:13:49Z</time>
      </trkpt>
      <trkpt lat="45.98528" lon="4.79489">
        <ele>244</ele>
        <time>2018-03-18T11:13:50Z</time>
      </trkpt>
      <trkpt lat="45.98527" lon="4.79481">
        <ele>244</ele>
        <time>2018-03-18T11:13:51Z</time>
      </trkpt>
      <trkpt lat="45.98527" lon="4.79472">
        <ele>244</ele>
        <time>2018-03-18T11:13:52Z</time>
      </trkpt>
      <trkpt lat="45.98527" lon="4.79463">
        <ele>244</ele>
        <time>2018-03-18T11:13:53Z</time>
      </trkpt>
      <trkpt lat="45.98526" lon="4.79455">
        <ele>244</ele>
        <time>2018-03-18T11:13:54Z</time>
      </trkpt>
      <trkpt lat="45.98526" lon="4.79447">
        <ele>244</ele>
        <time>2018-03-18T11:13:55Z</time>
      </trkpt>
      <trkpt lat="45.98525" lon="4.79435">
        <ele>244</ele>
        <time>2018-03-18T11:13:56Z</time>
      </trkpt>
      <trkpt lat="45.98524" lon="4.79427">
        <ele>244</ele>
        <time>2018-03-18T11:13:57Z</time>
      </trkpt>
      <trkpt lat="45.98523" lon="4.79418">
        <ele>244</ele>
        <time>2018-03-18T11:13:58Z</time>
      </trkpt>
      <trkpt lat="45.98522" lon="4.79408">
        <ele>244</ele>
        <time>2018-03-18T11:13:59Z</time>
      </trkpt>
      <trkpt lat="45.98521" lon="4.79401">
        <ele>244</ele>
        <time>2018-03-18T11:14:00Z</time>
      </trkpt>
      <trkpt lat="45.98522" lon="4.79391">
        <ele>244</ele>
        <time>2018-03-18T11:14:01Z</time>
      </trkpt>
      <trkpt lat="45.9852" lon="4.79381">
        <ele>244</ele>
        <time>2018-03-18T11:14:02Z</time>
      </trkpt>
      <trkpt lat="45.9852" lon="4.79373">
        <ele>243</ele>
        <time>2018-03-18T11:14:03Z</time>
      </trkpt>
      <trkpt lat="45.98517" lon="4.79364">
        <ele>243</ele>
        <time>2018-03-18T11:14:04Z</time>
      </trkpt>
      <trkpt lat="45.98517" lon="4.79358">
        <ele>243</ele>
        <time>2018-03-18T11:14:05Z</time>
      </trkpt>
      <trkpt lat="45.98515" lon="4.79351">
        <ele>243</ele>
        <time>2018-03-18T11:14:06Z</time>
      </trkpt>
      <trkpt lat="45.98515" lon="4.79342">
        <ele>243</ele>
        <time>2018-03-18T11:14:07Z</time>
      </trkpt>
      <trkpt lat="45.98514" lon="4.79335">
        <ele>243</ele>
        <time>2018-03-18T11:14:08Z</time>
      </trkpt>
      <trkpt lat="45.98511" lon="4.79328">
        <ele>243</ele>
        <time>2018-03-18T11:14:09Z</time>
      </trkpt>
      <trkpt lat="45.98509" lon="4.79322">
        <ele>243</ele>
        <time>2018-03-18T11:14:10Z</time>
      </trkpt>
      <trkpt lat="45.98507" lon="4.79315">
        <ele>243</ele>
        <time>2018-03-18T11:14:11Z</time>
      </trkpt>
      <trkpt lat="45.98505" lon="4.79308">
        <ele>243</ele>
        <time>2018-03-18T11:14:12Z</time>
      </trkpt>
      <trkpt lat="45.98501" lon="4.79301">
        <ele>243</ele>
        <time>2018-03-18T11:14:13Z</time>
      </trkpt>
      <trkpt lat="45.98497" lon="4.79293">
        <ele>243</ele>
        <time>2018-03-18T11:14:14Z</time>
      </trkpt>
      <trkpt lat="45.98494" lon="4.79286">
        <ele>243</ele>
        <time>2018-03-18T11:14:15Z</time>
      </trkpt>
      <trkpt lat="45.98491" lon="4.79279">
        <ele>243</ele>
        <time>2018-03-18T11:14:16Z</time>
      </trkpt>
      <trkpt lat="45.98488" lon="4.79272">
        <ele>243</ele>
        <time>2018-03-18T11:14:17Z</time>
      </trkpt>
      <trkpt lat="45.98484" lon="4.79264">
        <ele>243</ele>
        <time>2018-03-18T11:14:18Z</time>
      </trkpt>
      <trkpt lat="45.9848" lon="4.79257">
        <ele>243</ele>
        <time>2018-03-18T11:14:19Z</time>
      </trkpt>
      <trkpt lat="45.98476" lon="4.7925">
        <ele>243</ele>
        <time>2018-03-18T11:14:20Z</time>
      </trkpt>
      <trkpt lat="45.98473" lon="4.79244">
        <ele>243</ele>
        <time>2018-03-18T11:14:21Z</time>
      </trkpt>
      <trkpt lat="45.9847" lon="4.79238">
        <ele>243</ele>
        <time>2018-03-18T11:14:22Z</time>
      </trkpt>
      <trkpt lat="45.98469" lon="4.79231">
        <ele>243</ele>
        <time>2018-03-18T11:14:23Z</time>
      </trkpt>
      <trkpt lat="45.98464" lon="4.79224">
        <ele>243</ele>
        <time>2018-03-18T11:14:24Z</time>
      </trkpt>
      <trkpt lat="45.98461" lon="4.79218">
        <ele>243</ele>
        <time>2018-03-18T11:14:25Z</time>
      </trkpt>
      <trkpt lat="45.98457" lon="4.79213">
        <ele>243</ele>
        <time>2018-03-18T11:14:26Z</time>
      </trkpt>
      <trkpt lat="45.98454" lon="4.79206">
        <ele>242</ele>
        <time>2018-03-18T11:14:27Z</time>
      </trkpt>
      <trkpt lat="45.9845" lon="4.792">
        <ele>242</ele>
        <time>2018-03-18T11:14:28Z</time>
      </trkpt>
      <trkpt lat="45.98446" lon="4.79194">
        <ele>242</ele>
        <time>2018-03-18T11:14:29Z</time>
      </trkpt>
      <trkpt lat="45.98443" lon="4.79187">
        <ele>242</ele>
        <time>2018-03-18T11:14:30Z</time>
      </trkpt>
      <trkpt lat="45.98439" lon="4.7918">
        <ele>242</ele>
        <time>2018-03-18T11:14:31Z</time>
      </trkpt>
      <trkpt lat="45.98436" lon="4.79173">
        <ele>242</ele>
        <time>2018-03-18T11:14:32Z</time>
      </trkpt>
      <trkpt lat="45.98433" lon="4.79166">
        <ele>242</ele>
        <time>2018-03-18T11:14:33Z</time>
      </trkpt>
      <trkpt lat="45.98429" lon="4.7916">
        <ele>242</ele>
        <time>2018-03-18T11:14:34Z</time>
      </trkpt>
      <trkpt lat="45.98426" lon="4.79153">
        <ele>242</ele>
        <time>2018-03-18T11:14:35Z</time>
      </trkpt>
      <trkpt lat="45.98423" lon="4.79148">
        <ele>242</ele>
        <time>2018-03-18T11:14:36Z</time>
      </trkpt>
      <trkpt lat="45.98419" lon="4.79142">
        <ele>242</ele>
        <time>2018-03-18T11:14:37Z</time>
      </trkpt>
      <trkpt lat="45.98415" lon="4.79136">
        <ele>242</ele>
        <time>2018-03-18T11:14:38Z</time>
      </trkpt>
      <trkpt lat="45.98412" lon="4.79131">
        <ele>242</ele>
        <time>2018-03-18T11:14:39Z</time>
      </trkpt>
      <trkpt lat="45.98408" lon="4.79125">
        <ele>242</ele>
        <time>2018-03-18T11:14:40Z</time>
      </trkpt>
      <trkpt lat="45.98405" lon="4.79119">
        <ele>242</ele>
        <time>2018-03-18T11:14:41Z</time>
      </trkpt>
      <trkpt lat="45.98401" lon="4.79112">
        <ele>242</ele>
        <time>2018-03-18T11:14:42Z</time>
      </trkpt>
      <trkpt lat="45.98398" lon="4.79107">
        <ele>242</ele>
        <time>2018-03-18T11:14:43Z</time>
      </trkpt>
      <trkpt lat="45.98393" lon="4.791">
        <ele>242</ele>
        <time>2018-03-18T11:14:44Z</time>
      </trkpt>
      <trkpt lat="45.98389" lon="4.79093">
        <ele>242</ele>
        <time>2018-03-18T11:14:45Z</time>
      </trkpt>
      <trkpt lat="45.98386" lon="4.79086">
        <ele>242</ele>
        <time>2018-03-18T11:14:46Z</time>
      </trkpt>
      <trkpt lat="45.98383" lon="4.79079">
        <ele>242</ele>
        <time>2018-03-18T11:14:47Z</time>
      </trkpt>
      <trkpt lat="45.98379" lon="4.79072">
        <ele>242</ele>
        <time>2018-03-18T11:14:48Z</time>
      </trkpt>
      <trkpt lat="45.98376" lon="4.79066">
        <ele>242</ele>
        <time>2018-03-18T11:14:49Z</time>
      </trkpt>
      <trkpt lat="45.98373" lon="4.7906">
        <ele>242</ele>
        <time>2018-03-18T11:14:50Z</time>
      </trkpt>
      <trkpt lat="45.98369" lon="4.79053">
        <ele>242</ele>
        <time>2018-03-18T11:14:51Z</time>
      </trkpt>
      <trkpt lat="45.98366" lon="4.79048">
        <ele>242</ele>
        <time>2018-03-18T11:14:52Z</time>
      </trkpt>
      <trkpt lat="45.98363" lon="4.79043">
        <ele>242</ele>
        <time>2018-03-18T11:14:53Z</time>
      </trkpt>
      <trkpt lat="45.98359" lon="4.79038">
        <ele>242</ele>
        <time>2018-03-18T11:14:54Z</time>
      </trkpt>
      <trkpt lat="45.98355" lon="4.7903">
        <ele>242</ele>
        <time>2018-03-18T11:14:55Z</time>
      </trkpt>
      <trkpt lat="45.98351" lon="4.79025">
        <ele>242</ele>
        <time>2018-03-18T11:14:56Z</time>
      </trkpt>
      <trkpt lat="45.98347" lon="4.7902">
        <ele>242</ele>
        <time>2018-03-18T11:14:57Z</time>
      </trkpt>
      <trkpt lat="45.98342" lon="4.79015">
        <ele>242</ele>
        <time>2018-03-18T11:14:58Z</time>
      </trkpt>
      <trkpt lat="45.98337" lon="4.7901">
        <ele>242</ele>
        <time>2018-03-18T11:14:59Z</time>
      </trkpt>
      <trkpt lat="45.98332" lon="4.79005">
        <ele>242</ele>
        <time>2018-03-18T11:15:00Z</time>
      </trkpt>
      <trkpt lat="45.98327" lon="4.79001">
        <ele>242</ele>
        <time>2018-03-18T11:15:01Z</time>
      </trkpt>
      <trkpt lat="45.98322" lon="4.78998">
        <ele>242</ele>
        <time>2018-03-18T11:15:02Z</time>
      </trkpt>
      <trkpt lat="45.98317" lon="4.78993">
        <ele>242</ele>
        <time>2018-03-18T11:15:03Z</time>
      </trkpt>
      <trkpt lat="45.98311" lon="4.7899">
        <ele>241</ele>
        <time>2018-03-18T11:15:04Z</time>
      </trkpt>
      <trkpt lat="45.98306" lon="4.78988">
        <ele>241</ele>
        <time>2018-03-18T11:15:05Z</time>
      </trkpt>
      <trkpt lat="45.983" lon="4.78986">
        <ele>241</ele>
        <time>2018-03-18T11:15:06Z</time>
      </trkpt>
      <trkpt lat="45.98295" lon="4.78981">
        <ele>241</ele>
        <time>2018-03-18T11:15:07Z</time>
      </trkpt>
      <trkpt lat="45.9829" lon="4.78978">
        <ele>241</ele>
        <time>2018-03-18T11:15:08Z</time>
      </trkpt>
      <trkpt lat="45.98285" lon="4.78974">
        <ele>241</ele>
        <time>2018-03-18T11:15:09Z</time>
      </trkpt>
      <trkpt lat="45.9828" lon="4.78972">
        <ele>241</ele>
        <time>2018-03-18T11:15:10Z</time>
      </trkpt>
      <trkpt lat="45.98275" lon="4.78969">
        <ele>241</ele>
        <time>2018-03-18T11:15:11Z</time>
      </trkpt>
      <trkpt lat="45.9827" lon="4.78965">
        <ele>241</ele>
        <time>2018-03-18T11:15:12Z</time>
      </trkpt>
      <trkpt lat="45.98265" lon="4.78963">
        <ele>241</ele>
        <time>2018-03-18T11:15:13Z</time>
      </trkpt>
      <trkpt lat="45.9826" lon="4.7896">
        <ele>241</ele>
        <time>2018-03-18T11:15:14Z</time>
      </trkpt>
      <trkpt lat="45.98255" lon="4.78957">
        <ele>241</ele>
        <time>2018-03-18T11:15:15Z</time>
      </trkpt>
      <trkpt lat="45.98248" lon="4.78954">
        <ele>241</ele>
        <time>2018-03-18T11:15:16Z</time>
      </trkpt>
      <trkpt lat="45.98242" lon="4.78946">
        <ele>241</ele>
        <time>2018-03-18T11:15:17Z</time>
      </trkpt>
      <trkpt lat="45.98236" lon="4.7894">
        <ele>241</ele>
        <time>2018-03-18T11:15:18Z</time>
      </trkpt>
      <trkpt lat="45.9823" lon="4.78938">
        <ele>241</ele>
        <time>2018-03-18T11:15:19Z</time>
      </trkpt>
      <trkpt lat="45.98224" lon="4.78935">
        <ele>241</ele>
        <time>2018-03-18T11:15:20Z</time>
      </trkpt>
      <trkpt lat="45.98217" lon="4.7893">
        <ele>241</ele>
        <time>2018-03-18T11:15:21Z</time>
      </trkpt>
      <trkpt lat="45.98211" lon="4.78927">
        <ele>241</ele>
        <time>2018-03-18T11:15:22Z</time>
      </trkpt>
      <trkpt lat="45.98205" lon="4.78924">
        <ele>241</ele>
        <time>2018-03-18T11:15:23Z</time>
      </trkpt>
      <trkpt lat="45.98199" lon="4.78923">
        <ele>241</ele>
        <time>2018-03-18T11:15:24Z</time>
      </trkpt>
      <trkpt lat="45.98193" lon="4.7892">
        <ele>241</ele>
        <time>2018-03-18T11:15:25Z</time>
      </trkpt>
      <trkpt lat="45.9819" lon="4.78919">
        <ele>241</ele>
        <time>2018-03-18T11:15:26Z</time>
      </trkpt>
      <trkpt lat="45.98185" lon="4.78917">
        <ele>240</ele>
        <time>2018-03-18T11:15:27Z</time>
      </trkpt>
      <trkpt lat="45.9818" lon="4.78914">
        <ele>240</ele>
        <time>2018-03-18T11:15:28Z</time>
      </trkpt>
      <trkpt lat="45.98175" lon="4.78911">
        <ele>240</ele>
        <time>2018-03-18T11:15:29Z</time>
      </trkpt>
      <trkpt lat="45.98169" lon="4.78909">
        <ele>240</ele>
        <time>2018-03-18T11:15:30Z</time>
      </trkpt>
      <trkpt lat="45.98163" lon="4.78906">
        <ele>240</ele>
        <time>2018-03-18T11:15:31Z</time>
      </trkpt>
      <trkpt lat="45.98156" lon="4.78903">
        <ele>240</ele>
        <time>2018-03-18T11:15:32Z</time>
      </trkpt>
      <trkpt lat="45.9815" lon="4.789">
        <ele>240</ele>
        <time>2018-03-18T11:15:33Z</time>
      </trkpt>
      <trkpt lat="45.98144" lon="4.78895">
        <ele>240</ele>
        <time>2018-03-18T11:15:34Z</time>
      </trkpt>
      <trkpt lat="45.98137" lon="4.78892">
        <ele>240</ele>
        <time>2018-03-18T11:15:35Z</time>
      </trkpt>
      <trkpt lat="45.9813" lon="4.78888">
        <ele>240</ele>
        <time>2018-03-18T11:15:36Z</time>
      </trkpt>
      <trkpt lat="45.98123" lon="4.78885">
        <ele>240</ele>
        <time>2018-03-18T11:15:37Z</time>
      </trkpt>
      <trkpt lat="45.98117" lon="4.78882">
        <ele>240</ele>
        <time>2018-03-18T11:15:38Z</time>
      </trkpt>
      <trkpt lat="45.9811" lon="4.78878">
        <ele>240</ele>
        <time>2018-03-18T11:15:39Z</time>
      </trkpt>
      <trkpt lat="45.98105" lon="4.78877">
        <ele>240</ele>
        <time>2018-03-18T11:15:40Z</time>
      </trkpt>
      <trkpt lat="45.98099" lon="4.78873">
        <ele>239</ele>
        <time>2018-03-18T11:15:41Z</time>
      </trkpt>
      <trkpt lat="45.98095" lon="4.78869">
        <ele>239</ele>
        <time>2018-03-18T11:15:42Z</time>
      </trkpt>
      <trkpt lat="45.9809" lon="4.78866">
        <ele>239</ele>
        <time>2018-03-18T11:15:43Z</time>
      </trkpt>
      <trkpt lat="45.98081" lon="4.78862">
        <ele>239</ele>
        <time>2018-03-18T11:15:44Z</time>
      </trkpt>
      <trkpt lat="45.98075" lon="4.78856">
        <ele>239</ele>
        <time>2018-03-18T11:15:45Z</time>
      </trkpt>
      <trkpt lat="45.9807" lon="4.78851">
        <ele>239</ele>
        <time>2018-03-18T11:15:46Z</time>
      </trkpt>
      <trkpt lat="45.98064" lon="4.78847">
        <ele>239</ele>
        <time>2018-03-18T11:15:47Z</time>
      </trkpt>
      <trkpt lat="45.98058" lon="4.78844">
        <ele>239</ele>
        <time>2018-03-18T11:15:48Z</time>
      </trkpt>
      <trkpt lat="45.98051" lon="4.7884">
        <ele>238</ele>
        <time>2018-03-18T11:15:49Z</time>
      </trkpt>
      <trkpt lat="45.98045" lon="4.78835">
        <ele>238</ele>
        <time>2018-03-18T11:15:50Z</time>
      </trkpt>
      <trkpt lat="45.98039" lon="4.78828">
        <ele>238</ele>
        <time>2018-03-18T11:15:51Z</time>
      </trkpt>
      <trkpt lat="45.98033" lon="4.78824">
        <ele>238</ele>
        <time>2018-03-18T11:15:52Z</time>
      </trkpt>
      <trkpt lat="45.98028" lon="4.78821">
        <ele>238</ele>
        <time>2018-03-18T11:15:53Z</time>
      </trkpt>
      <trkpt lat="45.98023" lon="4.78816">
        <ele>238</ele>
        <time>2018-03-18T11:15:54Z</time>
      </trkpt>
      <trkpt lat="45.98017" lon="4.78813">
        <ele>238</ele>
        <time>2018-03-18T11:15:55Z</time>
      </trkpt>
      <trkpt lat="45.98011" lon="4.78809">
        <ele>238</ele>
        <time>2018-03-18T11:15:56Z</time>
      </trkpt>
      <trkpt lat="45.98007" lon="4.78807">
        <ele>238</ele>
        <time>2018-03-18T11:15:57Z</time>
      </trkpt>
      <trkpt lat="45.98002" lon="4.78804">
        <ele>238</ele>
        <time>2018-03-18T11:15:58Z</time>
      </trkpt>
      <trkpt lat="45.97996" lon="4.78799">
        <ele>238</ele>
        <time>2018-03-18T11:15:59Z</time>
      </trkpt>
      <trkpt lat="45.97992" lon="4.78794">
        <ele>238</ele>
        <time>2018-03-18T11:16:00Z</time>
      </trkpt>
      <trkpt lat="45.97988" lon="4.7879">
        <ele>238</ele>
        <time>2018-03-18T11:16:01Z</time>
      </trkpt>
      <trkpt lat="45.97983" lon="4.78786">
        <ele>238</ele>
        <time>2018-03-18T11:16:02Z</time>
      </trkpt>
      <trkpt lat="45.97978" lon="4.78782">
        <ele>238</ele>
        <time>2018-03-18T11:16:03Z</time>
      </trkpt>
      <trkpt lat="45.97972" lon="4.78779">
        <ele>238</ele>
        <time>2018-03-18T11:16:04Z</time>
      </trkpt>
      <trkpt lat="45.97967" lon="4.78775">
        <ele>238</ele>
        <time>2018-03-18T11:16:05Z</time>
      </trkpt>
      <trkpt lat="45.97961" lon="4.78769">
        <ele>238</ele>
        <time>2018-03-18T11:16:06Z</time>
      </trkpt>
      <trkpt lat="45.97955" lon="4.78766">
        <ele>238</ele>
        <time>2018-03-18T11:16:07Z</time>
      </trkpt>
      <trkpt lat="45.97949" lon="4.78763">
        <ele>238</ele>
        <time>2018-03-18T11:16:08Z</time>
      </trkpt>
      <trkpt lat="45.97944" lon="4.78759">
        <ele>238</ele>
        <time>2018-03-18T11:16:09Z</time>
      </trkpt>
      <trkpt lat="45.97939" lon="4.78753">
        <ele>238</ele>
        <time>2018-03-18T11:16:10Z</time>
      </trkpt>
      <trkpt lat="45.97933" lon="4.78749">
        <ele>237</ele>
        <time>2018-03-18T11:16:11Z</time>
      </trkpt>
      <trkpt lat="45.97928" lon="4.78743">
        <ele>237</ele>
        <time>2018-03-18T11:16:12Z</time>
      </trkpt>
      <trkpt lat="45.97921" lon="4.78739">
        <ele>237</ele>
        <time>2018-03-18T11:16:13Z</time>
      </trkpt>
      <trkpt lat="45.97916" lon="4.78735">
        <ele>237</ele>
        <time>2018-03-18T11:16:14Z</time>
      </trkpt>
      <trkpt lat="45.9791" lon="4.7873">
        <ele>237</ele>
        <time>2018-03-18T11:16:15Z</time>
      </trkpt>
      <trkpt lat="45.97904" lon="4.78725">
        <ele>237</ele>
        <time>2018-03-18T11:16:16Z</time>
      </trkpt>
      <trkpt lat="45.97898" lon="4.78721">
        <ele>236</ele>
        <time>2018-03-18T11:16:17Z</time>
      </trkpt>
      <trkpt lat="45.97892" lon="4.78717">
        <ele>236</ele>
        <time>2018-03-18T11:16:18Z</time>
      </trkpt>
      <trkpt lat="45.97887" lon="4.78713">
        <ele>236</ele>
        <time>2018-03-18T11:16:19Z</time>
      </trkpt>
      <trkpt lat="45.97881" lon="4.78708">
        <ele>236</ele>
        <time>2018-03-18T11:16:20Z</time>
      </trkpt>
      <trkpt lat="45.97874" lon="4.78704">
        <ele>236</ele>
        <time>2018-03-18T11:16:21Z</time>
      </trkpt>
      <trkpt lat="45.97869" lon="4.78701">
        <ele>236</ele>
        <time>2018-03-18T11:16:22Z</time>
      </trkpt>
      <trkpt lat="45.9786" lon="4.78696">
        <ele>236</ele>
        <time>2018-03-18T11:16:23Z</time>
      </trkpt>
      <trkpt lat="45.97854" lon="4.78692">
        <ele>236</ele>
        <time>2018-03-18T11:16:24Z</time>
      </trkpt>
      <trkpt lat="45.97847" lon="4.78688">
        <ele>236</ele>
        <time>2018-03-18T11:16:25Z</time>
      </trkpt>
      <trkpt lat="45.97841" lon="4.78685">
        <ele>236</ele>
        <time>2018-03-18T11:16:26Z</time>
      </trkpt>
      <trkpt lat="45.97834" lon="4.78681">
        <ele>236</ele>
        <time>2018-03-18T11:16:27Z</time>
      </trkpt>
      <trkpt lat="45.97828" lon="4.78678">
        <ele>235</ele>
        <time>2018-03-18T11:16:28Z</time>
      </trkpt>
      <trkpt lat="45.97822" lon="4.78675">
        <ele>235</ele>
        <time>2018-03-18T11:16:29Z</time>
      </trkpt>
      <trkpt lat="45.97816" lon="4.78673">
        <ele>235</ele>
        <time>2018-03-18T11:16:30Z</time>
      </trkpt>
      <trkpt lat="45.9781" lon="4.78671">
        <ele>235</ele>
        <time>2018-03-18T11:16:31Z</time>
      </trkpt>
      <trkpt lat="45.97804" lon="4.78669">
        <ele>235</ele>
        <time>2018-03-18T11:16:32Z</time>
      </trkpt>
      <trkpt lat="45.97797" lon="4.78666">
        <ele>235</ele>
        <time>2018-03-18T11:16:33Z</time>
      </trkpt>
      <trkpt lat="45.97792" lon="4.78664">
        <ele>235</ele>
        <time>2018-03-18T11:16:34Z</time>
      </trkpt>
      <trkpt lat="45.97786" lon="4.78662">
        <ele>235</ele>
        <time>2018-03-18T11:16:35Z</time>
      </trkpt>
      <trkpt lat="45.9778" lon="4.7866">
        <ele>235</ele>
        <time>2018-03-18T11:16:36Z</time>
      </trkpt>
      <trkpt lat="45.97773" lon="4.78658">
        <ele>235</ele>
        <time>2018-03-18T11:16:37Z</time>
      </trkpt>
      <trkpt lat="45.97767" lon="4.78655">
        <ele>235</ele>
        <time>2018-03-18T11:16:38Z</time>
      </trkpt>
      <trkpt lat="45.97761" lon="4.78653">
        <ele>235</ele>
        <time>2018-03-18T11:16:39Z</time>
      </trkpt>
      <trkpt lat="45.97756" lon="4.7865">
        <ele>235</ele>
        <time>2018-03-18T11:16:40Z</time>
      </trkpt>
      <trkpt lat="45.9775" lon="4.78648">
        <ele>235</ele>
        <time>2018-03-18T11:16:41Z</time>
      </trkpt>
      <trkpt lat="45.97744" lon="4.78645">
        <ele>234</ele>
        <time>2018-03-18T11:16:42Z</time>
      </trkpt>
      <trkpt lat="45.97739" lon="4.78642">
        <ele>234</ele>
        <time>2018-03-18T11:16:43Z</time>
      </trkpt>
      <trkpt lat="45.97733" lon="4.7864">
        <ele>234</ele>
        <time>2018-03-18T11:16:44Z</time>
      </trkpt>
      <trkpt lat="45.97726" lon="4.78637">
        <ele>234</ele>
        <time>2018-03-18T11:16:45Z</time>
      </trkpt>
      <trkpt lat="45.9772" lon="4.78634">
        <ele>234</ele>
        <time>2018-03-18T11:16:46Z</time>
      </trkpt>
      <trkpt lat="45.97714" lon="4.78631">
        <ele>234</ele>
        <time>2018-03-18T11:16:47Z</time>
      </trkpt>
      <trkpt lat="45.97706" lon="4.78631">
        <ele>234</ele>
        <time>2018-03-18T11:16:48Z</time>
      </trkpt>
      <trkpt lat="45.977" lon="4.78628">
        <ele>234</ele>
        <time>2018-03-18T11:16:49Z</time>
      </trkpt>
      <trkpt lat="45.97695" lon="4.78626">
        <ele>234</ele>
        <time>2018-03-18T11:16:50Z</time>
      </trkpt>
      <trkpt lat="45.9769" lon="4.78623">
        <ele>234</ele>
        <time>2018-03-18T11:16:51Z</time>
      </trkpt>
      <trkpt lat="45.97685" lon="4.78624">
        <ele>234</ele>
        <time>2018-03-18T11:16:52Z</time>
      </trkpt>
      <trkpt lat="45.97679" lon="4.78621">
        <ele>234</ele>
        <time>2018-03-18T11:16:53Z</time>
      </trkpt>
      <trkpt lat="45.97673" lon="4.78619">
        <ele>234</ele>
        <time>2018-03-18T11:16:54Z</time>
      </trkpt>
      <trkpt lat="45.97666" lon="4.78617">
        <ele>233</ele>
        <time>2018-03-18T11:16:55Z</time>
      </trkpt>
      <trkpt lat="45.97661" lon="4.78615">
        <ele>233</ele>
        <time>2018-03-18T11:16:56Z</time>
      </trkpt>
      <trkpt lat="45.97656" lon="4.78611">
        <ele>233</ele>
        <time>2018-03-18T11:16:57Z</time>
      </trkpt>
      <trkpt lat="45.9765" lon="4.78609">
        <ele>233</ele>
        <time>2018-03-18T11:16:58Z</time>
      </trkpt>
      <trkpt lat="45.97644" lon="4.78606">
        <ele>233</ele>
        <time>2018-03-18T11:16:59Z</time>
      </trkpt>
      <trkpt lat="45.97639" lon="4.78604">
        <ele>233</ele>
        <time>2018-03-18T11:17:00Z</time>
      </trkpt>
      <trkpt lat="45.97633" lon="4.78603">
        <ele>233</ele>
        <time>2018-03-18T11:17:01Z</time>
      </trkpt>
      <trkpt lat="45.97627" lon="4.78601">
        <ele>233</ele>
        <time>2018-03-18T11:17:02Z</time>
      </trkpt>
      <trkpt lat="45.97621" lon="4.78596">
        <ele>233</ele>
        <time>2018-03-18T11:17:03Z</time>
      </trkpt>
      <trkpt lat="45.97613" lon="4.78593">
        <ele>233</ele>
        <time>2018-03-18T11:17:04Z</time>
      </trkpt>
      <trkpt lat="45.97607" lon="4.78591">
        <ele>233</ele>
        <time>2018-03-18T11:17:05Z</time>
      </trkpt>
      <trkpt lat="45.97599" lon="4.7859">
        <ele>233</ele>
        <time>2018-03-18T11:17:06Z</time>
      </trkpt>
      <trkpt lat="45.97592" lon="4.78588">
        <ele>233</ele>
        <time>2018-03-18T11:17:07Z</time>
      </trkpt>
      <trkpt lat="45.97587" lon="4.78584">
        <ele>233</ele>
        <time>2018-03-18T11:17:08Z</time>
      </trkpt>
      <trkpt lat="45.97581" lon="4.78581">
        <ele>233</ele>
        <time>2018-03-18T11:17:09Z</time>
      </trkpt>
      <trkpt lat="45.97575" lon="4.78577">
        <ele>233</ele>
        <time>2018-03-18T11:17:10Z</time>
      </trkpt>
      <trkpt lat="45.97567" lon="4.78574">
        <ele>233</ele>
        <time>2018-03-18T11:17:11Z</time>
      </trkpt>
      <trkpt lat="45.9756" lon="4.78572">
        <ele>233</ele>
        <time>2018-03-18T11:17:12Z</time>
      </trkpt>
      <trkpt lat="45.97553" lon="4.78569">
        <ele>234</ele>
        <time>2018-03-18T11:17:13Z</time>
      </trkpt>
      <trkpt lat="45.97546" lon="4.78564">
        <ele>234</ele>
        <time>2018-03-18T11:17:14Z</time>
      </trkpt>
      <trkpt lat="45.9754" lon="4.78561">
        <ele>234</ele>
        <time>2018-03-18T11:17:15Z</time>
      </trkpt>
      <trkpt lat="45.97533" lon="4.78557">
        <ele>234</ele>
        <time>2018-03-18T11:17:16Z</time>
      </trkpt>
      <trkpt lat="45.97526" lon="4.78555">
        <ele>234</ele>
        <time>2018-03-18T11:17:17Z</time>
      </trkpt>
      <trkpt lat="45.9752" lon="4.78551">
        <ele>234</ele>
        <time>2018-03-18T11:17:18Z</time>
      </trkpt>
      <trkpt lat="45.97514" lon="4.78548">
        <ele>234</ele>
        <time>2018-03-18T11:17:19Z</time>
      </trkpt>
      <trkpt lat="45.97508" lon="4.78544">
        <ele>234</ele>
        <time>2018-03-18T11:17:20Z</time>
      </trkpt>
      <trkpt lat="45.97502" lon="4.7854">
        <ele>234</ele>
        <time>2018-03-18T11:17:21Z</time>
      </trkpt>
      <trkpt lat="45.97497" lon="4.78536">
        <ele>233</ele>
        <time>2018-03-18T11:17:22Z</time>
      </trkpt>
      <trkpt lat="45.97491" lon="4.78531">
        <ele>233</ele>
        <time>2018-03-18T11:17:23Z</time>
      </trkpt>
      <trkpt lat="45.97486" lon="4.78526">
        <ele>233</ele>
        <time>2018-03-18T11:17:24Z</time>
      </trkpt>
      <trkpt lat="45.97482" lon="4.78523">
        <ele>233</ele>
        <time>2018-03-18T11:17:25Z</time>
      </trkpt>
      <trkpt lat="45.97477" lon="4.7852">
        <ele>233</ele>
        <time>2018-03-18T11:17:26Z</time>
      </trkpt>
      <trkpt lat="45.97472" lon="4.78516">
        <ele>234</ele>
        <time>2018-03-18T11:17:27Z</time>
      </trkpt>
      <trkpt lat="45.97467" lon="4.78513">
        <ele>233</ele>
        <time>2018-03-18T11:17:28Z</time>
      </trkpt>
      <trkpt lat="45.97462" lon="4.78511">
        <ele>233</ele>
        <time>2018-03-18T11:17:29Z</time>
      </trkpt>
      <trkpt lat="45.97457" lon="4.78507">
        <ele>234</ele>
        <time>2018-03-18T11:17:30Z</time>
      </trkpt>
      <trkpt lat="45.97452" lon="4.78503">
        <ele>234</ele>
        <time>2018-03-18T11:17:31Z</time>
      </trkpt>
      <trkpt lat="45.97446" lon="4.78499">
        <ele>234</ele>
        <time>2018-03-18T11:17:32Z</time>
      </trkpt>
      <trkpt lat="45.97441" lon="4.78495">
        <ele>234</ele>
        <time>2018-03-18T11:17:33Z</time>
      </trkpt>
      <trkpt lat="45.97436" lon="4.78491">
        <ele>234</ele>
        <time>2018-03-18T11:17:34Z</time>
      </trkpt>
      <trkpt lat="45.97431" lon="4.78486">
        <ele>234</ele>
        <time>2018-03-18T11:17:35Z</time>
      </trkpt>
      <trkpt lat="45.97426" lon="4.78479">
        <ele>234</ele>
        <time>2018-03-18T11:17:36Z</time>
      </trkpt>
      <trkpt lat="45.97418" lon="4.78472">
        <ele>234</ele>
        <time>2018-03-18T11:17:37Z</time>
      </trkpt>
      <trkpt lat="45.97411" lon="4.78465">
        <ele>233</ele>
        <time>2018-03-18T11:17:38Z</time>
      </trkpt>
      <trkpt lat="45.97406" lon="4.78459">
        <ele>233</ele>
        <time>2018-03-18T11:17:39Z</time>
      </trkpt>
      <trkpt lat="45.974" lon="4.78452">
        <ele>233</ele>
        <time>2018-03-18T11:17:40Z</time>
      </trkpt>
      <trkpt lat="45.97395" lon="4.78447">
        <ele>233</ele>
        <time>2018-03-18T11:17:41Z</time>
      </trkpt>
      <trkpt lat="45.9739" lon="4.78442">
        <ele>233</ele>
        <time>2018-03-18T11:17:42Z</time>
      </trkpt>
      <trkpt lat="45.97385" lon="4.78436">
        <ele>233</ele>
        <time>2018-03-18T11:17:43Z</time>
      </trkpt>
      <trkpt lat="45.9738" lon="4.78431">
        <ele>233</ele>
        <time>2018-03-18T11:17:44Z</time>
      </trkpt>
      <trkpt lat="45.97375" lon="4.78426">
        <ele>233</ele>
        <time>2018-03-18T11:17:45Z</time>
      </trkpt>
      <trkpt lat="45.97369" lon="4.78421">
        <ele>233</ele>
        <time>2018-03-18T11:17:46Z</time>
      </trkpt>
      <trkpt lat="45.97364" lon="4.78417">
        <ele>233</ele>
        <time>2018-03-18T11:17:47Z</time>
      </trkpt>
      <trkpt lat="45.97359" lon="4.78412">
        <ele>233</ele>
        <time>2018-03-18T11:17:48Z</time>
      </trkpt>
      <trkpt lat="45.97357" lon="4.78405">
        <ele>233</ele>
        <time>2018-03-18T11:17:49Z</time>
      </trkpt>
      <trkpt lat="45.97352" lon="4.784">
        <ele>232</ele>
        <time>2018-03-18T11:17:50Z</time>
      </trkpt>
      <trkpt lat="45.97347" lon="4.78396">
        <ele>232</ele>
        <time>2018-03-18T11:17:51Z</time>
      </trkpt>
      <trkpt lat="45.97343" lon="4.7839">
        <ele>233</ele>
        <time>2018-03-18T11:17:52Z</time>
      </trkpt>
      <trkpt lat="45.97339" lon="4.78384">
        <ele>233</ele>
        <time>2018-03-18T11:17:53Z</time>
      </trkpt>
      <trkpt lat="45.97334" lon="4.78379">
        <ele>233</ele>
        <time>2018-03-18T11:17:54Z</time>
      </trkpt>
      <trkpt lat="45.97329" lon="4.78374">
        <ele>232</ele>
        <time>2018-03-18T11:17:55Z</time>
      </trkpt>
      <trkpt lat="45.97324" lon="4.78368">
        <ele>232</ele>
        <time>2018-03-18T11:17:56Z</time>
      </trkpt>
      <trkpt lat="45.97319" lon="4.78362">
        <ele>232</ele>
        <time>2018-03-18T11:17:57Z</time>
      </trkpt>
      <trkpt lat="45.97314" lon="4.78356">
        <ele>232</ele>
        <time>2018-03-18T11:17:58Z</time>
      </trkpt>
      <trkpt lat="45.97308" lon="4.7835">
        <ele>232</ele>
        <time>2018-03-18T11:17:59Z</time>
      </trkpt>
      <trkpt lat="45.97304" lon="4.78344">
        <ele>232</ele>
        <time>2018-03-18T11:18:00Z</time>
      </trkpt>
      <trkpt lat="45.97299" lon="4.78338">
        <ele>232</ele>
        <time>2018-03-18T11:18:01Z</time>
      </trkpt>
      <trkpt lat="45.97295" lon="4.78333">
        <ele>232</ele>
        <time>2018-03-18T11:18:02Z</time>
      </trkpt>
      <trkpt lat="45.9729" lon="4.78326">
        <ele>232</ele>
        <time>2018-03-18T11:18:03Z</time>
      </trkpt>
      <trkpt lat="45.97286" lon="4.7832">
        <ele>232</ele>
        <time>2018-03-18T11:18:04Z</time>
      </trkpt>
      <trkpt lat="45.97282" lon="4.78314">
        <ele>232</ele>
        <time>2018-03-18T11:18:05Z</time>
      </trkpt>
      <trkpt lat="45.97279" lon="4.78306">
        <ele>232</ele>
        <time>2018-03-18T11:18:06Z</time>
      </trkpt>
      <trkpt lat="45.97274" lon="4.78299">
        <ele>232</ele>
        <time>2018-03-18T11:18:07Z</time>
      </trkpt>
      <trkpt lat="45.97271" lon="4.78289">
        <ele>232</ele>
        <time>2018-03-18T11:18:08Z</time>
      </trkpt>
      <trkpt lat="45.97267" lon="4.78282">
        <ele>232</ele>
        <time>2018-03-18T11:18:09Z</time>
      </trkpt>
      <trkpt lat="45.97261" lon="4.78274">
        <ele>232</ele>
        <time>2018-03-18T11:18:10Z</time>
      </trkpt>
      <trkpt lat="45.97256" lon="4.78267">
        <ele>231</ele>
        <time>2018-03-18T11:18:11Z</time>
      </trkpt>
      <trkpt lat="45.97251" lon="4.78259">
        <ele>231</ele>
        <time>2018-03-18T11:18:12Z</time>
      </trkpt>
      <trkpt lat="45.97246" lon="4.78253">
        <ele>231</ele>
        <time>2018-03-18T11:18:13Z</time>
      </trkpt>
      <trkpt lat="45.97242" lon="4.78246">
        <ele>231</ele>
        <time>2018-03-18T11:18:14Z</time>
      </trkpt>
      <trkpt lat="45.97237" lon="4.78239">
        <ele>231</ele>
        <time>2018-03-18T11:18:15Z</time>
      </trkpt>
      <trkpt lat="45.97232" lon="4.78232">
        <ele>231</ele>
        <time>2018-03-18T11:18:16Z</time>
      </trkpt>
      <trkpt lat="45.97228" lon="4.78225">
        <ele>231</ele>
        <time>2018-03-18T11:18:17Z</time>
      </trkpt>
      <trkpt lat="45.97225" lon="4.78217">
        <ele>231</ele>
        <time>2018-03-18T11:18:18Z</time>
      </trkpt>
      <trkpt lat="45.97221" lon="4.7821">
        <ele>231</ele>
        <time>2018-03-18T11:18:19Z</time>
      </trkpt>
      <trkpt lat="45.97216" lon="4.78203">
        <ele>231</ele>
        <time>2018-03-18T11:18:20Z</time>
      </trkpt>
      <trkpt lat="45.97212" lon="4.78197">
        <ele>231</ele>
        <time>2018-03-18T11:18:21Z</time>
      </trkpt>
      <trkpt lat="45.97208" lon="4.7819">
        <ele>231</ele>
        <time>2018-03-18T11:18:22Z</time>
      </trkpt>
      <trkpt lat="45.97204" lon="4.78183">
        <ele>231</ele>
        <time>2018-03-18T11:18:23Z</time>
      </trkpt>
      <trkpt lat="45.97199" lon="4.78176">
        <ele>231</ele>
        <time>2018-03-18T11:18:24Z</time>
      </trkpt>
      <trkpt lat="45.97196" lon="4.78167">
        <ele>231</ele>
        <time>2018-03-18T11:18:25Z</time>
      </trkpt>
      <trkpt lat="45.97191" lon="4.7816">
        <ele>231</ele>
        <time>2018-03-18T11:18:26Z</time>
      </trkpt>
      <trkpt lat="45.97187" lon="4.78153">
        <ele>231</ele>
        <time>2018-03-18T11:18:27Z</time>
      </trkpt>
      <trkpt lat="45.97184" lon="4.78145">
        <ele>231</ele>
        <time>2018-03-18T11:18:28Z</time>
      </trkpt>
      <trkpt lat="45.9718" lon="4.78137">
        <ele>231</ele>
        <time>2018-03-18T11:18:29Z</time>
      </trkpt>
      <trkpt lat="45.97176" lon="4.7813">
        <ele>231</ele>
        <time>2018-03-18T11:18:30Z</time>
      </trkpt>
      <trkpt lat="45.97172" lon="4.78122">
        <ele>231</ele>
        <time>2018-03-18T11:18:31Z</time>
      </trkpt>
      <trkpt lat="45.97168" lon="4.78114">
        <ele>231</ele>
        <time>2018-03-18T11:18:32Z</time>
      </trkpt>
      <trkpt lat="45.97164" lon="4.78107">
        <ele>230</ele>
        <time>2018-03-18T11:18:33Z</time>
      </trkpt>
      <trkpt lat="45.9716" lon="4.781">
        <ele>230</ele>
        <time>2018-03-18T11:18:34Z</time>
      </trkpt>
      <trkpt lat="45.97156" lon="4.78093">
        <ele>230</ele>
        <time>2018-03-18T11:18:35Z</time>
      </trkpt>
      <trkpt lat="45.97152" lon="4.78086">
        <ele>230</ele>
        <time>2018-03-18T11:18:36Z</time>
      </trkpt>
      <trkpt lat="45.97149" lon="4.78078">
        <ele>230</ele>
        <time>2018-03-18T11:18:37Z</time>
      </trkpt>
      <trkpt lat="45.97146" lon="4.78071">
        <ele>230</ele>
        <time>2018-03-18T11:18:38Z</time>
      </trkpt>
      <trkpt lat="45.97142" lon="4.78064">
        <ele>230</ele>
        <time>2018-03-18T11:18:39Z</time>
      </trkpt>
      <trkpt lat="45.97137" lon="4.78059">
        <ele>230</ele>
        <time>2018-03-18T11:18:40Z</time>
      </trkpt>
      <trkpt lat="45.97133" lon="4.78054">
        <ele>230</ele>
        <time>2018-03-18T11:18:41Z</time>
      </trkpt>
      <trkpt lat="45.97128" lon="4.78048">
        <ele>230</ele>
        <time>2018-03-18T11:18:42Z</time>
      </trkpt>
      <trkpt lat="45.97123" lon="4.78044">
        <ele>229</ele>
        <time>2018-03-18T11:18:43Z</time>
      </trkpt>
      <trkpt lat="45.97118" lon="4.78039">
        <ele>229</ele>
        <time>2018-03-18T11:18:44Z</time>
      </trkpt>
      <trkpt lat="45.97113" lon="4.78035">
        <ele>229</ele>
        <time>2018-03-18T11:18:45Z</time>
      </trkpt>
      <trkpt lat="45.97106" lon="4.7803">
        <ele>229</ele>
        <time>2018-03-18T11:18:46Z</time>
      </trkpt>
      <trkpt lat="45.97101" lon="4.78025">
        <ele>229</ele>
        <time>2018-03-18T11:18:47Z</time>
      </trkpt>
      <trkpt lat="45.97095" lon="4.78019">
        <ele>229</ele>
        <time>2018-03-18T11:18:48Z</time>
      </trkpt>
      <trkpt lat="45.97089" lon="4.78014">
        <ele>229</ele>
        <time>2018-03-18T11:18:49Z</time>
      </trkpt>
      <trkpt lat="45.97084" lon="4.78008">
        <ele>229</ele>
        <time>2018-03-18T11:18:50Z</time>
      </trkpt>
      <trkpt lat="45.97079" lon="4.78004">
        <ele>229</ele>
        <time>2018-03-18T11:18:51Z</time>
      </trkpt>
      <trkpt lat="45.97073" lon="4.77998">
        <ele>229</ele>
        <time>2018-03-18T11:18:52Z</time>
      </trkpt>
      <trkpt lat="45.97068" lon="4.77992">
        <ele>229</ele>
        <time>2018-03-18T11:18:53Z</time>
      </trkpt>
      <trkpt lat="45.97062" lon="4.77986">
        <ele>229</ele>
        <time>2018-03-18T11:18:54Z</time>
      </trkpt>
      <trkpt lat="45.97055" lon="4.7798">
        <ele>229</ele>
        <time>2018-03-18T11:18:55Z</time>
      </trkpt>
      <trkpt lat="45.97049" lon="4.77973">
        <ele>229</ele>
        <time>2018-03-18T11:18:56Z</time>
      </trkpt>
      <trkpt lat="45.97044" lon="4.77969">
        <ele>229</ele>
        <time>2018-03-18T11:18:57Z</time>
      </trkpt>
      <trkpt lat="45.97038" lon="4.77963">
        <ele>229</ele>
        <time>2018-03-18T11:18:58Z</time>
      </trkpt>
      <trkpt lat="45.97033" lon="4.77958">
        <ele>228</ele>
        <time>2018-03-18T11:18:59Z</time>
      </trkpt>
      <trkpt lat="45.97029" lon="4.77952">
        <ele>228</ele>
        <time>2018-03-18T11:19:00Z</time>
      </trkpt>
      <trkpt lat="45.97024" lon="4.77946">
        <ele>228</ele>
        <time>2018-03-18T11:19:01Z</time>
      </trkpt>
      <trkpt lat="45.9702" lon="4.77939">
        <ele>228</ele>
        <time>2018-03-18T11:19:02Z</time>
      </trkpt>
      <trkpt lat="45.97014" lon="4.77932">
        <ele>228</ele>
        <time>2018-03-18T11:19:03Z</time>
      </trkpt>
      <trkpt lat="45.97008" lon="4.77927">
        <ele>228</ele>
        <time>2018-03-18T11:19:04Z</time>
      </trkpt>
      <trkpt lat="45.97004" lon="4.77922">
        <ele>227</ele>
        <time>2018-03-18T11:19:05Z</time>
      </trkpt>
      <trkpt lat="45.96999" lon="4.77916">
        <ele>227</ele>
        <time>2018-03-18T11:19:06Z</time>
      </trkpt>
      <trkpt lat="45.96994" lon="4.7791">
        <ele>227</ele>
        <time>2018-03-18T11:19:07Z</time>
      </trkpt>
      <trkpt lat="45.96989" lon="4.77904">
        <ele>227</ele>
        <time>2018-03-18T11:19:08Z</time>
      </trkpt>
      <trkpt lat="45.96982" lon="4.77898">
        <ele>228</ele>
        <time>2018-03-18T11:19:09Z</time>
      </trkpt>
      <trkpt lat="45.96977" lon="4.7789">
        <ele>228</ele>
        <time>2018-03-18T11:19:10Z</time>
      </trkpt>
      <trkpt lat="45.96972" lon="4.77882">
        <ele>228</ele>
        <time>2018-03-18T11:19:11Z</time>
      </trkpt>
      <trkpt lat="45.96966" lon="4.77876">
        <ele>228</ele>
        <time>2018-03-18T11:19:12Z</time>
      </trkpt>
      <trkpt lat="45.9696" lon="4.77869">
        <ele>228</ele>
        <time>2018-03-18T11:19:13Z</time>
      </trkpt>
      <trkpt lat="45.96954" lon="4.77862">
        <ele>228</ele>
        <time>2018-03-18T11:19:14Z</time>
      </trkpt>
      <trkpt lat="45.96947" lon="4.77855">
        <ele>228</ele>
        <time>2018-03-18T11:19:15Z</time>
      </trkpt>
      <trkpt lat="45.96943" lon="4.77849">
        <ele>228</ele>
        <time>2018-03-18T11:19:16Z</time>
      </trkpt>
      <trkpt lat="45.96937" lon="4.77842">
        <ele>228</ele>
        <time>2018-03-18T11:19:17Z</time>
      </trkpt>
      <trkpt lat="45.9693" lon="4.77837">
        <ele>228</ele>
        <time>2018-03-18T11:19:18Z</time>
      </trkpt>
      <trkpt lat="45.96924" lon="4.77831">
        <ele>228</ele>
        <time>2018-03-18T11:19:19Z</time>
      </trkpt>
      <trkpt lat="45.96918" lon="4.77824">
        <ele>228</ele>
        <time>2018-03-18T11:19:20Z</time>
      </trkpt>
      <trkpt lat="45.96911" lon="4.77819">
        <ele>228</ele>
        <time>2018-03-18T11:19:21Z</time>
      </trkpt>
      <trkpt lat="45.96905" lon="4.77812">
        <ele>228</ele>
        <time>2018-03-18T11:19:22Z</time>
      </trkpt>
      <trkpt lat="45.969" lon="4.77806">
        <ele>228</ele>
        <time>2018-03-18T11:19:23Z</time>
      </trkpt>
      <trkpt lat="45.96892" lon="4.77799">
        <ele>228</ele>
        <time>2018-03-18T11:19:24Z</time>
      </trkpt>
      <trkpt lat="45.96886" lon="4.77793">
        <ele>228</ele>
        <time>2018-03-18T11:19:25Z</time>
      </trkpt>
      <trkpt lat="45.96878" lon="4.77787">
        <ele>228</ele>
        <time>2018-03-18T11:19:26Z</time>
      </trkpt>
      <trkpt lat="45.96872" lon="4.77781">
        <ele>228</ele>
        <time>2018-03-18T11:19:27Z</time>
      </trkpt>
      <trkpt lat="45.96865" lon="4.77774">
        <ele>228</ele>
        <time>2018-03-18T11:19:28Z</time>
      </trkpt>
      <trkpt lat="45.96859" lon="4.77767">
        <ele>228</ele>
        <time>2018-03-18T11:19:29Z</time>
      </trkpt>
      <trkpt lat="45.96854" lon="4.77761">
        <ele>228</ele>
        <time>2018-03-18T11:19:30Z</time>
      </trkpt>
      <trkpt lat="45.96848" lon="4.77755">
        <ele>228</ele>
        <time>2018-03-18T11:19:31Z</time>
      </trkpt>
      <trkpt lat="45.96842" lon="4.77749">
        <ele>228</ele>
        <time>2018-03-18T11:19:32Z</time>
      </trkpt>
      <trkpt lat="45.96835" lon="4.77744">
        <ele>228</ele>
        <time>2018-03-18T11:19:33Z</time>
      </trkpt>
      <trkpt lat="45.96829" lon="4.77737">
        <ele>228</ele>
        <time>2018-03-18T11:19:34Z</time>
      </trkpt>
      <trkpt lat="45.96823" lon="4.77732">
        <ele>228</ele>
        <time>2018-03-18T11:19:35Z</time>
      </trkpt>
      <trkpt lat="45.96817" lon="4.77725">
        <ele>228</ele>
        <time>2018-03-18T11:19:36Z</time>
      </trkpt>
      <trkpt lat="45.96811" lon="4.77719">
        <ele>228</ele>
        <time>2018-03-18T11:19:37Z</time>
      </trkpt>
      <trkpt lat="45.96805" lon="4.77713">
        <ele>228</ele>
        <time>2018-03-18T11:19:38Z</time>
      </trkpt>
      <trkpt lat="45.96799" lon="4.77708">
        <ele>228</ele>
        <time>2018-03-18T11:19:39Z</time>
      </trkpt>
      <trkpt lat="45.96793" lon="4.77701">
        <ele>228</ele>
        <time>2018-03-18T11:19:40Z</time>
      </trkpt>
      <trkpt lat="45.96788" lon="4.77695">
        <ele>227</ele>
        <time>2018-03-18T11:19:41Z</time>
      </trkpt>
      <trkpt lat="45.96783" lon="4.77689">
        <ele>227</ele>
        <time>2018-03-18T11:19:42Z</time>
      </trkpt>
      <trkpt lat="45.96778" lon="4.77684">
        <ele>227</ele>
        <time>2018-03-18T11:19:43Z</time>
      </trkpt>
      <trkpt lat="45.96773" lon="4.77678">
        <ele>227</ele>
        <time>2018-03-18T11:19:44Z</time>
      </trkpt>
      <trkpt lat="45.96768" lon="4.77672">
        <ele>227</ele>
        <time>2018-03-18T11:19:45Z</time>
      </trkpt>
      <trkpt lat="45.96763" lon="4.77666">
        <ele>227</ele>
        <time>2018-03-18T11:19:46Z</time>
      </trkpt>
      <trkpt lat="45.96758" lon="4.77659">
        <ele>227</ele>
        <time>2018-03-18T11:19:47Z</time>
      </trkpt>
      <trkpt lat="45.96753" lon="4.77654">
        <ele>227</ele>
        <time>2018-03-18T11:19:48Z</time>
      </trkpt>
      <trkpt lat="45.96749" lon="4.77646">
        <ele>227</ele>
        <time>2018-03-18T11:19:49Z</time>
      </trkpt>
      <trkpt lat="45.96745" lon="4.7764">
        <ele>227</ele>
        <time>2018-03-18T11:19:50Z</time>
      </trkpt>
      <trkpt lat="45.96739" lon="4.77634">
        <ele>227</ele>
        <time>2018-03-18T11:19:51Z</time>
      </trkpt>
      <trkpt lat="45.96734" lon="4.77628">
        <ele>226</ele>
        <time>2018-03-18T11:19:52Z</time>
      </trkpt>
      <trkpt lat="45.96729" lon="4.77621">
        <ele>226</ele>
        <time>2018-03-18T11:19:53Z</time>
      </trkpt>
      <trkpt lat="45.96724" lon="4.77615">
        <ele>226</ele>
        <time>2018-03-18T11:19:54Z</time>
      </trkpt>
      <trkpt lat="45.96719" lon="4.77609">
        <ele>226</ele>
        <time>2018-03-18T11:19:55Z</time>
      </trkpt>
      <trkpt lat="45.96714" lon="4.77603">
        <ele>226</ele>
        <time>2018-03-18T11:19:56Z</time>
      </trkpt>
      <trkpt lat="45.96709" lon="4.77596">
        <ele>226</ele>
        <time>2018-03-18T11:19:57Z</time>
      </trkpt>
      <trkpt lat="45.96705" lon="4.77589">
        <ele>226</ele>
        <time>2018-03-18T11:19:58Z</time>
      </trkpt>
      <trkpt lat="45.967" lon="4.77584">
        <ele>226</ele>
        <time>2018-03-18T11:19:59Z</time>
      </trkpt>
      <trkpt lat="45.96695" lon="4.77579">
        <ele>225</ele>
        <time>2018-03-18T11:20:00Z</time>
      </trkpt>
      <trkpt lat="45.9669" lon="4.77573">
        <ele>225</ele>
        <time>2018-03-18T11:20:01Z</time>
      </trkpt>
      <trkpt lat="45.96684" lon="4.77568">
        <ele>225</ele>
        <time>2018-03-18T11:20:02Z</time>
      </trkpt>
      <trkpt lat="45.96678" lon="4.77563">
        <ele>225</ele>
        <time>2018-03-18T11:20:03Z</time>
      </trkpt>
      <trkpt lat="45.96673" lon="4.77559">
        <ele>225</ele>
        <time>2018-03-18T11:20:04Z</time>
      </trkpt>
      <trkpt lat="45.96666" lon="4.77555">
        <ele>224</ele>
        <time>2018-03-18T11:20:05Z</time>
      </trkpt>
      <trkpt lat="45.9666" lon="4.77551">
        <ele>224</ele>
        <time>2018-03-18T11:20:06Z</time>
      </trkpt>
      <trkpt lat="45.96654" lon="4.77547">
        <ele>224</ele>
        <time>2018-03-18T11:20:07Z</time>
      </trkpt>
      <trkpt lat="45.96647" lon="4.77543">
        <ele>224</ele>
        <time>2018-03-18T11:20:08Z</time>
      </trkpt>
      <trkpt lat="45.96641" lon="4.77538">
        <ele>224</ele>
        <time>2018-03-18T11:20:09Z</time>
      </trkpt>
      <trkpt lat="45.96634" lon="4.77535">
        <ele>224</ele>
        <time>2018-03-18T11:20:10Z</time>
      </trkpt>
      <trkpt lat="45.96627" lon="4.7753">
        <ele>224</ele>
        <time>2018-03-18T11:20:11Z</time>
      </trkpt>
      <trkpt lat="45.9662" lon="4.77526">
        <ele>224</ele>
        <time>2018-03-18T11:20:12Z</time>
      </trkpt>
      <trkpt lat="45.96614" lon="4.7752">
        <ele>224</ele>
        <time>2018-03-18T11:20:13Z</time>
      </trkpt>
      <trkpt lat="45.96607" lon="4.77514">
        <ele>224</ele>
        <time>2018-03-18T11:20:14Z</time>
      </trkpt>
      <trkpt lat="45.96599" lon="4.77509">
        <ele>224</ele>
        <time>2018-03-18T11:20:15Z</time>
      </trkpt>
      <trkpt lat="45.96593" lon="4.77504">
        <ele>224</ele>
        <time>2018-03-18T11:20:16Z</time>
      </trkpt>
      <trkpt lat="45.96586" lon="4.775">
        <ele>224</ele>
        <time>2018-03-18T11:20:17Z</time>
      </trkpt>
      <trkpt lat="45.9658" lon="4.77496">
        <ele>224</ele>
        <time>2018-03-18T11:20:18Z</time>
      </trkpt>
      <trkpt lat="45.96573" lon="4.77492">
        <ele>224</ele>
        <time>2018-03-18T11:20:19Z</time>
      </trkpt>
      <trkpt lat="45.96567" lon="4.77489">
        <ele>224</ele>
        <time>2018-03-18T11:20:20Z</time>
      </trkpt>
      <trkpt lat="45.96561" lon="4.77486">
        <ele>224</ele>
        <time>2018-03-18T11:20:21Z</time>
      </trkpt>
      <trkpt lat="45.96554" lon="4.77484">
        <ele>223</ele>
        <time>2018-03-18T11:20:22Z</time>
      </trkpt>
      <trkpt lat="45.96547" lon="4.77481">
        <ele>223</ele>
        <time>2018-03-18T11:20:23Z</time>
      </trkpt>
      <trkpt lat="45.96541" lon="4.77476">
        <ele>223</ele>
        <time>2018-03-18T11:20:24Z</time>
      </trkpt>
      <trkpt lat="45.96535" lon="4.77472">
        <ele>223</ele>
        <time>2018-03-18T11:20:25Z</time>
      </trkpt>
      <trkpt lat="45.96529" lon="4.77466">
        <ele>223</ele>
        <time>2018-03-18T11:20:26Z</time>
      </trkpt>
      <trkpt lat="45.96522" lon="4.77462">
        <ele>223</ele>
        <time>2018-03-18T11:20:27Z</time>
      </trkpt>
      <trkpt lat="45.96516" lon="4.77457">
        <ele>223</ele>
        <time>2018-03-18T11:20:28Z</time>
      </trkpt>
      <trkpt lat="45.96509" lon="4.77452">
        <ele>223</ele>
        <time>2018-03-18T11:20:29Z</time>
      </trkpt>
      <trkpt lat="45.96502" lon="4.77447">
        <ele>223</ele>
        <time>2018-03-18T11:20:30Z</time>
      </trkpt>
      <trkpt lat="45.96496" lon="4.77442">
        <ele>222</ele>
        <time>2018-03-18T11:20:31Z</time>
      </trkpt>
      <trkpt lat="45.96489" lon="4.77438">
        <ele>222</ele>
        <time>2018-03-18T11:20:32Z</time>
      </trkpt>
      <trkpt lat="45.96482" lon="4.77433">
        <ele>222</ele>
        <time>2018-03-18T11:20:33Z</time>
      </trkpt>
      <trkpt lat="45.96475" lon="4.77429">
        <ele>222</ele>
        <time>2018-03-18T11:20:34Z</time>
      </trkpt>
      <trkpt lat="45.96468" lon="4.77424">
        <ele>221</ele>
        <time>2018-03-18T11:20:35Z</time>
      </trkpt>
      <trkpt lat="45.96462" lon="4.7742">
        <ele>221</ele>
        <time>2018-03-18T11:20:36Z</time>
      </trkpt>
      <trkpt lat="45.96454" lon="4.77413">
        <ele>222</ele>
        <time>2018-03-18T11:20:37Z</time>
      </trkpt>
      <trkpt lat="45.96447" lon="4.77409">
        <ele>222</ele>
        <time>2018-03-18T11:20:38Z</time>
      </trkpt>
      <trkpt lat="45.9644" lon="4.77404">
        <ele>222</ele>
        <time>2018-03-18T11:20:39Z</time>
      </trkpt>
      <trkpt lat="45.9643" lon="4.77403">
        <ele>222</ele>
        <time>2018-03-18T11:20:40Z</time>
      </trkpt>
      <trkpt lat="45.96423" lon="4.77398">
        <ele>222</ele>
        <time>2018-03-18T11:20:41Z</time>
      </trkpt>
      <trkpt lat="45.96415" lon="4.77393">
        <ele>220</ele>
        <time>2018-03-18T11:20:42Z</time>
      </trkpt>
      <trkpt lat="45.96406" lon="4.77389">
        <ele>220</ele>
        <time>2018-03-18T11:20:43Z</time>
      </trkpt>
      <trkpt lat="45.96398" lon="4.77383">
        <ele>220</ele>
        <time>2018-03-18T11:20:44Z</time>
      </trkpt>
      <trkpt lat="45.96391" lon="4.77379">
        <ele>220</ele>
        <time>2018-03-18T11:20:45Z</time>
      </trkpt>
      <trkpt lat="45.96385" lon="4.77375">
        <ele>220</ele>
        <time>2018-03-18T11:20:46Z</time>
      </trkpt>
      <trkpt lat="45.96377" lon="4.7737">
        <ele>220</ele>
        <time>2018-03-18T11:20:47Z</time>
      </trkpt>
      <trkpt lat="45.9637" lon="4.77366">
        <ele>220</ele>
        <time>2018-03-18T11:20:48Z</time>
      </trkpt>
      <trkpt lat="45.96363" lon="4.77361">
        <ele>220</ele>
        <time>2018-03-18T11:20:49Z</time>
      </trkpt>
      <trkpt lat="45.96355" lon="4.77358">
        <ele>219</ele>
        <time>2018-03-18T11:20:50Z</time>
      </trkpt>
      <trkpt lat="45.96347" lon="4.77354">
        <ele>220</ele>
        <time>2018-03-18T11:20:51Z</time>
      </trkpt>
      <trkpt lat="45.96341" lon="4.77352">
        <ele>220</ele>
        <time>2018-03-18T11:20:52Z</time>
      </trkpt>
      <trkpt lat="45.96333" lon="4.77349">
        <ele>218</ele>
        <time>2018-03-18T11:20:53Z</time>
      </trkpt>
      <trkpt lat="45.96326" lon="4.77346">
        <ele>218</ele>
        <time>2018-03-18T11:20:54Z</time>
      </trkpt>
      <trkpt lat="45.96319" lon="4.77342">
        <ele>218</ele>
        <time>2018-03-18T11:20:55Z</time>
      </trkpt>
      <trkpt lat="45.96313" lon="4.77338">
        <ele>218</ele>
        <time>2018-03-18T11:20:56Z</time>
      </trkpt>
      <trkpt lat="45.96306" lon="4.77334">
        <ele>217</ele>
        <time>2018-03-18T11:20:57Z</time>
      </trkpt>
      <trkpt lat="45.96298" lon="4.77331">
        <ele>219</ele>
        <time>2018-03-18T11:20:58Z</time>
      </trkpt>
      <trkpt lat="45.96292" lon="4.77327">
        <ele>219</ele>
        <time>2018-03-18T11:20:59Z</time>
      </trkpt>
      <trkpt lat="45.96284" lon="4.77323">
        <ele>219</ele>
        <time>2018-03-18T11:21:00Z</time>
      </trkpt>
      <trkpt lat="45.96278" lon="4.77319">
        <ele>219</ele>
        <time>2018-03-18T11:21:01Z</time>
      </trkpt>
      <trkpt lat="45.96272" lon="4.77314">
        <ele>219</ele>
        <time>2018-03-18T11:21:02Z</time>
      </trkpt>
      <trkpt lat="45.96264" lon="4.77311">
        <ele>218</ele>
        <time>2018-03-18T11:21:03Z</time>
      </trkpt>
      <trkpt lat="45.96255" lon="4.77307">
        <ele>218</ele>
        <time>2018-03-18T11:21:04Z</time>
      </trkpt>
      <trkpt lat="45.96248" lon="4.77304">
        <ele>217</ele>
        <time>2018-03-18T11:21:05Z</time>
      </trkpt>
      <trkpt lat="45.96241" lon="4.77299">
        <ele>217</ele>
        <time>2018-03-18T11:21:06Z</time>
      </trkpt>
      <trkpt lat="45.96234" lon="4.77294">
        <ele>217</ele>
        <time>2018-03-18T11:21:07Z</time>
      </trkpt>
      <trkpt lat="45.96228" lon="4.7729">
        <ele>217</ele>
        <time>2018-03-18T11:21:08Z</time>
      </trkpt>
      <trkpt lat="45.96221" lon="4.77283">
        <ele>217</ele>
        <time>2018-03-18T11:21:09Z</time>
      </trkpt>
      <trkpt lat="45.96215" lon="4.77281">
        <ele>217</ele>
        <time>2018-03-18T11:21:10Z</time>
      </trkpt>
      <trkpt lat="45.96207" lon="4.77279">
        <ele>217</ele>
        <time>2018-03-18T11:21:11Z</time>
      </trkpt>
      <trkpt lat="45.96201" lon="4.77276">
        <ele>216</ele>
        <time>2018-03-18T11:21:12Z</time>
      </trkpt>
      <trkpt lat="45.96194" lon="4.77273">
        <ele>216</ele>
        <time>2018-03-18T11:21:13Z</time>
      </trkpt>
      <trkpt lat="45.96188" lon="4.77269">
        <ele>216</ele>
        <time>2018-03-18T11:21:14Z</time>
      </trkpt>
      <trkpt lat="45.96181" lon="4.77265">
        <ele>216</ele>
        <time>2018-03-18T11:21:15Z</time>
      </trkpt>
      <trkpt lat="45.96173" lon="4.7726">
        <ele>216</ele>
        <time>2018-03-18T11:21:16Z</time>
      </trkpt>
      <trkpt lat="45.96167" lon="4.77256">
        <ele>216</ele>
        <time>2018-03-18T11:21:17Z</time>
      </trkpt>
      <trkpt lat="45.96161" lon="4.77251">
        <ele>215</ele>
        <time>2018-03-18T11:21:18Z</time>
      </trkpt>
      <trkpt lat="45.96155" lon="4.77245">
        <ele>216</ele>
        <time>2018-03-18T11:21:19Z</time>
      </trkpt>
      <trkpt lat="45.96148" lon="4.77245">
        <ele>215</ele>
        <time>2018-03-18T11:21:20Z</time>
      </trkpt>
      <trkpt lat="45.96141" lon="4.77243">
        <ele>215</ele>
        <time>2018-03-18T11:21:21Z</time>
      </trkpt>
      <trkpt lat="45.96133" lon="4.77243">
        <ele>215</ele>
        <time>2018-03-18T11:21:22Z</time>
      </trkpt>
      <trkpt lat="45.96125" lon="4.77245">
        <ele>214</ele>
        <time>2018-03-18T11:21:23Z</time>
      </trkpt>
      <trkpt lat="45.96118" lon="4.77245">
        <ele>214</ele>
        <time>2018-03-18T11:21:24Z</time>
      </trkpt>
      <trkpt lat="45.96111" lon="4.77245">
        <ele>213</ele>
        <time>2018-03-18T11:21:25Z</time>
      </trkpt>
      <trkpt lat="45.96104" lon="4.77245">
        <ele>213</ele>
        <time>2018-03-18T11:21:26Z</time>
      </trkpt>
      <trkpt lat="45.96096" lon="4.77245">
        <ele>212</ele>
        <time>2018-03-18T11:21:27Z</time>
      </trkpt>
      <trkpt lat="45.96089" lon="4.77244">
        <ele>211</ele>
        <time>2018-03-18T11:21:28Z</time>
      </trkpt>
      <trkpt lat="45.96081" lon="4.77245">
        <ele>210</ele>
        <time>2018-03-18T11:21:29Z</time>
      </trkpt>
      <trkpt lat="45.96073" lon="4.77246">
        <ele>210</ele>
        <time>2018-03-18T11:21:30Z</time>
      </trkpt>
      <trkpt lat="45.96066" lon="4.77247">
        <ele>209</ele>
        <time>2018-03-18T11:21:31Z</time>
      </trkpt>
      <trkpt lat="45.96057" lon="4.77248">
        <ele>209</ele>
        <time>2018-03-18T11:21:32Z</time>
      </trkpt>
      <trkpt lat="45.96049" lon="4.77248">
        <ele>209</ele>
        <time>2018-03-18T11:21:33Z</time>
      </trkpt>
      <trkpt lat="45.96041" lon="4.77247">
        <ele>208</ele>
        <time>2018-03-18T11:21:34Z</time>
      </trkpt>
      <trkpt lat="45.96033" lon="4.77247">
        <ele>208</ele>
        <time>2018-03-18T11:21:35Z</time>
      </trkpt>
      <trkpt lat="45.96024" lon="4.77247">
        <ele>207</ele>
        <time>2018-03-18T11:21:36Z</time>
      </trkpt>
      <trkpt lat="45.96015" lon="4.77246">
        <ele>206</ele>
        <time>2018-03-18T11:21:37Z</time>
      </trkpt>
      <trkpt lat="45.96007" lon="4.77245">
        <ele>205</ele>
        <time>2018-03-18T11:21:38Z</time>
      </trkpt>
      <trkpt lat="45.96" lon="4.7724">
        <ele>203</ele>
        <time>2018-03-18T11:21:39Z</time>
      </trkpt>
      <trkpt lat="45.95991" lon="4.77237">
        <ele>202</ele>
        <time>2018-03-18T11:21:40Z</time>
      </trkpt>
      <trkpt lat="45.95983" lon="4.77232">
        <ele>202</ele>
        <time>2018-03-18T11:21:41Z</time>
      </trkpt>
      <trkpt lat="45.95974" lon="4.77226">
        <ele>202</ele>
        <time>2018-03-18T11:21:42Z</time>
      </trkpt>
      <trkpt lat="45.95967" lon="4.77219">
        <ele>202</ele>
        <time>2018-03-18T11:21:43Z</time>
      </trkpt>
      <trkpt lat="45.95961" lon="4.7721">
        <ele>201</ele>
        <time>2018-03-18T11:21:44Z</time>
      </trkpt>
      <trkpt lat="45.95956" lon="4.772">
        <ele>201</ele>
        <time>2018-03-18T11:21:45Z</time>
      </trkpt>
      <trkpt lat="45.95951" lon="4.77189">
        <ele>201</ele>
        <time>2018-03-18T11:21:46Z</time>
      </trkpt>
      <trkpt lat="45.95948" lon="4.77177">
        <ele>201</ele>
        <time>2018-03-18T11:21:47Z</time>
      </trkpt>
      <trkpt lat="45.95947" lon="4.77164">
        <ele>201</ele>
        <time>2018-03-18T11:21:48Z</time>
      </trkpt>
      <trkpt lat="45.95946" lon="4.77151">
        <ele>201</ele>
        <time>2018-03-18T11:21:49Z</time>
      </trkpt>
      <trkpt lat="45.95945" lon="4.77139">
        <ele>201</ele>
        <time>2018-03-18T11:21:50Z</time>
      </trkpt>
      <trkpt lat="45.95945" lon="4.77123">
        <ele>202</ele>
        <time>2018-03-18T11:21:51Z</time>
      </trkpt>
      <trkpt lat="45.95946" lon="4.77111">
        <ele>202</ele>
        <time>2018-03-18T11:21:52Z</time>
      </trkpt>
      <trkpt lat="45.95947" lon="4.77098">
        <ele>201</ele>
        <time>2018-03-18T11:21:53Z</time>
      </trkpt>
      <trkpt lat="45.95947" lon="4.77085">
        <ele>201</ele>
        <time>2018-03-18T11:21:54Z</time>
      </trkpt>
      <trkpt lat="45.95951" lon="4.77075">
        <ele>200</ele>
        <time>2018-03-18T11:21:55Z</time>
      </trkpt>
      <trkpt lat="45.95952" lon="4.77063">
        <ele>200</ele>
        <time>2018-03-18T11:21:56Z</time>
      </trkpt>
      <trkpt lat="45.95957" lon="4.77051">
        <ele>200</ele>
        <time>2018-03-18T11:21:57Z</time>
      </trkpt>
      <trkpt lat="45.95962" lon="4.7704">
        <ele>200</ele>
        <time>2018-03-18T11:21:58Z</time>
      </trkpt>
      <trkpt lat="45.95966" lon="4.7703">
        <ele>200</ele>
        <time>2018-03-18T11:21:59Z</time>
      </trkpt>
      <trkpt lat="45.9597" lon="4.7702">
        <ele>200</ele>
        <time>2018-03-18T11:22:00Z</time>
      </trkpt>
      <trkpt lat="45.95975" lon="4.7701">
        <ele>200</ele>
        <time>2018-03-18T11:22:01Z</time>
      </trkpt>
      <trkpt lat="45.95979" lon="4.76999">
        <ele>198</ele>
        <time>2018-03-18T11:22:02Z</time>
      </trkpt>
      <trkpt lat="45.95982" lon="4.76989">
        <ele>198</ele>
        <time>2018-03-18T11:22:03Z</time>
      </trkpt>
      <trkpt lat="45.95986" lon="4.76978">
        <ele>197</ele>
        <time>2018-03-18T11:22:04Z</time>
      </trkpt>
      <trkpt lat="45.95985" lon="4.76966">
        <ele>197</ele>
        <time>2018-03-18T11:22:05Z</time>
      </trkpt>
      <trkpt lat="45.95982" lon="4.76954">
        <ele>196</ele>
        <time>2018-03-18T11:22:06Z</time>
      </trkpt>
      <trkpt lat="45.95979" lon="4.76943">
        <ele>196</ele>
        <time>2018-03-18T11:22:07Z</time>
      </trkpt>
      <trkpt lat="45.95976" lon="4.76932">
        <ele>196</ele>
        <time>2018-03-18T11:22:08Z</time>
      </trkpt>
      <trkpt lat="45.95971" lon="4.76924">
        <ele>195</ele>
        <time>2018-03-18T11:22:09Z</time>
      </trkpt>
      <trkpt lat="45.95959" lon="4.76917">
        <ele>195</ele>
        <time>2018-03-18T11:22:10Z</time>
      </trkpt>
      <trkpt lat="45.95951" lon="4.76909">
        <ele>193</ele>
        <time>2018-03-18T11:22:11Z</time>
      </trkpt>
      <trkpt lat="45.95943" lon="4.76901">
        <ele>192</ele>
        <time>2018-03-18T11:22:12Z</time>
      </trkpt>
      <trkpt lat="45.95934" lon="4.76894">
        <ele>192</ele>
        <time>2018-03-18T11:22:13Z</time>
      </trkpt>
      <trkpt lat="45.95927" lon="4.76885">
        <ele>192</ele>
        <time>2018-03-18T11:22:14Z</time>
      </trkpt>
      <trkpt lat="45.9592" lon="4.76876">
        <ele>192</ele>
        <time>2018-03-18T11:22:15Z</time>
      </trkpt>
      <trkpt lat="45.95912" lon="4.76867">
        <ele>191</ele>
        <time>2018-03-18T11:22:16Z</time>
      </trkpt>
      <trkpt lat="45.95905" lon="4.76858">
        <ele>191</ele>
        <time>2018-03-18T11:22:17Z</time>
      </trkpt>
      <trkpt lat="45.95898" lon="4.76849">
        <ele>191</ele>
        <time>2018-03-18T11:22:18Z</time>
      </trkpt>
      <trkpt lat="45.95892" lon="4.7684">
        <ele>191</ele>
        <time>2018-03-18T11:22:19Z</time>
      </trkpt>
      <trkpt lat="45.95885" lon="4.76833">
        <ele>191</ele>
        <time>2018-03-18T11:22:20Z</time>
      </trkpt>
      <trkpt lat="45.95878" lon="4.76825">
        <ele>191</ele>
        <time>2018-03-18T11:22:21Z</time>
      </trkpt>
      <trkpt lat="45.95871" lon="4.76818">
        <ele>191</ele>
        <time>2018-03-18T11:22:22Z</time>
      </trkpt>
      <trkpt lat="45.95865" lon="4.76811">
        <ele>191</ele>
        <time>2018-03-18T11:22:23Z</time>
      </trkpt>
      <trkpt lat="45.95858" lon="4.76804">
        <ele>191</ele>
        <time>2018-03-18T11:22:24Z</time>
      </trkpt>
      <trkpt lat="45.95851" lon="4.76798">
        <ele>191</ele>
        <time>2018-03-18T11:22:25Z</time>
      </trkpt>
      <trkpt lat="45.95845" lon="4.76791">
        <ele>191</ele>
        <time>2018-03-18T11:22:26Z</time>
      </trkpt>
      <trkpt lat="45.95841" lon="4.76783">
        <ele>191</ele>
        <time>2018-03-18T11:22:27Z</time>
      </trkpt>
      <trkpt lat="45.95837" lon="4.76774">
        <ele>191</ele>
        <time>2018-03-18T11:22:28Z</time>
      </trkpt>
      <trkpt lat="45.95834" lon="4.76765">
        <ele>191</ele>
        <time>2018-03-18T11:22:29Z</time>
      </trkpt>
      <trkpt lat="45.95831" lon="4.76755">
        <ele>191</ele>
        <time>2018-03-18T11:22:30Z</time>
      </trkpt>
      <trkpt lat="45.95829" lon="4.76744">
        <ele>190</ele>
        <time>2018-03-18T11:22:31Z</time>
      </trkpt>
      <trkpt lat="45.95827" lon="4.76734">
        <ele>190</ele>
        <time>2018-03-18T11:22:32Z</time>
      </trkpt>
      <trkpt lat="45.95826" lon="4.76725">
        <ele>190</ele>
        <time>2018-03-18T11:22:33Z</time>
      </trkpt>
      <trkpt lat="45.95823" lon="4.76715">
        <ele>189</ele>
        <time>2018-03-18T11:22:34Z</time>
      </trkpt>
      <trkpt lat="45.95822" lon="4.76707">
        <ele>189</ele>
        <time>2018-03-18T11:22:35Z</time>
      </trkpt>
      <trkpt lat="45.95821" lon="4.76698">
        <ele>189</ele>
        <time>2018-03-18T11:22:36Z</time>
      </trkpt>
      <trkpt lat="45.95819" lon="4.76688">
        <ele>189</ele>
        <time>2018-03-18T11:22:37Z</time>
      </trkpt>
      <trkpt lat="45.95817" lon="4.76677">
        <ele>189</ele>
        <time>2018-03-18T11:22:38Z</time>
      </trkpt>
      <trkpt lat="45.95815" lon="4.76668">
        <ele>188</ele>
        <time>2018-03-18T11:22:39Z</time>
      </trkpt>
      <trkpt lat="45.95814" lon="4.76658">
        <ele>188</ele>
        <time>2018-03-18T11:22:40Z</time>
      </trkpt>
      <trkpt lat="45.95813" lon="4.7665">
        <ele>188</ele>
        <time>2018-03-18T11:22:41Z</time>
      </trkpt>
      <trkpt lat="45.95813" lon="4.7664">
        <ele>188</ele>
        <time>2018-03-18T11:22:42Z</time>
      </trkpt>
      <trkpt lat="45.95812" lon="4.76631">
        <ele>188</ele>
        <time>2018-03-18T11:22:43Z</time>
      </trkpt>
      <trkpt lat="45.95811" lon="4.7662">
        <ele>188</ele>
        <time>2018-03-18T11:22:44Z</time>
      </trkpt>
      <trkpt lat="45.95809" lon="4.76611">
        <ele>188</ele>
        <time>2018-03-18T11:22:45Z</time>
      </trkpt>
      <trkpt lat="45.95807" lon="4.766">
        <ele>188</ele>
        <time>2018-03-18T11:22:46Z</time>
      </trkpt>
      <trkpt lat="45.95806" lon="4.76591">
        <ele>188</ele>
        <time>2018-03-18T11:22:47Z</time>
      </trkpt>
      <trkpt lat="45.95805" lon="4.76582">
        <ele>187</ele>
        <time>2018-03-18T11:22:48Z</time>
      </trkpt>
      <trkpt lat="45.95805" lon="4.76571">
        <ele>187</ele>
        <time>2018-03-18T11:22:49Z</time>
      </trkpt>
      <trkpt lat="45.95803" lon="4.76561">
        <ele>187</ele>
        <time>2018-03-18T11:22:50Z</time>
      </trkpt>
      <trkpt lat="45.95801" lon="4.76552">
        <ele>187</ele>
        <time>2018-03-18T11:22:51Z</time>
      </trkpt>
      <trkpt lat="45.95798" lon="4.76541">
        <ele>187</ele>
        <time>2018-03-18T11:22:52Z</time>
      </trkpt>
      <trkpt lat="45.95795" lon="4.76531">
        <ele>187</ele>
        <time>2018-03-18T11:22:53Z</time>
      </trkpt>
      <trkpt lat="45.95794" lon="4.76522">
        <ele>187</ele>
        <time>2018-03-18T11:22:54Z</time>
      </trkpt>
      <trkpt lat="45.95792" lon="4.76512">
        <ele>187</ele>
        <time>2018-03-18T11:22:55Z</time>
      </trkpt>
      <trkpt lat="45.95791" lon="4.76502">
        <ele>187</ele>
        <time>2018-03-18T11:22:56Z</time>
      </trkpt>
      <trkpt lat="45.95789" lon="4.76493">
        <ele>186</ele>
        <time>2018-03-18T11:22:57Z</time>
      </trkpt>
      <trkpt lat="45.95788" lon="4.76483">
        <ele>186</ele>
        <time>2018-03-18T11:22:58Z</time>
      </trkpt>
      <trkpt lat="45.95787" lon="4.76473">
        <ele>186</ele>
        <time>2018-03-18T11:22:59Z</time>
      </trkpt>
      <trkpt lat="45.95785" lon="4.76464">
        <ele>186</ele>
        <time>2018-03-18T11:23:00Z</time>
      </trkpt>
      <trkpt lat="45.95784" lon="4.76456">
        <ele>186</ele>
        <time>2018-03-18T11:23:01Z</time>
      </trkpt>
      <trkpt lat="45.95783" lon="4.76449">
        <ele>186</ele>
        <time>2018-03-18T11:23:02Z</time>
      </trkpt>
      <trkpt lat="45.95783" lon="4.7644">
        <ele>186</ele>
        <time>2018-03-18T11:23:03Z</time>
      </trkpt>
      <trkpt lat="45.95782" lon="4.76432">
        <ele>186</ele>
        <time>2018-03-18T11:23:04Z</time>
      </trkpt>
      <trkpt lat="45.9578" lon="4.76424">
        <ele>186</ele>
        <time>2018-03-18T11:23:05Z</time>
      </trkpt>
      <trkpt lat="45.95781" lon="4.76416">
        <ele>186</ele>
        <time>2018-03-18T11:23:06Z</time>
      </trkpt>
      <trkpt lat="45.95779" lon="4.76407">
        <ele>186</ele>
        <time>2018-03-18T11:23:07Z</time>
      </trkpt>
      <trkpt lat="45.95778" lon="4.76399">
        <ele>186</ele>
        <time>2018-03-18T11:23:08Z</time>
      </trkpt>
      <trkpt lat="45.95778" lon="4.7639">
        <ele>186</ele>
        <time>2018-03-18T11:23:09Z</time>
      </trkpt>
      <trkpt lat="45.95778" lon="4.76383">
        <ele>186</ele>
        <time>2018-03-18T11:23:10Z</time>
      </trkpt>
      <trkpt lat="45.95778" lon="4.76375">
        <ele>186</ele>
        <time>2018-03-18T11:23:11Z</time>
      </trkpt>
      <trkpt lat="45.95777" lon="4.76367">
        <ele>186</ele>
        <time>2018-03-18T11:23:12Z</time>
      </trkpt>
      <trkpt lat="45.95776" lon="4.76358">
        <ele>186</ele>
        <time>2018-03-18T11:23:13Z</time>
      </trkpt>
      <trkpt lat="45.95775" lon="4.76351">
        <ele>186</ele>
        <time>2018-03-18T11:23:14Z</time>
      </trkpt>
      <trkpt lat="45.95774" lon="4.76343">
        <ele>186</ele>
        <time>2018-03-18T11:23:15Z</time>
      </trkpt>
      <trkpt lat="45.95773" lon="4.76333">
        <ele>185</ele>
        <time>2018-03-18T11:23:16Z</time>
      </trkpt>
      <trkpt lat="45.95773" lon="4.76325">
        <ele>185</ele>
        <time>2018-03-18T11:23:17Z</time>
      </trkpt>
      <trkpt lat="45.95773" lon="4.76318">
        <ele>185</ele>
        <time>2018-03-18T11:23:18Z</time>
      </trkpt>
      <trkpt lat="45.95773" lon="4.7631">
        <ele>186</ele>
        <time>2018-03-18T11:23:19Z</time>
      </trkpt>
      <trkpt lat="45.95772" lon="4.76302">
        <ele>186</ele>
        <time>2018-03-18T11:23:20Z</time>
      </trkpt>
      <trkpt lat="45.95771" lon="4.76292">
        <ele>186</ele>
        <time>2018-03-18T11:23:21Z</time>
      </trkpt>
      <trkpt lat="45.95771" lon="4.76285">
        <ele>186</ele>
        <time>2018-03-18T11:23:22Z</time>
      </trkpt>
      <trkpt lat="45.95771" lon="4.76277">
        <ele>186</ele>
        <time>2018-03-18T11:23:23Z</time>
      </trkpt>
      <trkpt lat="45.95772" lon="4.76268">
        <ele>186</ele>
        <time>2018-03-18T11:23:24Z</time>
      </trkpt>
      <trkpt lat="45.95773" lon="4.76259">
        <ele>186</ele>
        <time>2018-03-18T11:23:25Z</time>
      </trkpt>
      <trkpt lat="45.95772" lon="4.7625">
        <ele>186</ele>
        <time>2018-03-18T11:23:26Z</time>
      </trkpt>
      <trkpt lat="45.95771" lon="4.76243">
        <ele>186</ele>
        <time>2018-03-18T11:23:27Z</time>
      </trkpt>
      <trkpt lat="45.95771" lon="4.76234">
        <ele>186</ele>
        <time>2018-03-18T11:23:28Z</time>
      </trkpt>
      <trkpt lat="45.95771" lon="4.76227">
        <ele>186</ele>
        <time>2018-03-18T11:23:29Z</time>
      </trkpt>
      <trkpt lat="45.95771" lon="4.76218">
        <ele>186</ele>
        <time>2018-03-18T11:23:30Z</time>
      </trkpt>
      <trkpt lat="45.9577" lon="4.76208">
        <ele>186</ele>
        <time>2018-03-18T11:23:31Z</time>
      </trkpt>
      <trkpt lat="45.95769" lon="4.76199">
        <ele>186</ele>
        <time>2018-03-18T11:23:32Z</time>
      </trkpt>
      <trkpt lat="45.95769" lon="4.76191">
        <ele>186</ele>
        <time>2018-03-18T11:23:33Z</time>
      </trkpt>
      <trkpt lat="45.95768" lon="4.76182">
        <ele>186</ele>
        <time>2018-03-18T11:23:34Z</time>
      </trkpt>
      <trkpt lat="45.95768" lon="4.76173">
        <ele>186</ele>
        <time>2018-03-18T11:23:35Z</time>
      </trkpt>
      <trkpt lat="45.95768" lon="4.76164">
        <ele>186</ele>
        <time>2018-03-18T11:23:36Z</time>
      </trkpt>
      <trkpt lat="45.95767" lon="4.76155">
        <ele>186</ele>
        <time>2018-03-18T11:23:37Z</time>
      </trkpt>
      <trkpt lat="45.95766" lon="4.76147">
        <ele>186</ele>
        <time>2018-03-18T11:23:38Z</time>
      </trkpt>
      <trkpt lat="45.95766" lon="4.76138">
        <ele>186</ele>
        <time>2018-03-18T11:23:39Z</time>
      </trkpt>
      <trkpt lat="45.95766" lon="4.7613">
        <ele>186</ele>
        <time>2018-03-18T11:23:40Z</time>
      </trkpt>
      <trkpt lat="45.95765" lon="4.76122">
        <ele>186</ele>
        <time>2018-03-18T11:23:41Z</time>
      </trkpt>
      <trkpt lat="45.95763" lon="4.76114">
        <ele>186</ele>
        <time>2018-03-18T11:23:42Z</time>
      </trkpt>
      <trkpt lat="45.95762" lon="4.76106">
        <ele>186</ele>
        <time>2018-03-18T11:23:43Z</time>
      </trkpt>
      <trkpt lat="45.9576" lon="4.76097">
        <ele>186</ele>
        <time>2018-03-18T11:23:44Z</time>
      </trkpt>
      <trkpt lat="45.95757" lon="4.76089">
        <ele>185</ele>
        <time>2018-03-18T11:23:45Z</time>
      </trkpt>
      <trkpt lat="45.95754" lon="4.76082">
        <ele>185</ele>
        <time>2018-03-18T11:23:46Z</time>
      </trkpt>
      <trkpt lat="45.95752" lon="4.76075">
        <ele>186</ele>
        <time>2018-03-18T11:23:47Z</time>
      </trkpt>
      <trkpt lat="45.95749" lon="4.76067">
        <ele>185</ele>
        <time>2018-03-18T11:23:48Z</time>
      </trkpt>
      <trkpt lat="45.95745" lon="4.7606">
        <ele>185</ele>
        <time>2018-03-18T11:23:49Z</time>
      </trkpt>
      <trkpt lat="45.95743" lon="4.76051">
        <ele>184</ele>
        <time>2018-03-18T11:23:50Z</time>
      </trkpt>
      <trkpt lat="45.95739" lon="4.76044">
        <ele>184</ele>
        <time>2018-03-18T11:23:51Z</time>
      </trkpt>
      <trkpt lat="45.95736" lon="4.76037">
        <ele>184</ele>
        <time>2018-03-18T11:23:52Z</time>
      </trkpt>
      <trkpt lat="45.95732" lon="4.76031">
        <ele>185</ele>
        <time>2018-03-18T11:23:53Z</time>
      </trkpt>
      <trkpt lat="45.95728" lon="4.76023">
        <ele>185</ele>
        <time>2018-03-18T11:23:54Z</time>
      </trkpt>
      <trkpt lat="45.95724" lon="4.76016">
        <ele>185</ele>
        <time>2018-03-18T11:23:55Z</time>
      </trkpt>
      <trkpt lat="45.95721" lon="4.76008">
        <ele>185</ele>
        <time>2018-03-18T11:23:56Z</time>
      </trkpt>
      <trkpt lat="45.95717" lon="4.76">
        <ele>184</ele>
        <time>2018-03-18T11:23:57Z</time>
      </trkpt>
      <trkpt lat="45.95714" lon="4.75992">
        <ele>185</ele>
        <time>2018-03-18T11:23:58Z</time>
      </trkpt>
      <trkpt lat="45.9571" lon="4.75984">
        <ele>185</ele>
        <time>2018-03-18T11:23:59Z</time>
      </trkpt>
      <trkpt lat="45.95707" lon="4.75976">
        <ele>185</ele>
        <time>2018-03-18T11:24:00Z</time>
      </trkpt>
      <trkpt lat="45.95703" lon="4.75968">
        <ele>185</ele>
        <time>2018-03-18T11:24:01Z</time>
      </trkpt>
      <trkpt lat="45.95699" lon="4.7596">
        <ele>185</ele>
        <time>2018-03-18T11:24:02Z</time>
      </trkpt>
      <trkpt lat="45.95696" lon="4.75952">
        <ele>185</ele>
        <time>2018-03-18T11:24:03Z</time>
      </trkpt>
      <trkpt lat="45.95692" lon="4.75945">
        <ele>185</ele>
        <time>2018-03-18T11:24:04Z</time>
      </trkpt>
      <trkpt lat="45.95689" lon="4.75937">
        <ele>185</ele>
        <time>2018-03-18T11:24:05Z</time>
      </trkpt>
      <trkpt lat="45.95686" lon="4.7593">
        <ele>185</ele>
        <time>2018-03-18T11:24:06Z</time>
      </trkpt>
      <trkpt lat="45.95682" lon="4.75922">
        <ele>185</ele>
        <time>2018-03-18T11:24:07Z</time>
      </trkpt>
      <trkpt lat="45.95679" lon="4.75914">
        <ele>185</ele>
        <time>2018-03-18T11:24:08Z</time>
      </trkpt>
      <trkpt lat="45.95676" lon="4.75907">
        <ele>185</ele>
        <time>2018-03-18T11:24:09Z</time>
      </trkpt>
      <trkpt lat="45.95673" lon="4.759">
        <ele>185</ele>
        <time>2018-03-18T11:24:10Z</time>
      </trkpt>
      <trkpt lat="45.95671" lon="4.75894">
        <ele>186</ele>
        <time>2018-03-18T11:24:11Z</time>
      </trkpt>
      <trkpt lat="45.95669" lon="4.75887">
        <ele>186</ele>
        <time>2018-03-18T11:24:12Z</time>
      </trkpt>
      <trkpt lat="45.95666" lon="4.7588">
        <ele>184</ele>
        <time>2018-03-18T11:24:13Z</time>
      </trkpt>
      <trkpt lat="45.95664" lon="4.75873">
        <ele>184</ele>
        <time>2018-03-18T11:24:14Z</time>
      </trkpt>
      <trkpt lat="45.95662" lon="4.75866">
        <ele>184</ele>
        <time>2018-03-18T11:24:15Z</time>
      </trkpt>
      <trkpt lat="45.9566" lon="4.7586">
        <ele>184</ele>
        <time>2018-03-18T11:24:16Z</time>
      </trkpt>
      <trkpt lat="45.95658" lon="4.75853">
        <ele>185</ele>
        <time>2018-03-18T11:24:17Z</time>
      </trkpt>
      <trkpt lat="45.95655" lon="4.75845">
        <ele>185</ele>
        <time>2018-03-18T11:24:18Z</time>
      </trkpt>
      <trkpt lat="45.95653" lon="4.75836">
        <ele>185</ele>
        <time>2018-03-18T11:24:19Z</time>
      </trkpt>
      <trkpt lat="45.95651" lon="4.75828">
        <ele>185</ele>
        <time>2018-03-18T11:24:20Z</time>
      </trkpt>
      <trkpt lat="45.95649" lon="4.75821">
        <ele>185</ele>
        <time>2018-03-18T11:24:21Z</time>
      </trkpt>
      <trkpt lat="45.95648" lon="4.75813">
        <ele>185</ele>
        <time>2018-03-18T11:24:22Z</time>
      </trkpt>
      <trkpt lat="45.95646" lon="4.75805">
        <ele>185</ele>
        <time>2018-03-18T11:24:23Z</time>
      </trkpt>
      <trkpt lat="45.95644" lon="4.75796">
        <ele>185</ele>
        <time>2018-03-18T11:24:24Z</time>
      </trkpt>
      <trkpt lat="45.95643" lon="4.75789">
        <ele>185</ele>
        <time>2018-03-18T11:24:25Z</time>
      </trkpt>
      <trkpt lat="45.95642" lon="4.75782">
        <ele>186</ele>
        <time>2018-03-18T11:24:26Z</time>
      </trkpt>
      <trkpt lat="45.95641" lon="4.75775">
        <ele>186</ele>
        <time>2018-03-18T11:24:27Z</time>
      </trkpt>
      <trkpt lat="45.95643" lon="4.75768">
        <ele>186</ele>
        <time>2018-03-18T11:24:28Z</time>
      </trkpt>
      <trkpt lat="45.95643" lon="4.7576">
        <ele>186</ele>
        <time>2018-03-18T11:24:29Z</time>
      </trkpt>
      <trkpt lat="45.95642" lon="4.75752">
        <ele>186</ele>
        <time>2018-03-18T11:24:30Z</time>
      </trkpt>
      <trkpt lat="45.95641" lon="4.75744">
        <ele>187</ele>
        <time>2018-03-18T11:24:31Z</time>
      </trkpt>
      <trkpt lat="45.95641" lon="4.75737">
        <ele>187</ele>
        <time>2018-03-18T11:24:32Z</time>
      </trkpt>
      <trkpt lat="45.95642" lon="4.75729">
        <ele>187</ele>
        <time>2018-03-18T11:24:33Z</time>
      </trkpt>
      <trkpt lat="45.9564" lon="4.75722">
        <ele>187</ele>
        <time>2018-03-18T11:24:34Z</time>
      </trkpt>
      <trkpt lat="45.95639" lon="4.75715">
        <ele>187</ele>
        <time>2018-03-18T11:24:35Z</time>
      </trkpt>
      <trkpt lat="45.95638" lon="4.75708">
        <ele>187</ele>
        <time>2018-03-18T11:24:36Z</time>
      </trkpt>
      <trkpt lat="45.95636" lon="4.75701">
        <ele>187</ele>
        <time>2018-03-18T11:24:37Z</time>
      </trkpt>
      <trkpt lat="45.95634" lon="4.75693">
        <ele>187</ele>
        <time>2018-03-18T11:24:38Z</time>
      </trkpt>
      <trkpt lat="45.95632" lon="4.75684">
        <ele>187</ele>
        <time>2018-03-18T11:24:39Z</time>
      </trkpt>
      <trkpt lat="45.9563" lon="4.75677">
        <ele>188</ele>
        <time>2018-03-18T11:24:40Z</time>
      </trkpt>
      <trkpt lat="45.9563" lon="4.75669">
        <ele>188</ele>
        <time>2018-03-18T11:24:41Z</time>
      </trkpt>
      <trkpt lat="45.95628" lon="4.75659">
        <ele>188</ele>
        <time>2018-03-18T11:24:42Z</time>
      </trkpt>
      <trkpt lat="45.95626" lon="4.75652">
        <ele>188</ele>
        <time>2018-03-18T11:24:43Z</time>
      </trkpt>
      <trkpt lat="45.95623" lon="4.75647">
        <ele>188</ele>
        <time>2018-03-18T11:24:44Z</time>
      </trkpt>
      <trkpt lat="45.95622" lon="4.7564">
        <ele>188</ele>
        <time>2018-03-18T11:24:45Z</time>
      </trkpt>
      <trkpt lat="45.9562" lon="4.75632">
        <ele>188</ele>
        <time>2018-03-18T11:24:46Z</time>
      </trkpt>
      <trkpt lat="45.95618" lon="4.75626">
        <ele>188</ele>
        <time>2018-03-18T11:24:47Z</time>
      </trkpt>
      <trkpt lat="45.95616" lon="4.75618">
        <ele>188</ele>
        <time>2018-03-18T11:24:48Z</time>
      </trkpt>
      <trkpt lat="45.95614" lon="4.75611">
        <ele>188</ele>
        <time>2018-03-18T11:24:49Z</time>
      </trkpt>
      <trkpt lat="45.95613" lon="4.75605">
        <ele>188</ele>
        <time>2018-03-18T11:24:50Z</time>
      </trkpt>
      <trkpt lat="45.95611" lon="4.75599">
        <ele>188</ele>
        <time>2018-03-18T11:24:51Z</time>
      </trkpt>
      <trkpt lat="45.95608" lon="4.75592">
        <ele>187</ele>
        <time>2018-03-18T11:24:52Z</time>
      </trkpt>
      <trkpt lat="45.95605" lon="4.75585">
        <ele>187</ele>
        <time>2018-03-18T11:24:53Z</time>
      </trkpt>
      <trkpt lat="45.95602" lon="4.75579">
        <ele>188</ele>
        <time>2018-03-18T11:24:54Z</time>
      </trkpt>
      <trkpt lat="45.95599" lon="4.75572">
        <ele>188</ele>
        <time>2018-03-18T11:24:55Z</time>
      </trkpt>
      <trkpt lat="45.95596" lon="4.75566">
        <ele>188</ele>
        <time>2018-03-18T11:24:56Z</time>
      </trkpt>
      <trkpt lat="45.95592" lon="4.7556">
        <ele>188</ele>
        <time>2018-03-18T11:24:57Z</time>
      </trkpt>
      <trkpt lat="45.95589" lon="4.75553">
        <ele>188</ele>
        <time>2018-03-18T11:24:58Z</time>
      </trkpt>
      <trkpt lat="45.95584" lon="4.75548">
        <ele>189</ele>
        <time>2018-03-18T11:24:59Z</time>
      </trkpt>
      <trkpt lat="45.9558" lon="4.75543">
        <ele>186</ele>
        <time>2018-03-18T11:25:00Z</time>
      </trkpt>
      <trkpt lat="45.95575" lon="4.75538">
        <ele>186</ele>
        <time>2018-03-18T11:25:01Z</time>
      </trkpt>
      <trkpt lat="45.9557" lon="4.75534">
        <ele>186</ele>
        <time>2018-03-18T11:25:02Z</time>
      </trkpt>
      <trkpt lat="45.95566" lon="4.75529">
        <ele>186</ele>
        <time>2018-03-18T11:25:03Z</time>
      </trkpt>
      <trkpt lat="45.95561" lon="4.75524">
        <ele>186</ele>
        <time>2018-03-18T11:25:04Z</time>
      </trkpt>
      <trkpt lat="45.95557" lon="4.7552">
        <ele>186</ele>
        <time>2018-03-18T11:25:05Z</time>
      </trkpt>
      <trkpt lat="45.95553" lon="4.75514">
        <ele>186</ele>
        <time>2018-03-18T11:25:06Z</time>
      </trkpt>
      <trkpt lat="45.95549" lon="4.75509">
        <ele>186</ele>
        <time>2018-03-18T11:25:07Z</time>
      </trkpt>
      <trkpt lat="45.95547" lon="4.75503">
        <ele>186</ele>
        <time>2018-03-18T11:25:08Z</time>
      </trkpt>
      <trkpt lat="45.95545" lon="4.75496">
        <ele>187</ele>
        <time>2018-03-18T11:25:09Z</time>
      </trkpt>
      <trkpt lat="45.95543" lon="4.7549">
        <ele>187</ele>
        <time>2018-03-18T11:25:10Z</time>
      </trkpt>
      <trkpt lat="45.95542" lon="4.75484">
        <ele>187</ele>
        <time>2018-03-18T11:25:11Z</time>
      </trkpt>
      <trkpt lat="45.95542" lon="4.75477">
        <ele>187</ele>
        <time>2018-03-18T11:25:12Z</time>
      </trkpt>
      <trkpt lat="45.95541" lon="4.75471">
        <ele>187</ele>
        <time>2018-03-18T11:25:13Z</time>
      </trkpt>
      <trkpt lat="45.95539" lon="4.75463">
        <ele>187</ele>
        <time>2018-03-18T11:25:14Z</time>
      </trkpt>
      <trkpt lat="45.95535" lon="4.75453">
        <ele>187</ele>
        <time>2018-03-18T11:25:16Z</time>
      </trkpt>
      <trkpt lat="45.9553" lon="4.75448">
        <ele>187</ele>
        <time>2018-03-18T11:25:17Z</time>
      </trkpt>
      <trkpt lat="45.95526" lon="4.75442">
        <ele>187</ele>
        <time>2018-03-18T11:25:18Z</time>
      </trkpt>
      <trkpt lat="45.95523" lon="4.75435">
        <ele>187</ele>
        <time>2018-03-18T11:25:19Z</time>
      </trkpt>
      <trkpt lat="45.95519" lon="4.75428">
        <ele>187</ele>
        <time>2018-03-18T11:25:20Z</time>
      </trkpt>
      <trkpt lat="45.95517" lon="4.75421">
        <ele>186</ele>
        <time>2018-03-18T11:25:21Z</time>
      </trkpt>
      <trkpt lat="45.95514" lon="4.75414">
        <ele>187</ele>
        <time>2018-03-18T11:25:22Z</time>
      </trkpt>
      <trkpt lat="45.95511" lon="4.75408">
        <ele>187</ele>
        <time>2018-03-18T11:25:23Z</time>
      </trkpt>
      <trkpt lat="45.95508" lon="4.75401">
        <ele>187</ele>
        <time>2018-03-18T11:25:24Z</time>
      </trkpt>
      <trkpt lat="45.95505" lon="4.75394">
        <ele>188</ele>
        <time>2018-03-18T11:25:25Z</time>
      </trkpt>
      <trkpt lat="45.95502" lon="4.75388">
        <ele>188</ele>
        <time>2018-03-18T11:25:26Z</time>
      </trkpt>
      <trkpt lat="45.95499" lon="4.75382">
        <ele>185</ele>
        <time>2018-03-18T11:25:27Z</time>
      </trkpt>
      <trkpt lat="45.95497" lon="4.75375">
        <ele>185</ele>
        <time>2018-03-18T11:25:28Z</time>
      </trkpt>
      <trkpt lat="45.95495" lon="4.75369">
        <ele>186</ele>
        <time>2018-03-18T11:25:29Z</time>
      </trkpt>
      <trkpt lat="45.95491" lon="4.75363">
        <ele>186</ele>
        <time>2018-03-18T11:25:30Z</time>
      </trkpt>
      <trkpt lat="45.95488" lon="4.75357">
        <ele>186</ele>
        <time>2018-03-18T11:25:31Z</time>
      </trkpt>
      <trkpt lat="45.95483" lon="4.75346">
        <ele>186</ele>
        <time>2018-03-18T11:25:33Z</time>
      </trkpt>
      <trkpt lat="45.9548" lon="4.75341">
        <ele>186</ele>
        <time>2018-03-18T11:25:34Z</time>
      </trkpt>
      <trkpt lat="45.95477" lon="4.75336">
        <ele>186</ele>
        <time>2018-03-18T11:25:35Z</time>
      </trkpt>
      <trkpt lat="45.95475" lon="4.7533">
        <ele>188</ele>
        <time>2018-03-18T11:25:36Z</time>
      </trkpt>
      <trkpt lat="45.95472" lon="4.75324">
        <ele>188</ele>
        <time>2018-03-18T11:25:37Z</time>
      </trkpt>
      <trkpt lat="45.95469" lon="4.7532">
        <ele>188</ele>
        <time>2018-03-18T11:25:38Z</time>
      </trkpt>
      <trkpt lat="45.95466" lon="4.75313">
        <ele>188</ele>
        <time>2018-03-18T11:25:39Z</time>
      </trkpt>
      <trkpt lat="45.95462" lon="4.75308">
        <ele>188</ele>
        <time>2018-03-18T11:25:40Z</time>
      </trkpt>
      <trkpt lat="45.9546" lon="4.75301">
        <ele>188</ele>
        <time>2018-03-18T11:25:41Z</time>
      </trkpt>
      <trkpt lat="45.95457" lon="4.75294">
        <ele>188</ele>
        <time>2018-03-18T11:25:42Z</time>
      </trkpt>
      <trkpt lat="45.95452" lon="4.75284">
        <ele>189</ele>
        <time>2018-03-18T11:25:44Z</time>
      </trkpt>
      <trkpt lat="45.95449" lon="4.75279">
        <ele>189</ele>
        <time>2018-03-18T11:25:45Z</time>
      </trkpt>
      <trkpt lat="45.95446" lon="4.75273">
        <ele>189</ele>
        <time>2018-03-18T11:25:46Z</time>
      </trkpt>
      <trkpt lat="45.95443" lon="4.75265">
        <ele>189</ele>
        <time>2018-03-18T11:25:47Z</time>
      </trkpt>
      <trkpt lat="45.9544" lon="4.75255">
        <ele>189</ele>
        <time>2018-03-18T11:25:49Z</time>
      </trkpt>
      <trkpt lat="45.95437" lon="4.7525">
        <ele>189</ele>
        <time>2018-03-18T11:25:50Z</time>
      </trkpt>
      <trkpt lat="45.95431" lon="4.75241">
        <ele>190</ele>
        <time>2018-03-18T11:25:52Z</time>
      </trkpt>
      <trkpt lat="45.95429" lon="4.75235">
        <ele>190</ele>
        <time>2018-03-18T11:25:53Z</time>
      </trkpt>
      <trkpt lat="45.95425" lon="4.7523">
        <ele>191</ele>
        <time>2018-03-18T11:25:54Z</time>
      </trkpt>
      <trkpt lat="45.95423" lon="4.75225">
        <ele>191</ele>
        <time>2018-03-18T11:25:55Z</time>
      </trkpt>
      <trkpt lat="45.95419" lon="4.7522">
        <ele>191</ele>
        <time>2018-03-18T11:25:56Z</time>
      </trkpt>
      <trkpt lat="45.95415" lon="4.75215">
        <ele>189</ele>
        <time>2018-03-18T11:25:57Z</time>
      </trkpt>
      <trkpt lat="45.95412" lon="4.7521">
        <ele>189</ele>
        <time>2018-03-18T11:25:58Z</time>
      </trkpt>
      <trkpt lat="45.95409" lon="4.75205">
        <ele>189</ele>
        <time>2018-03-18T11:25:59Z</time>
      </trkpt>
      <trkpt lat="45.95404" lon="4.75196">
        <ele>189</ele>
        <time>2018-03-18T11:26:01Z</time>
      </trkpt>
      <trkpt lat="45.95401" lon="4.75191">
        <ele>189</ele>
        <time>2018-03-18T11:26:02Z</time>
      </trkpt>
      <trkpt lat="45.95399" lon="4.75184">
        <ele>189</ele>
        <time>2018-03-18T11:26:03Z</time>
      </trkpt>
      <trkpt lat="45.95396" lon="4.75179">
        <ele>189</ele>
        <time>2018-03-18T11:26:04Z</time>
      </trkpt>
      <trkpt lat="45.95393" lon="4.75174">
        <ele>189</ele>
        <time>2018-03-18T11:26:05Z</time>
      </trkpt>
      <trkpt lat="45.9539" lon="4.75165">
        <ele>191</ele>
        <time>2018-03-18T11:26:06Z</time>
      </trkpt>
      <trkpt lat="45.95387" lon="4.7516">
        <ele>191</ele>
        <time>2018-03-18T11:26:07Z</time>
      </trkpt>
      <trkpt lat="45.95383" lon="4.75156">
        <ele>191</ele>
        <time>2018-03-18T11:26:08Z</time>
      </trkpt>
      <trkpt lat="45.95376" lon="4.75147">
        <ele>191</ele>
        <time>2018-03-18T11:26:10Z</time>
      </trkpt>
      <trkpt lat="45.95373" lon="4.75142">
        <ele>191</ele>
        <time>2018-03-18T11:26:11Z</time>
      </trkpt>
      <trkpt lat="45.95371" lon="4.75136">
        <ele>191</ele>
        <time>2018-03-18T11:26:12Z</time>
      </trkpt>
      <trkpt lat="45.95368" lon="4.75131">
        <ele>191</ele>
        <time>2018-03-18T11:26:13Z</time>
      </trkpt>
      <trkpt lat="45.95364" lon="4.75126">
        <ele>191</ele>
        <time>2018-03-18T11:26:14Z</time>
      </trkpt>
      <trkpt lat="45.95361" lon="4.75121">
        <ele>191</ele>
        <time>2018-03-18T11:26:15Z</time>
      </trkpt>
      <trkpt lat="45.95355" lon="4.75112">
        <ele>192</ele>
        <time>2018-03-18T11:26:17Z</time>
      </trkpt>
      <trkpt lat="45.95351" lon="4.75108">
        <ele>192</ele>
        <time>2018-03-18T11:26:18Z</time>
      </trkpt>
      <trkpt lat="45.95346" lon="4.75099">
        <ele>192</ele>
        <time>2018-03-18T11:26:20Z</time>
      </trkpt>
      <trkpt lat="45.95343" lon="4.75093">
        <ele>192</ele>
        <time>2018-03-18T11:26:21Z</time>
      </trkpt>
      <trkpt lat="45.95339" lon="4.75088">
        <ele>193</ele>
        <time>2018-03-18T11:26:22Z</time>
      </trkpt>
      <trkpt lat="45.95336" lon="4.75082">
        <ele>193</ele>
        <time>2018-03-18T11:26:23Z</time>
      </trkpt>
      <trkpt lat="45.95332" lon="4.75077">
        <ele>193</ele>
        <time>2018-03-18T11:26:24Z</time>
      </trkpt>
      <trkpt lat="45.95328" lon="4.75073">
        <ele>192</ele>
        <time>2018-03-18T11:26:25Z</time>
      </trkpt>
      <trkpt lat="45.95325" lon="4.75066">
        <ele>192</ele>
        <time>2018-03-18T11:26:26Z</time>
      </trkpt>
      <trkpt lat="45.95322" lon="4.7506">
        <ele>192</ele>
        <time>2018-03-18T11:26:27Z</time>
      </trkpt>
      <trkpt lat="45.95318" lon="4.75056">
        <ele>192</ele>
        <time>2018-03-18T11:26:28Z</time>
      </trkpt>
      <trkpt lat="45.95315" lon="4.75051">
        <ele>192</ele>
        <time>2018-03-18T11:26:29Z</time>
      </trkpt>
      <trkpt lat="45.95309" lon="4.75043">
        <ele>192</ele>
        <time>2018-03-18T11:26:31Z</time>
      </trkpt>
      <trkpt lat="45.95306" lon="4.75039">
        <ele>192</ele>
        <time>2018-03-18T11:26:32Z</time>
      </trkpt>
      <trkpt lat="45.953" lon="4.7503">
        <ele>192</ele>
        <time>2018-03-18T11:26:34Z</time>
      </trkpt>
      <trkpt lat="45.95299" lon="4.75026">
        <ele>192</ele>
        <time>2018-03-18T11:26:35Z</time>
      </trkpt>
      <trkpt lat="45.95292" lon="4.75018">
        <ele>191</ele>
        <time>2018-03-18T11:26:37Z</time>
      </trkpt>
      <trkpt lat="45.95289" lon="4.75011">
        <ele>191</ele>
        <time>2018-03-18T11:26:38Z</time>
      </trkpt>
      <trkpt lat="45.95285" lon="4.75007">
        <ele>191</ele>
        <time>2018-03-18T11:26:39Z</time>
      </trkpt>
      <trkpt lat="45.95282" lon="4.75002">
        <ele>191</ele>
        <time>2018-03-18T11:26:40Z</time>
      </trkpt>
      <trkpt lat="45.95275" lon="4.74993">
        <ele>192</ele>
        <time>2018-03-18T11:26:42Z</time>
      </trkpt>
      <trkpt lat="45.95272" lon="4.74988">
        <ele>192</ele>
        <time>2018-03-18T11:26:43Z</time>
      </trkpt>
      <trkpt lat="45.95265" lon="4.7498">
        <ele>192</ele>
        <time>2018-03-18T11:26:45Z</time>
      </trkpt>
      <trkpt lat="45.95263" lon="4.74974">
        <ele>192</ele>
        <time>2018-03-18T11:26:46Z</time>
      </trkpt>
      <trkpt lat="45.95257" lon="4.74966">
        <ele>192</ele>
        <time>2018-03-18T11:26:48Z</time>
      </trkpt>
      <trkpt lat="45.95254" lon="4.7496">
        <ele>192</ele>
        <time>2018-03-18T11:26:49Z</time>
      </trkpt>
      <trkpt lat="45.95251" lon="4.74953">
        <ele>192</ele>
        <time>2018-03-18T11:26:50Z</time>
      </trkpt>
      <trkpt lat="45.95247" lon="4.74948">
        <ele>192</ele>
        <time>2018-03-18T11:26:51Z</time>
      </trkpt>
      <trkpt lat="45.95243" lon="4.74943">
        <ele>192</ele>
        <time>2018-03-18T11:26:52Z</time>
      </trkpt>
      <trkpt lat="45.9524" lon="4.74939">
        <ele>192</ele>
        <time>2018-03-18T11:26:53Z</time>
      </trkpt>
      <trkpt lat="45.95235" lon="4.74932">
        <ele>192</ele>
        <time>2018-03-18T11:26:55Z</time>
      </trkpt>
      <trkpt lat="45.95231" lon="4.74927">
        <ele>192</ele>
        <time>2018-03-18T11:26:56Z</time>
      </trkpt>
      <trkpt lat="45.95228" lon="4.74923">
        <ele>192</ele>
        <time>2018-03-18T11:26:57Z</time>
      </trkpt>
      <trkpt lat="45.95225" lon="4.74917">
        <ele>192</ele>
        <time>2018-03-18T11:26:58Z</time>
      </trkpt>
      <trkpt lat="45.95221" lon="4.74912">
        <ele>193</ele>
        <time>2018-03-18T11:26:59Z</time>
      </trkpt>
      <trkpt lat="45.95218" lon="4.74908">
        <ele>193</ele>
        <time>2018-03-18T11:27:00Z</time>
      </trkpt>
      <trkpt lat="45.95213" lon="4.74899">
        <ele>193</ele>
        <time>2018-03-18T11:27:02Z</time>
      </trkpt>
      <trkpt lat="45.95209" lon="4.74893">
        <ele>193</ele>
        <time>2018-03-18T11:27:03Z</time>
      </trkpt>
      <trkpt lat="45.95206" lon="4.74888">
        <ele>194</ele>
        <time>2018-03-18T11:27:04Z</time>
      </trkpt>
      <trkpt lat="45.95202" lon="4.74883">
        <ele>194</ele>
        <time>2018-03-18T11:27:05Z</time>
      </trkpt>
      <trkpt lat="45.95199" lon="4.74875">
        <ele>194</ele>
        <time>2018-03-18T11:27:06Z</time>
      </trkpt>
      <trkpt lat="45.95195" lon="4.7487">
        <ele>194</ele>
        <time>2018-03-18T11:27:07Z</time>
      </trkpt>
      <trkpt lat="45.95192" lon="4.74863">
        <ele>194</ele>
        <time>2018-03-18T11:27:08Z</time>
      </trkpt>
      <trkpt lat="45.95189" lon="4.74859">
        <ele>194</ele>
        <time>2018-03-18T11:27:09Z</time>
      </trkpt>
      <trkpt lat="45.95186" lon="4.74854">
        <ele>194</ele>
        <time>2018-03-18T11:27:10Z</time>
      </trkpt>
      <trkpt lat="45.95182" lon="4.74847">
        <ele>194</ele>
        <time>2018-03-18T11:27:11Z</time>
      </trkpt>
      <trkpt lat="45.95179" lon="4.74843">
        <ele>194</ele>
        <time>2018-03-18T11:27:12Z</time>
      </trkpt>
      <trkpt lat="45.95176" lon="4.74837">
        <ele>194</ele>
        <time>2018-03-18T11:27:13Z</time>
      </trkpt>
      <trkpt lat="45.95173" lon="4.74833">
        <ele>194</ele>
        <time>2018-03-18T11:27:14Z</time>
      </trkpt>
      <trkpt lat="45.9517" lon="4.74828">
        <ele>194</ele>
        <time>2018-03-18T11:27:15Z</time>
      </trkpt>
      <trkpt lat="45.95167" lon="4.74823">
        <ele>194</ele>
        <time>2018-03-18T11:27:16Z</time>
      </trkpt>
      <trkpt lat="45.95163" lon="4.74817">
        <ele>194</ele>
        <time>2018-03-18T11:27:17Z</time>
      </trkpt>
      <trkpt lat="45.95159" lon="4.74811">
        <ele>194</ele>
        <time>2018-03-18T11:27:18Z</time>
      </trkpt>
      <trkpt lat="45.95155" lon="4.74804">
        <ele>194</ele>
        <time>2018-03-18T11:27:19Z</time>
      </trkpt>
      <trkpt lat="45.95152" lon="4.74798">
        <ele>194</ele>
        <time>2018-03-18T11:27:20Z</time>
      </trkpt>
      <trkpt lat="45.95149" lon="4.74794">
        <ele>194</ele>
        <time>2018-03-18T11:27:21Z</time>
      </trkpt>
      <trkpt lat="45.95145" lon="4.74789">
        <ele>194</ele>
        <time>2018-03-18T11:27:22Z</time>
      </trkpt>
      <trkpt lat="45.95143" lon="4.74783">
        <ele>194</ele>
        <time>2018-03-18T11:27:23Z</time>
      </trkpt>
      <trkpt lat="45.95139" lon="4.74779">
        <ele>194</ele>
        <time>2018-03-18T11:27:24Z</time>
      </trkpt>
      <trkpt lat="45.95135" lon="4.74775">
        <ele>194</ele>
        <time>2018-03-18T11:27:25Z</time>
      </trkpt>
      <trkpt lat="45.95132" lon="4.74768">
        <ele>194</ele>
        <time>2018-03-18T11:27:26Z</time>
      </trkpt>
      <trkpt lat="45.95129" lon="4.74763">
        <ele>194</ele>
        <time>2018-03-18T11:27:27Z</time>
      </trkpt>
      <trkpt lat="45.95126" lon="4.74757">
        <ele>194</ele>
        <time>2018-03-18T11:27:28Z</time>
      </trkpt>
      <trkpt lat="45.95122" lon="4.74752">
        <ele>194</ele>
        <time>2018-03-18T11:27:29Z</time>
      </trkpt>
      <trkpt lat="45.95119" lon="4.74747">
        <ele>194</ele>
        <time>2018-03-18T11:27:30Z</time>
      </trkpt>
      <trkpt lat="45.95116" lon="4.74741">
        <ele>194</ele>
        <time>2018-03-18T11:27:31Z</time>
      </trkpt>
      <trkpt lat="45.95113" lon="4.74735">
        <ele>194</ele>
        <time>2018-03-18T11:27:32Z</time>
      </trkpt>
      <trkpt lat="45.9511" lon="4.74726">
        <ele>194</ele>
        <time>2018-03-18T11:27:33Z</time>
      </trkpt>
      <trkpt lat="45.95107" lon="4.7472">
        <ele>194</ele>
        <time>2018-03-18T11:27:34Z</time>
      </trkpt>
      <trkpt lat="45.95102" lon="4.74717">
        <ele>194</ele>
        <time>2018-03-18T11:27:35Z</time>
      </trkpt>
      <trkpt lat="45.951" lon="4.74705">
        <ele>194</ele>
        <time>2018-03-18T11:27:36Z</time>
      </trkpt>
      <trkpt lat="45.95097" lon="4.74699">
        <ele>194</ele>
        <time>2018-03-18T11:27:37Z</time>
      </trkpt>
      <trkpt lat="45.95091" lon="4.7469">
        <ele>195</ele>
        <time>2018-03-18T11:27:39Z</time>
      </trkpt>
      <trkpt lat="45.95088" lon="4.74686">
        <ele>195</ele>
        <time>2018-03-18T11:27:40Z</time>
      </trkpt>
      <trkpt lat="45.95085" lon="4.74682">
        <ele>195</ele>
        <time>2018-03-18T11:27:41Z</time>
      </trkpt>
      <trkpt lat="45.95082" lon="4.74676">
        <ele>195</ele>
        <time>2018-03-18T11:27:42Z</time>
      </trkpt>
      <trkpt lat="45.95079" lon="4.74671">
        <ele>195</ele>
        <time>2018-03-18T11:27:43Z</time>
      </trkpt>
      <trkpt lat="45.95075" lon="4.74666">
        <ele>195</ele>
        <time>2018-03-18T11:27:44Z</time>
      </trkpt>
      <trkpt lat="45.95072" lon="4.7466">
        <ele>195</ele>
        <time>2018-03-18T11:27:45Z</time>
      </trkpt>
      <trkpt lat="45.95069" lon="4.74655">
        <ele>195</ele>
        <time>2018-03-18T11:27:46Z</time>
      </trkpt>
      <trkpt lat="45.95065" lon="4.7465">
        <ele>195</ele>
        <time>2018-03-18T11:27:47Z</time>
      </trkpt>
      <trkpt lat="45.95063" lon="4.74645">
        <ele>194</ele>
        <time>2018-03-18T11:27:48Z</time>
      </trkpt>
      <trkpt lat="45.95059" lon="4.74639">
        <ele>194</ele>
        <time>2018-03-18T11:27:49Z</time>
      </trkpt>
      <trkpt lat="45.95055" lon="4.74633">
        <ele>194</ele>
        <time>2018-03-18T11:27:50Z</time>
      </trkpt>
      <trkpt lat="45.95051" lon="4.74625">
        <ele>194</ele>
        <time>2018-03-18T11:27:51Z</time>
      </trkpt>
      <trkpt lat="45.95048" lon="4.74618">
        <ele>194</ele>
        <time>2018-03-18T11:27:52Z</time>
      </trkpt>
      <trkpt lat="45.95045" lon="4.74613">
        <ele>194</ele>
        <time>2018-03-18T11:27:53Z</time>
      </trkpt>
      <trkpt lat="45.95041" lon="4.74608">
        <ele>194</ele>
        <time>2018-03-18T11:27:54Z</time>
      </trkpt>
      <trkpt lat="45.95038" lon="4.74602">
        <ele>194</ele>
        <time>2018-03-18T11:27:55Z</time>
      </trkpt>
      <trkpt lat="45.95033" lon="4.74596">
        <ele>194</ele>
        <time>2018-03-18T11:27:56Z</time>
      </trkpt>
      <trkpt lat="45.95028" lon="4.74588">
        <ele>194</ele>
        <time>2018-03-18T11:27:57Z</time>
      </trkpt>
      <trkpt lat="45.95024" lon="4.74581">
        <ele>194</ele>
        <time>2018-03-18T11:27:58Z</time>
      </trkpt>
      <trkpt lat="45.95021" lon="4.74574">
        <ele>194</ele>
        <time>2018-03-18T11:27:59Z</time>
      </trkpt>
      <trkpt lat="45.95019" lon="4.74567">
        <ele>194</ele>
        <time>2018-03-18T11:28:00Z</time>
      </trkpt>
      <trkpt lat="45.95015" lon="4.74561">
        <ele>194</ele>
        <time>2018-03-18T11:28:01Z</time>
      </trkpt>
      <trkpt lat="45.95011" lon="4.74554">
        <ele>194</ele>
        <time>2018-03-18T11:28:02Z</time>
      </trkpt>
      <trkpt lat="45.95008" lon="4.74548">
        <ele>194</ele>
        <time>2018-03-18T11:28:03Z</time>
      </trkpt>
      <trkpt lat="45.95005" lon="4.74541">
        <ele>194</ele>
        <time>2018-03-18T11:28:04Z</time>
      </trkpt>
      <trkpt lat="45.95001" lon="4.74535">
        <ele>194</ele>
        <time>2018-03-18T11:28:05Z</time>
      </trkpt>
      <trkpt lat="45.94997" lon="4.7453">
        <ele>193</ele>
        <time>2018-03-18T11:28:06Z</time>
      </trkpt>
      <trkpt lat="45.94994" lon="4.74524">
        <ele>193</ele>
        <time>2018-03-18T11:28:07Z</time>
      </trkpt>
      <trkpt lat="45.94991" lon="4.74517">
        <ele>193</ele>
        <time>2018-03-18T11:28:08Z</time>
      </trkpt>
      <trkpt lat="45.94988" lon="4.74511">
        <ele>193</ele>
        <time>2018-03-18T11:28:09Z</time>
      </trkpt>
      <trkpt lat="45.94985" lon="4.74503">
        <ele>193</ele>
        <time>2018-03-18T11:28:10Z</time>
      </trkpt>
      <trkpt lat="45.94982" lon="4.74496">
        <ele>193</ele>
        <time>2018-03-18T11:28:11Z</time>
      </trkpt>
      <trkpt lat="45.94978" lon="4.74489">
        <ele>193</ele>
        <time>2018-03-18T11:28:12Z</time>
      </trkpt>
      <trkpt lat="45.94974" lon="4.74483">
        <ele>193</ele>
        <time>2018-03-18T11:28:13Z</time>
      </trkpt>
      <trkpt lat="45.94971" lon="4.74477">
        <ele>193</ele>
        <time>2018-03-18T11:28:14Z</time>
      </trkpt>
      <trkpt lat="45.94968" lon="4.74468">
        <ele>193</ele>
        <time>2018-03-18T11:28:15Z</time>
      </trkpt>
      <trkpt lat="45.94965" lon="4.7446">
        <ele>193</ele>
        <time>2018-03-18T11:28:16Z</time>
      </trkpt>
      <trkpt lat="45.94962" lon="4.74454">
        <ele>192</ele>
        <time>2018-03-18T11:28:17Z</time>
      </trkpt>
      <trkpt lat="45.94959" lon="4.74447">
        <ele>192</ele>
        <time>2018-03-18T11:28:18Z</time>
      </trkpt>
      <trkpt lat="45.94955" lon="4.7444">
        <ele>192</ele>
        <time>2018-03-18T11:28:19Z</time>
      </trkpt>
      <trkpt lat="45.94953" lon="4.74432">
        <ele>192</ele>
        <time>2018-03-18T11:28:20Z</time>
      </trkpt>
      <trkpt lat="45.94949" lon="4.74425">
        <ele>192</ele>
        <time>2018-03-18T11:28:21Z</time>
      </trkpt>
      <trkpt lat="45.94946" lon="4.74419">
        <ele>192</ele>
        <time>2018-03-18T11:28:22Z</time>
      </trkpt>
      <trkpt lat="45.94942" lon="4.74412">
        <ele>192</ele>
        <time>2018-03-18T11:28:23Z</time>
      </trkpt>
      <trkpt lat="45.94939" lon="4.74405">
        <ele>192</ele>
        <time>2018-03-18T11:28:24Z</time>
      </trkpt>
      <trkpt lat="45.94936" lon="4.74399">
        <ele>192</ele>
        <time>2018-03-18T11:28:25Z</time>
      </trkpt>
      <trkpt lat="45.94932" lon="4.74391">
        <ele>192</ele>
        <time>2018-03-18T11:28:26Z</time>
      </trkpt>
      <trkpt lat="45.94928" lon="4.74385">
        <ele>192</ele>
        <time>2018-03-18T11:28:27Z</time>
      </trkpt>
      <trkpt lat="45.94924" lon="4.74378">
        <ele>192</ele>
        <time>2018-03-18T11:28:28Z</time>
      </trkpt>
      <trkpt lat="45.94921" lon="4.74372">
        <ele>192</ele>
        <time>2018-03-18T11:28:29Z</time>
      </trkpt>
      <trkpt lat="45.94918" lon="4.74365">
        <ele>192</ele>
        <time>2018-03-18T11:28:30Z</time>
      </trkpt>
      <trkpt lat="45.94914" lon="4.74357">
        <ele>191</ele>
        <time>2018-03-18T11:28:31Z</time>
      </trkpt>
      <trkpt lat="45.94911" lon="4.74351">
        <ele>191</ele>
        <time>2018-03-18T11:28:32Z</time>
      </trkpt>
      <trkpt lat="45.94907" lon="4.74344">
        <ele>191</ele>
        <time>2018-03-18T11:28:33Z</time>
      </trkpt>
      <trkpt lat="45.94904" lon="4.74337">
        <ele>191</ele>
        <time>2018-03-18T11:28:34Z</time>
      </trkpt>
      <trkpt lat="45.94901" lon="4.74331">
        <ele>191</ele>
        <time>2018-03-18T11:28:35Z</time>
      </trkpt>
      <trkpt lat="45.94898" lon="4.74324">
        <ele>191</ele>
        <time>2018-03-18T11:28:36Z</time>
      </trkpt>
      <trkpt lat="45.94894" lon="4.74317">
        <ele>191</ele>
        <time>2018-03-18T11:28:37Z</time>
      </trkpt>
      <trkpt lat="45.94891" lon="4.7431">
        <ele>191</ele>
        <time>2018-03-18T11:28:38Z</time>
      </trkpt>
      <trkpt lat="45.94887" lon="4.74304">
        <ele>191</ele>
        <time>2018-03-18T11:28:39Z</time>
      </trkpt>
      <trkpt lat="45.94883" lon="4.74297">
        <ele>191</ele>
        <time>2018-03-18T11:28:40Z</time>
      </trkpt>
      <trkpt lat="45.94879" lon="4.7429">
        <ele>191</ele>
        <time>2018-03-18T11:28:41Z</time>
      </trkpt>
      <trkpt lat="45.94876" lon="4.74284">
        <ele>191</ele>
        <time>2018-03-18T11:28:42Z</time>
      </trkpt>
      <trkpt lat="45.94873" lon="4.74278">
        <ele>191</ele>
        <time>2018-03-18T11:28:43Z</time>
      </trkpt>
      <trkpt lat="45.9487" lon="4.74273">
        <ele>191</ele>
        <time>2018-03-18T11:28:44Z</time>
      </trkpt>
      <trkpt lat="45.94866" lon="4.74266">
        <ele>190</ele>
        <time>2018-03-18T11:28:45Z</time>
      </trkpt>
      <trkpt lat="45.94863" lon="4.74256">
        <ele>190</ele>
        <time>2018-03-18T11:28:46Z</time>
      </trkpt>
      <trkpt lat="45.94859" lon="4.74251">
        <ele>190</ele>
        <time>2018-03-18T11:28:47Z</time>
      </trkpt>
      <trkpt lat="45.94856" lon="4.74243">
        <ele>190</ele>
        <time>2018-03-18T11:28:48Z</time>
      </trkpt>
      <trkpt lat="45.94853" lon="4.74236">
        <ele>190</ele>
        <time>2018-03-18T11:28:49Z</time>
      </trkpt>
      <trkpt lat="45.9485" lon="4.74229">
        <ele>190</ele>
        <time>2018-03-18T11:28:50Z</time>
      </trkpt>
      <trkpt lat="45.94846" lon="4.74223">
        <ele>190</ele>
        <time>2018-03-18T11:28:51Z</time>
      </trkpt>
      <trkpt lat="45.94843" lon="4.74217">
        <ele>190</ele>
        <time>2018-03-18T11:28:52Z</time>
      </trkpt>
      <trkpt lat="45.9484" lon="4.74211">
        <ele>190</ele>
        <time>2018-03-18T11:28:53Z</time>
      </trkpt>
      <trkpt lat="45.94835" lon="4.74205">
        <ele>190</ele>
        <time>2018-03-18T11:28:54Z</time>
      </trkpt>
      <trkpt lat="45.94831" lon="4.74201">
        <ele>189</ele>
        <time>2018-03-18T11:28:55Z</time>
      </trkpt>
      <trkpt lat="45.94828" lon="4.74195">
        <ele>189</ele>
        <time>2018-03-18T11:28:56Z</time>
      </trkpt>
      <trkpt lat="45.94824" lon="4.74189">
        <ele>189</ele>
        <time>2018-03-18T11:28:57Z</time>
      </trkpt>
      <trkpt lat="45.9482" lon="4.74184">
        <ele>189</ele>
        <time>2018-03-18T11:28:58Z</time>
      </trkpt>
      <trkpt lat="45.94817" lon="4.74178">
        <ele>189</ele>
        <time>2018-03-18T11:28:59Z</time>
      </trkpt>
      <trkpt lat="45.94813" lon="4.74172">
        <ele>189</ele>
        <time>2018-03-18T11:29:00Z</time>
      </trkpt>
      <trkpt lat="45.94809" lon="4.74162">
        <ele>189</ele>
        <time>2018-03-18T11:29:01Z</time>
      </trkpt>
      <trkpt lat="45.94806" lon="4.74158">
        <ele>189</ele>
        <time>2018-03-18T11:29:02Z</time>
      </trkpt>
      <trkpt lat="45.94802" lon="4.74152">
        <ele>189</ele>
        <time>2018-03-18T11:29:03Z</time>
      </trkpt>
      <trkpt lat="45.94799" lon="4.74146">
        <ele>189</ele>
        <time>2018-03-18T11:29:04Z</time>
      </trkpt>
      <trkpt lat="45.94795" lon="4.7414">
        <ele>189</ele>
        <time>2018-03-18T11:29:05Z</time>
      </trkpt>
      <trkpt lat="45.94792" lon="4.74134">
        <ele>189</ele>
        <time>2018-03-18T11:29:06Z</time>
      </trkpt>
      <trkpt lat="45.94787" lon="4.74128">
        <ele>189</ele>
        <time>2018-03-18T11:29:07Z</time>
      </trkpt>
      <trkpt lat="45.94784" lon="4.74123">
        <ele>189</ele>
        <time>2018-03-18T11:29:08Z</time>
      </trkpt>
      <trkpt lat="45.9478" lon="4.74117">
        <ele>189</ele>
        <time>2018-03-18T11:29:09Z</time>
      </trkpt>
      <trkpt lat="45.94776" lon="4.74111">
        <ele>189</ele>
        <time>2018-03-18T11:29:10Z</time>
      </trkpt>
      <trkpt lat="45.94772" lon="4.74107">
        <ele>189</ele>
        <time>2018-03-18T11:29:11Z</time>
      </trkpt>
      <trkpt lat="45.94768" lon="4.74102">
        <ele>189</ele>
        <time>2018-03-18T11:29:12Z</time>
      </trkpt>
      <trkpt lat="45.94765" lon="4.74095">
        <ele>189</ele>
        <time>2018-03-18T11:29:13Z</time>
      </trkpt>
      <trkpt lat="45.94757" lon="4.74084">
        <ele>189</ele>
        <time>2018-03-18T11:29:14Z</time>
      </trkpt>
      <trkpt lat="45.94752" lon="4.74079">
        <ele>189</ele>
        <time>2018-03-18T11:29:15Z</time>
      </trkpt>
      <trkpt lat="45.94747" lon="4.74074">
        <ele>188</ele>
        <time>2018-03-18T11:29:16Z</time>
      </trkpt>
      <trkpt lat="45.94744" lon="4.7407">
        <ele>188</ele>
        <time>2018-03-18T11:29:17Z</time>
      </trkpt>
      <trkpt lat="45.9474" lon="4.74063">
        <ele>188</ele>
        <time>2018-03-18T11:29:18Z</time>
      </trkpt>
      <trkpt lat="45.94736" lon="4.74057">
        <ele>188</ele>
        <time>2018-03-18T11:29:19Z</time>
      </trkpt>
      <trkpt lat="45.94731" lon="4.74052">
        <ele>188</ele>
        <time>2018-03-18T11:29:20Z</time>
      </trkpt>
      <trkpt lat="45.94727" lon="4.74046">
        <ele>188</ele>
        <time>2018-03-18T11:29:21Z</time>
      </trkpt>
      <trkpt lat="45.94723" lon="4.74041">
        <ele>187</ele>
        <time>2018-03-18T11:29:22Z</time>
      </trkpt>
      <trkpt lat="45.94719" lon="4.74037">
        <ele>187</ele>
        <time>2018-03-18T11:29:23Z</time>
      </trkpt>
      <trkpt lat="45.94716" lon="4.7403">
        <ele>187</ele>
        <time>2018-03-18T11:29:24Z</time>
      </trkpt>
      <trkpt lat="45.94712" lon="4.74026">
        <ele>187</ele>
        <time>2018-03-18T11:29:25Z</time>
      </trkpt>
      <trkpt lat="45.94709" lon="4.74022">
        <ele>187</ele>
        <time>2018-03-18T11:29:26Z</time>
      </trkpt>
      <trkpt lat="45.94705" lon="4.74018">
        <ele>187</ele>
        <time>2018-03-18T11:29:27Z</time>
      </trkpt>
      <trkpt lat="45.94702" lon="4.74012">
        <ele>187</ele>
        <time>2018-03-18T11:29:28Z</time>
      </trkpt>
      <trkpt lat="45.94698" lon="4.74006">
        <ele>187</ele>
        <time>2018-03-18T11:29:29Z</time>
      </trkpt>
      <trkpt lat="45.94694" lon="4.74002">
        <ele>187</ele>
        <time>2018-03-18T11:29:30Z</time>
      </trkpt>
      <trkpt lat="45.9469" lon="4.73996">
        <ele>187</ele>
        <time>2018-03-18T11:29:31Z</time>
      </trkpt>
      <trkpt lat="45.94686" lon="4.7399">
        <ele>187</ele>
        <time>2018-03-18T11:29:32Z</time>
      </trkpt>
      <trkpt lat="45.94681" lon="4.73985">
        <ele>187</ele>
        <time>2018-03-18T11:29:33Z</time>
      </trkpt>
      <trkpt lat="45.94676" lon="4.73978">
        <ele>187</ele>
        <time>2018-03-18T11:29:34Z</time>
      </trkpt>
      <trkpt lat="45.94671" lon="4.73972">
        <ele>187</ele>
        <time>2018-03-18T11:29:35Z</time>
      </trkpt>
      <trkpt lat="45.94668" lon="4.73966">
        <ele>187</ele>
        <time>2018-03-18T11:29:36Z</time>
      </trkpt>
      <trkpt lat="45.94664" lon="4.73961">
        <ele>187</ele>
        <time>2018-03-18T11:29:37Z</time>
      </trkpt>
      <trkpt lat="45.94661" lon="4.73954">
        <ele>187</ele>
        <time>2018-03-18T11:29:38Z</time>
      </trkpt>
      <trkpt lat="45.94657" lon="4.73948">
        <ele>187</ele>
        <time>2018-03-18T11:29:39Z</time>
      </trkpt>
      <trkpt lat="45.94653" lon="4.73943">
        <ele>187</ele>
        <time>2018-03-18T11:29:40Z</time>
      </trkpt>
      <trkpt lat="45.94649" lon="4.73939">
        <ele>187</ele>
        <time>2018-03-18T11:29:41Z</time>
      </trkpt>
      <trkpt lat="45.94645" lon="4.73934">
        <ele>187</ele>
        <time>2018-03-18T11:29:42Z</time>
      </trkpt>
      <trkpt lat="45.94642" lon="4.7393">
        <ele>187</ele>
        <time>2018-03-18T11:29:43Z</time>
      </trkpt>
      <trkpt lat="45.94637" lon="4.73922">
        <ele>187</ele>
        <time>2018-03-18T11:29:44Z</time>
      </trkpt>
      <trkpt lat="45.94633" lon="4.73917">
        <ele>187</ele>
        <time>2018-03-18T11:29:45Z</time>
      </trkpt>
      <trkpt lat="45.94629" lon="4.73913">
        <ele>187</ele>
        <time>2018-03-18T11:29:46Z</time>
      </trkpt>
      <trkpt lat="45.94625" lon="4.73908">
        <ele>187</ele>
        <time>2018-03-18T11:29:47Z</time>
      </trkpt>
      <trkpt lat="45.94621" lon="4.73902">
        <ele>187</ele>
        <time>2018-03-18T11:29:48Z</time>
      </trkpt>
      <trkpt lat="45.94616" lon="4.73898">
        <ele>187</ele>
        <time>2018-03-18T11:29:49Z</time>
      </trkpt>
      <trkpt lat="45.94612" lon="4.73892">
        <ele>187</ele>
        <time>2018-03-18T11:29:50Z</time>
      </trkpt>
      <trkpt lat="45.94608" lon="4.73888">
        <ele>187</ele>
        <time>2018-03-18T11:29:51Z</time>
      </trkpt>
      <trkpt lat="45.94605" lon="4.73882">
        <ele>187</ele>
        <time>2018-03-18T11:29:52Z</time>
      </trkpt>
      <trkpt lat="45.946" lon="4.73876">
        <ele>187</ele>
        <time>2018-03-18T11:29:53Z</time>
      </trkpt>
      <trkpt lat="45.94595" lon="4.73871">
        <ele>187</ele>
        <time>2018-03-18T11:29:54Z</time>
      </trkpt>
      <trkpt lat="45.94591" lon="4.73867">
        <ele>187</ele>
        <time>2018-03-18T11:29:55Z</time>
      </trkpt>
      <trkpt lat="45.94586" lon="4.73861">
        <ele>187</ele>
        <time>2018-03-18T11:29:56Z</time>
      </trkpt>
      <trkpt lat="45.94581" lon="4.73856">
        <ele>186</ele>
        <time>2018-03-18T11:29:57Z</time>
      </trkpt>
      <trkpt lat="45.94577" lon="4.73849">
        <ele>186</ele>
        <time>2018-03-18T11:29:58Z</time>
      </trkpt>
      <trkpt lat="45.94571" lon="4.73843">
        <ele>186</ele>
        <time>2018-03-18T11:29:59Z</time>
      </trkpt>
      <trkpt lat="45.94566" lon="4.73837">
        <ele>186</ele>
        <time>2018-03-18T11:30:00Z</time>
      </trkpt>
      <trkpt lat="45.94561" lon="4.73832">
        <ele>186</ele>
        <time>2018-03-18T11:30:01Z</time>
      </trkpt>
      <trkpt lat="45.94556" lon="4.73826">
        <ele>186</ele>
        <time>2018-03-18T11:30:02Z</time>
      </trkpt>
      <trkpt lat="45.94551" lon="4.73822">
        <ele>186</ele>
        <time>2018-03-18T11:30:03Z</time>
      </trkpt>
      <trkpt lat="45.94546" lon="4.73817">
        <ele>186</ele>
        <time>2018-03-18T11:30:04Z</time>
      </trkpt>
      <trkpt lat="45.94541" lon="4.73812">
        <ele>186</ele>
        <time>2018-03-18T11:30:05Z</time>
      </trkpt>
      <trkpt lat="45.94537" lon="4.73807">
        <ele>186</ele>
        <time>2018-03-18T11:30:06Z</time>
      </trkpt>
      <trkpt lat="45.94532" lon="4.73803">
        <ele>186</ele>
        <time>2018-03-18T11:30:07Z</time>
      </trkpt>
      <trkpt lat="45.94529" lon="4.73797">
        <ele>186</ele>
        <time>2018-03-18T11:30:08Z</time>
      </trkpt>
      <trkpt lat="45.94524" lon="4.73793">
        <ele>186</ele>
        <time>2018-03-18T11:30:09Z</time>
      </trkpt>
      <trkpt lat="45.94519" lon="4.73789">
        <ele>186</ele>
        <time>2018-03-18T11:30:10Z</time>
      </trkpt>
      <trkpt lat="45.94514" lon="4.73785">
        <ele>186</ele>
        <time>2018-03-18T11:30:11Z</time>
      </trkpt>
      <trkpt lat="45.94509" lon="4.7378">
        <ele>186</ele>
        <time>2018-03-18T11:30:12Z</time>
      </trkpt>
      <trkpt lat="45.94505" lon="4.73775">
        <ele>186</ele>
        <time>2018-03-18T11:30:13Z</time>
      </trkpt>
      <trkpt lat="45.94501" lon="4.73771">
        <ele>186</ele>
        <time>2018-03-18T11:30:14Z</time>
      </trkpt>
      <trkpt lat="45.94497" lon="4.73766">
        <ele>186</ele>
        <time>2018-03-18T11:30:15Z</time>
      </trkpt>
      <trkpt lat="45.94494" lon="4.73761">
        <ele>186</ele>
        <time>2018-03-18T11:30:16Z</time>
      </trkpt>
      <trkpt lat="45.94491" lon="4.73755">
        <ele>186</ele>
        <time>2018-03-18T11:30:17Z</time>
      </trkpt>
      <trkpt lat="45.94489" lon="4.73748">
        <ele>186</ele>
        <time>2018-03-18T11:30:18Z</time>
      </trkpt>
      <trkpt lat="45.94489" lon="4.73739">
        <ele>186</ele>
        <time>2018-03-18T11:30:19Z</time>
      </trkpt>
      <trkpt lat="45.94489" lon="4.73732">
        <ele>186</ele>
        <time>2018-03-18T11:30:20Z</time>
      </trkpt>
      <trkpt lat="45.94489" lon="4.73724">
        <ele>186</ele>
        <time>2018-03-18T11:30:21Z</time>
      </trkpt>
      <trkpt lat="45.94491" lon="4.73716">
        <ele>186</ele>
        <time>2018-03-18T11:30:22Z</time>
      </trkpt>
      <trkpt lat="45.94492" lon="4.73707">
        <ele>186</ele>
        <time>2018-03-18T11:30:23Z</time>
      </trkpt>
      <trkpt lat="45.94493" lon="4.73695">
        <ele>186</ele>
        <time>2018-03-18T11:30:24Z</time>
      </trkpt>
      <trkpt lat="45.94494" lon="4.73687">
        <ele>186</ele>
        <time>2018-03-18T11:30:25Z</time>
      </trkpt>
      <trkpt lat="45.94495" lon="4.7368">
        <ele>185</ele>
        <time>2018-03-18T11:30:26Z</time>
      </trkpt>
      <trkpt lat="45.94496" lon="4.73672">
        <ele>185</ele>
        <time>2018-03-18T11:30:27Z</time>
      </trkpt>
      <trkpt lat="45.94497" lon="4.73665">
        <ele>185</ele>
        <time>2018-03-18T11:30:28Z</time>
      </trkpt>
      <trkpt lat="45.94497" lon="4.73657">
        <ele>185</ele>
        <time>2018-03-18T11:30:29Z</time>
      </trkpt>
      <trkpt lat="45.94497" lon="4.73648">
        <ele>185</ele>
        <time>2018-03-18T11:30:30Z</time>
      </trkpt>
      <trkpt lat="45.94498" lon="4.7364">
        <ele>186</ele>
        <time>2018-03-18T11:30:31Z</time>
      </trkpt>
      <trkpt lat="45.94498" lon="4.73632">
        <ele>186</ele>
        <time>2018-03-18T11:30:32Z</time>
      </trkpt>
      <trkpt lat="45.94498" lon="4.73624">
        <ele>186</ele>
        <time>2018-03-18T11:30:33Z</time>
      </trkpt>
      <trkpt lat="45.945" lon="4.73616">
        <ele>184</ele>
        <time>2018-03-18T11:30:34Z</time>
      </trkpt>
      <trkpt lat="45.94501" lon="4.73607">
        <ele>184</ele>
        <time>2018-03-18T11:30:35Z</time>
      </trkpt>
      <trkpt lat="45.94502" lon="4.736">
        <ele>184</ele>
        <time>2018-03-18T11:30:36Z</time>
      </trkpt>
      <trkpt lat="45.94502" lon="4.73592">
        <ele>185</ele>
        <time>2018-03-18T11:30:37Z</time>
      </trkpt>
      <trkpt lat="45.94503" lon="4.73585">
        <ele>185</ele>
        <time>2018-03-18T11:30:38Z</time>
      </trkpt>
      <trkpt lat="45.94504" lon="4.73577">
        <ele>184</ele>
        <time>2018-03-18T11:30:39Z</time>
      </trkpt>
      <trkpt lat="45.94505" lon="4.73572">
        <ele>184</ele>
        <time>2018-03-18T11:30:40Z</time>
      </trkpt>
      <trkpt lat="45.94506" lon="4.73564">
        <ele>184</ele>
        <time>2018-03-18T11:30:41Z</time>
      </trkpt>
      <trkpt lat="45.94505" lon="4.73555">
        <ele>183</ele>
        <time>2018-03-18T11:30:42Z</time>
      </trkpt>
      <trkpt lat="45.94506" lon="4.73544">
        <ele>183</ele>
        <time>2018-03-18T11:30:43Z</time>
      </trkpt>
      <trkpt lat="45.94507" lon="4.73534">
        <ele>183</ele>
        <time>2018-03-18T11:30:44Z</time>
      </trkpt>
      <trkpt lat="45.94506" lon="4.73525">
        <ele>183</ele>
        <time>2018-03-18T11:30:45Z</time>
      </trkpt>
      <trkpt lat="45.94506" lon="4.73517">
        <ele>183</ele>
        <time>2018-03-18T11:30:46Z</time>
      </trkpt>
      <trkpt lat="45.94506" lon="4.73508">
        <ele>183</ele>
        <time>2018-03-18T11:30:47Z</time>
      </trkpt>
      <trkpt lat="45.94505" lon="4.735">
        <ele>183</ele>
        <time>2018-03-18T11:30:48Z</time>
      </trkpt>
      <trkpt lat="45.94506" lon="4.7349">
        <ele>182</ele>
        <time>2018-03-18T11:30:49Z</time>
      </trkpt>
      <trkpt lat="45.94506" lon="4.7348">
        <ele>182</ele>
        <time>2018-03-18T11:30:50Z</time>
      </trkpt>
      <trkpt lat="45.94507" lon="4.73471">
        <ele>182</ele>
        <time>2018-03-18T11:30:51Z</time>
      </trkpt>
      <trkpt lat="45.94506" lon="4.73461">
        <ele>181</ele>
        <time>2018-03-18T11:30:52Z</time>
      </trkpt>
      <trkpt lat="45.94506" lon="4.7345">
        <ele>181</ele>
        <time>2018-03-18T11:30:53Z</time>
      </trkpt>
      <trkpt lat="45.94506" lon="4.73441">
        <ele>181</ele>
        <time>2018-03-18T11:30:54Z</time>
      </trkpt>
      <trkpt lat="45.94505" lon="4.73431">
        <ele>180</ele>
        <time>2018-03-18T11:30:55Z</time>
      </trkpt>
      <trkpt lat="45.94505" lon="4.73419">
        <ele>180</ele>
        <time>2018-03-18T11:30:56Z</time>
      </trkpt>
      <trkpt lat="45.94506" lon="4.73408">
        <ele>179</ele>
        <time>2018-03-18T11:30:57Z</time>
      </trkpt>
      <trkpt lat="45.94506" lon="4.73398">
        <ele>179</ele>
        <time>2018-03-18T11:30:58Z</time>
      </trkpt>
      <trkpt lat="45.94505" lon="4.73389">
        <ele>179</ele>
        <time>2018-03-18T11:30:59Z</time>
      </trkpt>
      <trkpt lat="45.94505" lon="4.73378">
        <ele>178</ele>
        <time>2018-03-18T11:31:00Z</time>
      </trkpt>
      <trkpt lat="45.94505" lon="4.73368">
        <ele>178</ele>
        <time>2018-03-18T11:31:01Z</time>
      </trkpt>
      <trkpt lat="45.94504" lon="4.73358">
        <ele>178</ele>
        <time>2018-03-18T11:31:02Z</time>
      </trkpt>
      <trkpt lat="45.94503" lon="4.73349">
        <ele>178</ele>
        <time>2018-03-18T11:31:03Z</time>
      </trkpt>
      <trkpt lat="45.94501" lon="4.73338">
        <ele>177</ele>
        <time>2018-03-18T11:31:04Z</time>
      </trkpt>
      <trkpt lat="45.945" lon="4.73329">
        <ele>177</ele>
        <time>2018-03-18T11:31:05Z</time>
      </trkpt>
      <trkpt lat="45.94499" lon="4.73319">
        <ele>177</ele>
        <time>2018-03-18T11:31:06Z</time>
      </trkpt>
      <trkpt lat="45.94497" lon="4.73308">
        <ele>177</ele>
        <time>2018-03-18T11:31:07Z</time>
      </trkpt>
      <trkpt lat="45.94496" lon="4.73297">
        <ele>177</ele>
        <time>2018-03-18T11:31:08Z</time>
      </trkpt>
      <trkpt lat="45.94494" lon="4.73287">
        <ele>177</ele>
        <time>2018-03-18T11:31:09Z</time>
      </trkpt>
      <trkpt lat="45.94493" lon="4.73277">
        <ele>177</ele>
        <time>2018-03-18T11:31:10Z</time>
      </trkpt>
      <trkpt lat="45.94492" lon="4.73266">
        <ele>176</ele>
        <time>2018-03-18T11:31:11Z</time>
      </trkpt>
      <trkpt lat="45.9449" lon="4.73256">
        <ele>176</ele>
        <time>2018-03-18T11:31:12Z</time>
      </trkpt>
      <trkpt lat="45.94489" lon="4.73246">
        <ele>175</ele>
        <time>2018-03-18T11:31:13Z</time>
      </trkpt>
      <trkpt lat="45.94484" lon="4.73237">
        <ele>175</ele>
        <time>2018-03-18T11:31:14Z</time>
      </trkpt>
      <trkpt lat="45.94482" lon="4.73226">
        <ele>175</ele>
        <time>2018-03-18T11:31:15Z</time>
      </trkpt>
      <trkpt lat="45.94483" lon="4.73216">
        <ele>175</ele>
        <time>2018-03-18T11:31:16Z</time>
      </trkpt>
      <trkpt lat="45.94484" lon="4.73203">
        <ele>175</ele>
        <time>2018-03-18T11:31:17Z</time>
      </trkpt>
      <trkpt lat="45.94482" lon="4.73192">
        <ele>174</ele>
        <time>2018-03-18T11:31:18Z</time>
      </trkpt>
      <trkpt lat="45.94479" lon="4.73182">
        <ele>174</ele>
        <time>2018-03-18T11:31:19Z</time>
      </trkpt>
      <trkpt lat="45.94477" lon="4.73171">
        <ele>174</ele>
        <time>2018-03-18T11:31:20Z</time>
      </trkpt>
      <trkpt lat="45.94476" lon="4.73159">
        <ele>173</ele>
        <time>2018-03-18T11:31:21Z</time>
      </trkpt>
      <trkpt lat="45.94474" lon="4.73148">
        <ele>172</ele>
        <time>2018-03-18T11:31:22Z</time>
      </trkpt>
      <trkpt lat="45.94472" lon="4.73138">
        <ele>172</ele>
        <time>2018-03-18T11:31:23Z</time>
      </trkpt>
      <trkpt lat="45.94471" lon="4.73128">
        <ele>172</ele>
        <time>2018-03-18T11:31:24Z</time>
      </trkpt>
      <trkpt lat="45.9447" lon="4.73117">
        <ele>172</ele>
        <time>2018-03-18T11:31:25Z</time>
      </trkpt>
      <trkpt lat="45.9447" lon="4.73108">
        <ele>172</ele>
        <time>2018-03-18T11:31:26Z</time>
      </trkpt>
      <trkpt lat="45.94467" lon="4.73099">
        <ele>172</ele>
        <time>2018-03-18T11:31:27Z</time>
      </trkpt>
      <trkpt lat="45.94466" lon="4.7309">
        <ele>171</ele>
        <time>2018-03-18T11:31:28Z</time>
      </trkpt>
      <trkpt lat="45.94464" lon="4.73081">
        <ele>170</ele>
        <time>2018-03-18T11:31:29Z</time>
      </trkpt>
      <trkpt lat="45.94461" lon="4.73073">
        <ele>170</ele>
        <time>2018-03-18T11:31:30Z</time>
      </trkpt>
      <trkpt lat="45.9446" lon="4.73066">
        <ele>170</ele>
        <time>2018-03-18T11:31:31Z</time>
      </trkpt>
      <trkpt lat="45.94458" lon="4.73058">
        <ele>170</ele>
        <time>2018-03-18T11:31:32Z</time>
      </trkpt>
      <trkpt lat="45.94455" lon="4.73051">
        <ele>170</ele>
        <time>2018-03-18T11:31:33Z</time>
      </trkpt>
      <trkpt lat="45.94453" lon="4.73044">
        <ele>169</ele>
        <time>2018-03-18T11:31:34Z</time>
      </trkpt>
      <trkpt lat="45.94453" lon="4.73035">
        <ele>169</ele>
        <time>2018-03-18T11:31:35Z</time>
      </trkpt>
      <trkpt lat="45.94452" lon="4.73027">
        <ele>169</ele>
        <time>2018-03-18T11:31:36Z</time>
      </trkpt>
      <trkpt lat="45.94453" lon="4.7302">
        <ele>169</ele>
        <time>2018-03-18T11:31:37Z</time>
      </trkpt>
      <trkpt lat="45.94453" lon="4.73013">
        <ele>169</ele>
        <time>2018-03-18T11:31:38Z</time>
      </trkpt>
      <trkpt lat="45.94452" lon="4.73006">
        <ele>169</ele>
        <time>2018-03-18T11:31:39Z</time>
      </trkpt>
      <trkpt lat="45.94452" lon="4.73">
        <ele>167</ele>
        <time>2018-03-18T11:31:40Z</time>
      </trkpt>
      <trkpt lat="45.94451" lon="4.72991">
        <ele>167</ele>
        <time>2018-03-18T11:31:41Z</time>
      </trkpt>
      <trkpt lat="45.94451" lon="4.72985">
        <ele>167</ele>
        <time>2018-03-18T11:31:42Z</time>
      </trkpt>
      <trkpt lat="45.94449" lon="4.72977">
        <ele>167</ele>
        <time>2018-03-18T11:31:43Z</time>
      </trkpt>
      <trkpt lat="45.94448" lon="4.7297">
        <ele>167</ele>
        <time>2018-03-18T11:31:44Z</time>
      </trkpt>
      <trkpt lat="45.94447" lon="4.72964">
        <ele>167</ele>
        <time>2018-03-18T11:31:45Z</time>
      </trkpt>
      <trkpt lat="45.94446" lon="4.72951">
        <ele>167</ele>
        <time>2018-03-18T11:31:47Z</time>
      </trkpt>
      <trkpt lat="45.94445" lon="4.72944">
        <ele>167</ele>
        <time>2018-03-18T11:31:48Z</time>
      </trkpt>
      <trkpt lat="45.94443" lon="4.72937">
        <ele>167</ele>
        <time>2018-03-18T11:31:49Z</time>
      </trkpt>
      <trkpt lat="45.94443" lon="4.7293">
        <ele>167</ele>
        <time>2018-03-18T11:31:50Z</time>
      </trkpt>
      <trkpt lat="45.94442" lon="4.72924">
        <ele>167</ele>
        <time>2018-03-18T11:31:51Z</time>
      </trkpt>
      <trkpt lat="45.94441" lon="4.72918">
        <ele>167</ele>
        <time>2018-03-18T11:31:52Z</time>
      </trkpt>
      <trkpt lat="45.94439" lon="4.72905">
        <ele>166</ele>
        <time>2018-03-18T11:31:54Z</time>
      </trkpt>
      <trkpt lat="45.94438" lon="4.72898">
        <ele>166</ele>
        <time>2018-03-18T11:31:55Z</time>
      </trkpt>
      <trkpt lat="45.94437" lon="4.7289">
        <ele>166</ele>
        <time>2018-03-18T11:31:56Z</time>
      </trkpt>
      <trkpt lat="45.94436" lon="4.72882">
        <ele>166</ele>
        <time>2018-03-18T11:31:57Z</time>
      </trkpt>
      <trkpt lat="45.94435" lon="4.72875">
        <ele>166</ele>
        <time>2018-03-18T11:31:58Z</time>
      </trkpt>
      <trkpt lat="45.94434" lon="4.72866">
        <ele>166</ele>
        <time>2018-03-18T11:31:59Z</time>
      </trkpt>
      <trkpt lat="45.94432" lon="4.72858">
        <ele>166</ele>
        <time>2018-03-18T11:32:00Z</time>
      </trkpt>
      <trkpt lat="45.9443" lon="4.72849">
        <ele>166</ele>
        <time>2018-03-18T11:32:01Z</time>
      </trkpt>
      <trkpt lat="45.94428" lon="4.7284">
        <ele>166</ele>
        <time>2018-03-18T11:32:02Z</time>
      </trkpt>
      <trkpt lat="45.94427" lon="4.72829">
        <ele>166</ele>
        <time>2018-03-18T11:32:03Z</time>
      </trkpt>
      <trkpt lat="45.94425" lon="4.72819">
        <ele>167</ele>
        <time>2018-03-18T11:32:04Z</time>
      </trkpt>
      <trkpt lat="45.94423" lon="4.72809">
        <ele>167</ele>
        <time>2018-03-18T11:32:05Z</time>
      </trkpt>
      <trkpt lat="45.94421" lon="4.72799">
        <ele>167</ele>
        <time>2018-03-18T11:32:06Z</time>
      </trkpt>
      <trkpt lat="45.9442" lon="4.72789">
        <ele>168</ele>
        <time>2018-03-18T11:32:07Z</time>
      </trkpt>
      <trkpt lat="45.94417" lon="4.72778">
        <ele>168</ele>
        <time>2018-03-18T11:32:08Z</time>
      </trkpt>
      <trkpt lat="45.94417" lon="4.72768">
        <ele>169</ele>
        <time>2018-03-18T11:32:09Z</time>
      </trkpt>
      <trkpt lat="45.94416" lon="4.72757">
        <ele>170</ele>
        <time>2018-03-18T11:32:10Z</time>
      </trkpt>
      <trkpt lat="45.94416" lon="4.72746">
        <ele>171</ele>
        <time>2018-03-18T11:32:11Z</time>
      </trkpt>
      <trkpt lat="45.94414" lon="4.72735">
        <ele>171</ele>
        <time>2018-03-18T11:32:12Z</time>
      </trkpt>
      <trkpt lat="45.94414" lon="4.72724">
        <ele>172</ele>
        <time>2018-03-18T11:32:13Z</time>
      </trkpt>
      <trkpt lat="45.94414" lon="4.72713">
        <ele>172</ele>
        <time>2018-03-18T11:32:14Z</time>
      </trkpt>
      <trkpt lat="45.94413" lon="4.72702">
        <ele>172</ele>
        <time>2018-03-18T11:32:15Z</time>
      </trkpt>
      <trkpt lat="45.94411" lon="4.72692">
        <ele>173</ele>
        <time>2018-03-18T11:32:16Z</time>
      </trkpt>
      <trkpt lat="45.9441" lon="4.72681">
        <ele>173</ele>
        <time>2018-03-18T11:32:17Z</time>
      </trkpt>
      <trkpt lat="45.94409" lon="4.72671">
        <ele>173</ele>
        <time>2018-03-18T11:32:18Z</time>
      </trkpt>
      <trkpt lat="45.94407" lon="4.72661">
        <ele>174</ele>
        <time>2018-03-18T11:32:19Z</time>
      </trkpt>
      <trkpt lat="45.94406" lon="4.72651">
        <ele>174</ele>
        <time>2018-03-18T11:32:20Z</time>
      </trkpt>
      <trkpt lat="45.94405" lon="4.72641">
        <ele>174</ele>
        <time>2018-03-18T11:32:21Z</time>
      </trkpt>
      <trkpt lat="45.94405" lon="4.72633">
        <ele>174</ele>
        <time>2018-03-18T11:32:22Z</time>
      </trkpt>
      <trkpt lat="45.94403" lon="4.72623">
        <ele>173</ele>
        <time>2018-03-18T11:32:23Z</time>
      </trkpt>
      <trkpt lat="45.94402" lon="4.72614">
        <ele>173</ele>
        <time>2018-03-18T11:32:24Z</time>
      </trkpt>
      <trkpt lat="45.94402" lon="4.72606">
        <ele>173</ele>
        <time>2018-03-18T11:32:25Z</time>
      </trkpt>
      <trkpt lat="45.94401" lon="4.72597">
        <ele>173</ele>
        <time>2018-03-18T11:32:26Z</time>
      </trkpt>
      <trkpt lat="45.944" lon="4.7259">
        <ele>173</ele>
        <time>2018-03-18T11:32:27Z</time>
      </trkpt>
      <trkpt lat="45.94399" lon="4.72582">
        <ele>173</ele>
        <time>2018-03-18T11:32:28Z</time>
      </trkpt>
      <trkpt lat="45.94396" lon="4.72572">
        <ele>173</ele>
        <time>2018-03-18T11:32:29Z</time>
      </trkpt>
      <trkpt lat="45.94394" lon="4.72564">
        <ele>173</ele>
        <time>2018-03-18T11:32:30Z</time>
      </trkpt>
      <trkpt lat="45.94391" lon="4.72554">
        <ele>173</ele>
        <time>2018-03-18T11:32:31Z</time>
      </trkpt>
      <trkpt lat="45.94389" lon="4.72545">
        <ele>173</ele>
        <time>2018-03-18T11:32:32Z</time>
      </trkpt>
      <trkpt lat="45.9439" lon="4.72538">
        <ele>174</ele>
        <time>2018-03-18T11:32:33Z</time>
      </trkpt>
      <trkpt lat="45.94389" lon="4.72531">
        <ele>174</ele>
        <time>2018-03-18T11:32:34Z</time>
      </trkpt>
      <trkpt lat="45.94389" lon="4.72523">
        <ele>174</ele>
        <time>2018-03-18T11:32:35Z</time>
      </trkpt>
      <trkpt lat="45.94387" lon="4.72515">
        <ele>174</ele>
        <time>2018-03-18T11:32:36Z</time>
      </trkpt>
      <trkpt lat="45.94385" lon="4.72508">
        <ele>174</ele>
        <time>2018-03-18T11:32:37Z</time>
      </trkpt>
      <trkpt lat="45.94382" lon="4.72501">
        <ele>174</ele>
        <time>2018-03-18T11:32:38Z</time>
      </trkpt>
      <trkpt lat="45.9438" lon="4.72494">
        <ele>173</ele>
        <time>2018-03-18T11:32:39Z</time>
      </trkpt>
      <trkpt lat="45.94377" lon="4.72487">
        <ele>173</ele>
        <time>2018-03-18T11:32:40Z</time>
      </trkpt>
      <trkpt lat="45.94375" lon="4.72479">
        <ele>173</ele>
        <time>2018-03-18T11:32:41Z</time>
      </trkpt>
      <trkpt lat="45.94372" lon="4.72472">
        <ele>173</ele>
        <time>2018-03-18T11:32:42Z</time>
      </trkpt>
      <trkpt lat="45.94368" lon="4.72465">
        <ele>173</ele>
        <time>2018-03-18T11:32:43Z</time>
      </trkpt>
      <trkpt lat="45.94366" lon="4.72458">
        <ele>173</ele>
        <time>2018-03-18T11:32:44Z</time>
      </trkpt>
      <trkpt lat="45.94364" lon="4.72451">
        <ele>173</ele>
        <time>2018-03-18T11:32:45Z</time>
      </trkpt>
      <trkpt lat="45.94359" lon="4.72444">
        <ele>173</ele>
        <time>2018-03-18T11:32:46Z</time>
      </trkpt>
      <trkpt lat="45.94357" lon="4.72435">
        <ele>173</ele>
        <time>2018-03-18T11:32:47Z</time>
      </trkpt>
      <trkpt lat="45.94354" lon="4.72429">
        <ele>173</ele>
        <time>2018-03-18T11:32:48Z</time>
      </trkpt>
      <trkpt lat="45.94352" lon="4.72423">
        <ele>173</ele>
        <time>2018-03-18T11:32:49Z</time>
      </trkpt>
      <trkpt lat="45.94349" lon="4.72418">
        <ele>173</ele>
        <time>2018-03-18T11:32:50Z</time>
      </trkpt>
      <trkpt lat="45.94346" lon="4.72412">
        <ele>173</ele>
        <time>2018-03-18T11:32:51Z</time>
      </trkpt>
      <trkpt lat="45.94344" lon="4.72406">
        <ele>173</ele>
        <time>2018-03-18T11:32:52Z</time>
      </trkpt>
      <trkpt lat="45.94342" lon="4.724">
        <ele>172</ele>
        <time>2018-03-18T11:32:53Z</time>
      </trkpt>
      <trkpt lat="45.9434" lon="4.72394">
        <ele>172</ele>
        <time>2018-03-18T11:32:54Z</time>
      </trkpt>
      <trkpt lat="45.94337" lon="4.72388">
        <ele>172</ele>
        <time>2018-03-18T11:32:55Z</time>
      </trkpt>
      <trkpt lat="45.94334" lon="4.72382">
        <ele>172</ele>
        <time>2018-03-18T11:32:56Z</time>
      </trkpt>
      <trkpt lat="45.9433" lon="4.72375">
        <ele>172</ele>
        <time>2018-03-18T11:32:57Z</time>
      </trkpt>
      <trkpt lat="45.94327" lon="4.72368">
        <ele>172</ele>
        <time>2018-03-18T11:32:58Z</time>
      </trkpt>
      <trkpt lat="45.94324" lon="4.72359">
        <ele>172</ele>
        <time>2018-03-18T11:32:59Z</time>
      </trkpt>
      <trkpt lat="45.94321" lon="4.72352">
        <ele>172</ele>
        <time>2018-03-18T11:33:00Z</time>
      </trkpt>
      <trkpt lat="45.94318" lon="4.72344">
        <ele>172</ele>
        <time>2018-03-18T11:33:01Z</time>
      </trkpt>
      <trkpt lat="45.94315" lon="4.72337">
        <ele>172</ele>
        <time>2018-03-18T11:33:02Z</time>
      </trkpt>
      <trkpt lat="45.94311" lon="4.72331">
        <ele>172</ele>
        <time>2018-03-18T11:33:03Z</time>
      </trkpt>
      <trkpt lat="45.94307" lon="4.72324">
        <ele>171</ele>
        <time>2018-03-18T11:33:04Z</time>
      </trkpt>
      <trkpt lat="45.94305" lon="4.72317">
        <ele>171</ele>
        <time>2018-03-18T11:33:05Z</time>
      </trkpt>
      <trkpt lat="45.94302" lon="4.72311">
        <ele>171</ele>
        <time>2018-03-18T11:33:06Z</time>
      </trkpt>
      <trkpt lat="45.94298" lon="4.72305">
        <ele>171</ele>
        <time>2018-03-18T11:33:07Z</time>
      </trkpt>
      <trkpt lat="45.94295" lon="4.72298">
        <ele>171</ele>
        <time>2018-03-18T11:33:08Z</time>
      </trkpt>
      <trkpt lat="45.94292" lon="4.72293">
        <ele>171</ele>
        <time>2018-03-18T11:33:09Z</time>
      </trkpt>
      <trkpt lat="45.94288" lon="4.72287">
        <ele>171</ele>
        <time>2018-03-18T11:33:10Z</time>
      </trkpt>
      <trkpt lat="45.94285" lon="4.72281">
        <ele>171</ele>
        <time>2018-03-18T11:33:11Z</time>
      </trkpt>
      <trkpt lat="45.9428" lon="4.72276">
        <ele>171</ele>
        <time>2018-03-18T11:33:12Z</time>
      </trkpt>
      <trkpt lat="45.94277" lon="4.72271">
        <ele>171</ele>
        <time>2018-03-18T11:33:13Z</time>
      </trkpt>
      <trkpt lat="45.94273" lon="4.72269">
        <ele>171</ele>
        <time>2018-03-18T11:33:14Z</time>
      </trkpt>
      <trkpt lat="45.94266" lon="4.72265">
        <ele>171</ele>
        <time>2018-03-18T11:33:15Z</time>
      </trkpt>
      <trkpt lat="45.94261" lon="4.72268">
        <ele>171</ele>
        <time>2018-03-18T11:33:16Z</time>
      </trkpt>
      <trkpt lat="45.94255" lon="4.7227">
        <ele>171</ele>
        <time>2018-03-18T11:33:17Z</time>
      </trkpt>
      <trkpt lat="45.94248" lon="4.72273">
        <ele>171</ele>
        <time>2018-03-18T11:33:18Z</time>
      </trkpt>
      <trkpt lat="45.94243" lon="4.72276">
        <ele>171</ele>
        <time>2018-03-18T11:33:19Z</time>
      </trkpt>
      <trkpt lat="45.94237" lon="4.72279">
        <ele>171</ele>
        <time>2018-03-18T11:33:20Z</time>
      </trkpt>
      <trkpt lat="45.94231" lon="4.72279">
        <ele>171</ele>
        <time>2018-03-18T11:33:21Z</time>
      </trkpt>
      <trkpt lat="45.94226" lon="4.7228">
        <ele>171</ele>
        <time>2018-03-18T11:33:22Z</time>
      </trkpt>
      <trkpt lat="45.9422" lon="4.72281">
        <ele>171</ele>
        <time>2018-03-18T11:33:23Z</time>
      </trkpt>
      <trkpt lat="45.94215" lon="4.72282">
        <ele>171</ele>
        <time>2018-03-18T11:33:24Z</time>
      </trkpt>
      <trkpt lat="45.94209" lon="4.72282">
        <ele>171</ele>
        <time>2018-03-18T11:33:25Z</time>
      </trkpt>
      <trkpt lat="45.94204" lon="4.72284">
        <ele>171</ele>
        <time>2018-03-18T11:33:26Z</time>
      </trkpt>
      <trkpt lat="45.94199" lon="4.72284">
        <ele>171</ele>
        <time>2018-03-18T11:33:27Z</time>
      </trkpt>
      <trkpt lat="45.94195" lon="4.72285">
        <ele>171</ele>
        <time>2018-03-18T11:33:28Z</time>
      </trkpt>
      <trkpt lat="45.9419" lon="4.72286">
        <ele>171</ele>
        <time>2018-03-18T11:33:29Z</time>
      </trkpt>
      <trkpt lat="45.94184" lon="4.72287">
        <ele>171</ele>
        <time>2018-03-18T11:33:30Z</time>
      </trkpt>
      <trkpt lat="45.9418" lon="4.72287">
        <ele>171</ele>
        <time>2018-03-18T11:33:31Z</time>
      </trkpt>
      <trkpt lat="45.94175" lon="4.72286">
        <ele>171</ele>
        <time>2018-03-18T11:33:32Z</time>
      </trkpt>
      <trkpt lat="45.9417" lon="4.72286">
        <ele>171</ele>
        <time>2018-03-18T11:33:33Z</time>
      </trkpt>
      <trkpt lat="45.94165" lon="4.72285">
        <ele>171</ele>
        <time>2018-03-18T11:33:34Z</time>
      </trkpt>
      <trkpt lat="45.9416" lon="4.72284">
        <ele>171</ele>
        <time>2018-03-18T11:33:35Z</time>
      </trkpt>
      <trkpt lat="45.94151" lon="4.7228">
        <ele>171</ele>
        <time>2018-03-18T11:33:37Z</time>
      </trkpt>
      <trkpt lat="45.94147" lon="4.72278">
        <ele>171</ele>
        <time>2018-03-18T11:33:38Z</time>
      </trkpt>
      <trkpt lat="45.94141" lon="4.72276">
        <ele>171</ele>
        <time>2018-03-18T11:33:39Z</time>
      </trkpt>
      <trkpt lat="45.94136" lon="4.72273">
        <ele>171</ele>
        <time>2018-03-18T11:33:40Z</time>
      </trkpt>
      <trkpt lat="45.94131" lon="4.7227">
        <ele>171</ele>
        <time>2018-03-18T11:33:41Z</time>
      </trkpt>
      <trkpt lat="45.94126" lon="4.72268">
        <ele>171</ele>
        <time>2018-03-18T11:33:42Z</time>
      </trkpt>
      <trkpt lat="45.94117" lon="4.72264">
        <ele>171</ele>
        <time>2018-03-18T11:33:44Z</time>
      </trkpt>
      <trkpt lat="45.94113" lon="4.72263">
        <ele>171</ele>
        <time>2018-03-18T11:33:45Z</time>
      </trkpt>
      <trkpt lat="45.94107" lon="4.72262">
        <ele>171</ele>
        <time>2018-03-18T11:33:46Z</time>
      </trkpt>
      <trkpt lat="45.94102" lon="4.72261">
        <ele>171</ele>
        <time>2018-03-18T11:33:47Z</time>
      </trkpt>
      <trkpt lat="45.94095" lon="4.72263">
        <ele>171</ele>
        <time>2018-03-18T11:33:48Z</time>
      </trkpt>
      <trkpt lat="45.94089" lon="4.72262">
        <ele>171</ele>
        <time>2018-03-18T11:33:49Z</time>
      </trkpt>
      <trkpt lat="45.94083" lon="4.72267">
        <ele>171</ele>
        <time>2018-03-18T11:33:50Z</time>
      </trkpt>
      <trkpt lat="45.94078" lon="4.7227">
        <ele>171</ele>
        <time>2018-03-18T11:33:51Z</time>
      </trkpt>
      <trkpt lat="45.94071" lon="4.72274">
        <ele>171</ele>
        <time>2018-03-18T11:33:52Z</time>
      </trkpt>
      <trkpt lat="45.94067" lon="4.72279">
        <ele>171</ele>
        <time>2018-03-18T11:33:53Z</time>
      </trkpt>
      <trkpt lat="45.94062" lon="4.72284">
        <ele>171</ele>
        <time>2018-03-18T11:33:54Z</time>
      </trkpt>
      <trkpt lat="45.94057" lon="4.7229">
        <ele>171</ele>
        <time>2018-03-18T11:33:55Z</time>
      </trkpt>
      <trkpt lat="45.94052" lon="4.72297">
        <ele>171</ele>
        <time>2018-03-18T11:33:56Z</time>
      </trkpt>
      <trkpt lat="45.94046" lon="4.72304">
        <ele>171</ele>
        <time>2018-03-18T11:33:57Z</time>
      </trkpt>
      <trkpt lat="45.94041" lon="4.72311">
        <ele>171</ele>
        <time>2018-03-18T11:33:58Z</time>
      </trkpt>
      <trkpt lat="45.94038" lon="4.72317">
        <ele>171</ele>
        <time>2018-03-18T11:33:59Z</time>
      </trkpt>
      <trkpt lat="45.94034" lon="4.72325">
        <ele>171</ele>
        <time>2018-03-18T11:34:00Z</time>
      </trkpt>
      <trkpt lat="45.94029" lon="4.72331">
        <ele>171</ele>
        <time>2018-03-18T11:34:01Z</time>
      </trkpt>
      <trkpt lat="45.94024" lon="4.72336">
        <ele>171</ele>
        <time>2018-03-18T11:34:02Z</time>
      </trkpt>
      <trkpt lat="45.94021" lon="4.72341">
        <ele>171</ele>
        <time>2018-03-18T11:34:03Z</time>
      </trkpt>
      <trkpt lat="45.94015" lon="4.72347">
        <ele>171</ele>
        <time>2018-03-18T11:34:04Z</time>
      </trkpt>
      <trkpt lat="45.9401" lon="4.72351">
        <ele>171</ele>
        <time>2018-03-18T11:34:05Z</time>
      </trkpt>
      <trkpt lat="45.94005" lon="4.72356">
        <ele>171</ele>
        <time>2018-03-18T11:34:06Z</time>
      </trkpt>
      <trkpt lat="45.94001" lon="4.72362">
        <ele>171</ele>
        <time>2018-03-18T11:34:07Z</time>
      </trkpt>
      <trkpt lat="45.93996" lon="4.72367">
        <ele>171</ele>
        <time>2018-03-18T11:34:08Z</time>
      </trkpt>
      <trkpt lat="45.93992" lon="4.72373">
        <ele>171</ele>
        <time>2018-03-18T11:34:09Z</time>
      </trkpt>
      <trkpt lat="45.93988" lon="4.72379">
        <ele>171</ele>
        <time>2018-03-18T11:34:10Z</time>
      </trkpt>
      <trkpt lat="45.93983" lon="4.72385">
        <ele>171</ele>
        <time>2018-03-18T11:34:11Z</time>
      </trkpt>
      <trkpt lat="45.93979" lon="4.72391">
        <ele>171</ele>
        <time>2018-03-18T11:34:12Z</time>
      </trkpt>
      <trkpt lat="45.93973" lon="4.72397">
        <ele>171</ele>
        <time>2018-03-18T11:34:13Z</time>
      </trkpt>
      <trkpt lat="45.93969" lon="4.72403">
        <ele>171</ele>
        <time>2018-03-18T11:34:14Z</time>
      </trkpt>
      <trkpt lat="45.93964" lon="4.72408">
        <ele>171</ele>
        <time>2018-03-18T11:34:15Z</time>
      </trkpt>
      <trkpt lat="45.9396" lon="4.72413">
        <ele>171</ele>
        <time>2018-03-18T11:34:16Z</time>
      </trkpt>
      <trkpt lat="45.93956" lon="4.72419">
        <ele>171</ele>
        <time>2018-03-18T11:34:17Z</time>
      </trkpt>
      <trkpt lat="45.93952" lon="4.72424">
        <ele>171</ele>
        <time>2018-03-18T11:34:18Z</time>
      </trkpt>
      <trkpt lat="45.93948" lon="4.72429">
        <ele>171</ele>
        <time>2018-03-18T11:34:19Z</time>
      </trkpt>
      <trkpt lat="45.93944" lon="4.72434">
        <ele>171</ele>
        <time>2018-03-18T11:34:20Z</time>
      </trkpt>
      <trkpt lat="45.9394" lon="4.7244">
        <ele>171</ele>
        <time>2018-03-18T11:34:21Z</time>
      </trkpt>
      <trkpt lat="45.93937" lon="4.72444">
        <ele>171</ele>
        <time>2018-03-18T11:34:22Z</time>
      </trkpt>
      <trkpt lat="45.93933" lon="4.7245">
        <ele>171</ele>
        <time>2018-03-18T11:34:23Z</time>
      </trkpt>
      <trkpt lat="45.93928" lon="4.72454">
        <ele>171</ele>
        <time>2018-03-18T11:34:24Z</time>
      </trkpt>
      <trkpt lat="45.93924" lon="4.7246">
        <ele>171</ele>
        <time>2018-03-18T11:34:25Z</time>
      </trkpt>
      <trkpt lat="45.9392" lon="4.72466">
        <ele>171</ele>
        <time>2018-03-18T11:34:26Z</time>
      </trkpt>
      <trkpt lat="45.93915" lon="4.72472">
        <ele>172</ele>
        <time>2018-03-18T11:34:27Z</time>
      </trkpt>
      <trkpt lat="45.93911" lon="4.72478">
        <ele>172</ele>
        <time>2018-03-18T11:34:28Z</time>
      </trkpt>
      <trkpt lat="45.93906" lon="4.72483">
        <ele>172</ele>
        <time>2018-03-18T11:34:29Z</time>
      </trkpt>
      <trkpt lat="45.93902" lon="4.72488">
        <ele>172</ele>
        <time>2018-03-18T11:34:30Z</time>
      </trkpt>
      <trkpt lat="45.93898" lon="4.72492">
        <ele>172</ele>
        <time>2018-03-18T11:34:31Z</time>
      </trkpt>
      <trkpt lat="45.93893" lon="4.72499">
        <ele>172</ele>
        <time>2018-03-18T11:34:32Z</time>
      </trkpt>
      <trkpt lat="45.9389" lon="4.72503">
        <ele>173</ele>
        <time>2018-03-18T11:34:33Z</time>
      </trkpt>
      <trkpt lat="45.93886" lon="4.72508">
        <ele>173</ele>
        <time>2018-03-18T11:34:34Z</time>
      </trkpt>
      <trkpt lat="45.9388" lon="4.72511">
        <ele>173</ele>
        <time>2018-03-18T11:34:35Z</time>
      </trkpt>
      <trkpt lat="45.93877" lon="4.72516">
        <ele>173</ele>
        <time>2018-03-18T11:34:36Z</time>
      </trkpt>
      <trkpt lat="45.93871" lon="4.72515">
        <ele>173</ele>
        <time>2018-03-18T11:34:37Z</time>
      </trkpt>
      <trkpt lat="45.93867" lon="4.72512">
        <ele>173</ele>
        <time>2018-03-18T11:34:38Z</time>
      </trkpt>
      <trkpt lat="45.93862" lon="4.7251">
        <ele>173</ele>
        <time>2018-03-18T11:34:39Z</time>
      </trkpt>
      <trkpt lat="45.93857" lon="4.72506">
        <ele>173</ele>
        <time>2018-03-18T11:34:41Z</time>
      </trkpt>
      <trkpt lat="45.93852" lon="4.72501">
        <ele>173</ele>
        <time>2018-03-18T11:34:42Z</time>
      </trkpt>
      <trkpt lat="45.93847" lon="4.72498">
        <ele>173</ele>
        <time>2018-03-18T11:34:44Z</time>
      </trkpt>
      <trkpt lat="45.93841" lon="4.72496">
        <ele>173</ele>
        <time>2018-03-18T11:34:45Z</time>
      </trkpt>
      <trkpt lat="45.93832" lon="4.72491">
        <ele>173</ele>
        <time>2018-03-18T11:34:47Z</time>
      </trkpt>
      <trkpt lat="45.93818" lon="4.72479">
        <ele>172</ele>
        <time>2018-03-18T11:34:48Z</time>
      </trkpt>
      <trkpt lat="45.93813" lon="4.72477">
        <ele>172</ele>
        <time>2018-03-18T11:34:49Z</time>
      </trkpt>
      <trkpt lat="45.9381" lon="4.72471">
        <ele>172</ele>
        <time>2018-03-18T11:34:50Z</time>
      </trkpt>
      <trkpt lat="45.93804" lon="4.72467">
        <ele>172</ele>
        <time>2018-03-18T11:34:52Z</time>
      </trkpt>
      <trkpt lat="45.93801" lon="4.72459">
        <ele>172</ele>
        <time>2018-03-18T11:34:53Z</time>
      </trkpt>
      <trkpt lat="45.93796" lon="4.72452">
        <ele>172</ele>
        <time>2018-03-18T11:34:56Z</time>
      </trkpt>
      <trkpt lat="45.93792" lon="4.72448">
        <ele>172</ele>
        <time>2018-03-18T11:34:57Z</time>
      </trkpt>
      <trkpt lat="45.93787" lon="4.72439">
        <ele>172</ele>
        <time>2018-03-18T11:35:01Z</time>
      </trkpt>
      <trkpt lat="45.93785" lon="4.72437">
        <ele>172</ele>
        <time>2018-03-18T11:35:02Z</time>
      </trkpt>
      <trkpt lat="45.93778" lon="4.72431">
        <ele>172</ele>
        <time>2018-03-18T11:35:06Z</time>
      </trkpt>
      <trkpt lat="45.93776" lon="4.7243">
        <ele>171</ele>
        <time>2018-03-18T11:35:07Z</time>
      </trkpt>
      <trkpt lat="45.93769" lon="4.72424">
        <ele>171</ele>
        <time>2018-03-18T11:35:10Z</time>
      </trkpt>
      <trkpt lat="45.93766" lon="4.72421">
        <ele>171</ele>
        <time>2018-03-18T11:35:11Z</time>
      </trkpt>
      <trkpt lat="45.93761" lon="4.72416">
        <ele>171</ele>
        <time>2018-03-18T11:35:13Z</time>
      </trkpt>
      <trkpt lat="45.93753" lon="4.72407">
        <ele>171</ele>
        <time>2018-03-18T11:35:14Z</time>
      </trkpt>
      <trkpt lat="45.93746" lon="4.72402">
        <ele>171</ele>
        <time>2018-03-18T11:35:16Z</time>
      </trkpt>
      <trkpt lat="45.93744" lon="4.724">
        <ele>171</ele>
        <time>2018-03-18T11:35:17Z</time>
      </trkpt>
      <trkpt lat="45.93738" lon="4.72391">
        <ele>171</ele>
        <time>2018-03-18T11:35:20Z</time>
      </trkpt>
      <trkpt lat="45.93735" lon="4.72388">
        <ele>171</ele>
        <time>2018-03-18T11:35:21Z</time>
      </trkpt>
      <trkpt lat="45.93729" lon="4.72382">
        <ele>171</ele>
        <time>2018-03-18T11:35:24Z</time>
      </trkpt>
      <trkpt lat="45.93727" lon="4.7238">
        <ele>171</ele>
        <time>2018-03-18T11:35:25Z</time>
      </trkpt>
      <trkpt lat="45.93721" lon="4.72374">
        <ele>172</ele>
        <time>2018-03-18T11:35:28Z</time>
      </trkpt>
      <trkpt lat="45.93719" lon="4.72373">
        <ele>172</ele>
        <time>2018-03-18T11:35:29Z</time>
      </trkpt>
      <trkpt lat="45.9371" lon="4.72368">
        <ele>172</ele>
        <time>2018-03-18T11:35:58Z</time>
      </trkpt>
      <trkpt lat="45.9371" lon="4.72368">
        <ele>172</ele>
        <time>2018-03-18T11:35:59Z</time>
      </trkpt>
      <trkpt lat="45.93702" lon="4.72364">
        <ele>171</ele>
        <time>2018-03-18T11:36:59Z</time>
      </trkpt>
      <trkpt lat="45.93701" lon="4.72362">
        <ele>171</ele>
        <time>2018-03-18T11:37:00Z</time>
      </trkpt>
      <trkpt lat="45.93697" lon="4.72354">
        <ele>171</ele>
        <time>2018-03-18T11:37:04Z</time>
      </trkpt>
      <trkpt lat="45.93694" lon="4.72352">
        <ele>171</ele>
        <time>2018-03-18T11:37:05Z</time>
      </trkpt>
      <trkpt lat="45.93689" lon="4.72347">
        <ele>171</ele>
        <time>2018-03-18T11:37:07Z</time>
      </trkpt>
      <trkpt lat="45.93687" lon="4.72344">
        <ele>171</ele>
        <time>2018-03-18T11:37:08Z</time>
      </trkpt>
      <trkpt lat="45.93682" lon="4.72337">
        <ele>171</ele>
        <time>2018-03-18T11:37:10Z</time>
      </trkpt>
      <trkpt lat="45.93674" lon="4.72328">
        <ele>171</ele>
        <time>2018-03-18T11:37:11Z</time>
      </trkpt>
      <trkpt lat="45.93668" lon="4.72322">
        <ele>171</ele>
        <time>2018-03-18T11:37:13Z</time>
      </trkpt>
      <trkpt lat="45.93665" lon="4.72319">
        <ele>172</ele>
        <time>2018-03-18T11:37:14Z</time>
      </trkpt>
      <trkpt lat="45.93658" lon="4.72313">
        <ele>172</ele>
        <time>2018-03-18T11:37:16Z</time>
      </trkpt>
      <trkpt lat="45.93655" lon="4.7231">
        <ele>172</ele>
        <time>2018-03-18T11:37:17Z</time>
      </trkpt>
      <trkpt lat="45.93649" lon="4.72304">
        <ele>172</ele>
        <time>2018-03-18T11:37:20Z</time>
      </trkpt>
      <trkpt lat="45.93647" lon="4.72303">
        <ele>172</ele>
        <time>2018-03-18T11:37:21Z</time>
      </trkpt>
      <trkpt lat="45.93639" lon="4.72296">
        <ele>172</ele>
        <time>2018-03-18T11:37:24Z</time>
      </trkpt>
      <trkpt lat="45.9363" lon="4.72289">
        <ele>172</ele>
        <time>2018-03-18T11:37:25Z</time>
      </trkpt>
      <trkpt lat="45.93623" lon="4.72281">
        <ele>172</ele>
        <time>2018-03-18T11:37:27Z</time>
      </trkpt>
      <trkpt lat="45.9362" lon="4.72278">
        <ele>172</ele>
        <time>2018-03-18T11:37:28Z</time>
      </trkpt>
      <trkpt lat="45.93614" lon="4.72271">
        <ele>172</ele>
        <time>2018-03-18T11:37:30Z</time>
      </trkpt>
      <trkpt lat="45.93611" lon="4.72267">
        <ele>172</ele>
        <time>2018-03-18T11:37:31Z</time>
      </trkpt>
      <trkpt lat="45.93605" lon="4.72258">
        <ele>173</ele>
        <time>2018-03-18T11:37:33Z</time>
      </trkpt>
      <trkpt lat="45.93601" lon="4.72252">
        <ele>173</ele>
        <time>2018-03-18T11:37:34Z</time>
      </trkpt>
      <trkpt lat="45.93597" lon="4.72248">
        <ele>173</ele>
        <time>2018-03-18T11:37:36Z</time>
      </trkpt>
      <trkpt lat="45.93593" lon="4.72244">
        <ele>173</ele>
        <time>2018-03-18T11:37:37Z</time>
      </trkpt>
      <trkpt lat="45.93589" lon="4.72237">
        <ele>173</ele>
        <time>2018-03-18T11:37:39Z</time>
      </trkpt>
      <trkpt lat="45.93585" lon="4.72234">
        <ele>173</ele>
        <time>2018-03-18T11:37:40Z</time>
      </trkpt>
      <trkpt lat="45.93581" lon="4.72231">
        <ele>173</ele>
        <time>2018-03-18T11:37:41Z</time>
      </trkpt>
      <trkpt lat="45.93577" lon="4.72228">
        <ele>173</ele>
        <time>2018-03-18T11:37:42Z</time>
      </trkpt>
      <trkpt lat="45.93569" lon="4.72222">
        <ele>173</ele>
        <time>2018-03-18T11:37:45Z</time>
      </trkpt>
      <trkpt lat="45.93567" lon="4.72221">
        <ele>173</ele>
        <time>2018-03-18T11:37:46Z</time>
      </trkpt>
      <trkpt lat="45.9356" lon="4.72219">
        <ele>173</ele>
        <time>2018-03-18T11:37:49Z</time>
      </trkpt>
      <trkpt lat="45.93557" lon="4.7222">
        <ele>173</ele>
        <time>2018-03-18T11:37:50Z</time>
      </trkpt>
      <trkpt lat="45.93551" lon="4.72227">
        <ele>172</ele>
        <time>2018-03-18T11:37:53Z</time>
      </trkpt>
      <trkpt lat="45.93549" lon="4.7223">
        <ele>172</ele>
        <time>2018-03-18T11:37:54Z</time>
      </trkpt>
      <trkpt lat="45.93545" lon="4.72238">
        <ele>172</ele>
        <time>2018-03-18T11:37:56Z</time>
      </trkpt>
      <trkpt lat="45.93543" lon="4.72241">
        <ele>172</ele>
        <time>2018-03-18T11:37:57Z</time>
      </trkpt>
      <trkpt lat="45.93538" lon="4.72252">
        <ele>172</ele>
        <time>2018-03-18T11:37:58Z</time>
      </trkpt>
      <trkpt lat="45.93535" lon="4.72256">
        <ele>172</ele>
        <time>2018-03-18T11:37:59Z</time>
      </trkpt>
      <trkpt lat="45.93531" lon="4.72266">
        <ele>172</ele>
        <time>2018-03-18T11:38:01Z</time>
      </trkpt>
      <trkpt lat="45.93529" lon="4.72271">
        <ele>172</ele>
        <time>2018-03-18T11:38:02Z</time>
      </trkpt>
      <trkpt lat="45.93526" lon="4.72277">
        <ele>172</ele>
        <time>2018-03-18T11:38:03Z</time>
      </trkpt>
      <trkpt lat="45.93524" lon="4.72283">
        <ele>172</ele>
        <time>2018-03-18T11:38:04Z</time>
      </trkpt>
      <trkpt lat="45.93521" lon="4.72289">
        <ele>172</ele>
        <time>2018-03-18T11:38:05Z</time>
      </trkpt>
      <trkpt lat="45.93517" lon="4.72296">
        <ele>172</ele>
        <time>2018-03-18T11:38:06Z</time>
      </trkpt>
      <trkpt lat="45.93513" lon="4.72302">
        <ele>172</ele>
        <time>2018-03-18T11:38:07Z</time>
      </trkpt>
      <trkpt lat="45.93511" lon="4.72307">
        <ele>173</ele>
        <time>2018-03-18T11:38:08Z</time>
      </trkpt>
      <trkpt lat="45.93507" lon="4.72312">
        <ele>173</ele>
        <time>2018-03-18T11:38:09Z</time>
      </trkpt>
      <trkpt lat="45.93503" lon="4.72316">
        <ele>173</ele>
        <time>2018-03-18T11:38:10Z</time>
      </trkpt>
      <trkpt lat="45.93499" lon="4.72321">
        <ele>173</ele>
        <time>2018-03-18T11:38:11Z</time>
      </trkpt>
      <trkpt lat="45.93495" lon="4.72328">
        <ele>173</ele>
        <time>2018-03-18T11:38:12Z</time>
      </trkpt>
      <trkpt lat="45.93491" lon="4.72334">
        <ele>173</ele>
        <time>2018-03-18T11:38:13Z</time>
      </trkpt>
      <trkpt lat="45.93487" lon="4.72341">
        <ele>173</ele>
        <time>2018-03-18T11:38:14Z</time>
      </trkpt>
      <trkpt lat="45.93482" lon="4.72348">
        <ele>173</ele>
        <time>2018-03-18T11:38:15Z</time>
      </trkpt>
      <trkpt lat="45.93476" lon="4.72351">
        <ele>173</ele>
        <time>2018-03-18T11:38:16Z</time>
      </trkpt>
      <trkpt lat="45.93471" lon="4.72358">
        <ele>173</ele>
        <time>2018-03-18T11:38:17Z</time>
      </trkpt>
      <trkpt lat="45.93466" lon="4.72365">
        <ele>173</ele>
        <time>2018-03-18T11:38:18Z</time>
      </trkpt>
      <trkpt lat="45.93462" lon="4.72371">
        <ele>173</ele>
        <time>2018-03-18T11:38:19Z</time>
      </trkpt>
      <trkpt lat="45.93457" lon="4.72375">
        <ele>173</ele>
        <time>2018-03-18T11:38:20Z</time>
      </trkpt>
      <trkpt lat="45.93453" lon="4.72381">
        <ele>173</ele>
        <time>2018-03-18T11:38:21Z</time>
      </trkpt>
      <trkpt lat="45.93448" lon="4.72385">
        <ele>173</ele>
        <time>2018-03-18T11:38:22Z</time>
      </trkpt>
      <trkpt lat="45.93442" lon="4.72389">
        <ele>173</ele>
        <time>2018-03-18T11:38:23Z</time>
      </trkpt>
      <trkpt lat="45.93438" lon="4.72393">
        <ele>173</ele>
        <time>2018-03-18T11:38:24Z</time>
      </trkpt>
      <trkpt lat="45.93434" lon="4.72397">
        <ele>173</ele>
        <time>2018-03-18T11:38:25Z</time>
      </trkpt>
      <trkpt lat="45.9343" lon="4.72402">
        <ele>174</ele>
        <time>2018-03-18T11:38:26Z</time>
      </trkpt>
      <trkpt lat="45.93425" lon="4.72405">
        <ele>174</ele>
        <time>2018-03-18T11:38:27Z</time>
      </trkpt>
      <trkpt lat="45.93419" lon="4.72407">
        <ele>174</ele>
        <time>2018-03-18T11:38:28Z</time>
      </trkpt>
      <trkpt lat="45.93414" lon="4.72409">
        <ele>174</ele>
        <time>2018-03-18T11:38:29Z</time>
      </trkpt>
      <trkpt lat="45.93408" lon="4.72412">
        <ele>174</ele>
        <time>2018-03-18T11:38:30Z</time>
      </trkpt>
      <trkpt lat="45.93404" lon="4.72414">
        <ele>174</ele>
        <time>2018-03-18T11:38:31Z</time>
      </trkpt>
      <trkpt lat="45.93398" lon="4.72413">
        <ele>174</ele>
        <time>2018-03-18T11:38:32Z</time>
      </trkpt>
      <trkpt lat="45.93393" lon="4.72413">
        <ele>174</ele>
        <time>2018-03-18T11:38:33Z</time>
      </trkpt>
      <trkpt lat="45.93388" lon="4.72413">
        <ele>174</ele>
        <time>2018-03-18T11:38:34Z</time>
      </trkpt>
      <trkpt lat="45.93383" lon="4.72416">
        <ele>174</ele>
        <time>2018-03-18T11:38:35Z</time>
      </trkpt>
      <trkpt lat="45.93381" lon="4.72421">
        <ele>173</ele>
        <time>2018-03-18T11:38:36Z</time>
      </trkpt>
      <trkpt lat="45.93381" lon="4.72434">
        <ele>173</ele>
        <time>2018-03-18T11:38:38Z</time>
      </trkpt>
      <trkpt lat="45.93383" lon="4.72439">
        <ele>173</ele>
        <time>2018-03-18T11:38:39Z</time>
      </trkpt>
      <trkpt lat="45.93385" lon="4.72445">
        <ele>173</ele>
        <time>2018-03-18T11:38:40Z</time>
      </trkpt>
      <trkpt lat="45.93387" lon="4.72452">
        <ele>173</ele>
        <time>2018-03-18T11:38:41Z</time>
      </trkpt>
      <trkpt lat="45.93385" lon="4.72464">
        <ele>173</ele>
        <time>2018-03-18T11:38:43Z</time>
      </trkpt>
      <trkpt lat="45.93382" lon="4.72469">
        <ele>173</ele>
        <time>2018-03-18T11:38:44Z</time>
      </trkpt>
      <trkpt lat="45.93379" lon="4.72474">
        <ele>173</ele>
        <time>2018-03-18T11:38:45Z</time>
      </trkpt>
      <trkpt lat="45.93375" lon="4.7248">
        <ele>173</ele>
        <time>2018-03-18T11:38:46Z</time>
      </trkpt>
      <trkpt lat="45.93371" lon="4.72484">
        <ele>173</ele>
        <time>2018-03-18T11:38:47Z</time>
      </trkpt>
      <trkpt lat="45.93366" lon="4.72488">
        <ele>173</ele>
        <time>2018-03-18T11:38:48Z</time>
      </trkpt>
      <trkpt lat="45.93362" lon="4.72493">
        <ele>173</ele>
        <time>2018-03-18T11:38:49Z</time>
      </trkpt>
      <trkpt lat="45.93358" lon="4.72498">
        <ele>173</ele>
        <time>2018-03-18T11:38:50Z</time>
      </trkpt>
      <trkpt lat="45.93354" lon="4.72503">
        <ele>172</ele>
        <time>2018-03-18T11:38:51Z</time>
      </trkpt>
      <trkpt lat="45.93351" lon="4.72506">
        <ele>172</ele>
        <time>2018-03-18T11:38:52Z</time>
      </trkpt>
      <trkpt lat="45.93346" lon="4.72512">
        <ele>172</ele>
        <time>2018-03-18T11:38:53Z</time>
      </trkpt>
      <trkpt lat="45.93342" lon="4.72517">
        <ele>172</ele>
        <time>2018-03-18T11:38:54Z</time>
      </trkpt>
      <trkpt lat="45.93338" lon="4.72522">
        <ele>172</ele>
        <time>2018-03-18T11:38:55Z</time>
      </trkpt>
      <trkpt lat="45.93335" lon="4.72526">
        <ele>172</ele>
        <time>2018-03-18T11:38:56Z</time>
      </trkpt>
      <trkpt lat="45.9333" lon="4.72531">
        <ele>172</ele>
        <time>2018-03-18T11:38:57Z</time>
      </trkpt>
      <trkpt lat="45.93325" lon="4.72535">
        <ele>172</ele>
        <time>2018-03-18T11:38:58Z</time>
      </trkpt>
      <trkpt lat="45.93322" lon="4.7254">
        <ele>172</ele>
        <time>2018-03-18T11:38:59Z</time>
      </trkpt>
      <trkpt lat="45.93316" lon="4.72543">
        <ele>172</ele>
        <time>2018-03-18T11:39:00Z</time>
      </trkpt>
      <trkpt lat="45.93311" lon="4.72547">
        <ele>172</ele>
        <time>2018-03-18T11:39:01Z</time>
      </trkpt>
      <trkpt lat="45.93309" lon="4.72556">
        <ele>172</ele>
        <time>2018-03-18T11:39:02Z</time>
      </trkpt>
      <trkpt lat="45.93304" lon="4.72561">
        <ele>172</ele>
        <time>2018-03-18T11:39:03Z</time>
      </trkpt>
      <trkpt lat="45.93299" lon="4.72566">
        <ele>172</ele>
        <time>2018-03-18T11:39:04Z</time>
      </trkpt>
      <trkpt lat="45.93295" lon="4.72571">
        <ele>172</ele>
        <time>2018-03-18T11:39:05Z</time>
      </trkpt>
      <trkpt lat="45.93291" lon="4.72574">
        <ele>172</ele>
        <time>2018-03-18T11:39:06Z</time>
      </trkpt>
      <trkpt lat="45.93286" lon="4.7258">
        <ele>171</ele>
        <time>2018-03-18T11:39:07Z</time>
      </trkpt>
      <trkpt lat="45.93282" lon="4.72586">
        <ele>170</ele>
        <time>2018-03-18T11:39:08Z</time>
      </trkpt>
      <trkpt lat="45.93277" lon="4.72591">
        <ele>170</ele>
        <time>2018-03-18T11:39:09Z</time>
      </trkpt>
      <trkpt lat="45.93273" lon="4.72597">
        <ele>170</ele>
        <time>2018-03-18T11:39:10Z</time>
      </trkpt>
      <trkpt lat="45.93268" lon="4.72603">
        <ele>170</ele>
        <time>2018-03-18T11:39:11Z</time>
      </trkpt>
      <trkpt lat="45.93263" lon="4.72609">
        <ele>170</ele>
        <time>2018-03-18T11:39:12Z</time>
      </trkpt>
      <trkpt lat="45.93259" lon="4.72615">
        <ele>170</ele>
        <time>2018-03-18T11:39:13Z</time>
      </trkpt>
      <trkpt lat="45.93254" lon="4.7262">
        <ele>170</ele>
        <time>2018-03-18T11:39:14Z</time>
      </trkpt>
      <trkpt lat="45.9325" lon="4.72627">
        <ele>170</ele>
        <time>2018-03-18T11:39:15Z</time>
      </trkpt>
      <trkpt lat="45.93245" lon="4.72631">
        <ele>170</ele>
        <time>2018-03-18T11:39:16Z</time>
      </trkpt>
      <trkpt lat="45.9324" lon="4.72637">
        <ele>170</ele>
        <time>2018-03-18T11:39:17Z</time>
      </trkpt>
      <trkpt lat="45.93235" lon="4.72642">
        <ele>170</ele>
        <time>2018-03-18T11:39:18Z</time>
      </trkpt>
      <trkpt lat="45.9323" lon="4.72647">
        <ele>170</ele>
        <time>2018-03-18T11:39:19Z</time>
      </trkpt>
      <trkpt lat="45.93226" lon="4.72653">
        <ele>170</ele>
        <time>2018-03-18T11:39:20Z</time>
      </trkpt>
      <trkpt lat="45.93221" lon="4.72658">
        <ele>170</ele>
        <time>2018-03-18T11:39:21Z</time>
      </trkpt>
      <trkpt lat="45.93216" lon="4.72664">
        <ele>170</ele>
        <time>2018-03-18T11:39:22Z</time>
      </trkpt>
      <trkpt lat="45.93211" lon="4.72669">
        <ele>169</ele>
        <time>2018-03-18T11:39:23Z</time>
      </trkpt>
      <trkpt lat="45.93207" lon="4.72674">
        <ele>169</ele>
        <time>2018-03-18T11:39:24Z</time>
      </trkpt>
      <trkpt lat="45.93201" lon="4.7268">
        <ele>169</ele>
        <time>2018-03-18T11:39:25Z</time>
      </trkpt>
      <trkpt lat="45.93196" lon="4.72686">
        <ele>169</ele>
        <time>2018-03-18T11:39:26Z</time>
      </trkpt>
      <trkpt lat="45.93192" lon="4.72691">
        <ele>169</ele>
        <time>2018-03-18T11:39:27Z</time>
      </trkpt>
      <trkpt lat="45.93187" lon="4.72696">
        <ele>169</ele>
        <time>2018-03-18T11:39:28Z</time>
      </trkpt>
      <trkpt lat="45.93183" lon="4.72702">
        <ele>169</ele>
        <time>2018-03-18T11:39:29Z</time>
      </trkpt>
      <trkpt lat="45.93178" lon="4.72707">
        <ele>169</ele>
        <time>2018-03-18T11:39:30Z</time>
      </trkpt>
      <trkpt lat="45.93173" lon="4.72712">
        <ele>170</ele>
        <time>2018-03-18T11:39:31Z</time>
      </trkpt>
      <trkpt lat="45.93169" lon="4.72718">
        <ele>170</ele>
        <time>2018-03-18T11:39:32Z</time>
      </trkpt>
      <trkpt lat="45.93164" lon="4.72723">
        <ele>170</ele>
        <time>2018-03-18T11:39:33Z</time>
      </trkpt>
      <trkpt lat="45.93159" lon="4.72728">
        <ele>170</ele>
        <time>2018-03-18T11:39:34Z</time>
      </trkpt>
      <trkpt lat="45.93154" lon="4.72733">
        <ele>170</ele>
        <time>2018-03-18T11:39:35Z</time>
      </trkpt>
      <trkpt lat="45.93148" lon="4.72738">
        <ele>170</ele>
        <time>2018-03-18T11:39:36Z</time>
      </trkpt>
      <trkpt lat="45.93144" lon="4.72745">
        <ele>170</ele>
        <time>2018-03-18T11:39:37Z</time>
      </trkpt>
      <trkpt lat="45.93139" lon="4.72751">
        <ele>171</ele>
        <time>2018-03-18T11:39:38Z</time>
      </trkpt>
      <trkpt lat="45.93134" lon="4.72757">
        <ele>171</ele>
        <time>2018-03-18T11:39:39Z</time>
      </trkpt>
      <trkpt lat="45.93129" lon="4.72762">
        <ele>171</ele>
        <time>2018-03-18T11:39:40Z</time>
      </trkpt>
      <trkpt lat="45.93124" lon="4.72768">
        <ele>171</ele>
        <time>2018-03-18T11:39:41Z</time>
      </trkpt>
      <trkpt lat="45.93119" lon="4.72774">
        <ele>171</ele>
        <time>2018-03-18T11:39:42Z</time>
      </trkpt>
      <trkpt lat="45.93114" lon="4.72781">
        <ele>171</ele>
        <time>2018-03-18T11:39:43Z</time>
      </trkpt>
      <trkpt lat="45.9311" lon="4.72787">
        <ele>171</ele>
        <time>2018-03-18T11:39:44Z</time>
      </trkpt>
      <trkpt lat="45.93106" lon="4.72792">
        <ele>171</ele>
        <time>2018-03-18T11:39:45Z</time>
      </trkpt>
      <trkpt lat="45.93101" lon="4.72798">
        <ele>171</ele>
        <time>2018-03-18T11:39:46Z</time>
      </trkpt>
      <trkpt lat="45.93097" lon="4.72803">
        <ele>171</ele>
        <time>2018-03-18T11:39:47Z</time>
      </trkpt>
      <trkpt lat="45.93092" lon="4.72808">
        <ele>172</ele>
        <time>2018-03-18T11:39:48Z</time>
      </trkpt>
      <trkpt lat="45.93088" lon="4.72813">
        <ele>172</ele>
        <time>2018-03-18T11:39:49Z</time>
      </trkpt>
      <trkpt lat="45.93084" lon="4.72818">
        <ele>172</ele>
        <time>2018-03-18T11:39:50Z</time>
      </trkpt>
      <trkpt lat="45.9308" lon="4.72822">
        <ele>173</ele>
        <time>2018-03-18T11:39:51Z</time>
      </trkpt>
      <trkpt lat="45.93077" lon="4.72827">
        <ele>173</ele>
        <time>2018-03-18T11:39:52Z</time>
      </trkpt>
      <trkpt lat="45.93073" lon="4.72834">
        <ele>173</ele>
        <time>2018-03-18T11:39:54Z</time>
      </trkpt>
      <trkpt lat="45.93069" lon="4.72839">
        <ele>173</ele>
        <time>2018-03-18T11:39:55Z</time>
      </trkpt>
      <trkpt lat="45.93066" lon="4.72849">
        <ele>172</ele>
        <time>2018-03-18T11:39:56Z</time>
      </trkpt>
      <trkpt lat="45.93063" lon="4.72853">
        <ele>172</ele>
        <time>2018-03-18T11:39:57Z</time>
      </trkpt>
      <trkpt lat="45.93051" lon="4.72852">
        <ele>172</ele>
        <time>2018-03-18T11:39:58Z</time>
      </trkpt>
      <trkpt lat="45.93049" lon="4.72857">
        <ele>172</ele>
        <time>2018-03-18T11:39:59Z</time>
      </trkpt>
      <trkpt lat="45.93046" lon="4.72863">
        <ele>172</ele>
        <time>2018-03-18T11:40:00Z</time>
      </trkpt>
      <trkpt lat="45.93041" lon="4.72868">
        <ele>172</ele>
        <time>2018-03-18T11:40:01Z</time>
      </trkpt>
      <trkpt lat="45.93035" lon="4.72871">
        <ele>172</ele>
        <time>2018-03-18T11:40:02Z</time>
      </trkpt>
      <trkpt lat="45.93031" lon="4.72876">
        <ele>172</ele>
        <time>2018-03-18T11:40:03Z</time>
      </trkpt>
      <trkpt lat="45.93027" lon="4.72882">
        <ele>172</ele>
        <time>2018-03-18T11:40:04Z</time>
      </trkpt>
      <trkpt lat="45.93023" lon="4.72887">
        <ele>172</ele>
        <time>2018-03-18T11:40:05Z</time>
      </trkpt>
      <trkpt lat="45.93019" lon="4.72892">
        <ele>172</ele>
        <time>2018-03-18T11:40:06Z</time>
      </trkpt>
      <trkpt lat="45.93015" lon="4.72897">
        <ele>172</ele>
        <time>2018-03-18T11:40:07Z</time>
      </trkpt>
      <trkpt lat="45.93012" lon="4.72902">
        <ele>172</ele>
        <time>2018-03-18T11:40:08Z</time>
      </trkpt>
      <trkpt lat="45.93009" lon="4.72907">
        <ele>171</ele>
        <time>2018-03-18T11:40:09Z</time>
      </trkpt>
      <trkpt lat="45.93004" lon="4.72911">
        <ele>171</ele>
        <time>2018-03-18T11:40:10Z</time>
      </trkpt>
      <trkpt lat="45.93" lon="4.72916">
        <ele>171</ele>
        <time>2018-03-18T11:40:11Z</time>
      </trkpt>
      <trkpt lat="45.92995" lon="4.7292">
        <ele>171</ele>
        <time>2018-03-18T11:40:12Z</time>
      </trkpt>
      <trkpt lat="45.92991" lon="4.72925">
        <ele>171</ele>
        <time>2018-03-18T11:40:13Z</time>
      </trkpt>
      <trkpt lat="45.92988" lon="4.72929">
        <ele>171</ele>
        <time>2018-03-18T11:40:14Z</time>
      </trkpt>
      <trkpt lat="45.92984" lon="4.72935">
        <ele>171</ele>
        <time>2018-03-18T11:40:15Z</time>
      </trkpt>
      <trkpt lat="45.92981" lon="4.72939">
        <ele>171</ele>
        <time>2018-03-18T11:40:16Z</time>
      </trkpt>
      <trkpt lat="45.92977" lon="4.72943">
        <ele>171</ele>
        <time>2018-03-18T11:40:17Z</time>
      </trkpt>
      <trkpt lat="45.92973" lon="4.72948">
        <ele>171</ele>
        <time>2018-03-18T11:40:18Z</time>
      </trkpt>
      <trkpt lat="45.92969" lon="4.72951">
        <ele>171</ele>
        <time>2018-03-18T11:40:19Z</time>
      </trkpt>
      <trkpt lat="45.92965" lon="4.72955">
        <ele>171</ele>
        <time>2018-03-18T11:40:20Z</time>
      </trkpt>
      <trkpt lat="45.92961" lon="4.7296">
        <ele>171</ele>
        <time>2018-03-18T11:40:21Z</time>
      </trkpt>
      <trkpt lat="45.92957" lon="4.72965">
        <ele>171</ele>
        <time>2018-03-18T11:40:22Z</time>
      </trkpt>
      <trkpt lat="45.92952" lon="4.72972">
        <ele>171</ele>
        <time>2018-03-18T11:40:23Z</time>
      </trkpt>
      <trkpt lat="45.92948" lon="4.72978">
        <ele>171</ele>
        <time>2018-03-18T11:40:24Z</time>
      </trkpt>
      <trkpt lat="45.92944" lon="4.72984">
        <ele>171</ele>
        <time>2018-03-18T11:40:25Z</time>
      </trkpt>
      <trkpt lat="45.9294" lon="4.7299">
        <ele>171</ele>
        <time>2018-03-18T11:40:26Z</time>
      </trkpt>
      <trkpt lat="45.92935" lon="4.72996">
        <ele>172</ele>
        <time>2018-03-18T11:40:27Z</time>
      </trkpt>
      <trkpt lat="45.92931" lon="4.73001">
        <ele>172</ele>
        <time>2018-03-18T11:40:28Z</time>
      </trkpt>
      <trkpt lat="45.92926" lon="4.73007">
        <ele>172</ele>
        <time>2018-03-18T11:40:29Z</time>
      </trkpt>
      <trkpt lat="45.92921" lon="4.73012">
        <ele>172</ele>
        <time>2018-03-18T11:40:30Z</time>
      </trkpt>
      <trkpt lat="45.92916" lon="4.73017">
        <ele>172</ele>
        <time>2018-03-18T11:40:31Z</time>
      </trkpt>
      <trkpt lat="45.92913" lon="4.73024">
        <ele>172</ele>
        <time>2018-03-18T11:40:32Z</time>
      </trkpt>
      <trkpt lat="45.92908" lon="4.73029">
        <ele>172</ele>
        <time>2018-03-18T11:40:33Z</time>
      </trkpt>
      <trkpt lat="45.92903" lon="4.73034">
        <ele>172</ele>
        <time>2018-03-18T11:40:34Z</time>
      </trkpt>
      <trkpt lat="45.92899" lon="4.73042">
        <ele>172</ele>
        <time>2018-03-18T11:40:35Z</time>
      </trkpt>
      <trkpt lat="45.92895" lon="4.73048">
        <ele>172</ele>
        <time>2018-03-18T11:40:36Z</time>
      </trkpt>
      <trkpt lat="45.92891" lon="4.73055">
        <ele>172</ele>
        <time>2018-03-18T11:40:37Z</time>
      </trkpt>
      <trkpt lat="45.92887" lon="4.73062">
        <ele>172</ele>
        <time>2018-03-18T11:40:38Z</time>
      </trkpt>
      <trkpt lat="45.92883" lon="4.73069">
        <ele>172</ele>
        <time>2018-03-18T11:40:39Z</time>
      </trkpt>
      <trkpt lat="45.92879" lon="4.73077">
        <ele>172</ele>
        <time>2018-03-18T11:40:40Z</time>
      </trkpt>
      <trkpt lat="45.92875" lon="4.73086">
        <ele>172</ele>
        <time>2018-03-18T11:40:41Z</time>
      </trkpt>
      <trkpt lat="45.92871" lon="4.73095">
        <ele>172</ele>
        <time>2018-03-18T11:40:42Z</time>
      </trkpt>
      <trkpt lat="45.92869" lon="4.73103">
        <ele>172</ele>
        <time>2018-03-18T11:40:43Z</time>
      </trkpt>
      <trkpt lat="45.92867" lon="4.73112">
        <ele>171</ele>
        <time>2018-03-18T11:40:44Z</time>
      </trkpt>
      <trkpt lat="45.92865" lon="4.73121">
        <ele>171</ele>
        <time>2018-03-18T11:40:45Z</time>
      </trkpt>
      <trkpt lat="45.92862" lon="4.7313">
        <ele>171</ele>
        <time>2018-03-18T11:40:46Z</time>
      </trkpt>
      <trkpt lat="45.92861" lon="4.73138">
        <ele>171</ele>
        <time>2018-03-18T11:40:47Z</time>
      </trkpt>
      <trkpt lat="45.92859" lon="4.73147">
        <ele>171</ele>
        <time>2018-03-18T11:40:48Z</time>
      </trkpt>
      <trkpt lat="45.92858" lon="4.73155">
        <ele>171</ele>
        <time>2018-03-18T11:40:49Z</time>
      </trkpt>
      <trkpt lat="45.92857" lon="4.73163">
        <ele>171</ele>
        <time>2018-03-18T11:40:50Z</time>
      </trkpt>
      <trkpt lat="45.92856" lon="4.7317">
        <ele>171</ele>
        <time>2018-03-18T11:40:51Z</time>
      </trkpt>
      <trkpt lat="45.92855" lon="4.73178">
        <ele>171</ele>
        <time>2018-03-18T11:40:52Z</time>
      </trkpt>
      <trkpt lat="45.92854" lon="4.73187">
        <ele>171</ele>
        <time>2018-03-18T11:40:53Z</time>
      </trkpt>
      <trkpt lat="45.92853" lon="4.73195">
        <ele>171</ele>
        <time>2018-03-18T11:40:54Z</time>
      </trkpt>
      <trkpt lat="45.92853" lon="4.73204">
        <ele>171</ele>
        <time>2018-03-18T11:40:55Z</time>
      </trkpt>
      <trkpt lat="45.92851" lon="4.73211">
        <ele>171</ele>
        <time>2018-03-18T11:40:56Z</time>
      </trkpt>
      <trkpt lat="45.92851" lon="4.7322">
        <ele>171</ele>
        <time>2018-03-18T11:40:57Z</time>
      </trkpt>
      <trkpt lat="45.92851" lon="4.7323">
        <ele>171</ele>
        <time>2018-03-18T11:40:58Z</time>
      </trkpt>
      <trkpt lat="45.92849" lon="4.73238">
        <ele>171</ele>
        <time>2018-03-18T11:40:59Z</time>
      </trkpt>
      <trkpt lat="45.92848" lon="4.73246">
        <ele>170</ele>
        <time>2018-03-18T11:41:00Z</time>
      </trkpt>
      <trkpt lat="45.92847" lon="4.73255">
        <ele>171</ele>
        <time>2018-03-18T11:41:01Z</time>
      </trkpt>
      <trkpt lat="45.92846" lon="4.73264">
        <ele>171</ele>
        <time>2018-03-18T11:41:02Z</time>
      </trkpt>
      <trkpt lat="45.92845" lon="4.73273">
        <ele>171</ele>
        <time>2018-03-18T11:41:03Z</time>
      </trkpt>
      <trkpt lat="45.92844" lon="4.73281">
        <ele>171</ele>
        <time>2018-03-18T11:41:04Z</time>
      </trkpt>
      <trkpt lat="45.92843" lon="4.7329">
        <ele>171</ele>
        <time>2018-03-18T11:41:05Z</time>
      </trkpt>
      <trkpt lat="45.92842" lon="4.73298">
        <ele>171</ele>
        <time>2018-03-18T11:41:06Z</time>
      </trkpt>
      <trkpt lat="45.92842" lon="4.73306">
        <ele>171</ele>
        <time>2018-03-18T11:41:07Z</time>
      </trkpt>
      <trkpt lat="45.92842" lon="4.73315">
        <ele>171</ele>
        <time>2018-03-18T11:41:08Z</time>
      </trkpt>
      <trkpt lat="45.92841" lon="4.73323">
        <ele>171</ele>
        <time>2018-03-18T11:41:09Z</time>
      </trkpt>
      <trkpt lat="45.92839" lon="4.73332">
        <ele>171</ele>
        <time>2018-03-18T11:41:10Z</time>
      </trkpt>
      <trkpt lat="45.92838" lon="4.73339">
        <ele>171</ele>
        <time>2018-03-18T11:41:11Z</time>
      </trkpt>
      <trkpt lat="45.92837" lon="4.73347">
        <ele>171</ele>
        <time>2018-03-18T11:41:12Z</time>
      </trkpt>
      <trkpt lat="45.92836" lon="4.73355">
        <ele>171</ele>
        <time>2018-03-18T11:41:13Z</time>
      </trkpt>
      <trkpt lat="45.92835" lon="4.73363">
        <ele>171</ele>
        <time>2018-03-18T11:41:14Z</time>
      </trkpt>
      <trkpt lat="45.92834" lon="4.73372">
        <ele>171</ele>
        <time>2018-03-18T11:41:15Z</time>
      </trkpt>
      <trkpt lat="45.92833" lon="4.7338">
        <ele>171</ele>
        <time>2018-03-18T11:41:16Z</time>
      </trkpt>
      <trkpt lat="45.92832" lon="4.73388">
        <ele>171</ele>
        <time>2018-03-18T11:41:17Z</time>
      </trkpt>
      <trkpt lat="45.92832" lon="4.73396">
        <ele>172</ele>
        <time>2018-03-18T11:41:18Z</time>
      </trkpt>
      <trkpt lat="45.9283" lon="4.73405">
        <ele>172</ele>
        <time>2018-03-18T11:41:19Z</time>
      </trkpt>
      <trkpt lat="45.92829" lon="4.73414">
        <ele>172</ele>
        <time>2018-03-18T11:41:20Z</time>
      </trkpt>
      <trkpt lat="45.92828" lon="4.73423">
        <ele>172</ele>
        <time>2018-03-18T11:41:21Z</time>
      </trkpt>
      <trkpt lat="45.92828" lon="4.73432">
        <ele>172</ele>
        <time>2018-03-18T11:41:22Z</time>
      </trkpt>
      <trkpt lat="45.92828" lon="4.7344">
        <ele>172</ele>
        <time>2018-03-18T11:41:23Z</time>
      </trkpt>
      <trkpt lat="45.92827" lon="4.73449">
        <ele>172</ele>
        <time>2018-03-18T11:41:24Z</time>
      </trkpt>
      <trkpt lat="45.92826" lon="4.73457">
        <ele>172</ele>
        <time>2018-03-18T11:41:25Z</time>
      </trkpt>
      <trkpt lat="45.92825" lon="4.73465">
        <ele>172</ele>
        <time>2018-03-18T11:41:26Z</time>
      </trkpt>
      <trkpt lat="45.92824" lon="4.73474">
        <ele>172</ele>
        <time>2018-03-18T11:41:27Z</time>
      </trkpt>
      <trkpt lat="45.92824" lon="4.73481">
        <ele>172</ele>
        <time>2018-03-18T11:41:28Z</time>
      </trkpt>
      <trkpt lat="45.92823" lon="4.73489">
        <ele>172</ele>
        <time>2018-03-18T11:41:29Z</time>
      </trkpt>
      <trkpt lat="45.92823" lon="4.73498">
        <ele>172</ele>
        <time>2018-03-18T11:41:30Z</time>
      </trkpt>
      <trkpt lat="45.92822" lon="4.73506">
        <ele>172</ele>
        <time>2018-03-18T11:41:31Z</time>
      </trkpt>
      <trkpt lat="45.92821" lon="4.73513">
        <ele>172</ele>
        <time>2018-03-18T11:41:32Z</time>
      </trkpt>
      <trkpt lat="45.9282" lon="4.73521">
        <ele>172</ele>
        <time>2018-03-18T11:41:33Z</time>
      </trkpt>
      <trkpt lat="45.92819" lon="4.7353">
        <ele>172</ele>
        <time>2018-03-18T11:41:34Z</time>
      </trkpt>
      <trkpt lat="45.92817" lon="4.73538">
        <ele>172</ele>
        <time>2018-03-18T11:41:35Z</time>
      </trkpt>
      <trkpt lat="45.92817" lon="4.73547">
        <ele>171</ele>
        <time>2018-03-18T11:41:36Z</time>
      </trkpt>
      <trkpt lat="45.92816" lon="4.73555">
        <ele>171</ele>
        <time>2018-03-18T11:41:37Z</time>
      </trkpt>
      <trkpt lat="45.92816" lon="4.73562">
        <ele>171</ele>
        <time>2018-03-18T11:41:38Z</time>
      </trkpt>
      <trkpt lat="45.92816" lon="4.73569">
        <ele>171</ele>
        <time>2018-03-18T11:41:39Z</time>
      </trkpt>
      <trkpt lat="45.92815" lon="4.73577">
        <ele>171</ele>
        <time>2018-03-18T11:41:40Z</time>
      </trkpt>
      <trkpt lat="45.92814" lon="4.73584">
        <ele>171</ele>
        <time>2018-03-18T11:41:41Z</time>
      </trkpt>
      <trkpt lat="45.92815" lon="4.73592">
        <ele>171</ele>
        <time>2018-03-18T11:41:42Z</time>
      </trkpt>
      <trkpt lat="45.92815" lon="4.73601">
        <ele>172</ele>
        <time>2018-03-18T11:41:43Z</time>
      </trkpt>
      <trkpt lat="45.92815" lon="4.73609">
        <ele>172</ele>
        <time>2018-03-18T11:41:44Z</time>
      </trkpt>
      <trkpt lat="45.92815" lon="4.73618">
        <ele>172</ele>
        <time>2018-03-18T11:41:45Z</time>
      </trkpt>
      <trkpt lat="45.92814" lon="4.73625">
        <ele>172</ele>
        <time>2018-03-18T11:41:46Z</time>
      </trkpt>
      <trkpt lat="45.92812" lon="4.73631">
        <ele>172</ele>
        <time>2018-03-18T11:41:47Z</time>
      </trkpt>
      <trkpt lat="45.92808" lon="4.73636">
        <ele>172</ele>
        <time>2018-03-18T11:41:48Z</time>
      </trkpt>
      <trkpt lat="45.92804" lon="4.73641">
        <ele>172</ele>
        <time>2018-03-18T11:41:49Z</time>
      </trkpt>
      <trkpt lat="45.92801" lon="4.73647">
        <ele>172</ele>
        <time>2018-03-18T11:41:50Z</time>
      </trkpt>
      <trkpt lat="45.928" lon="4.73653">
        <ele>172</ele>
        <time>2018-03-18T11:41:51Z</time>
      </trkpt>
      <trkpt lat="45.92799" lon="4.7366">
        <ele>172</ele>
        <time>2018-03-18T11:41:52Z</time>
      </trkpt>
      <trkpt lat="45.92797" lon="4.7367">
        <ele>172</ele>
        <time>2018-03-18T11:41:54Z</time>
      </trkpt>
      <trkpt lat="45.92796" lon="4.73676">
        <ele>172</ele>
        <time>2018-03-18T11:41:55Z</time>
      </trkpt>
      <trkpt lat="45.92793" lon="4.73687">
        <ele>172</ele>
        <time>2018-03-18T11:41:57Z</time>
      </trkpt>
      <trkpt lat="45.92792" lon="4.73693">
        <ele>172</ele>
        <time>2018-03-18T11:41:58Z</time>
      </trkpt>
      <trkpt lat="45.9279" lon="4.73699">
        <ele>172</ele>
        <time>2018-03-18T11:41:59Z</time>
      </trkpt>
      <trkpt lat="45.92788" lon="4.73706">
        <ele>172</ele>
        <time>2018-03-18T11:42:00Z</time>
      </trkpt>
      <trkpt lat="45.92787" lon="4.73713">
        <ele>172</ele>
        <time>2018-03-18T11:42:01Z</time>
      </trkpt>
      <trkpt lat="45.92786" lon="4.73721">
        <ele>172</ele>
        <time>2018-03-18T11:42:02Z</time>
      </trkpt>
      <trkpt lat="45.92784" lon="4.73727">
        <ele>172</ele>
        <time>2018-03-18T11:42:03Z</time>
      </trkpt>
      <trkpt lat="45.9278" lon="4.73731">
        <ele>172</ele>
        <time>2018-03-18T11:42:04Z</time>
      </trkpt>
      <trkpt lat="45.92774" lon="4.73732">
        <ele>172</ele>
        <time>2018-03-18T11:42:06Z</time>
      </trkpt>
      <trkpt lat="45.92769" lon="4.73731">
        <ele>172</ele>
        <time>2018-03-18T11:42:07Z</time>
      </trkpt>
      <trkpt lat="45.92765" lon="4.73728">
        <ele>172</ele>
        <time>2018-03-18T11:42:08Z</time>
      </trkpt>
      <trkpt lat="45.9276" lon="4.73726">
        <ele>172</ele>
        <time>2018-03-18T11:42:09Z</time>
      </trkpt>
      <trkpt lat="45.92756" lon="4.73725">
        <ele>172</ele>
        <time>2018-03-18T11:42:10Z</time>
      </trkpt>
      <trkpt lat="45.9275" lon="4.73724">
        <ele>172</ele>
        <time>2018-03-18T11:42:11Z</time>
      </trkpt>
      <trkpt lat="45.92742" lon="4.73723">
        <ele>173</ele>
        <time>2018-03-18T11:42:13Z</time>
      </trkpt>
      <trkpt lat="45.92738" lon="4.73721">
        <ele>173</ele>
        <time>2018-03-18T11:42:14Z</time>
      </trkpt>
      <trkpt lat="45.92732" lon="4.7372">
        <ele>173</ele>
        <time>2018-03-18T11:42:15Z</time>
      </trkpt>
      <trkpt lat="45.92726" lon="4.73719">
        <ele>173</ele>
        <time>2018-03-18T11:42:16Z</time>
      </trkpt>
      <trkpt lat="45.92721" lon="4.73721">
        <ele>173</ele>
        <time>2018-03-18T11:42:17Z</time>
      </trkpt>
      <trkpt lat="45.92715" lon="4.7372">
        <ele>173</ele>
        <time>2018-03-18T11:42:18Z</time>
      </trkpt>
      <trkpt lat="45.92708" lon="4.73717">
        <ele>173</ele>
        <time>2018-03-18T11:42:19Z</time>
      </trkpt>
      <trkpt lat="45.92702" lon="4.73715">
        <ele>173</ele>
        <time>2018-03-18T11:42:20Z</time>
      </trkpt>
      <trkpt lat="45.92694" lon="4.73711">
        <ele>173</ele>
        <time>2018-03-18T11:42:22Z</time>
      </trkpt>
      <trkpt lat="45.92689" lon="4.73709">
        <ele>173</ele>
        <time>2018-03-18T11:42:23Z</time>
      </trkpt>
      <trkpt lat="45.92682" lon="4.73707">
        <ele>173</ele>
        <time>2018-03-18T11:42:24Z</time>
      </trkpt>
      <trkpt lat="45.92679" lon="4.73705">
        <ele>173</ele>
        <time>2018-03-18T11:42:25Z</time>
      </trkpt>
      <trkpt lat="45.92673" lon="4.73703">
        <ele>174</ele>
        <time>2018-03-18T11:42:26Z</time>
      </trkpt>
      <trkpt lat="45.92669" lon="4.737">
        <ele>174</ele>
        <time>2018-03-18T11:42:27Z</time>
      </trkpt>
      <trkpt lat="45.92663" lon="4.73696">
        <ele>173</ele>
        <time>2018-03-18T11:42:29Z</time>
      </trkpt>
      <trkpt lat="45.92654" lon="4.7369">
        <ele>173</ele>
        <time>2018-03-18T11:42:30Z</time>
      </trkpt>
      <trkpt lat="45.9265" lon="4.73687">
        <ele>173</ele>
        <time>2018-03-18T11:42:31Z</time>
      </trkpt>
      <trkpt lat="45.92646" lon="4.73684">
        <ele>173</ele>
        <time>2018-03-18T11:42:32Z</time>
      </trkpt>
      <trkpt lat="45.92641" lon="4.73675">
        <ele>173</ele>
        <time>2018-03-18T11:42:34Z</time>
      </trkpt>
      <trkpt lat="45.92638" lon="4.73669">
        <ele>173</ele>
        <time>2018-03-18T11:42:35Z</time>
      </trkpt>
      <trkpt lat="45.92634" lon="4.73665">
        <ele>173</ele>
        <time>2018-03-18T11:42:36Z</time>
      </trkpt>
      <trkpt lat="45.92631" lon="4.73658">
        <ele>173</ele>
        <time>2018-03-18T11:42:37Z</time>
      </trkpt>
      <trkpt lat="45.92628" lon="4.73651">
        <ele>173</ele>
        <time>2018-03-18T11:42:38Z</time>
      </trkpt>
      <trkpt lat="45.92625" lon="4.73646">
        <ele>173</ele>
        <time>2018-03-18T11:42:39Z</time>
      </trkpt>
      <trkpt lat="45.92623" lon="4.73638">
        <ele>173</ele>
        <time>2018-03-18T11:42:40Z</time>
      </trkpt>
      <trkpt lat="45.9262" lon="4.73632">
        <ele>173</ele>
        <time>2018-03-18T11:42:41Z</time>
      </trkpt>
      <trkpt lat="45.92616" lon="4.73628">
        <ele>173</ele>
        <time>2018-03-18T11:42:42Z</time>
      </trkpt>
      <trkpt lat="45.92612" lon="4.73625">
        <ele>173</ele>
        <time>2018-03-18T11:42:43Z</time>
      </trkpt>
      <trkpt lat="45.92606" lon="4.73622">
        <ele>173</ele>
        <time>2018-03-18T11:42:44Z</time>
      </trkpt>
      <trkpt lat="45.92599" lon="4.7362">
        <ele>173</ele>
        <time>2018-03-18T11:42:45Z</time>
      </trkpt>
      <trkpt lat="45.92595" lon="4.7362">
        <ele>173</ele>
        <time>2018-03-18T11:42:46Z</time>
      </trkpt>
      <trkpt lat="45.92589" lon="4.7362">
        <ele>173</ele>
        <time>2018-03-18T11:42:47Z</time>
      </trkpt>
      <trkpt lat="45.92584" lon="4.73622">
        <ele>173</ele>
        <time>2018-03-18T11:42:48Z</time>
      </trkpt>
      <trkpt lat="45.92579" lon="4.73625">
        <ele>173</ele>
        <time>2018-03-18T11:42:49Z</time>
      </trkpt>
      <trkpt lat="45.92574" lon="4.73626">
        <ele>173</ele>
        <time>2018-03-18T11:42:50Z</time>
      </trkpt>
      <trkpt lat="45.92565" lon="4.73628">
        <ele>173</ele>
        <time>2018-03-18T11:42:51Z</time>
      </trkpt>
      <trkpt lat="45.92559" lon="4.73629">
        <ele>173</ele>
        <time>2018-03-18T11:42:52Z</time>
      </trkpt>
      <trkpt lat="45.92553" lon="4.73631">
        <ele>173</ele>
        <time>2018-03-18T11:42:53Z</time>
      </trkpt>
      <trkpt lat="45.92549" lon="4.7363">
        <ele>173</ele>
        <time>2018-03-18T11:42:54Z</time>
      </trkpt>
      <trkpt lat="45.92542" lon="4.73632">
        <ele>173</ele>
        <time>2018-03-18T11:42:55Z</time>
      </trkpt>
      <trkpt lat="45.92537" lon="4.73633">
        <ele>173</ele>
        <time>2018-03-18T11:42:56Z</time>
      </trkpt>
      <trkpt lat="45.92533" lon="4.73635">
        <ele>173</ele>
        <time>2018-03-18T11:42:57Z</time>
      </trkpt>
      <trkpt lat="45.92526" lon="4.73636">
        <ele>173</ele>
        <time>2018-03-18T11:42:59Z</time>
      </trkpt>
      <trkpt lat="45.9252" lon="4.73636">
        <ele>173</ele>
        <time>2018-03-18T11:43:00Z</time>
      </trkpt>
      <trkpt lat="45.92516" lon="4.73637">
        <ele>173</ele>
        <time>2018-03-18T11:43:01Z</time>
      </trkpt>
      <trkpt lat="45.92511" lon="4.73636">
        <ele>173</ele>
        <time>2018-03-18T11:43:02Z</time>
      </trkpt>
      <trkpt lat="45.92506" lon="4.73636">
        <ele>174</ele>
        <time>2018-03-18T11:43:03Z</time>
      </trkpt>
      <trkpt lat="45.92497" lon="4.73638">
        <ele>174</ele>
        <time>2018-03-18T11:43:04Z</time>
      </trkpt>
      <trkpt lat="45.92488" lon="4.73639">
        <ele>174</ele>
        <time>2018-03-18T11:43:06Z</time>
      </trkpt>
      <trkpt lat="45.92484" lon="4.73639">
        <ele>174</ele>
        <time>2018-03-18T11:43:07Z</time>
      </trkpt>
      <trkpt lat="45.92479" lon="4.73639">
        <ele>174</ele>
        <time>2018-03-18T11:43:08Z</time>
      </trkpt>
      <trkpt lat="45.92475" lon="4.73639">
        <ele>174</ele>
        <time>2018-03-18T11:43:09Z</time>
      </trkpt>
      <trkpt lat="45.9247" lon="4.73643">
        <ele>174</ele>
        <time>2018-03-18T11:43:10Z</time>
      </trkpt>
      <trkpt lat="45.92467" lon="4.73646">
        <ele>174</ele>
        <time>2018-03-18T11:43:11Z</time>
      </trkpt>
      <trkpt lat="45.92464" lon="4.73658">
        <ele>174</ele>
        <time>2018-03-18T11:43:13Z</time>
      </trkpt>
      <trkpt lat="45.92463" lon="4.73664">
        <ele>174</ele>
        <time>2018-03-18T11:43:14Z</time>
      </trkpt>
      <trkpt lat="45.92462" lon="4.73676">
        <ele>174</ele>
        <time>2018-03-18T11:43:16Z</time>
      </trkpt>
      <trkpt lat="45.92462" lon="4.73682">
        <ele>174</ele>
        <time>2018-03-18T11:43:17Z</time>
      </trkpt>
      <trkpt lat="45.92462" lon="4.73692">
        <ele>174</ele>
        <time>2018-03-18T11:43:19Z</time>
      </trkpt>
      <trkpt lat="45.92461" lon="4.73695">
        <ele>174</ele>
        <time>2018-03-18T11:43:20Z</time>
      </trkpt>
      <trkpt lat="45.92462" lon="4.73707">
        <ele>174</ele>
        <time>2018-03-18T11:43:31Z</time>
      </trkpt>
      <trkpt lat="45.92463" lon="4.73708">
        <ele>174</ele>
        <time>2018-03-18T11:43:32Z</time>
      </trkpt>
      <trkpt lat="45.92464" lon="4.73709">
        <ele>174</ele>
        <time>2018-03-18T11:43:36Z</time>
      </trkpt>
      <trkpt lat="45.92464" lon="4.7371">
        <ele>174</ele>
        <time>2018-03-18T11:43:37Z</time>
      </trkpt>
      <trkpt lat="45.92466" lon="4.73712">
        <ele>174</ele>
        <time>2018-03-18T11:43:49Z</time>
      </trkpt>
      <trkpt lat="45.92466" lon="4.73712">
        <ele>174</ele>
        <time>2018-03-18T11:43:50Z</time>
      </trkpt>
      <trkpt lat="45.92464" lon="4.73714">
        <ele>174</ele>
        <time>2018-03-18T11:44:06.66Z</time>
      </trkpt>
    </trkseg>
  </trk>
</gpx>